<?xml version="1.0" encoding="UTF-8" standalone="no" ?>
<gpx xmlns="http://www.topografix.com/GPX/1/1" xmlns:xsi="http://www.w3.org/2001/XMLSchema-instance" xsi:schemaLocation="http://www.topografix.com/GPX/1/1 http://www.topografix.com/GPX/1/1/gpx.xsd" version="1.1" creator="VisuGPX - https://www.visugpx.com">
  <metadata>
    <name>Boucle Peyrieu 2018</name>
    <desc><![CDATA[Au départ du parking du tennis.
Ballade entre bois et plaine.
]]></desc>
  </metadata>
  <trk>
    <name><![CDATA[Boucle Peyrieu 2018_1]]></name>
    <trkseg>
      <trkpt lat="45.67625" lon="5.67938">
        <ele>227</ele>
        <time>2018-06-10T11:24:01Z</time>
      </trkpt>
      <trkpt lat="45.67625" lon="5.67938">
        <ele>227</ele>
        <time>2018-06-10T11:24:01Z</time>
      </trkpt>
      <trkpt lat="45.67626" lon="5.67936">
        <ele>227</ele>
        <time>2018-06-10T11:24:01Z</time>
      </trkpt>
      <trkpt lat="45.67629" lon="5.67932">
        <ele>227</ele>
        <time>2018-06-10T11:24:01Z</time>
      </trkpt>
      <trkpt lat="45.67633" lon="5.67927">
        <ele>227</ele>
        <time>2018-06-10T11:24:01Z</time>
      </trkpt>
      <trkpt lat="45.67635" lon="5.67924">
        <ele>227</ele>
        <time>2018-06-10T11:24:33Z</time>
      </trkpt>
      <trkpt lat="45.67635" lon="5.67924">
        <ele>227</ele>
        <time>2018-06-10T11:24:33Z</time>
      </trkpt>
      <trkpt lat="45.67637" lon="5.67918">
        <ele>227</ele>
        <time>2018-06-10T11:24:33Z</time>
      </trkpt>
      <trkpt lat="45.67638" lon="5.67909">
        <ele>227</ele>
        <time>2018-06-10T11:24:33Z</time>
      </trkpt>
      <trkpt lat="45.67639" lon="5.67901">
        <ele>227</ele>
        <time>2018-06-10T11:24:33Z</time>
      </trkpt>
      <trkpt lat="45.67643" lon="5.67897">
        <ele>227</ele>
        <time>2018-06-10T11:24:49Z</time>
      </trkpt>
      <trkpt lat="45.67647" lon="5.67897">
        <ele>227</ele>
        <time>2018-06-10T11:24:49Z</time>
      </trkpt>
      <trkpt lat="45.67651" lon="5.67898">
        <ele>227</ele>
        <time>2018-06-10T11:24:49Z</time>
      </trkpt>
      <trkpt lat="45.67657" lon="5.67898">
        <ele>227</ele>
        <time>2018-06-10T11:24:49Z</time>
      </trkpt>
      <trkpt lat="45.67662" lon="5.679">
        <ele>227</ele>
        <time>2018-06-10T11:25:05Z</time>
      </trkpt>
      <trkpt lat="45.67667" lon="5.67898">
        <ele>227</ele>
        <time>2018-06-10T11:25:05Z</time>
      </trkpt>
      <trkpt lat="45.67673" lon="5.67897">
        <ele>227</ele>
        <time>2018-06-10T11:25:05Z</time>
      </trkpt>
      <trkpt lat="45.67676" lon="5.67896">
        <ele>227</ele>
        <time>2018-06-10T11:25:05Z</time>
      </trkpt>
      <trkpt lat="45.67683" lon="5.67898">
        <ele>227</ele>
        <time>2018-06-10T11:25:21Z</time>
      </trkpt>
      <trkpt lat="45.67686" lon="5.67898">
        <ele>227</ele>
        <time>2018-06-10T11:25:21Z</time>
      </trkpt>
      <trkpt lat="45.6769" lon="5.67899">
        <ele>227</ele>
        <time>2018-06-10T11:25:21Z</time>
      </trkpt>
      <trkpt lat="45.67694" lon="5.679">
        <ele>227</ele>
        <time>2018-06-10T11:25:21Z</time>
      </trkpt>
      <trkpt lat="45.67695" lon="5.67897">
        <ele>227</ele>
        <time>2018-06-10T11:25:41Z</time>
      </trkpt>
      <trkpt lat="45.67697" lon="5.67894">
        <ele>227</ele>
        <time>2018-06-10T11:25:41Z</time>
      </trkpt>
      <trkpt lat="45.67699" lon="5.67896">
        <ele>227</ele>
        <time>2018-06-10T11:25:41Z</time>
      </trkpt>
      <trkpt lat="45.67704" lon="5.67899">
        <ele>227</ele>
        <time>2018-06-10T11:25:41Z</time>
      </trkpt>
      <trkpt lat="45.67709" lon="5.67893">
        <ele>228</ele>
        <time>2018-06-10T11:25:41Z</time>
      </trkpt>
      <trkpt lat="45.67704" lon="5.67889">
        <ele>227</ele>
        <time>2018-06-10T11:26:17Z</time>
      </trkpt>
      <trkpt lat="45.67704" lon="5.67889">
        <ele>227</ele>
        <time>2018-06-10T11:26:17Z</time>
      </trkpt>
      <trkpt lat="45.67706" lon="5.67884">
        <ele>227</ele>
        <time>2018-06-10T11:26:17Z</time>
      </trkpt>
      <trkpt lat="45.67708" lon="5.67878">
        <ele>227</ele>
        <time>2018-06-10T11:26:17Z</time>
      </trkpt>
      <trkpt lat="45.67706" lon="5.67871">
        <ele>231</ele>
        <time>2018-06-10T11:26:17Z</time>
      </trkpt>
      <trkpt lat="45.67705" lon="5.67864">
        <ele>231</ele>
        <time>2018-06-10T11:26:33Z</time>
      </trkpt>
      <trkpt lat="45.67702" lon="5.67857">
        <ele>231</ele>
        <time>2018-06-10T11:26:33Z</time>
      </trkpt>
      <trkpt lat="45.67699" lon="5.6785">
        <ele>231</ele>
        <time>2018-06-10T11:26:33Z</time>
      </trkpt>
      <trkpt lat="45.67697" lon="5.67844">
        <ele>231</ele>
        <time>2018-06-10T11:26:33Z</time>
      </trkpt>
      <trkpt lat="45.67695" lon="5.6784">
        <ele>231</ele>
        <time>2018-06-10T11:26:49Z</time>
      </trkpt>
      <trkpt lat="45.67694" lon="5.67834">
        <ele>231</ele>
        <time>2018-06-10T11:26:49Z</time>
      </trkpt>
      <trkpt lat="45.67694" lon="5.67827">
        <ele>231</ele>
        <time>2018-06-10T11:26:49Z</time>
      </trkpt>
      <trkpt lat="45.67692" lon="5.67819">
        <ele>231</ele>
        <time>2018-06-10T11:26:49Z</time>
      </trkpt>
      <trkpt lat="45.67691" lon="5.67812">
        <ele>231</ele>
        <time>2018-06-10T11:27:05Z</time>
      </trkpt>
      <trkpt lat="45.67689" lon="5.67805">
        <ele>231</ele>
        <time>2018-06-10T11:27:05Z</time>
      </trkpt>
      <trkpt lat="45.67685" lon="5.67797">
        <ele>231</ele>
        <time>2018-06-10T11:27:05Z</time>
      </trkpt>
      <trkpt lat="45.6768" lon="5.6779">
        <ele>233</ele>
        <time>2018-06-10T11:27:05Z</time>
      </trkpt>
      <trkpt lat="45.67679" lon="5.67784">
        <ele>233</ele>
        <time>2018-06-10T11:27:21Z</time>
      </trkpt>
      <trkpt lat="45.67676" lon="5.67778">
        <ele>233</ele>
        <time>2018-06-10T11:27:21Z</time>
      </trkpt>
      <trkpt lat="45.67675" lon="5.67772">
        <ele>233</ele>
        <time>2018-06-10T11:27:21Z</time>
      </trkpt>
      <trkpt lat="45.6767" lon="5.67771">
        <ele>233</ele>
        <time>2018-06-10T11:27:21Z</time>
      </trkpt>
      <trkpt lat="45.67668" lon="5.67764">
        <ele>233</ele>
        <time>2018-06-10T11:28:13Z</time>
      </trkpt>
      <trkpt lat="45.6767" lon="5.67763">
        <ele>233</ele>
        <time>2018-06-10T11:28:13Z</time>
      </trkpt>
      <trkpt lat="45.67674" lon="5.67759">
        <ele>233</ele>
        <time>2018-06-10T11:28:13Z</time>
      </trkpt>
      <trkpt lat="45.67676" lon="5.67756">
        <ele>233</ele>
        <time>2018-06-10T11:28:13Z</time>
      </trkpt>
      <trkpt lat="45.67678" lon="5.67753">
        <ele>233</ele>
        <time>2018-06-10T11:28:13Z</time>
      </trkpt>
      <trkpt lat="45.67679" lon="5.67746">
        <ele>233</ele>
        <time>2018-06-10T11:28:37Z</time>
      </trkpt>
      <trkpt lat="45.6768" lon="5.67744">
        <ele>233</ele>
        <time>2018-06-10T11:28:37Z</time>
      </trkpt>
      <trkpt lat="45.67683" lon="5.6774">
        <ele>233</ele>
        <time>2018-06-10T11:28:37Z</time>
      </trkpt>
      <trkpt lat="45.67684" lon="5.67739">
        <ele>233</ele>
        <time>2018-06-10T11:28:37Z</time>
      </trkpt>
      <trkpt lat="45.67687" lon="5.67737">
        <ele>233</ele>
        <time>2018-06-10T11:28:37Z</time>
      </trkpt>
      <trkpt lat="45.6769" lon="5.67732">
        <ele>233</ele>
        <time>2018-06-10T11:28:53Z</time>
      </trkpt>
      <trkpt lat="45.67693" lon="5.67724">
        <ele>233</ele>
        <time>2018-06-10T11:28:53Z</time>
      </trkpt>
      <trkpt lat="45.67695" lon="5.67716">
        <ele>233</ele>
        <time>2018-06-10T11:28:53Z</time>
      </trkpt>
      <trkpt lat="45.67697" lon="5.6771">
        <ele>233</ele>
        <time>2018-06-10T11:28:53Z</time>
      </trkpt>
      <trkpt lat="45.67701" lon="5.67707">
        <ele>238</ele>
        <time>2018-06-10T11:29:09Z</time>
      </trkpt>
      <trkpt lat="45.67704" lon="5.67704">
        <ele>238</ele>
        <time>2018-06-10T11:29:09Z</time>
      </trkpt>
      <trkpt lat="45.6771" lon="5.677">
        <ele>240</ele>
        <time>2018-06-10T11:29:09Z</time>
      </trkpt>
      <trkpt lat="45.67714" lon="5.67697">
        <ele>240</ele>
        <time>2018-06-10T11:29:09Z</time>
      </trkpt>
      <trkpt lat="45.67719" lon="5.67693">
        <ele>240</ele>
        <time>2018-06-10T11:29:25Z</time>
      </trkpt>
      <trkpt lat="45.67724" lon="5.67688">
        <ele>240</ele>
        <time>2018-06-10T11:29:25Z</time>
      </trkpt>
      <trkpt lat="45.67729" lon="5.67683">
        <ele>240</ele>
        <time>2018-06-10T11:29:25Z</time>
      </trkpt>
      <trkpt lat="45.67735" lon="5.6768">
        <ele>240</ele>
        <time>2018-06-10T11:29:25Z</time>
      </trkpt>
      <trkpt lat="45.67739" lon="5.67675">
        <ele>240</ele>
        <time>2018-06-10T11:29:41Z</time>
      </trkpt>
      <trkpt lat="45.67745" lon="5.67671">
        <ele>240</ele>
        <time>2018-06-10T11:29:41Z</time>
      </trkpt>
      <trkpt lat="45.6775" lon="5.67668">
        <ele>240</ele>
        <time>2018-06-10T11:29:41Z</time>
      </trkpt>
      <trkpt lat="45.67753" lon="5.67665">
        <ele>240</ele>
        <time>2018-06-10T11:29:41Z</time>
      </trkpt>
      <trkpt lat="45.67758" lon="5.67661">
        <ele>240</ele>
        <time>2018-06-10T11:29:57Z</time>
      </trkpt>
      <trkpt lat="45.67763" lon="5.67657">
        <ele>240</ele>
        <time>2018-06-10T11:29:57Z</time>
      </trkpt>
      <trkpt lat="45.67768" lon="5.67652">
        <ele>240</ele>
        <time>2018-06-10T11:29:57Z</time>
      </trkpt>
      <trkpt lat="45.67772" lon="5.67647">
        <ele>240</ele>
        <time>2018-06-10T11:29:57Z</time>
      </trkpt>
      <trkpt lat="45.67776" lon="5.67643">
        <ele>240</ele>
        <time>2018-06-10T11:30:13Z</time>
      </trkpt>
      <trkpt lat="45.6778" lon="5.67639">
        <ele>240</ele>
        <time>2018-06-10T11:30:13Z</time>
      </trkpt>
      <trkpt lat="45.67784" lon="5.67634">
        <ele>240</ele>
        <time>2018-06-10T11:30:13Z</time>
      </trkpt>
      <trkpt lat="45.6779" lon="5.67628">
        <ele>240</ele>
        <time>2018-06-10T11:30:13Z</time>
      </trkpt>
      <trkpt lat="45.67794" lon="5.67624">
        <ele>245</ele>
        <time>2018-06-10T11:30:29Z</time>
      </trkpt>
      <trkpt lat="45.67797" lon="5.67621">
        <ele>245</ele>
        <time>2018-06-10T11:30:29Z</time>
      </trkpt>
      <trkpt lat="45.67802" lon="5.67617">
        <ele>245</ele>
        <time>2018-06-10T11:30:29Z</time>
      </trkpt>
      <trkpt lat="45.67805" lon="5.67614">
        <ele>245</ele>
        <time>2018-06-10T11:30:29Z</time>
      </trkpt>
      <trkpt lat="45.67807" lon="5.67612">
        <ele>245</ele>
        <time>2018-06-10T11:30:45Z</time>
      </trkpt>
      <trkpt lat="45.67811" lon="5.6761">
        <ele>245</ele>
        <time>2018-06-10T11:30:45Z</time>
      </trkpt>
      <trkpt lat="45.67816" lon="5.67606">
        <ele>245</ele>
        <time>2018-06-10T11:30:45Z</time>
      </trkpt>
      <trkpt lat="45.6782" lon="5.67602">
        <ele>245</ele>
        <time>2018-06-10T11:30:45Z</time>
      </trkpt>
      <trkpt lat="45.67823" lon="5.67598">
        <ele>245</ele>
        <time>2018-06-10T11:31:01Z</time>
      </trkpt>
      <trkpt lat="45.67823" lon="5.67589">
        <ele>245</ele>
        <time>2018-06-10T11:31:01Z</time>
      </trkpt>
      <trkpt lat="45.67822" lon="5.67583">
        <ele>245</ele>
        <time>2018-06-10T11:31:01Z</time>
      </trkpt>
      <trkpt lat="45.67823" lon="5.67577">
        <ele>245</ele>
        <time>2018-06-10T11:31:01Z</time>
      </trkpt>
      <trkpt lat="45.67828" lon="5.67568">
        <ele>245</ele>
        <time>2018-06-10T11:34:05Z</time>
      </trkpt>
      <trkpt lat="45.67828" lon="5.67565">
        <ele>245</ele>
        <time>2018-06-10T11:34:05Z</time>
      </trkpt>
      <trkpt lat="45.67828" lon="5.67565">
        <ele>245</ele>
        <time>2018-06-10T11:34:05Z</time>
      </trkpt>
      <trkpt lat="45.67828" lon="5.67563">
        <ele>245</ele>
        <time>2018-06-10T11:34:05Z</time>
      </trkpt>
      <trkpt lat="45.67826" lon="5.67557">
        <ele>245</ele>
        <time>2018-06-10T11:34:05Z</time>
      </trkpt>
      <trkpt lat="45.67825" lon="5.6755">
        <ele>245</ele>
        <time>2018-06-10T11:34:21Z</time>
      </trkpt>
      <trkpt lat="45.67824" lon="5.67542">
        <ele>245</ele>
        <time>2018-06-10T11:34:21Z</time>
      </trkpt>
      <trkpt lat="45.67823" lon="5.67536">
        <ele>248</ele>
        <time>2018-06-10T11:34:21Z</time>
      </trkpt>
      <trkpt lat="45.67822" lon="5.67535">
        <ele>248</ele>
        <time>2018-06-10T11:34:21Z</time>
      </trkpt>
      <trkpt lat="45.67822" lon="5.67534">
        <ele>248</ele>
        <time>2018-06-10T11:34:49Z</time>
      </trkpt>
      <trkpt lat="45.67821" lon="5.67533">
        <ele>248</ele>
        <time>2018-06-10T11:34:49Z</time>
      </trkpt>
      <trkpt lat="45.67821" lon="5.67532">
        <ele>248</ele>
        <time>2018-06-10T11:34:49Z</time>
      </trkpt>
      <trkpt lat="45.67823" lon="5.67527">
        <ele>248</ele>
        <time>2018-06-10T11:34:49Z</time>
      </trkpt>
      <trkpt lat="45.67827" lon="5.67522">
        <ele>248</ele>
        <time>2018-06-10T11:34:49Z</time>
      </trkpt>
      <trkpt lat="45.67833" lon="5.67518">
        <ele>248</ele>
        <time>2018-06-10T11:35:05Z</time>
      </trkpt>
      <trkpt lat="45.67836" lon="5.67515">
        <ele>248</ele>
        <time>2018-06-10T11:35:05Z</time>
      </trkpt>
      <trkpt lat="45.6784" lon="5.6751">
        <ele>248</ele>
        <time>2018-06-10T11:35:05Z</time>
      </trkpt>
      <trkpt lat="45.67842" lon="5.67506">
        <ele>248</ele>
        <time>2018-06-10T11:35:05Z</time>
      </trkpt>
      <trkpt lat="45.67845" lon="5.67498">
        <ele>248</ele>
        <time>2018-06-10T11:35:21Z</time>
      </trkpt>
      <trkpt lat="45.67847" lon="5.6749">
        <ele>248</ele>
        <time>2018-06-10T11:35:21Z</time>
      </trkpt>
      <trkpt lat="45.67848" lon="5.67485">
        <ele>248</ele>
        <time>2018-06-10T11:35:21Z</time>
      </trkpt>
      <trkpt lat="45.67848" lon="5.67479">
        <ele>248</ele>
        <time>2018-06-10T11:35:21Z</time>
      </trkpt>
      <trkpt lat="45.67851" lon="5.67472">
        <ele>248</ele>
        <time>2018-06-10T11:35:37Z</time>
      </trkpt>
      <trkpt lat="45.67853" lon="5.67464">
        <ele>248</ele>
        <time>2018-06-10T11:35:37Z</time>
      </trkpt>
      <trkpt lat="45.67857" lon="5.67457">
        <ele>251</ele>
        <time>2018-06-10T11:35:37Z</time>
      </trkpt>
      <trkpt lat="45.6786" lon="5.67449">
        <ele>251</ele>
        <time>2018-06-10T11:35:37Z</time>
      </trkpt>
      <trkpt lat="45.67863" lon="5.67442">
        <ele>251</ele>
        <time>2018-06-10T11:35:53Z</time>
      </trkpt>
      <trkpt lat="45.67865" lon="5.67432">
        <ele>251</ele>
        <time>2018-06-10T11:35:53Z</time>
      </trkpt>
      <trkpt lat="45.67866" lon="5.67423">
        <ele>251</ele>
        <time>2018-06-10T11:35:53Z</time>
      </trkpt>
      <trkpt lat="45.67866" lon="5.67414">
        <ele>251</ele>
        <time>2018-06-10T11:35:53Z</time>
      </trkpt>
      <trkpt lat="45.67868" lon="5.67407">
        <ele>251</ele>
        <time>2018-06-10T11:36:09Z</time>
      </trkpt>
      <trkpt lat="45.67869" lon="5.67402">
        <ele>251</ele>
        <time>2018-06-10T11:36:09Z</time>
      </trkpt>
      <trkpt lat="45.67869" lon="5.67394">
        <ele>251</ele>
        <time>2018-06-10T11:36:09Z</time>
      </trkpt>
      <trkpt lat="45.67868" lon="5.67387">
        <ele>251</ele>
        <time>2018-06-10T11:36:09Z</time>
      </trkpt>
      <trkpt lat="45.67867" lon="5.6738">
        <ele>251</ele>
        <time>2018-06-10T11:36:25Z</time>
      </trkpt>
      <trkpt lat="45.67866" lon="5.67372">
        <ele>260</ele>
        <time>2018-06-10T11:36:25Z</time>
      </trkpt>
      <trkpt lat="45.67864" lon="5.67364">
        <ele>260</ele>
        <time>2018-06-10T11:36:25Z</time>
      </trkpt>
      <trkpt lat="45.67862" lon="5.67355">
        <ele>260</ele>
        <time>2018-06-10T11:36:25Z</time>
      </trkpt>
      <trkpt lat="45.67861" lon="5.67346">
        <ele>260</ele>
        <time>2018-06-10T11:36:41Z</time>
      </trkpt>
      <trkpt lat="45.6786" lon="5.67338">
        <ele>260</ele>
        <time>2018-06-10T11:36:41Z</time>
      </trkpt>
      <trkpt lat="45.67861" lon="5.67329">
        <ele>260</ele>
        <time>2018-06-10T11:36:41Z</time>
      </trkpt>
      <trkpt lat="45.6786" lon="5.67323">
        <ele>260</ele>
        <time>2018-06-10T11:36:41Z</time>
      </trkpt>
      <trkpt lat="45.67862" lon="5.67316">
        <ele>260</ele>
        <time>2018-06-10T11:36:57Z</time>
      </trkpt>
      <trkpt lat="45.67864" lon="5.67313">
        <ele>260</ele>
        <time>2018-06-10T11:36:57Z</time>
      </trkpt>
      <trkpt lat="45.67868" lon="5.67311">
        <ele>260</ele>
        <time>2018-06-10T11:36:57Z</time>
      </trkpt>
      <trkpt lat="45.6787" lon="5.67306">
        <ele>260</ele>
        <time>2018-06-10T11:36:57Z</time>
      </trkpt>
      <trkpt lat="45.67872" lon="5.673">
        <ele>260</ele>
        <time>2018-06-10T11:37:13Z</time>
      </trkpt>
      <trkpt lat="45.67873" lon="5.67295">
        <ele>260</ele>
        <time>2018-06-10T11:37:13Z</time>
      </trkpt>
      <trkpt lat="45.67875" lon="5.67291">
        <ele>266</ele>
        <time>2018-06-10T11:37:13Z</time>
      </trkpt>
      <trkpt lat="45.67878" lon="5.67285">
        <ele>266</ele>
        <time>2018-06-10T11:37:13Z</time>
      </trkpt>
      <trkpt lat="45.67881" lon="5.67281">
        <ele>266</ele>
        <time>2018-06-10T11:37:29Z</time>
      </trkpt>
      <trkpt lat="45.67884" lon="5.67278">
        <ele>266</ele>
        <time>2018-06-10T11:37:29Z</time>
      </trkpt>
      <trkpt lat="45.67888" lon="5.67275">
        <ele>266</ele>
        <time>2018-06-10T11:37:29Z</time>
      </trkpt>
      <trkpt lat="45.67897" lon="5.67269">
        <ele>266</ele>
        <time>2018-06-10T11:37:29Z</time>
      </trkpt>
      <trkpt lat="45.67902" lon="5.67264">
        <ele>266</ele>
        <time>2018-06-10T11:37:45Z</time>
      </trkpt>
      <trkpt lat="45.67908" lon="5.67258">
        <ele>266</ele>
        <time>2018-06-10T11:37:45Z</time>
      </trkpt>
      <trkpt lat="45.67912" lon="5.67254">
        <ele>266</ele>
        <time>2018-06-10T11:37:45Z</time>
      </trkpt>
      <trkpt lat="45.67921" lon="5.67248">
        <ele>266</ele>
        <time>2018-06-10T11:37:45Z</time>
      </trkpt>
      <trkpt lat="45.67926" lon="5.67241">
        <ele>266</ele>
        <time>2018-06-10T11:38:01Z</time>
      </trkpt>
      <trkpt lat="45.6793" lon="5.67234">
        <ele>266</ele>
        <time>2018-06-10T11:38:01Z</time>
      </trkpt>
      <trkpt lat="45.67933" lon="5.67229">
        <ele>266</ele>
        <time>2018-06-10T11:38:01Z</time>
      </trkpt>
      <trkpt lat="45.67937" lon="5.67224">
        <ele>266</ele>
        <time>2018-06-10T11:38:01Z</time>
      </trkpt>
      <trkpt lat="45.67939" lon="5.6722">
        <ele>266</ele>
        <time>2018-06-10T11:38:17Z</time>
      </trkpt>
      <trkpt lat="45.67946" lon="5.67211">
        <ele>266</ele>
        <time>2018-06-10T11:38:17Z</time>
      </trkpt>
      <trkpt lat="45.67951" lon="5.67205">
        <ele>291</ele>
        <time>2018-06-10T11:38:17Z</time>
      </trkpt>
      <trkpt lat="45.67954" lon="5.672">
        <ele>291</ele>
        <time>2018-06-10T11:38:17Z</time>
      </trkpt>
      <trkpt lat="45.67958" lon="5.67194">
        <ele>291</ele>
        <time>2018-06-10T11:38:33Z</time>
      </trkpt>
      <trkpt lat="45.67961" lon="5.67191">
        <ele>284</ele>
        <time>2018-06-10T11:38:33Z</time>
      </trkpt>
      <trkpt lat="45.67965" lon="5.67188">
        <ele>284</ele>
        <time>2018-06-10T11:38:33Z</time>
      </trkpt>
      <trkpt lat="45.6797" lon="5.67186">
        <ele>284</ele>
        <time>2018-06-10T11:38:33Z</time>
      </trkpt>
      <trkpt lat="45.67974" lon="5.67183">
        <ele>284</ele>
        <time>2018-06-10T11:38:49Z</time>
      </trkpt>
      <trkpt lat="45.67977" lon="5.67183">
        <ele>284</ele>
        <time>2018-06-10T11:38:49Z</time>
      </trkpt>
      <trkpt lat="45.67979" lon="5.67183">
        <ele>284</ele>
        <time>2018-06-10T11:38:49Z</time>
      </trkpt>
      <trkpt lat="45.67985" lon="5.67179">
        <ele>284</ele>
        <time>2018-06-10T11:38:49Z</time>
      </trkpt>
      <trkpt lat="45.6799" lon="5.67176">
        <ele>284</ele>
        <time>2018-06-10T11:39:05Z</time>
      </trkpt>
      <trkpt lat="45.67998" lon="5.67167">
        <ele>284</ele>
        <time>2018-06-10T11:39:05Z</time>
      </trkpt>
      <trkpt lat="45.68003" lon="5.67163">
        <ele>284</ele>
        <time>2018-06-10T11:39:05Z</time>
      </trkpt>
      <trkpt lat="45.68008" lon="5.67163">
        <ele>284</ele>
        <time>2018-06-10T11:39:05Z</time>
      </trkpt>
      <trkpt lat="45.68012" lon="5.6716">
        <ele>284</ele>
        <time>2018-06-10T11:39:25Z</time>
      </trkpt>
      <trkpt lat="45.68011" lon="5.67163">
        <ele>284</ele>
        <time>2018-06-10T11:39:25Z</time>
      </trkpt>
      <trkpt lat="45.68015" lon="5.6716">
        <ele>284</ele>
        <time>2018-06-10T11:39:25Z</time>
      </trkpt>
      <trkpt lat="45.68021" lon="5.67156">
        <ele>284</ele>
        <time>2018-06-10T11:39:25Z</time>
      </trkpt>
      <trkpt lat="45.68026" lon="5.6715">
        <ele>284</ele>
        <time>2018-06-10T11:39:25Z</time>
      </trkpt>
      <trkpt lat="45.68032" lon="5.67144">
        <ele>284</ele>
        <time>2018-06-10T11:39:41Z</time>
      </trkpt>
      <trkpt lat="45.68035" lon="5.67141">
        <ele>284</ele>
        <time>2018-06-10T11:39:41Z</time>
      </trkpt>
      <trkpt lat="45.68039" lon="5.67139">
        <ele>284</ele>
        <time>2018-06-10T11:39:41Z</time>
      </trkpt>
      <trkpt lat="45.68042" lon="5.67134">
        <ele>282</ele>
        <time>2018-06-10T11:39:41Z</time>
      </trkpt>
      <trkpt lat="45.68045" lon="5.6713">
        <ele>282</ele>
        <time>2018-06-10T11:39:57Z</time>
      </trkpt>
      <trkpt lat="45.68051" lon="5.67125">
        <ele>282</ele>
        <time>2018-06-10T11:39:57Z</time>
      </trkpt>
      <trkpt lat="45.68055" lon="5.67123">
        <ele>301</ele>
        <time>2018-06-10T11:39:57Z</time>
      </trkpt>
      <trkpt lat="45.68064" lon="5.67119">
        <ele>301</ele>
        <time>2018-06-10T11:39:57Z</time>
      </trkpt>
      <trkpt lat="45.6807" lon="5.67117">
        <ele>301</ele>
        <time>2018-06-10T11:40:13Z</time>
      </trkpt>
      <trkpt lat="45.68074" lon="5.67113">
        <ele>301</ele>
        <time>2018-06-10T11:40:13Z</time>
      </trkpt>
      <trkpt lat="45.68078" lon="5.6711">
        <ele>301</ele>
        <time>2018-06-10T11:40:13Z</time>
      </trkpt>
      <trkpt lat="45.68083" lon="5.67107">
        <ele>301</ele>
        <time>2018-06-10T11:40:13Z</time>
      </trkpt>
      <trkpt lat="45.68092" lon="5.67102">
        <ele>301</ele>
        <time>2018-06-10T11:40:29Z</time>
      </trkpt>
      <trkpt lat="45.68098" lon="5.67099">
        <ele>301</ele>
        <time>2018-06-10T11:40:29Z</time>
      </trkpt>
      <trkpt lat="45.68106" lon="5.67096">
        <ele>301</ele>
        <time>2018-06-10T11:40:29Z</time>
      </trkpt>
      <trkpt lat="45.68112" lon="5.67095">
        <ele>301</ele>
        <time>2018-06-10T11:40:29Z</time>
      </trkpt>
      <trkpt lat="45.6812" lon="5.67091">
        <ele>301</ele>
        <time>2018-06-10T11:40:45Z</time>
      </trkpt>
      <trkpt lat="45.68125" lon="5.67088">
        <ele>299</ele>
        <time>2018-06-10T11:40:45Z</time>
      </trkpt>
      <trkpt lat="45.6813" lon="5.67086">
        <ele>299</ele>
        <time>2018-06-10T11:40:45Z</time>
      </trkpt>
      <trkpt lat="45.68134" lon="5.67085">
        <ele>299</ele>
        <time>2018-06-10T11:40:45Z</time>
      </trkpt>
      <trkpt lat="45.68137" lon="5.67085">
        <ele>299</ele>
        <time>2018-06-10T11:41:01Z</time>
      </trkpt>
      <trkpt lat="45.68143" lon="5.67082">
        <ele>299</ele>
        <time>2018-06-10T11:41:01Z</time>
      </trkpt>
      <trkpt lat="45.68149" lon="5.6708">
        <ele>299</ele>
        <time>2018-06-10T11:41:01Z</time>
      </trkpt>
      <trkpt lat="45.68155" lon="5.67077">
        <ele>299</ele>
        <time>2018-06-10T11:41:01Z</time>
      </trkpt>
      <trkpt lat="45.6816" lon="5.67075">
        <ele>299</ele>
        <time>2018-06-10T11:41:17Z</time>
      </trkpt>
      <trkpt lat="45.68165" lon="5.67072">
        <ele>299</ele>
        <time>2018-06-10T11:41:17Z</time>
      </trkpt>
      <trkpt lat="45.68171" lon="5.67071">
        <ele>299</ele>
        <time>2018-06-10T11:41:17Z</time>
      </trkpt>
      <trkpt lat="45.68176" lon="5.67072">
        <ele>299</ele>
        <time>2018-06-10T11:41:17Z</time>
      </trkpt>
      <trkpt lat="45.68179" lon="5.67074">
        <ele>299</ele>
        <time>2018-06-10T11:41:33Z</time>
      </trkpt>
      <trkpt lat="45.68185" lon="5.67077">
        <ele>299</ele>
        <time>2018-06-10T11:41:33Z</time>
      </trkpt>
      <trkpt lat="45.6819" lon="5.6708">
        <ele>299</ele>
        <time>2018-06-10T11:41:33Z</time>
      </trkpt>
      <trkpt lat="45.68196" lon="5.6708">
        <ele>299</ele>
        <time>2018-06-10T11:41:33Z</time>
      </trkpt>
      <trkpt lat="45.68199" lon="5.67074">
        <ele>299</ele>
        <time>2018-06-10T11:41:49Z</time>
      </trkpt>
      <trkpt lat="45.68197" lon="5.67068">
        <ele>299</ele>
        <time>2018-06-10T11:41:49Z</time>
      </trkpt>
      <trkpt lat="45.68193" lon="5.67063">
        <ele>299</ele>
        <time>2018-06-10T11:41:49Z</time>
      </trkpt>
      <trkpt lat="45.6819" lon="5.67058">
        <ele>299</ele>
        <time>2018-06-10T11:41:49Z</time>
      </trkpt>
      <trkpt lat="45.68185" lon="5.67055">
        <ele>299</ele>
        <time>2018-06-10T11:42:05Z</time>
      </trkpt>
      <trkpt lat="45.68178" lon="5.67052">
        <ele>299</ele>
        <time>2018-06-10T11:42:05Z</time>
      </trkpt>
      <trkpt lat="45.68172" lon="5.67052">
        <ele>299</ele>
        <time>2018-06-10T11:42:05Z</time>
      </trkpt>
      <trkpt lat="45.68167" lon="5.67052">
        <ele>299</ele>
        <time>2018-06-10T11:42:05Z</time>
      </trkpt>
      <trkpt lat="45.6816" lon="5.67053">
        <ele>299</ele>
        <time>2018-06-10T11:42:25Z</time>
      </trkpt>
      <trkpt lat="45.68155" lon="5.67052">
        <ele>299</ele>
        <time>2018-06-10T11:42:25Z</time>
      </trkpt>
      <trkpt lat="45.68155" lon="5.67046">
        <ele>299</ele>
        <time>2018-06-10T11:42:25Z</time>
      </trkpt>
      <trkpt lat="45.68158" lon="5.67041">
        <ele>315</ele>
        <time>2018-06-10T11:42:25Z</time>
      </trkpt>
      <trkpt lat="45.68163" lon="5.67039">
        <ele>315</ele>
        <time>2018-06-10T11:42:25Z</time>
      </trkpt>
      <trkpt lat="45.68168" lon="5.67038">
        <ele>315</ele>
        <time>2018-06-10T11:42:41Z</time>
      </trkpt>
      <trkpt lat="45.68177" lon="5.67035">
        <ele>315</ele>
        <time>2018-06-10T11:42:41Z</time>
      </trkpt>
      <trkpt lat="45.68182" lon="5.67034">
        <ele>315</ele>
        <time>2018-06-10T11:42:41Z</time>
      </trkpt>
      <trkpt lat="45.68187" lon="5.67034">
        <ele>315</ele>
        <time>2018-06-10T11:42:41Z</time>
      </trkpt>
      <trkpt lat="45.68194" lon="5.67033">
        <ele>315</ele>
        <time>2018-06-10T11:42:57Z</time>
      </trkpt>
      <trkpt lat="45.68197" lon="5.67033">
        <ele>315</ele>
        <time>2018-06-10T11:42:57Z</time>
      </trkpt>
      <trkpt lat="45.68201" lon="5.67033">
        <ele>315</ele>
        <time>2018-06-10T11:42:57Z</time>
      </trkpt>
      <trkpt lat="45.68207" lon="5.67034">
        <ele>315</ele>
        <time>2018-06-10T11:42:57Z</time>
      </trkpt>
      <trkpt lat="45.68216" lon="5.67033">
        <ele>324</ele>
        <time>2018-06-10T11:43:13Z</time>
      </trkpt>
      <trkpt lat="45.6822" lon="5.67031">
        <ele>324</ele>
        <time>2018-06-10T11:43:13Z</time>
      </trkpt>
      <trkpt lat="45.68222" lon="5.67031">
        <ele>324</ele>
        <time>2018-06-10T11:43:13Z</time>
      </trkpt>
      <trkpt lat="45.68226" lon="5.67037">
        <ele>324</ele>
        <time>2018-06-10T11:43:13Z</time>
      </trkpt>
      <trkpt lat="45.6823" lon="5.67042">
        <ele>306</ele>
        <time>2018-06-10T11:43:29Z</time>
      </trkpt>
      <trkpt lat="45.68233" lon="5.67046">
        <ele>306</ele>
        <time>2018-06-10T11:43:29Z</time>
      </trkpt>
      <trkpt lat="45.68238" lon="5.67056">
        <ele>306</ele>
        <time>2018-06-10T11:43:29Z</time>
      </trkpt>
      <trkpt lat="45.6824" lon="5.67067">
        <ele>306</ele>
        <time>2018-06-10T11:43:29Z</time>
      </trkpt>
      <trkpt lat="45.6824" lon="5.67074">
        <ele>306</ele>
        <time>2018-06-10T11:43:49Z</time>
      </trkpt>
      <trkpt lat="45.68242" lon="5.6708">
        <ele>306</ele>
        <time>2018-06-10T11:43:49Z</time>
      </trkpt>
      <trkpt lat="45.68245" lon="5.67083">
        <ele>306</ele>
        <time>2018-06-10T11:43:49Z</time>
      </trkpt>
      <trkpt lat="45.68246" lon="5.67083">
        <ele>306</ele>
        <time>2018-06-10T11:43:49Z</time>
      </trkpt>
      <trkpt lat="45.68248" lon="5.67081">
        <ele>306</ele>
        <time>2018-06-10T11:43:49Z</time>
      </trkpt>
      <trkpt lat="45.68249" lon="5.67072">
        <ele>306</ele>
        <time>2018-06-10T11:44:05Z</time>
      </trkpt>
      <trkpt lat="45.68249" lon="5.67063">
        <ele>306</ele>
        <time>2018-06-10T11:44:05Z</time>
      </trkpt>
      <trkpt lat="45.68251" lon="5.67058">
        <ele>306</ele>
        <time>2018-06-10T11:44:05Z</time>
      </trkpt>
      <trkpt lat="45.68251" lon="5.67051">
        <ele>306</ele>
        <time>2018-06-10T11:44:05Z</time>
      </trkpt>
      <trkpt lat="45.6825" lon="5.67038">
        <ele>324</ele>
        <time>2018-06-10T11:44:29Z</time>
      </trkpt>
      <trkpt lat="45.6825" lon="5.67037">
        <ele>324</ele>
        <time>2018-06-10T11:44:29Z</time>
      </trkpt>
      <trkpt lat="45.68249" lon="5.67036">
        <ele>324</ele>
        <time>2018-06-10T11:44:29Z</time>
      </trkpt>
      <trkpt lat="45.68251" lon="5.67031">
        <ele>324</ele>
        <time>2018-06-10T11:44:29Z</time>
      </trkpt>
      <trkpt lat="45.6825" lon="5.67026">
        <ele>324</ele>
        <time>2018-06-10T11:44:29Z</time>
      </trkpt>
      <trkpt lat="45.68249" lon="5.6702">
        <ele>324</ele>
        <time>2018-06-10T11:44:45Z</time>
      </trkpt>
      <trkpt lat="45.68248" lon="5.67018">
        <ele>324</ele>
        <time>2018-06-10T11:44:45Z</time>
      </trkpt>
      <trkpt lat="45.68243" lon="5.67013">
        <ele>324</ele>
        <time>2018-06-10T11:44:45Z</time>
      </trkpt>
      <trkpt lat="45.6824" lon="5.67006">
        <ele>324</ele>
        <time>2018-06-10T11:44:45Z</time>
      </trkpt>
      <trkpt lat="45.68236" lon="5.66996">
        <ele>324</ele>
        <time>2018-06-10T11:45:01Z</time>
      </trkpt>
      <trkpt lat="45.68231" lon="5.66989">
        <ele>324</ele>
        <time>2018-06-10T11:45:01Z</time>
      </trkpt>
      <trkpt lat="45.68226" lon="5.66981">
        <ele>324</ele>
        <time>2018-06-10T11:45:01Z</time>
      </trkpt>
      <trkpt lat="45.68222" lon="5.66977">
        <ele>324</ele>
        <time>2018-06-10T11:45:01Z</time>
      </trkpt>
      <trkpt lat="45.68219" lon="5.66973">
        <ele>324</ele>
        <time>2018-06-10T11:45:17Z</time>
      </trkpt>
      <trkpt lat="45.68216" lon="5.66969">
        <ele>324</ele>
        <time>2018-06-10T11:45:17Z</time>
      </trkpt>
      <trkpt lat="45.68213" lon="5.66966">
        <ele>324</ele>
        <time>2018-06-10T11:45:17Z</time>
      </trkpt>
      <trkpt lat="45.68209" lon="5.66965">
        <ele>324</ele>
        <time>2018-06-10T11:45:17Z</time>
      </trkpt>
      <trkpt lat="45.68204" lon="5.66961">
        <ele>315</ele>
        <time>2018-06-10T11:45:33Z</time>
      </trkpt>
      <trkpt lat="45.68196" lon="5.6696">
        <ele>315</ele>
        <time>2018-06-10T11:45:33Z</time>
      </trkpt>
      <trkpt lat="45.68191" lon="5.66957">
        <ele>347</ele>
        <time>2018-06-10T11:45:33Z</time>
      </trkpt>
      <trkpt lat="45.68186" lon="5.66956">
        <ele>347</ele>
        <time>2018-06-10T11:45:33Z</time>
      </trkpt>
      <trkpt lat="45.68182" lon="5.66958">
        <ele>347</ele>
        <time>2018-06-10T11:45:53Z</time>
      </trkpt>
      <trkpt lat="45.68178" lon="5.66958">
        <ele>347</ele>
        <time>2018-06-10T11:45:53Z</time>
      </trkpt>
      <trkpt lat="45.68176" lon="5.66956">
        <ele>347</ele>
        <time>2018-06-10T11:45:53Z</time>
      </trkpt>
      <trkpt lat="45.68176" lon="5.66956">
        <ele>347</ele>
        <time>2018-06-10T11:45:53Z</time>
      </trkpt>
      <trkpt lat="45.68172" lon="5.66958">
        <ele>315</ele>
        <time>2018-06-10T11:45:53Z</time>
      </trkpt>
      <trkpt lat="45.68166" lon="5.66959">
        <ele>315</ele>
        <time>2018-06-10T11:46:09Z</time>
      </trkpt>
      <trkpt lat="45.68159" lon="5.66955">
        <ele>347</ele>
        <time>2018-06-10T11:46:09Z</time>
      </trkpt>
      <trkpt lat="45.68152" lon="5.66954">
        <ele>347</ele>
        <time>2018-06-10T11:46:09Z</time>
      </trkpt>
      <trkpt lat="45.68147" lon="5.66957">
        <ele>347</ele>
        <time>2018-06-10T11:46:09Z</time>
      </trkpt>
      <trkpt lat="45.68143" lon="5.66956">
        <ele>347</ele>
        <time>2018-06-10T11:46:25Z</time>
      </trkpt>
      <trkpt lat="45.6814" lon="5.66954">
        <ele>347</ele>
        <time>2018-06-10T11:46:25Z</time>
      </trkpt>
      <trkpt lat="45.68133" lon="5.66953">
        <ele>347</ele>
        <time>2018-06-10T11:46:25Z</time>
      </trkpt>
      <trkpt lat="45.68127" lon="5.66954">
        <ele>347</ele>
        <time>2018-06-10T11:46:25Z</time>
      </trkpt>
      <trkpt lat="45.68122" lon="5.66957">
        <ele>354</ele>
        <time>2018-06-10T11:46:41Z</time>
      </trkpt>
      <trkpt lat="45.68115" lon="5.6696">
        <ele>328</ele>
        <time>2018-06-10T11:46:41Z</time>
      </trkpt>
      <trkpt lat="45.68109" lon="5.66964">
        <ele>328</ele>
        <time>2018-06-10T11:46:41Z</time>
      </trkpt>
      <trkpt lat="45.68104" lon="5.66962">
        <ele>328</ele>
        <time>2018-06-10T11:46:41Z</time>
      </trkpt>
      <trkpt lat="45.68104" lon="5.66957">
        <ele>354</ele>
        <time>2018-06-10T11:46:57Z</time>
      </trkpt>
      <trkpt lat="45.68105" lon="5.66956">
        <ele>354</ele>
        <time>2018-06-10T11:46:57Z</time>
      </trkpt>
      <trkpt lat="45.68108" lon="5.66955">
        <ele>354</ele>
        <time>2018-06-10T11:46:57Z</time>
      </trkpt>
      <trkpt lat="45.68112" lon="5.66951">
        <ele>354</ele>
        <time>2018-06-10T11:46:57Z</time>
      </trkpt>
      <trkpt lat="45.68114" lon="5.66947">
        <ele>354</ele>
        <time>2018-06-10T11:47:13Z</time>
      </trkpt>
      <trkpt lat="45.68115" lon="5.66943">
        <ele>354</ele>
        <time>2018-06-10T11:47:13Z</time>
      </trkpt>
      <trkpt lat="45.68117" lon="5.66939">
        <ele>354</ele>
        <time>2018-06-10T11:47:13Z</time>
      </trkpt>
      <trkpt lat="45.68119" lon="5.66935">
        <ele>354</ele>
        <time>2018-06-10T11:47:13Z</time>
      </trkpt>
      <trkpt lat="45.68123" lon="5.66933">
        <ele>354</ele>
        <time>2018-06-10T11:47:29Z</time>
      </trkpt>
      <trkpt lat="45.68129" lon="5.6693">
        <ele>347</ele>
        <time>2018-06-10T11:47:29Z</time>
      </trkpt>
      <trkpt lat="45.68136" lon="5.66924">
        <ele>347</ele>
        <time>2018-06-10T11:47:29Z</time>
      </trkpt>
      <trkpt lat="45.68139" lon="5.66922">
        <ele>347</ele>
        <time>2018-06-10T11:47:29Z</time>
      </trkpt>
      <trkpt lat="45.68148" lon="5.66916">
        <ele>347</ele>
        <time>2018-06-10T11:47:45Z</time>
      </trkpt>
      <trkpt lat="45.68154" lon="5.66912">
        <ele>347</ele>
        <time>2018-06-10T11:47:45Z</time>
      </trkpt>
      <trkpt lat="45.68158" lon="5.66909">
        <ele>347</ele>
        <time>2018-06-10T11:47:45Z</time>
      </trkpt>
      <trkpt lat="45.68164" lon="5.66908">
        <ele>347</ele>
        <time>2018-06-10T11:47:45Z</time>
      </trkpt>
      <trkpt lat="45.68168" lon="5.66905">
        <ele>347</ele>
        <time>2018-06-10T11:48:01Z</time>
      </trkpt>
      <trkpt lat="45.6817" lon="5.66902">
        <ele>347</ele>
        <time>2018-06-10T11:48:01Z</time>
      </trkpt>
      <trkpt lat="45.68173" lon="5.669">
        <ele>347</ele>
        <time>2018-06-10T11:48:01Z</time>
      </trkpt>
      <trkpt lat="45.68179" lon="5.669">
        <ele>347</ele>
        <time>2018-06-10T11:48:01Z</time>
      </trkpt>
      <trkpt lat="45.68193" lon="5.669">
        <ele>347</ele>
        <time>2018-06-10T11:48:17Z</time>
      </trkpt>
      <trkpt lat="45.682" lon="5.669">
        <ele>347</ele>
        <time>2018-06-10T11:48:17Z</time>
      </trkpt>
      <trkpt lat="45.68204" lon="5.66897">
        <ele>347</ele>
        <time>2018-06-10T11:48:17Z</time>
      </trkpt>
      <trkpt lat="45.68209" lon="5.66894">
        <ele>342</ele>
        <time>2018-06-10T11:48:17Z</time>
      </trkpt>
      <trkpt lat="45.68215" lon="5.6689">
        <ele>342</ele>
        <time>2018-06-10T11:48:33Z</time>
      </trkpt>
      <trkpt lat="45.68218" lon="5.66888">
        <ele>342</ele>
        <time>2018-06-10T11:48:33Z</time>
      </trkpt>
      <trkpt lat="45.68222" lon="5.66884">
        <ele>342</ele>
        <time>2018-06-10T11:48:33Z</time>
      </trkpt>
      <trkpt lat="45.68227" lon="5.66882">
        <ele>342</ele>
        <time>2018-06-10T11:48:33Z</time>
      </trkpt>
      <trkpt lat="45.68233" lon="5.66878">
        <ele>342</ele>
        <time>2018-06-10T11:48:49Z</time>
      </trkpt>
      <trkpt lat="45.68238" lon="5.66875">
        <ele>342</ele>
        <time>2018-06-10T11:48:49Z</time>
      </trkpt>
      <trkpt lat="45.68243" lon="5.66874">
        <ele>366</ele>
        <time>2018-06-10T11:48:49Z</time>
      </trkpt>
      <trkpt lat="45.68249" lon="5.66872">
        <ele>366</ele>
        <time>2018-06-10T11:48:49Z</time>
      </trkpt>
      <trkpt lat="45.68253" lon="5.6687">
        <ele>366</ele>
        <time>2018-06-10T11:49:05Z</time>
      </trkpt>
      <trkpt lat="45.6826" lon="5.66868">
        <ele>366</ele>
        <time>2018-06-10T11:49:05Z</time>
      </trkpt>
      <trkpt lat="45.68264" lon="5.66865">
        <ele>366</ele>
        <time>2018-06-10T11:49:05Z</time>
      </trkpt>
      <trkpt lat="45.68267" lon="5.66863">
        <ele>366</ele>
        <time>2018-06-10T11:49:05Z</time>
      </trkpt>
      <trkpt lat="45.68271" lon="5.66857">
        <ele>366</ele>
        <time>2018-06-10T11:49:21Z</time>
      </trkpt>
      <trkpt lat="45.68276" lon="5.6685">
        <ele>366</ele>
        <time>2018-06-10T11:49:21Z</time>
      </trkpt>
      <trkpt lat="45.68279" lon="5.66845">
        <ele>366</ele>
        <time>2018-06-10T11:49:21Z</time>
      </trkpt>
      <trkpt lat="45.68282" lon="5.6684">
        <ele>366</ele>
        <time>2018-06-10T11:49:21Z</time>
      </trkpt>
      <trkpt lat="45.68285" lon="5.66837">
        <ele>366</ele>
        <time>2018-06-10T11:49:37Z</time>
      </trkpt>
      <trkpt lat="45.68288" lon="5.66836">
        <ele>366</ele>
        <time>2018-06-10T11:49:37Z</time>
      </trkpt>
      <trkpt lat="45.68294" lon="5.66833">
        <ele>355</ele>
        <time>2018-06-10T11:49:37Z</time>
      </trkpt>
      <trkpt lat="45.68299" lon="5.66824">
        <ele>355</ele>
        <time>2018-06-10T11:49:37Z</time>
      </trkpt>
      <trkpt lat="45.68304" lon="5.66819">
        <ele>355</ele>
        <time>2018-06-10T11:49:53Z</time>
      </trkpt>
      <trkpt lat="45.68307" lon="5.66814">
        <ele>355</ele>
        <time>2018-06-10T11:49:53Z</time>
      </trkpt>
      <trkpt lat="45.68309" lon="5.66809">
        <ele>355</ele>
        <time>2018-06-10T11:49:53Z</time>
      </trkpt>
      <trkpt lat="45.68312" lon="5.66806">
        <ele>355</ele>
        <time>2018-06-10T11:49:53Z</time>
      </trkpt>
      <trkpt lat="45.68318" lon="5.66803">
        <ele>355</ele>
        <time>2018-06-10T11:50:09Z</time>
      </trkpt>
      <trkpt lat="45.68322" lon="5.66801">
        <ele>355</ele>
        <time>2018-06-10T11:50:09Z</time>
      </trkpt>
      <trkpt lat="45.68323" lon="5.66797">
        <ele>355</ele>
        <time>2018-06-10T11:50:09Z</time>
      </trkpt>
      <trkpt lat="45.68328" lon="5.66793">
        <ele>355</ele>
        <time>2018-06-10T11:50:09Z</time>
      </trkpt>
      <trkpt lat="45.68334" lon="5.66784">
        <ele>381</ele>
        <time>2018-06-10T11:50:25Z</time>
      </trkpt>
      <trkpt lat="45.68336" lon="5.66776">
        <ele>381</ele>
        <time>2018-06-10T11:50:25Z</time>
      </trkpt>
      <trkpt lat="45.68339" lon="5.66773">
        <ele>381</ele>
        <time>2018-06-10T11:50:25Z</time>
      </trkpt>
      <trkpt lat="45.68344" lon="5.6677">
        <ele>381</ele>
        <time>2018-06-10T11:50:25Z</time>
      </trkpt>
      <trkpt lat="45.68351" lon="5.66771">
        <ele>381</ele>
        <time>2018-06-10T11:50:41Z</time>
      </trkpt>
      <trkpt lat="45.68359" lon="5.66767">
        <ele>381</ele>
        <time>2018-06-10T11:50:41Z</time>
      </trkpt>
      <trkpt lat="45.68367" lon="5.66766">
        <ele>381</ele>
        <time>2018-06-10T11:50:41Z</time>
      </trkpt>
      <trkpt lat="45.68371" lon="5.66765">
        <ele>381</ele>
        <time>2018-06-10T11:50:41Z</time>
      </trkpt>
      <trkpt lat="45.68374" lon="5.66764">
        <ele>381</ele>
        <time>2018-06-10T11:50:57Z</time>
      </trkpt>
      <trkpt lat="45.68378" lon="5.66762">
        <ele>371</ele>
        <time>2018-06-10T11:50:57Z</time>
      </trkpt>
      <trkpt lat="45.68383" lon="5.66759">
        <ele>371</ele>
        <time>2018-06-10T11:50:57Z</time>
      </trkpt>
      <trkpt lat="45.68386" lon="5.66762">
        <ele>371</ele>
        <time>2018-06-10T11:50:57Z</time>
      </trkpt>
      <trkpt lat="45.68397" lon="5.66763">
        <ele>371</ele>
        <time>2018-06-10T11:51:13Z</time>
      </trkpt>
      <trkpt lat="45.68405" lon="5.66762">
        <ele>371</ele>
        <time>2018-06-10T11:51:13Z</time>
      </trkpt>
      <trkpt lat="45.6841" lon="5.6676">
        <ele>371</ele>
        <time>2018-06-10T11:51:13Z</time>
      </trkpt>
      <trkpt lat="45.68415" lon="5.6676">
        <ele>371</ele>
        <time>2018-06-10T11:51:13Z</time>
      </trkpt>
      <trkpt lat="45.68419" lon="5.66759">
        <ele>371</ele>
        <time>2018-06-10T11:51:29Z</time>
      </trkpt>
      <trkpt lat="45.68424" lon="5.66759">
        <ele>371</ele>
        <time>2018-06-10T11:51:29Z</time>
      </trkpt>
      <trkpt lat="45.68429" lon="5.66757">
        <ele>371</ele>
        <time>2018-06-10T11:51:29Z</time>
      </trkpt>
      <trkpt lat="45.68432" lon="5.66755">
        <ele>371</ele>
        <time>2018-06-10T11:51:29Z</time>
      </trkpt>
      <trkpt lat="45.68437" lon="5.66754">
        <ele>371</ele>
        <time>2018-06-10T11:51:45Z</time>
      </trkpt>
      <trkpt lat="45.68443" lon="5.66755">
        <ele>371</ele>
        <time>2018-06-10T11:51:45Z</time>
      </trkpt>
      <trkpt lat="45.68447" lon="5.66753">
        <ele>371</ele>
        <time>2018-06-10T11:51:45Z</time>
      </trkpt>
      <trkpt lat="45.68453" lon="5.66751">
        <ele>371</ele>
        <time>2018-06-10T11:51:45Z</time>
      </trkpt>
      <trkpt lat="45.68459" lon="5.6675">
        <ele>367</ele>
        <time>2018-06-10T11:52:01Z</time>
      </trkpt>
      <trkpt lat="45.68468" lon="5.66751">
        <ele>367</ele>
        <time>2018-06-10T11:52:01Z</time>
      </trkpt>
      <trkpt lat="45.68474" lon="5.66752">
        <ele>367</ele>
        <time>2018-06-10T11:52:01Z</time>
      </trkpt>
      <trkpt lat="45.68479" lon="5.66752">
        <ele>367</ele>
        <time>2018-06-10T11:52:01Z</time>
      </trkpt>
      <trkpt lat="45.68485" lon="5.66751">
        <ele>367</ele>
        <time>2018-06-10T11:52:17Z</time>
      </trkpt>
      <trkpt lat="45.6849" lon="5.66749">
        <ele>367</ele>
        <time>2018-06-10T11:52:17Z</time>
      </trkpt>
      <trkpt lat="45.68494" lon="5.66746">
        <ele>367</ele>
        <time>2018-06-10T11:52:17Z</time>
      </trkpt>
      <trkpt lat="45.68498" lon="5.66745">
        <ele>367</ele>
        <time>2018-06-10T11:52:17Z</time>
      </trkpt>
      <trkpt lat="45.68503" lon="5.66743">
        <ele>367</ele>
        <time>2018-06-10T11:52:33Z</time>
      </trkpt>
      <trkpt lat="45.6851" lon="5.66741">
        <ele>367</ele>
        <time>2018-06-10T11:52:33Z</time>
      </trkpt>
      <trkpt lat="45.68516" lon="5.6674">
        <ele>367</ele>
        <time>2018-06-10T11:52:33Z</time>
      </trkpt>
      <trkpt lat="45.6852" lon="5.66739">
        <ele>367</ele>
        <time>2018-06-10T11:52:33Z</time>
      </trkpt>
      <trkpt lat="45.68524" lon="5.66737">
        <ele>367</ele>
        <time>2018-06-10T11:52:49Z</time>
      </trkpt>
      <trkpt lat="45.6853" lon="5.66738">
        <ele>367</ele>
        <time>2018-06-10T11:52:49Z</time>
      </trkpt>
      <trkpt lat="45.68539" lon="5.66733">
        <ele>367</ele>
        <time>2018-06-10T11:52:49Z</time>
      </trkpt>
      <trkpt lat="45.68541" lon="5.66733">
        <ele>367</ele>
        <time>2018-06-10T11:52:49Z</time>
      </trkpt>
      <trkpt lat="45.68545" lon="5.66731">
        <ele>350</ele>
        <time>2018-06-10T11:53:05Z</time>
      </trkpt>
      <trkpt lat="45.6855" lon="5.66728">
        <ele>350</ele>
        <time>2018-06-10T11:53:05Z</time>
      </trkpt>
      <trkpt lat="45.68557" lon="5.66725">
        <ele>350</ele>
        <time>2018-06-10T11:53:05Z</time>
      </trkpt>
      <trkpt lat="45.68564" lon="5.66723">
        <ele>350</ele>
        <time>2018-06-10T11:53:05Z</time>
      </trkpt>
      <trkpt lat="45.6857" lon="5.66722">
        <ele>350</ele>
        <time>2018-06-10T11:53:21Z</time>
      </trkpt>
      <trkpt lat="45.68575" lon="5.6672">
        <ele>350</ele>
        <time>2018-06-10T11:53:21Z</time>
      </trkpt>
      <trkpt lat="45.68579" lon="5.66718">
        <ele>350</ele>
        <time>2018-06-10T11:53:21Z</time>
      </trkpt>
      <trkpt lat="45.68581" lon="5.66718">
        <ele>350</ele>
        <time>2018-06-10T11:53:21Z</time>
      </trkpt>
      <trkpt lat="45.68584" lon="5.66715">
        <ele>350</ele>
        <time>2018-06-10T11:53:37Z</time>
      </trkpt>
      <trkpt lat="45.68588" lon="5.66709">
        <ele>350</ele>
        <time>2018-06-10T11:53:37Z</time>
      </trkpt>
      <trkpt lat="45.68594" lon="5.66707">
        <ele>373</ele>
        <time>2018-06-10T11:53:37Z</time>
      </trkpt>
      <trkpt lat="45.686" lon="5.66705">
        <ele>373</ele>
        <time>2018-06-10T11:53:37Z</time>
      </trkpt>
      <trkpt lat="45.68604" lon="5.66704">
        <ele>373</ele>
        <time>2018-06-10T11:53:53Z</time>
      </trkpt>
      <trkpt lat="45.68607" lon="5.66702">
        <ele>373</ele>
        <time>2018-06-10T11:53:53Z</time>
      </trkpt>
      <trkpt lat="45.6861" lon="5.66698">
        <ele>373</ele>
        <time>2018-06-10T11:53:53Z</time>
      </trkpt>
      <trkpt lat="45.68615" lon="5.66688">
        <ele>373</ele>
        <time>2018-06-10T11:53:53Z</time>
      </trkpt>
      <trkpt lat="45.68616" lon="5.66681">
        <ele>373</ele>
        <time>2018-06-10T11:54:09Z</time>
      </trkpt>
      <trkpt lat="45.68614" lon="5.66671">
        <ele>373</ele>
        <time>2018-06-10T11:54:09Z</time>
      </trkpt>
      <trkpt lat="45.68613" lon="5.66664">
        <ele>373</ele>
        <time>2018-06-10T11:54:09Z</time>
      </trkpt>
      <trkpt lat="45.68611" lon="5.66657">
        <ele>373</ele>
        <time>2018-06-10T11:54:09Z</time>
      </trkpt>
      <trkpt lat="45.68609" lon="5.66649">
        <ele>373</ele>
        <time>2018-06-10T11:54:25Z</time>
      </trkpt>
      <trkpt lat="45.68607" lon="5.66639">
        <ele>373</ele>
        <time>2018-06-10T11:54:25Z</time>
      </trkpt>
      <trkpt lat="45.68604" lon="5.6663">
        <ele>373</ele>
        <time>2018-06-10T11:54:25Z</time>
      </trkpt>
      <trkpt lat="45.68604" lon="5.66622">
        <ele>375</ele>
        <time>2018-06-10T11:54:25Z</time>
      </trkpt>
      <trkpt lat="45.68604" lon="5.66616">
        <ele>375</ele>
        <time>2018-06-10T11:54:41Z</time>
      </trkpt>
      <trkpt lat="45.68602" lon="5.66609">
        <ele>375</ele>
        <time>2018-06-10T11:54:41Z</time>
      </trkpt>
      <trkpt lat="45.686" lon="5.66601">
        <ele>375</ele>
        <time>2018-06-10T11:54:41Z</time>
      </trkpt>
      <trkpt lat="45.68599" lon="5.66594">
        <ele>375</ele>
        <time>2018-06-10T11:54:41Z</time>
      </trkpt>
      <trkpt lat="45.68598" lon="5.66587">
        <ele>375</ele>
        <time>2018-06-10T11:54:57Z</time>
      </trkpt>
      <trkpt lat="45.68598" lon="5.6658">
        <ele>375</ele>
        <time>2018-06-10T11:54:57Z</time>
      </trkpt>
      <trkpt lat="45.68596" lon="5.66574">
        <ele>375</ele>
        <time>2018-06-10T11:54:57Z</time>
      </trkpt>
      <trkpt lat="45.68595" lon="5.66566">
        <ele>375</ele>
        <time>2018-06-10T11:54:57Z</time>
      </trkpt>
      <trkpt lat="45.68593" lon="5.6656">
        <ele>375</ele>
        <time>2018-06-10T11:55:13Z</time>
      </trkpt>
      <trkpt lat="45.68591" lon="5.66554">
        <ele>375</ele>
        <time>2018-06-10T11:55:13Z</time>
      </trkpt>
      <trkpt lat="45.68588" lon="5.66545">
        <ele>375</ele>
        <time>2018-06-10T11:55:13Z</time>
      </trkpt>
      <trkpt lat="45.68584" lon="5.66535">
        <ele>375</ele>
        <time>2018-06-10T11:55:13Z</time>
      </trkpt>
      <trkpt lat="45.68581" lon="5.6653">
        <ele>375</ele>
        <time>2018-06-10T11:55:29Z</time>
      </trkpt>
      <trkpt lat="45.68578" lon="5.66522">
        <ele>375</ele>
        <time>2018-06-10T11:55:29Z</time>
      </trkpt>
      <trkpt lat="45.68571" lon="5.66513">
        <ele>375</ele>
        <time>2018-06-10T11:55:29Z</time>
      </trkpt>
      <trkpt lat="45.68565" lon="5.66508">
        <ele>375</ele>
        <time>2018-06-10T11:55:29Z</time>
      </trkpt>
      <trkpt lat="45.6856" lon="5.66502">
        <ele>375</ele>
        <time>2018-06-10T11:55:45Z</time>
      </trkpt>
      <trkpt lat="45.68556" lon="5.66498">
        <ele>375</ele>
        <time>2018-06-10T11:55:45Z</time>
      </trkpt>
      <trkpt lat="45.68554" lon="5.66496">
        <ele>375</ele>
        <time>2018-06-10T11:55:45Z</time>
      </trkpt>
      <trkpt lat="45.68551" lon="5.66491">
        <ele>375</ele>
        <time>2018-06-10T11:55:45Z</time>
      </trkpt>
      <trkpt lat="45.68545" lon="5.66483">
        <ele>375</ele>
        <time>2018-06-10T11:56:01Z</time>
      </trkpt>
      <trkpt lat="45.68541" lon="5.66477">
        <ele>391</ele>
        <time>2018-06-10T11:56:01Z</time>
      </trkpt>
      <trkpt lat="45.68537" lon="5.6647">
        <ele>391</ele>
        <time>2018-06-10T11:56:01Z</time>
      </trkpt>
      <trkpt lat="45.68534" lon="5.66463">
        <ele>391</ele>
        <time>2018-06-10T11:56:01Z</time>
      </trkpt>
      <trkpt lat="45.6853" lon="5.66457">
        <ele>379</ele>
        <time>2018-06-10T11:56:17Z</time>
      </trkpt>
      <trkpt lat="45.68526" lon="5.66451">
        <ele>379</ele>
        <time>2018-06-10T11:56:17Z</time>
      </trkpt>
      <trkpt lat="45.68521" lon="5.66443">
        <ele>379</ele>
        <time>2018-06-10T11:56:17Z</time>
      </trkpt>
      <trkpt lat="45.68516" lon="5.66436">
        <ele>379</ele>
        <time>2018-06-10T11:56:17Z</time>
      </trkpt>
      <trkpt lat="45.68512" lon="5.66423">
        <ele>379</ele>
        <time>2018-06-10T11:56:33Z</time>
      </trkpt>
      <trkpt lat="45.68507" lon="5.66416">
        <ele>379</ele>
        <time>2018-06-10T11:56:33Z</time>
      </trkpt>
      <trkpt lat="45.68504" lon="5.66409">
        <ele>379</ele>
        <time>2018-06-10T11:56:33Z</time>
      </trkpt>
      <trkpt lat="45.68501" lon="5.66401">
        <ele>379</ele>
        <time>2018-06-10T11:56:33Z</time>
      </trkpt>
      <trkpt lat="45.68498" lon="5.66396">
        <ele>379</ele>
        <time>2018-06-10T11:56:49Z</time>
      </trkpt>
      <trkpt lat="45.68495" lon="5.66391">
        <ele>379</ele>
        <time>2018-06-10T11:56:49Z</time>
      </trkpt>
      <trkpt lat="45.68493" lon="5.66386">
        <ele>379</ele>
        <time>2018-06-10T11:56:49Z</time>
      </trkpt>
      <trkpt lat="45.6849" lon="5.66376">
        <ele>379</ele>
        <time>2018-06-10T11:56:49Z</time>
      </trkpt>
      <trkpt lat="45.68485" lon="5.66367">
        <ele>366</ele>
        <time>2018-06-10T11:57:05Z</time>
      </trkpt>
      <trkpt lat="45.68482" lon="5.66359">
        <ele>366</ele>
        <time>2018-06-10T11:57:05Z</time>
      </trkpt>
      <trkpt lat="45.68478" lon="5.66352">
        <ele>366</ele>
        <time>2018-06-10T11:57:05Z</time>
      </trkpt>
      <trkpt lat="45.68475" lon="5.66346">
        <ele>366</ele>
        <time>2018-06-10T11:57:05Z</time>
      </trkpt>
      <trkpt lat="45.68472" lon="5.66338">
        <ele>366</ele>
        <time>2018-06-10T11:57:21Z</time>
      </trkpt>
      <trkpt lat="45.6847" lon="5.66331">
        <ele>366</ele>
        <time>2018-06-10T11:57:21Z</time>
      </trkpt>
      <trkpt lat="45.68467" lon="5.66326">
        <ele>366</ele>
        <time>2018-06-10T11:57:21Z</time>
      </trkpt>
      <trkpt lat="45.68467" lon="5.66326">
        <ele>366</ele>
        <time>2018-06-10T11:57:21Z</time>
      </trkpt>
      <trkpt lat="45.68465" lon="5.66324">
        <ele>366</ele>
        <time>2018-06-10T11:57:37Z</time>
      </trkpt>
      <trkpt lat="45.68465" lon="5.66323">
        <ele>366</ele>
        <time>2018-06-10T11:57:37Z</time>
      </trkpt>
      <trkpt lat="45.68463" lon="5.66317">
        <ele>366</ele>
        <time>2018-06-10T11:57:37Z</time>
      </trkpt>
      <trkpt lat="45.68461" lon="5.6631">
        <ele>366</ele>
        <time>2018-06-10T11:57:37Z</time>
      </trkpt>
      <trkpt lat="45.68461" lon="5.66303">
        <ele>366</ele>
        <time>2018-06-10T11:57:53Z</time>
      </trkpt>
      <trkpt lat="45.6846" lon="5.66297">
        <ele>366</ele>
        <time>2018-06-10T11:57:53Z</time>
      </trkpt>
      <trkpt lat="45.68459" lon="5.66292">
        <ele>366</ele>
        <time>2018-06-10T11:57:53Z</time>
      </trkpt>
      <trkpt lat="45.68456" lon="5.66281">
        <ele>391</ele>
        <time>2018-06-10T11:57:53Z</time>
      </trkpt>
      <trkpt lat="45.68454" lon="5.66272">
        <ele>391</ele>
        <time>2018-06-10T11:58:09Z</time>
      </trkpt>
      <trkpt lat="45.68452" lon="5.66262">
        <ele>391</ele>
        <time>2018-06-10T11:58:09Z</time>
      </trkpt>
      <trkpt lat="45.68452" lon="5.66258">
        <ele>391</ele>
        <time>2018-06-10T11:58:09Z</time>
      </trkpt>
      <trkpt lat="45.68452" lon="5.66249">
        <ele>391</ele>
        <time>2018-06-10T11:58:09Z</time>
      </trkpt>
      <trkpt lat="45.68453" lon="5.66238">
        <ele>391</ele>
        <time>2018-06-10T11:58:25Z</time>
      </trkpt>
      <trkpt lat="45.68452" lon="5.66229">
        <ele>391</ele>
        <time>2018-06-10T11:58:25Z</time>
      </trkpt>
      <trkpt lat="45.68453" lon="5.66219">
        <ele>391</ele>
        <time>2018-06-10T11:58:25Z</time>
      </trkpt>
      <trkpt lat="45.68452" lon="5.6621">
        <ele>391</ele>
        <time>2018-06-10T11:58:25Z</time>
      </trkpt>
      <trkpt lat="45.68453" lon="5.66201">
        <ele>383</ele>
        <time>2018-06-10T11:58:41Z</time>
      </trkpt>
      <trkpt lat="45.68455" lon="5.66191">
        <ele>383</ele>
        <time>2018-06-10T11:58:41Z</time>
      </trkpt>
      <trkpt lat="45.68456" lon="5.66183">
        <ele>383</ele>
        <time>2018-06-10T11:58:41Z</time>
      </trkpt>
      <trkpt lat="45.68456" lon="5.66174">
        <ele>383</ele>
        <time>2018-06-10T11:58:41Z</time>
      </trkpt>
      <trkpt lat="45.68456" lon="5.66166">
        <ele>383</ele>
        <time>2018-06-10T11:58:57Z</time>
      </trkpt>
      <trkpt lat="45.68455" lon="5.66159">
        <ele>383</ele>
        <time>2018-06-10T11:58:57Z</time>
      </trkpt>
      <trkpt lat="45.68455" lon="5.66151">
        <ele>383</ele>
        <time>2018-06-10T11:58:57Z</time>
      </trkpt>
      <trkpt lat="45.68455" lon="5.66143">
        <ele>383</ele>
        <time>2018-06-10T11:58:57Z</time>
      </trkpt>
      <trkpt lat="45.68458" lon="5.66136">
        <ele>371</ele>
        <time>2018-06-10T11:59:25Z</time>
      </trkpt>
      <trkpt lat="45.68459" lon="5.66136">
        <ele>371</ele>
        <time>2018-06-10T11:59:25Z</time>
      </trkpt>
      <trkpt lat="45.68462" lon="5.66134">
        <ele>371</ele>
        <time>2018-06-10T11:59:25Z</time>
      </trkpt>
      <trkpt lat="45.68465" lon="5.66133">
        <ele>371</ele>
        <time>2018-06-10T11:59:25Z</time>
      </trkpt>
      <trkpt lat="45.68469" lon="5.66133">
        <ele>371</ele>
        <time>2018-06-10T11:59:25Z</time>
      </trkpt>
      <trkpt lat="45.68474" lon="5.66131">
        <ele>371</ele>
        <time>2018-06-10T11:59:41Z</time>
      </trkpt>
      <trkpt lat="45.6848" lon="5.66131">
        <ele>371</ele>
        <time>2018-06-10T11:59:41Z</time>
      </trkpt>
      <trkpt lat="45.68483" lon="5.66131">
        <ele>371</ele>
        <time>2018-06-10T11:59:41Z</time>
      </trkpt>
      <trkpt lat="45.68487" lon="5.66131">
        <ele>371</ele>
        <time>2018-06-10T11:59:41Z</time>
      </trkpt>
      <trkpt lat="45.68491" lon="5.66129">
        <ele>371</ele>
        <time>2018-06-10T11:59:57Z</time>
      </trkpt>
      <trkpt lat="45.68495" lon="5.66129">
        <ele>371</ele>
        <time>2018-06-10T11:59:57Z</time>
      </trkpt>
      <trkpt lat="45.68502" lon="5.66128">
        <ele>371</ele>
        <time>2018-06-10T11:59:57Z</time>
      </trkpt>
      <trkpt lat="45.68509" lon="5.66126">
        <ele>371</ele>
        <time>2018-06-10T11:59:57Z</time>
      </trkpt>
      <trkpt lat="45.68514" lon="5.66122">
        <ele>382</ele>
        <time>2018-06-10T12:00:13Z</time>
      </trkpt>
      <trkpt lat="45.68518" lon="5.66122">
        <ele>382</ele>
        <time>2018-06-10T12:00:13Z</time>
      </trkpt>
      <trkpt lat="45.68523" lon="5.66118">
        <ele>382</ele>
        <time>2018-06-10T12:00:13Z</time>
      </trkpt>
      <trkpt lat="45.68528" lon="5.66116">
        <ele>382</ele>
        <time>2018-06-10T12:00:13Z</time>
      </trkpt>
      <trkpt lat="45.68534" lon="5.66114">
        <ele>382</ele>
        <time>2018-06-10T12:00:29Z</time>
      </trkpt>
      <trkpt lat="45.6854" lon="5.66111">
        <ele>382</ele>
        <time>2018-06-10T12:00:29Z</time>
      </trkpt>
      <trkpt lat="45.68545" lon="5.66108">
        <ele>391</ele>
        <time>2018-06-10T12:00:29Z</time>
      </trkpt>
      <trkpt lat="45.68549" lon="5.66105">
        <ele>391</ele>
        <time>2018-06-10T12:00:29Z</time>
      </trkpt>
      <trkpt lat="45.68553" lon="5.66102">
        <ele>391</ele>
        <time>2018-06-10T12:00:45Z</time>
      </trkpt>
      <trkpt lat="45.68557" lon="5.66096">
        <ele>391</ele>
        <time>2018-06-10T12:00:45Z</time>
      </trkpt>
      <trkpt lat="45.68568" lon="5.66094">
        <ele>391</ele>
        <time>2018-06-10T12:00:45Z</time>
      </trkpt>
      <trkpt lat="45.68577" lon="5.66091">
        <ele>391</ele>
        <time>2018-06-10T12:00:45Z</time>
      </trkpt>
      <trkpt lat="45.68582" lon="5.66091">
        <ele>391</ele>
        <time>2018-06-10T12:01:01Z</time>
      </trkpt>
      <trkpt lat="45.6859" lon="5.6609">
        <ele>391</ele>
        <time>2018-06-10T12:01:01Z</time>
      </trkpt>
      <trkpt lat="45.68597" lon="5.66093">
        <ele>391</ele>
        <time>2018-06-10T12:01:01Z</time>
      </trkpt>
      <trkpt lat="45.68605" lon="5.66095">
        <ele>391</ele>
        <time>2018-06-10T12:01:01Z</time>
      </trkpt>
      <trkpt lat="45.6861" lon="5.66095">
        <ele>391</ele>
        <time>2018-06-10T12:01:17Z</time>
      </trkpt>
      <trkpt lat="45.68615" lon="5.66092">
        <ele>391</ele>
        <time>2018-06-10T12:01:17Z</time>
      </trkpt>
      <trkpt lat="45.6862" lon="5.66091">
        <ele>391</ele>
        <time>2018-06-10T12:01:17Z</time>
      </trkpt>
      <trkpt lat="45.68624" lon="5.66091">
        <ele>391</ele>
        <time>2018-06-10T12:01:17Z</time>
      </trkpt>
      <trkpt lat="45.68628" lon="5.66091">
        <ele>391</ele>
        <time>2018-06-10T12:01:33Z</time>
      </trkpt>
      <trkpt lat="45.68635" lon="5.66089">
        <ele>391</ele>
        <time>2018-06-10T12:01:33Z</time>
      </trkpt>
      <trkpt lat="45.68645" lon="5.66089">
        <ele>391</ele>
        <time>2018-06-10T12:01:33Z</time>
      </trkpt>
      <trkpt lat="45.68653" lon="5.66083">
        <ele>391</ele>
        <time>2018-06-10T12:01:33Z</time>
      </trkpt>
      <trkpt lat="45.68661" lon="5.66081">
        <ele>391</ele>
        <time>2018-06-10T12:01:49Z</time>
      </trkpt>
      <trkpt lat="45.68666" lon="5.66078">
        <ele>391</ele>
        <time>2018-06-10T12:01:49Z</time>
      </trkpt>
      <trkpt lat="45.68673" lon="5.66075">
        <ele>391</ele>
        <time>2018-06-10T12:01:49Z</time>
      </trkpt>
      <trkpt lat="45.68688" lon="5.66069">
        <ele>391</ele>
        <time>2018-06-10T12:01:49Z</time>
      </trkpt>
      <trkpt lat="45.68702" lon="5.66061">
        <ele>391</ele>
        <time>2018-06-10T12:02:05Z</time>
      </trkpt>
      <trkpt lat="45.68718" lon="5.66054">
        <ele>397</ele>
        <time>2018-06-10T12:02:05Z</time>
      </trkpt>
      <trkpt lat="45.68733" lon="5.66051">
        <ele>397</ele>
        <time>2018-06-10T12:02:05Z</time>
      </trkpt>
      <trkpt lat="45.6874" lon="5.66048">
        <ele>397</ele>
        <time>2018-06-10T12:02:05Z</time>
      </trkpt>
      <trkpt lat="45.68743" lon="5.66046">
        <ele>397</ele>
        <time>2018-06-10T12:02:21Z</time>
      </trkpt>
      <trkpt lat="45.68749" lon="5.66043">
        <ele>397</ele>
        <time>2018-06-10T12:02:21Z</time>
      </trkpt>
      <trkpt lat="45.68756" lon="5.66035">
        <ele>402</ele>
        <time>2018-06-10T12:02:21Z</time>
      </trkpt>
      <trkpt lat="45.68761" lon="5.66032">
        <ele>402</ele>
        <time>2018-06-10T12:02:21Z</time>
      </trkpt>
      <trkpt lat="45.68766" lon="5.66032">
        <ele>402</ele>
        <time>2018-06-10T12:02:37Z</time>
      </trkpt>
      <trkpt lat="45.6877" lon="5.66032">
        <ele>402</ele>
        <time>2018-06-10T12:02:37Z</time>
      </trkpt>
      <trkpt lat="45.68772" lon="5.66033">
        <ele>402</ele>
        <time>2018-06-10T12:02:37Z</time>
      </trkpt>
      <trkpt lat="45.68776" lon="5.66033">
        <ele>402</ele>
        <time>2018-06-10T12:02:37Z</time>
      </trkpt>
      <trkpt lat="45.68779" lon="5.66034">
        <ele>402</ele>
        <time>2018-06-10T12:02:53Z</time>
      </trkpt>
      <trkpt lat="45.68783" lon="5.66033">
        <ele>402</ele>
        <time>2018-06-10T12:02:53Z</time>
      </trkpt>
      <trkpt lat="45.68788" lon="5.66033">
        <ele>402</ele>
        <time>2018-06-10T12:02:53Z</time>
      </trkpt>
      <trkpt lat="45.68799" lon="5.6603">
        <ele>403</ele>
        <time>2018-06-10T12:02:53Z</time>
      </trkpt>
      <trkpt lat="45.68813" lon="5.66032">
        <ele>403</ele>
        <time>2018-06-10T12:03:09Z</time>
      </trkpt>
      <trkpt lat="45.68821" lon="5.6603">
        <ele>403</ele>
        <time>2018-06-10T12:03:09Z</time>
      </trkpt>
      <trkpt lat="45.68826" lon="5.66031">
        <ele>403</ele>
        <time>2018-06-10T12:03:09Z</time>
      </trkpt>
      <trkpt lat="45.68829" lon="5.6603">
        <ele>403</ele>
        <time>2018-06-10T12:03:09Z</time>
      </trkpt>
      <trkpt lat="45.68835" lon="5.66028">
        <ele>403</ele>
        <time>2018-06-10T12:03:25Z</time>
      </trkpt>
      <trkpt lat="45.68845" lon="5.66028">
        <ele>403</ele>
        <time>2018-06-10T12:03:25Z</time>
      </trkpt>
      <trkpt lat="45.68855" lon="5.66025">
        <ele>403</ele>
        <time>2018-06-10T12:03:25Z</time>
      </trkpt>
      <trkpt lat="45.6886" lon="5.66024">
        <ele>403</ele>
        <time>2018-06-10T12:03:25Z</time>
      </trkpt>
      <trkpt lat="45.68866" lon="5.66027">
        <ele>403</ele>
        <time>2018-06-10T12:03:41Z</time>
      </trkpt>
      <trkpt lat="45.68871" lon="5.66027">
        <ele>403</ele>
        <time>2018-06-10T12:03:41Z</time>
      </trkpt>
      <trkpt lat="45.68877" lon="5.66028">
        <ele>402</ele>
        <time>2018-06-10T12:03:41Z</time>
      </trkpt>
      <trkpt lat="45.68881" lon="5.66029">
        <ele>402</ele>
        <time>2018-06-10T12:03:41Z</time>
      </trkpt>
      <trkpt lat="45.68889" lon="5.66024">
        <ele>402</ele>
        <time>2018-06-10T12:03:57Z</time>
      </trkpt>
      <trkpt lat="45.68906" lon="5.66016">
        <ele>402</ele>
        <time>2018-06-10T12:03:57Z</time>
      </trkpt>
      <trkpt lat="45.6892" lon="5.66014">
        <ele>402</ele>
        <time>2018-06-10T12:03:57Z</time>
      </trkpt>
      <trkpt lat="45.6893" lon="5.66013">
        <ele>402</ele>
        <time>2018-06-10T12:03:57Z</time>
      </trkpt>
      <trkpt lat="45.68938" lon="5.66012">
        <ele>402</ele>
        <time>2018-06-10T12:04:13Z</time>
      </trkpt>
      <trkpt lat="45.68944" lon="5.66011">
        <ele>402</ele>
        <time>2018-06-10T12:04:13Z</time>
      </trkpt>
      <trkpt lat="45.68953" lon="5.66009">
        <ele>402</ele>
        <time>2018-06-10T12:04:13Z</time>
      </trkpt>
      <trkpt lat="45.68958" lon="5.66006">
        <ele>402</ele>
        <time>2018-06-10T12:04:13Z</time>
      </trkpt>
      <trkpt lat="45.68963" lon="5.66005">
        <ele>405</ele>
        <time>2018-06-10T12:04:29Z</time>
      </trkpt>
      <trkpt lat="45.68971" lon="5.66004">
        <ele>405</ele>
        <time>2018-06-10T12:04:29Z</time>
      </trkpt>
      <trkpt lat="45.68976" lon="5.66003">
        <ele>405</ele>
        <time>2018-06-10T12:04:29Z</time>
      </trkpt>
      <trkpt lat="45.6898" lon="5.66001">
        <ele>405</ele>
        <time>2018-06-10T12:04:29Z</time>
      </trkpt>
      <trkpt lat="45.68986" lon="5.66">
        <ele>405</ele>
        <time>2018-06-10T12:04:45Z</time>
      </trkpt>
      <trkpt lat="45.68993" lon="5.66001">
        <ele>405</ele>
        <time>2018-06-10T12:04:45Z</time>
      </trkpt>
      <trkpt lat="45.68998" lon="5.66003">
        <ele>405</ele>
        <time>2018-06-10T12:04:45Z</time>
      </trkpt>
      <trkpt lat="45.69003" lon="5.66003">
        <ele>405</ele>
        <time>2018-06-10T12:04:45Z</time>
      </trkpt>
      <trkpt lat="45.69009" lon="5.66001">
        <ele>405</ele>
        <time>2018-06-10T12:05:01Z</time>
      </trkpt>
      <trkpt lat="45.69015" lon="5.66">
        <ele>405</ele>
        <time>2018-06-10T12:05:01Z</time>
      </trkpt>
      <trkpt lat="45.69019" lon="5.65997">
        <ele>405</ele>
        <time>2018-06-10T12:05:01Z</time>
      </trkpt>
      <trkpt lat="45.69024" lon="5.6599">
        <ele>405</ele>
        <time>2018-06-10T12:05:01Z</time>
      </trkpt>
      <trkpt lat="45.69031" lon="5.65986">
        <ele>405</ele>
        <time>2018-06-10T12:05:17Z</time>
      </trkpt>
      <trkpt lat="45.69036" lon="5.6598">
        <ele>405</ele>
        <time>2018-06-10T12:05:17Z</time>
      </trkpt>
      <trkpt lat="45.69041" lon="5.65976">
        <ele>405</ele>
        <time>2018-06-10T12:05:17Z</time>
      </trkpt>
      <trkpt lat="45.69044" lon="5.65972">
        <ele>397</ele>
        <time>2018-06-10T12:05:17Z</time>
      </trkpt>
      <trkpt lat="45.69047" lon="5.65968">
        <ele>397</ele>
        <time>2018-06-10T12:05:33Z</time>
      </trkpt>
      <trkpt lat="45.69058" lon="5.65966">
        <ele>397</ele>
        <time>2018-06-10T12:05:33Z</time>
      </trkpt>
      <trkpt lat="45.69069" lon="5.65965">
        <ele>397</ele>
        <time>2018-06-10T12:05:33Z</time>
      </trkpt>
      <trkpt lat="45.69076" lon="5.65963">
        <ele>397</ele>
        <time>2018-06-10T12:05:33Z</time>
      </trkpt>
      <trkpt lat="45.69082" lon="5.65962">
        <ele>397</ele>
        <time>2018-06-10T12:05:49Z</time>
      </trkpt>
      <trkpt lat="45.69086" lon="5.65961">
        <ele>397</ele>
        <time>2018-06-10T12:05:49Z</time>
      </trkpt>
      <trkpt lat="45.69091" lon="5.65963">
        <ele>397</ele>
        <time>2018-06-10T12:05:49Z</time>
      </trkpt>
      <trkpt lat="45.69098" lon="5.65961">
        <ele>397</ele>
        <time>2018-06-10T12:05:49Z</time>
      </trkpt>
      <trkpt lat="45.69104" lon="5.65958">
        <ele>397</ele>
        <time>2018-06-10T12:06:05Z</time>
      </trkpt>
      <trkpt lat="45.69108" lon="5.65957">
        <ele>396</ele>
        <time>2018-06-10T12:06:05Z</time>
      </trkpt>
      <trkpt lat="45.69112" lon="5.65952">
        <ele>396</ele>
        <time>2018-06-10T12:06:05Z</time>
      </trkpt>
      <trkpt lat="45.69116" lon="5.65947">
        <ele>396</ele>
        <time>2018-06-10T12:06:05Z</time>
      </trkpt>
      <trkpt lat="45.69121" lon="5.65943">
        <ele>396</ele>
        <time>2018-06-10T12:06:21Z</time>
      </trkpt>
      <trkpt lat="45.69124" lon="5.6594">
        <ele>396</ele>
        <time>2018-06-10T12:06:21Z</time>
      </trkpt>
      <trkpt lat="45.69127" lon="5.65937">
        <ele>374</ele>
        <time>2018-06-10T12:06:21Z</time>
      </trkpt>
      <trkpt lat="45.6913" lon="5.65933">
        <ele>374</ele>
        <time>2018-06-10T12:06:21Z</time>
      </trkpt>
      <trkpt lat="45.69134" lon="5.65932">
        <ele>374</ele>
        <time>2018-06-10T12:06:37Z</time>
      </trkpt>
      <trkpt lat="45.69136" lon="5.65932">
        <ele>374</ele>
        <time>2018-06-10T12:06:37Z</time>
      </trkpt>
      <trkpt lat="45.69138" lon="5.6593">
        <ele>374</ele>
        <time>2018-06-10T12:06:37Z</time>
      </trkpt>
      <trkpt lat="45.69144" lon="5.65929">
        <ele>374</ele>
        <time>2018-06-10T12:06:37Z</time>
      </trkpt>
      <trkpt lat="45.69147" lon="5.65928">
        <ele>374</ele>
        <time>2018-06-10T12:06:53Z</time>
      </trkpt>
      <trkpt lat="45.69153" lon="5.65928">
        <ele>374</ele>
        <time>2018-06-10T12:06:53Z</time>
      </trkpt>
      <trkpt lat="45.69165" lon="5.65925">
        <ele>374</ele>
        <time>2018-06-10T12:06:53Z</time>
      </trkpt>
      <trkpt lat="45.69171" lon="5.65926">
        <ele>374</ele>
        <time>2018-06-10T12:06:53Z</time>
      </trkpt>
      <trkpt lat="45.69174" lon="5.65926">
        <ele>374</ele>
        <time>2018-06-10T12:07:09Z</time>
      </trkpt>
      <trkpt lat="45.69177" lon="5.65926">
        <ele>374</ele>
        <time>2018-06-10T12:07:09Z</time>
      </trkpt>
      <trkpt lat="45.6918" lon="5.65923">
        <ele>374</ele>
        <time>2018-06-10T12:07:09Z</time>
      </trkpt>
      <trkpt lat="45.69183" lon="5.65917">
        <ele>374</ele>
        <time>2018-06-10T12:07:09Z</time>
      </trkpt>
      <trkpt lat="45.69187" lon="5.65913">
        <ele>374</ele>
        <time>2018-06-10T12:07:25Z</time>
      </trkpt>
      <trkpt lat="45.69193" lon="5.6591">
        <ele>374</ele>
        <time>2018-06-10T12:07:25Z</time>
      </trkpt>
      <trkpt lat="45.69198" lon="5.65906">
        <ele>374</ele>
        <time>2018-06-10T12:07:25Z</time>
      </trkpt>
      <trkpt lat="45.69207" lon="5.65905">
        <ele>374</ele>
        <time>2018-06-10T12:07:25Z</time>
      </trkpt>
      <trkpt lat="45.6921" lon="5.659">
        <ele>353</ele>
        <time>2018-06-10T12:07:41Z</time>
      </trkpt>
      <trkpt lat="45.69216" lon="5.65894">
        <ele>353</ele>
        <time>2018-06-10T12:07:41Z</time>
      </trkpt>
      <trkpt lat="45.69222" lon="5.65889">
        <ele>353</ele>
        <time>2018-06-10T12:07:41Z</time>
      </trkpt>
      <trkpt lat="45.69228" lon="5.65884">
        <ele>353</ele>
        <time>2018-06-10T12:07:41Z</time>
      </trkpt>
      <trkpt lat="45.69233" lon="5.65879">
        <ele>353</ele>
        <time>2018-06-10T12:07:57Z</time>
      </trkpt>
      <trkpt lat="45.69239" lon="5.65874">
        <ele>358</ele>
        <time>2018-06-10T12:07:57Z</time>
      </trkpt>
      <trkpt lat="45.69246" lon="5.65871">
        <ele>358</ele>
        <time>2018-06-10T12:07:57Z</time>
      </trkpt>
      <trkpt lat="45.69252" lon="5.65864">
        <ele>358</ele>
        <time>2018-06-10T12:07:57Z</time>
      </trkpt>
      <trkpt lat="45.69257" lon="5.6586">
        <ele>358</ele>
        <time>2018-06-10T12:08:13Z</time>
      </trkpt>
      <trkpt lat="45.69261" lon="5.65856">
        <ele>358</ele>
        <time>2018-06-10T12:08:13Z</time>
      </trkpt>
      <trkpt lat="45.69265" lon="5.65852">
        <ele>358</ele>
        <time>2018-06-10T12:08:13Z</time>
      </trkpt>
      <trkpt lat="45.69268" lon="5.65849">
        <ele>358</ele>
        <time>2018-06-10T12:08:13Z</time>
      </trkpt>
      <trkpt lat="45.69273" lon="5.65845">
        <ele>358</ele>
        <time>2018-06-10T12:08:29Z</time>
      </trkpt>
      <trkpt lat="45.69285" lon="5.65838">
        <ele>358</ele>
        <time>2018-06-10T12:08:29Z</time>
      </trkpt>
      <trkpt lat="45.69293" lon="5.65836">
        <ele>347</ele>
        <time>2018-06-10T12:08:29Z</time>
      </trkpt>
      <trkpt lat="45.69295" lon="5.65834">
        <ele>347</ele>
        <time>2018-06-10T12:08:29Z</time>
      </trkpt>
      <trkpt lat="45.69296" lon="5.65833">
        <ele>347</ele>
        <time>2018-06-10T12:08:45Z</time>
      </trkpt>
      <trkpt lat="45.69303" lon="5.6583">
        <ele>347</ele>
        <time>2018-06-10T12:08:45Z</time>
      </trkpt>
      <trkpt lat="45.69318" lon="5.65819">
        <ele>347</ele>
        <time>2018-06-10T12:08:45Z</time>
      </trkpt>
      <trkpt lat="45.69332" lon="5.65808">
        <ele>347</ele>
        <time>2018-06-10T12:08:45Z</time>
      </trkpt>
      <trkpt lat="45.69346" lon="5.65798">
        <ele>347</ele>
        <time>2018-06-10T12:09:01Z</time>
      </trkpt>
      <trkpt lat="45.69366" lon="5.65784">
        <ele>356</ele>
        <time>2018-06-10T12:09:01Z</time>
      </trkpt>
      <trkpt lat="45.69384" lon="5.65767">
        <ele>350</ele>
        <time>2018-06-10T12:09:01Z</time>
      </trkpt>
      <trkpt lat="45.69399" lon="5.65751">
        <ele>350</ele>
        <time>2018-06-10T12:09:01Z</time>
      </trkpt>
      <trkpt lat="45.69408" lon="5.65741">
        <ele>350</ele>
        <time>2018-06-10T12:09:17Z</time>
      </trkpt>
      <trkpt lat="45.69414" lon="5.65733">
        <ele>350</ele>
        <time>2018-06-10T12:09:17Z</time>
      </trkpt>
      <trkpt lat="45.69418" lon="5.65726">
        <ele>350</ele>
        <time>2018-06-10T12:09:17Z</time>
      </trkpt>
      <trkpt lat="45.69421" lon="5.6572">
        <ele>350</ele>
        <time>2018-06-10T12:09:17Z</time>
      </trkpt>
      <trkpt lat="45.69425" lon="5.65712">
        <ele>350</ele>
        <time>2018-06-10T12:09:33Z</time>
      </trkpt>
      <trkpt lat="45.6943" lon="5.65706">
        <ele>356</ele>
        <time>2018-06-10T12:09:33Z</time>
      </trkpt>
      <trkpt lat="45.69435" lon="5.65699">
        <ele>356</ele>
        <time>2018-06-10T12:09:33Z</time>
      </trkpt>
      <trkpt lat="45.6944" lon="5.65693">
        <ele>356</ele>
        <time>2018-06-10T12:09:33Z</time>
      </trkpt>
      <trkpt lat="45.69448" lon="5.65683">
        <ele>356</ele>
        <time>2018-06-10T12:09:49Z</time>
      </trkpt>
      <trkpt lat="45.69452" lon="5.65675">
        <ele>356</ele>
        <time>2018-06-10T12:09:49Z</time>
      </trkpt>
      <trkpt lat="45.69457" lon="5.65669">
        <ele>356</ele>
        <time>2018-06-10T12:09:49Z</time>
      </trkpt>
      <trkpt lat="45.69461" lon="5.65662">
        <ele>355</ele>
        <time>2018-06-10T12:09:49Z</time>
      </trkpt>
      <trkpt lat="45.6947" lon="5.65651">
        <ele>355</ele>
        <time>2018-06-10T12:10:13Z</time>
      </trkpt>
      <trkpt lat="45.69474" lon="5.65653">
        <ele>355</ele>
        <time>2018-06-10T12:10:13Z</time>
      </trkpt>
      <trkpt lat="45.69474" lon="5.65657">
        <ele>355</ele>
        <time>2018-06-10T12:10:13Z</time>
      </trkpt>
      <trkpt lat="45.69475" lon="5.6566">
        <ele>355</ele>
        <time>2018-06-10T12:10:13Z</time>
      </trkpt>
      <trkpt lat="45.69478" lon="5.65662">
        <ele>355</ele>
        <time>2018-06-10T12:10:13Z</time>
      </trkpt>
      <trkpt lat="45.69492" lon="5.65673">
        <ele>355</ele>
        <time>2018-06-10T12:10:29Z</time>
      </trkpt>
      <trkpt lat="45.69508" lon="5.65686">
        <ele>355</ele>
        <time>2018-06-10T12:10:29Z</time>
      </trkpt>
      <trkpt lat="45.69524" lon="5.65687">
        <ele>355</ele>
        <time>2018-06-10T12:10:29Z</time>
      </trkpt>
      <trkpt lat="45.69535" lon="5.65684">
        <ele>355</ele>
        <time>2018-06-10T12:10:29Z</time>
      </trkpt>
      <trkpt lat="45.69541" lon="5.65682">
        <ele>355</ele>
        <time>2018-06-10T12:10:45Z</time>
      </trkpt>
      <trkpt lat="45.69546" lon="5.65676">
        <ele>363</ele>
        <time>2018-06-10T12:10:45Z</time>
      </trkpt>
      <trkpt lat="45.69552" lon="5.65677">
        <ele>363</ele>
        <time>2018-06-10T12:10:45Z</time>
      </trkpt>
      <trkpt lat="45.69557" lon="5.65677">
        <ele>363</ele>
        <time>2018-06-10T12:10:45Z</time>
      </trkpt>
      <trkpt lat="45.69561" lon="5.65674">
        <ele>363</ele>
        <time>2018-06-10T12:11:01Z</time>
      </trkpt>
      <trkpt lat="45.69567" lon="5.65671">
        <ele>363</ele>
        <time>2018-06-10T12:11:01Z</time>
      </trkpt>
      <trkpt lat="45.69574" lon="5.65668">
        <ele>363</ele>
        <time>2018-06-10T12:11:01Z</time>
      </trkpt>
      <trkpt lat="45.69578" lon="5.65667">
        <ele>363</ele>
        <time>2018-06-10T12:11:01Z</time>
      </trkpt>
      <trkpt lat="45.69583" lon="5.65664">
        <ele>363</ele>
        <time>2018-06-10T12:11:17Z</time>
      </trkpt>
      <trkpt lat="45.69587" lon="5.6566">
        <ele>363</ele>
        <time>2018-06-10T12:11:17Z</time>
      </trkpt>
      <trkpt lat="45.69591" lon="5.65656">
        <ele>363</ele>
        <time>2018-06-10T12:11:17Z</time>
      </trkpt>
      <trkpt lat="45.69596" lon="5.65653">
        <ele>363</ele>
        <time>2018-06-10T12:11:17Z</time>
      </trkpt>
      <trkpt lat="45.69599" lon="5.65651">
        <ele>363</ele>
        <time>2018-06-10T12:11:33Z</time>
      </trkpt>
      <trkpt lat="45.69604" lon="5.65646">
        <ele>363</ele>
        <time>2018-06-10T12:11:33Z</time>
      </trkpt>
      <trkpt lat="45.69608" lon="5.65641">
        <ele>363</ele>
        <time>2018-06-10T12:11:33Z</time>
      </trkpt>
      <trkpt lat="45.6961" lon="5.65638">
        <ele>363</ele>
        <time>2018-06-10T12:11:33Z</time>
      </trkpt>
      <trkpt lat="45.69615" lon="5.65636">
        <ele>363</ele>
        <time>2018-06-10T12:11:49Z</time>
      </trkpt>
      <trkpt lat="45.69618" lon="5.65633">
        <ele>363</ele>
        <time>2018-06-10T12:11:49Z</time>
      </trkpt>
      <trkpt lat="45.69624" lon="5.65629">
        <ele>363</ele>
        <time>2018-06-10T12:11:49Z</time>
      </trkpt>
      <trkpt lat="45.6963" lon="5.65626">
        <ele>380</ele>
        <time>2018-06-10T12:11:49Z</time>
      </trkpt>
      <trkpt lat="45.69634" lon="5.65624">
        <ele>365</ele>
        <time>2018-06-10T12:12:05Z</time>
      </trkpt>
      <trkpt lat="45.6964" lon="5.65621">
        <ele>365</ele>
        <time>2018-06-10T12:12:05Z</time>
      </trkpt>
      <trkpt lat="45.69644" lon="5.65619">
        <ele>365</ele>
        <time>2018-06-10T12:12:05Z</time>
      </trkpt>
      <trkpt lat="45.69648" lon="5.65615">
        <ele>365</ele>
        <time>2018-06-10T12:12:05Z</time>
      </trkpt>
      <trkpt lat="45.69652" lon="5.65613">
        <ele>365</ele>
        <time>2018-06-10T12:12:21Z</time>
      </trkpt>
      <trkpt lat="45.69657" lon="5.6561">
        <ele>365</ele>
        <time>2018-06-10T12:12:21Z</time>
      </trkpt>
      <trkpt lat="45.69661" lon="5.65607">
        <ele>365</ele>
        <time>2018-06-10T12:12:21Z</time>
      </trkpt>
      <trkpt lat="45.69665" lon="5.65604">
        <ele>365</ele>
        <time>2018-06-10T12:12:21Z</time>
      </trkpt>
      <trkpt lat="45.69669" lon="5.65602">
        <ele>365</ele>
        <time>2018-06-10T12:12:37Z</time>
      </trkpt>
      <trkpt lat="45.69675" lon="5.65598">
        <ele>365</ele>
        <time>2018-06-10T12:12:37Z</time>
      </trkpt>
      <trkpt lat="45.69681" lon="5.65593">
        <ele>365</ele>
        <time>2018-06-10T12:12:37Z</time>
      </trkpt>
      <trkpt lat="45.69685" lon="5.65591">
        <ele>365</ele>
        <time>2018-06-10T12:12:37Z</time>
      </trkpt>
      <trkpt lat="45.6969" lon="5.65589">
        <ele>365</ele>
        <time>2018-06-10T12:12:53Z</time>
      </trkpt>
      <trkpt lat="45.69696" lon="5.65586">
        <ele>365</ele>
        <time>2018-06-10T12:12:53Z</time>
      </trkpt>
      <trkpt lat="45.69704" lon="5.65583">
        <ele>365</ele>
        <time>2018-06-10T12:12:53Z</time>
      </trkpt>
      <trkpt lat="45.69708" lon="5.65577">
        <ele>375</ele>
        <time>2018-06-10T12:12:53Z</time>
      </trkpt>
      <trkpt lat="45.69714" lon="5.65575">
        <ele>375</ele>
        <time>2018-06-10T12:13:09Z</time>
      </trkpt>
      <trkpt lat="45.69721" lon="5.65572">
        <ele>375</ele>
        <time>2018-06-10T12:13:09Z</time>
      </trkpt>
      <trkpt lat="45.69729" lon="5.65568">
        <ele>375</ele>
        <time>2018-06-10T12:13:09Z</time>
      </trkpt>
      <trkpt lat="45.69734" lon="5.65565">
        <ele>375</ele>
        <time>2018-06-10T12:13:09Z</time>
      </trkpt>
      <trkpt lat="45.69739" lon="5.65561">
        <ele>375</ele>
        <time>2018-06-10T12:13:25Z</time>
      </trkpt>
      <trkpt lat="45.69744" lon="5.65559">
        <ele>375</ele>
        <time>2018-06-10T12:13:25Z</time>
      </trkpt>
      <trkpt lat="45.6975" lon="5.65561">
        <ele>375</ele>
        <time>2018-06-10T12:13:25Z</time>
      </trkpt>
      <trkpt lat="45.69753" lon="5.65561">
        <ele>375</ele>
        <time>2018-06-10T12:13:25Z</time>
      </trkpt>
      <trkpt lat="45.69756" lon="5.6556">
        <ele>375</ele>
        <time>2018-06-10T12:13:41Z</time>
      </trkpt>
      <trkpt lat="45.69763" lon="5.6556">
        <ele>375</ele>
        <time>2018-06-10T12:13:41Z</time>
      </trkpt>
      <trkpt lat="45.6977" lon="5.65559">
        <ele>375</ele>
        <time>2018-06-10T12:13:41Z</time>
      </trkpt>
      <trkpt lat="45.69781" lon="5.65558">
        <ele>375</ele>
        <time>2018-06-10T12:13:41Z</time>
      </trkpt>
      <trkpt lat="45.69791" lon="5.65558">
        <ele>375</ele>
        <time>2018-06-10T12:13:57Z</time>
      </trkpt>
      <trkpt lat="45.69795" lon="5.65556">
        <ele>373</ele>
        <time>2018-06-10T12:13:57Z</time>
      </trkpt>
      <trkpt lat="45.69798" lon="5.65551">
        <ele>373</ele>
        <time>2018-06-10T12:13:57Z</time>
      </trkpt>
      <trkpt lat="45.69802" lon="5.65546">
        <ele>373</ele>
        <time>2018-06-10T12:13:57Z</time>
      </trkpt>
      <trkpt lat="45.69807" lon="5.6554">
        <ele>368</ele>
        <time>2018-06-10T12:14:13Z</time>
      </trkpt>
      <trkpt lat="45.6981" lon="5.65535">
        <ele>368</ele>
        <time>2018-06-10T12:14:13Z</time>
      </trkpt>
      <trkpt lat="45.69814" lon="5.65533">
        <ele>368</ele>
        <time>2018-06-10T12:14:13Z</time>
      </trkpt>
      <trkpt lat="45.6982" lon="5.6553">
        <ele>368</ele>
        <time>2018-06-10T12:14:13Z</time>
      </trkpt>
      <trkpt lat="45.69823" lon="5.65527">
        <ele>368</ele>
        <time>2018-06-10T12:14:29Z</time>
      </trkpt>
      <trkpt lat="45.69828" lon="5.65523">
        <ele>368</ele>
        <time>2018-06-10T12:14:29Z</time>
      </trkpt>
      <trkpt lat="45.69835" lon="5.65515">
        <ele>368</ele>
        <time>2018-06-10T12:14:29Z</time>
      </trkpt>
      <trkpt lat="45.6984" lon="5.65507">
        <ele>368</ele>
        <time>2018-06-10T12:14:29Z</time>
      </trkpt>
      <trkpt lat="45.69843" lon="5.655">
        <ele>368</ele>
        <time>2018-06-10T12:14:45Z</time>
      </trkpt>
      <trkpt lat="45.69844" lon="5.65492">
        <ele>368</ele>
        <time>2018-06-10T12:14:45Z</time>
      </trkpt>
      <trkpt lat="45.69845" lon="5.65485">
        <ele>368</ele>
        <time>2018-06-10T12:14:45Z</time>
      </trkpt>
      <trkpt lat="45.6985" lon="5.65476">
        <ele>368</ele>
        <time>2018-06-10T12:14:45Z</time>
      </trkpt>
      <trkpt lat="45.69854" lon="5.65468">
        <ele>368</ele>
        <time>2018-06-10T12:15:01Z</time>
      </trkpt>
      <trkpt lat="45.69856" lon="5.65461">
        <ele>368</ele>
        <time>2018-06-10T12:15:01Z</time>
      </trkpt>
      <trkpt lat="45.69859" lon="5.65452">
        <ele>359</ele>
        <time>2018-06-10T12:15:01Z</time>
      </trkpt>
      <trkpt lat="45.69863" lon="5.65448">
        <ele>359</ele>
        <time>2018-06-10T12:15:01Z</time>
      </trkpt>
      <trkpt lat="45.69873" lon="5.6544">
        <ele>359</ele>
        <time>2018-06-10T12:15:41Z</time>
      </trkpt>
      <trkpt lat="45.69874" lon="5.65441">
        <ele>359</ele>
        <time>2018-06-10T12:15:41Z</time>
      </trkpt>
      <trkpt lat="45.69874" lon="5.65442">
        <ele>359</ele>
        <time>2018-06-10T12:15:41Z</time>
      </trkpt>
      <trkpt lat="45.69874" lon="5.65442">
        <ele>359</ele>
        <time>2018-06-10T12:15:41Z</time>
      </trkpt>
      <trkpt lat="45.69876" lon="5.65442">
        <ele>361</ele>
        <time>2018-06-10T12:15:41Z</time>
      </trkpt>
      <trkpt lat="45.69879" lon="5.65437">
        <ele>361</ele>
        <time>2018-06-10T12:15:57Z</time>
      </trkpt>
      <trkpt lat="45.69879" lon="5.65436">
        <ele>361</ele>
        <time>2018-06-10T12:15:57Z</time>
      </trkpt>
      <trkpt lat="45.69883" lon="5.65418">
        <ele>361</ele>
        <time>2018-06-10T12:15:57Z</time>
      </trkpt>
      <trkpt lat="45.69883" lon="5.65415">
        <ele>361</ele>
        <time>2018-06-10T12:15:57Z</time>
      </trkpt>
      <trkpt lat="45.69883" lon="5.65411">
        <ele>361</ele>
        <time>2018-06-10T12:16:17Z</time>
      </trkpt>
      <trkpt lat="45.69886" lon="5.65409">
        <ele>361</ele>
        <time>2018-06-10T12:16:17Z</time>
      </trkpt>
      <trkpt lat="45.69889" lon="5.65408">
        <ele>361</ele>
        <time>2018-06-10T12:16:17Z</time>
      </trkpt>
      <trkpt lat="45.69891" lon="5.65406">
        <ele>361</ele>
        <time>2018-06-10T12:16:17Z</time>
      </trkpt>
      <trkpt lat="45.69892" lon="5.65404">
        <ele>361</ele>
        <time>2018-06-10T12:16:17Z</time>
      </trkpt>
      <trkpt lat="45.69892" lon="5.65404">
        <ele>361</ele>
        <time>2018-06-10T12:16:33Z</time>
      </trkpt>
      <trkpt lat="45.69893" lon="5.65399">
        <ele>361</ele>
        <time>2018-06-10T12:16:33Z</time>
      </trkpt>
      <trkpt lat="45.69895" lon="5.65397">
        <ele>361</ele>
        <time>2018-06-10T12:16:33Z</time>
      </trkpt>
      <trkpt lat="45.69897" lon="5.65393">
        <ele>361</ele>
        <time>2018-06-10T12:16:33Z</time>
      </trkpt>
      <trkpt lat="45.69899" lon="5.65383">
        <ele>361</ele>
        <time>2018-06-10T12:17:13Z</time>
      </trkpt>
      <trkpt lat="45.699" lon="5.65381">
        <ele>361</ele>
        <time>2018-06-10T12:17:13Z</time>
      </trkpt>
      <trkpt lat="45.69901" lon="5.6538">
        <ele>361</ele>
        <time>2018-06-10T12:17:13Z</time>
      </trkpt>
      <trkpt lat="45.69902" lon="5.65379">
        <ele>361</ele>
        <time>2018-06-10T12:17:13Z</time>
      </trkpt>
      <trkpt lat="45.69902" lon="5.65377">
        <ele>361</ele>
        <time>2018-06-10T12:17:13Z</time>
      </trkpt>
      <trkpt lat="45.69903" lon="5.65373">
        <ele>343</ele>
        <time>2018-06-10T12:17:37Z</time>
      </trkpt>
      <trkpt lat="45.69903" lon="5.65374">
        <ele>343</ele>
        <time>2018-06-10T12:17:37Z</time>
      </trkpt>
      <trkpt lat="45.69904" lon="5.65372">
        <ele>343</ele>
        <time>2018-06-10T12:17:37Z</time>
      </trkpt>
      <trkpt lat="45.69905" lon="5.65369">
        <ele>343</ele>
        <time>2018-06-10T12:17:37Z</time>
      </trkpt>
      <trkpt lat="45.69909" lon="5.65364">
        <ele>343</ele>
        <time>2018-06-10T12:17:37Z</time>
      </trkpt>
      <trkpt lat="45.69913" lon="5.6536">
        <ele>343</ele>
        <time>2018-06-10T12:17:53Z</time>
      </trkpt>
      <trkpt lat="45.69917" lon="5.65354">
        <ele>343</ele>
        <time>2018-06-10T12:17:53Z</time>
      </trkpt>
      <trkpt lat="45.69921" lon="5.65346">
        <ele>343</ele>
        <time>2018-06-10T12:17:53Z</time>
      </trkpt>
      <trkpt lat="45.69924" lon="5.65338">
        <ele>343</ele>
        <time>2018-06-10T12:17:53Z</time>
      </trkpt>
      <trkpt lat="45.69926" lon="5.6533">
        <ele>343</ele>
        <time>2018-06-10T12:18:09Z</time>
      </trkpt>
      <trkpt lat="45.69926" lon="5.65324">
        <ele>343</ele>
        <time>2018-06-10T12:18:09Z</time>
      </trkpt>
      <trkpt lat="45.69926" lon="5.65321">
        <ele>343</ele>
        <time>2018-06-10T12:18:09Z</time>
      </trkpt>
      <trkpt lat="45.69928" lon="5.65315">
        <ele>343</ele>
        <time>2018-06-10T12:18:09Z</time>
      </trkpt>
      <trkpt lat="45.69929" lon="5.65311">
        <ele>343</ele>
        <time>2018-06-10T12:18:25Z</time>
      </trkpt>
      <trkpt lat="45.69932" lon="5.65304">
        <ele>343</ele>
        <time>2018-06-10T12:18:25Z</time>
      </trkpt>
      <trkpt lat="45.69935" lon="5.653">
        <ele>343</ele>
        <time>2018-06-10T12:18:25Z</time>
      </trkpt>
      <trkpt lat="45.69936" lon="5.653">
        <ele>343</ele>
        <time>2018-06-10T12:18:25Z</time>
      </trkpt>
      <trkpt lat="45.69937" lon="5.65301">
        <ele>343</ele>
        <time>2018-06-10T12:18:41Z</time>
      </trkpt>
      <trkpt lat="45.69942" lon="5.65298">
        <ele>343</ele>
        <time>2018-06-10T12:18:41Z</time>
      </trkpt>
      <trkpt lat="45.69943" lon="5.65294">
        <ele>343</ele>
        <time>2018-06-10T12:18:41Z</time>
      </trkpt>
      <trkpt lat="45.69943" lon="5.6529">
        <ele>325</ele>
        <time>2018-06-10T12:18:41Z</time>
      </trkpt>
      <trkpt lat="45.69945" lon="5.65289">
        <ele>325</ele>
        <time>2018-06-10T12:19:01Z</time>
      </trkpt>
      <trkpt lat="45.69949" lon="5.6529">
        <ele>325</ele>
        <time>2018-06-10T12:19:01Z</time>
      </trkpt>
      <trkpt lat="45.6995" lon="5.65289">
        <ele>325</ele>
        <time>2018-06-10T12:19:01Z</time>
      </trkpt>
      <trkpt lat="45.69953" lon="5.65286">
        <ele>325</ele>
        <time>2018-06-10T12:19:01Z</time>
      </trkpt>
      <trkpt lat="45.69957" lon="5.65286">
        <ele>325</ele>
        <time>2018-06-10T12:19:01Z</time>
      </trkpt>
      <trkpt lat="45.69963" lon="5.65276">
        <ele>322</ele>
        <time>2018-06-10T12:19:57Z</time>
      </trkpt>
      <trkpt lat="45.69964" lon="5.65273">
        <ele>322</ele>
        <time>2018-06-10T12:19:57Z</time>
      </trkpt>
      <trkpt lat="45.69967" lon="5.65271">
        <ele>322</ele>
        <time>2018-06-10T12:19:57Z</time>
      </trkpt>
      <trkpt lat="45.6997" lon="5.65267">
        <ele>322</ele>
        <time>2018-06-10T12:19:57Z</time>
      </trkpt>
      <trkpt lat="45.69971" lon="5.65265">
        <ele>322</ele>
        <time>2018-06-10T12:19:57Z</time>
      </trkpt>
      <trkpt lat="45.69972" lon="5.65263">
        <ele>322</ele>
        <time>2018-06-10T12:20:14Z</time>
      </trkpt>
      <trkpt lat="45.69974" lon="5.65258">
        <ele>322</ele>
        <time>2018-06-10T12:20:14Z</time>
      </trkpt>
      <trkpt lat="45.69976" lon="5.65253">
        <ele>322</ele>
        <time>2018-06-10T12:20:14Z</time>
      </trkpt>
      <trkpt lat="45.69978" lon="5.65251">
        <ele>322</ele>
        <time>2018-06-10T12:20:14Z</time>
      </trkpt>
      <trkpt lat="45.69978" lon="5.6525">
        <ele>322</ele>
        <time>2018-06-10T12:20:29Z</time>
      </trkpt>
      <trkpt lat="45.69981" lon="5.65248">
        <ele>322</ele>
        <time>2018-06-10T12:20:29Z</time>
      </trkpt>
      <trkpt lat="45.69986" lon="5.65248">
        <ele>322</ele>
        <time>2018-06-10T12:20:29Z</time>
      </trkpt>
      <trkpt lat="45.6999" lon="5.65249">
        <ele>322</ele>
        <time>2018-06-10T12:20:29Z</time>
      </trkpt>
      <trkpt lat="45.69993" lon="5.65245">
        <ele>322</ele>
        <time>2018-06-10T12:21:05Z</time>
      </trkpt>
      <trkpt lat="45.69993" lon="5.65245">
        <ele>322</ele>
        <time>2018-06-10T12:21:05Z</time>
      </trkpt>
      <trkpt lat="45.69995" lon="5.65243">
        <ele>322</ele>
        <time>2018-06-10T12:21:05Z</time>
      </trkpt>
      <trkpt lat="45.70002" lon="5.65237">
        <ele>322</ele>
        <time>2018-06-10T12:21:05Z</time>
      </trkpt>
      <trkpt lat="45.70002" lon="5.65231">
        <ele>322</ele>
        <time>2018-06-10T12:21:05Z</time>
      </trkpt>
      <trkpt lat="45.70003" lon="5.65225">
        <ele>322</ele>
        <time>2018-06-10T12:21:25Z</time>
      </trkpt>
      <trkpt lat="45.70003" lon="5.65224">
        <ele>322</ele>
        <time>2018-06-10T12:21:25Z</time>
      </trkpt>
      <trkpt lat="45.70005" lon="5.6522">
        <ele>322</ele>
        <time>2018-06-10T12:21:25Z</time>
      </trkpt>
      <trkpt lat="45.70007" lon="5.65214">
        <ele>322</ele>
        <time>2018-06-10T12:21:25Z</time>
      </trkpt>
      <trkpt lat="45.70011" lon="5.6521">
        <ele>322</ele>
        <time>2018-06-10T12:21:25Z</time>
      </trkpt>
      <trkpt lat="45.70016" lon="5.65208">
        <ele>318</ele>
        <time>2018-06-10T12:21:41Z</time>
      </trkpt>
      <trkpt lat="45.70019" lon="5.65205">
        <ele>318</ele>
        <time>2018-06-10T12:21:41Z</time>
      </trkpt>
      <trkpt lat="45.70019" lon="5.65202">
        <ele>318</ele>
        <time>2018-06-10T12:21:41Z</time>
      </trkpt>
      <trkpt lat="45.70021" lon="5.65197">
        <ele>318</ele>
        <time>2018-06-10T12:21:41Z</time>
      </trkpt>
      <trkpt lat="45.70023" lon="5.65192">
        <ele>318</ele>
        <time>2018-06-10T12:21:57Z</time>
      </trkpt>
      <trkpt lat="45.70025" lon="5.65191">
        <ele>318</ele>
        <time>2018-06-10T12:21:57Z</time>
      </trkpt>
      <trkpt lat="45.70029" lon="5.65189">
        <ele>318</ele>
        <time>2018-06-10T12:21:57Z</time>
      </trkpt>
      <trkpt lat="45.70033" lon="5.65181">
        <ele>318</ele>
        <time>2018-06-10T12:21:57Z</time>
      </trkpt>
      <trkpt lat="45.70036" lon="5.65175">
        <ele>318</ele>
        <time>2018-06-10T12:22:13Z</time>
      </trkpt>
      <trkpt lat="45.70038" lon="5.65169">
        <ele>318</ele>
        <time>2018-06-10T12:22:13Z</time>
      </trkpt>
      <trkpt lat="45.70041" lon="5.65167">
        <ele>318</ele>
        <time>2018-06-10T12:22:13Z</time>
      </trkpt>
      <trkpt lat="45.70044" lon="5.65162">
        <ele>320</ele>
        <time>2018-06-10T12:22:13Z</time>
      </trkpt>
      <trkpt lat="45.70046" lon="5.65159">
        <ele>320</ele>
        <time>2018-06-10T12:22:29Z</time>
      </trkpt>
      <trkpt lat="45.70048" lon="5.65154">
        <ele>320</ele>
        <time>2018-06-10T12:22:29Z</time>
      </trkpt>
      <trkpt lat="45.7005" lon="5.65149">
        <ele>320</ele>
        <time>2018-06-10T12:22:29Z</time>
      </trkpt>
      <trkpt lat="45.70054" lon="5.65144">
        <ele>320</ele>
        <time>2018-06-10T12:22:29Z</time>
      </trkpt>
      <trkpt lat="45.70057" lon="5.6514">
        <ele>320</ele>
        <time>2018-06-10T12:22:45Z</time>
      </trkpt>
      <trkpt lat="45.7006" lon="5.65135">
        <ele>320</ele>
        <time>2018-06-10T12:22:45Z</time>
      </trkpt>
      <trkpt lat="45.70062" lon="5.65131">
        <ele>320</ele>
        <time>2018-06-10T12:22:45Z</time>
      </trkpt>
      <trkpt lat="45.70066" lon="5.65125">
        <ele>324</ele>
        <time>2018-06-10T12:22:45Z</time>
      </trkpt>
      <trkpt lat="45.7007" lon="5.65118">
        <ele>324</ele>
        <time>2018-06-10T12:23:01Z</time>
      </trkpt>
      <trkpt lat="45.70075" lon="5.65114">
        <ele>324</ele>
        <time>2018-06-10T12:23:01Z</time>
      </trkpt>
      <trkpt lat="45.70077" lon="5.65113">
        <ele>324</ele>
        <time>2018-06-10T12:23:01Z</time>
      </trkpt>
      <trkpt lat="45.70079" lon="5.6511">
        <ele>324</ele>
        <time>2018-06-10T12:23:01Z</time>
      </trkpt>
      <trkpt lat="45.70081" lon="5.65107">
        <ele>324</ele>
        <time>2018-06-10T12:23:21Z</time>
      </trkpt>
      <trkpt lat="45.70082" lon="5.65103">
        <ele>324</ele>
        <time>2018-06-10T12:23:21Z</time>
      </trkpt>
      <trkpt lat="45.70083" lon="5.65101">
        <ele>324</ele>
        <time>2018-06-10T12:23:21Z</time>
      </trkpt>
      <trkpt lat="45.70086" lon="5.65096">
        <ele>324</ele>
        <time>2018-06-10T12:23:21Z</time>
      </trkpt>
      <trkpt lat="45.70089" lon="5.65093">
        <ele>324</ele>
        <time>2018-06-10T12:23:21Z</time>
      </trkpt>
      <trkpt lat="45.70092" lon="5.65091">
        <ele>324</ele>
        <time>2018-06-10T12:23:37Z</time>
      </trkpt>
      <trkpt lat="45.70095" lon="5.65087">
        <ele>324</ele>
        <time>2018-06-10T12:23:37Z</time>
      </trkpt>
      <trkpt lat="45.70101" lon="5.65082">
        <ele>324</ele>
        <time>2018-06-10T12:23:37Z</time>
      </trkpt>
      <trkpt lat="45.70105" lon="5.65076">
        <ele>324</ele>
        <time>2018-06-10T12:23:37Z</time>
      </trkpt>
      <trkpt lat="45.70109" lon="5.65074">
        <ele>324</ele>
        <time>2018-06-10T12:23:53Z</time>
      </trkpt>
      <trkpt lat="45.70112" lon="5.65071">
        <ele>324</ele>
        <time>2018-06-10T12:23:53Z</time>
      </trkpt>
      <trkpt lat="45.70115" lon="5.65068">
        <ele>324</ele>
        <time>2018-06-10T12:23:53Z</time>
      </trkpt>
      <trkpt lat="45.70122" lon="5.65063">
        <ele>324</ele>
        <time>2018-06-10T12:23:53Z</time>
      </trkpt>
      <trkpt lat="45.70128" lon="5.65065">
        <ele>322</ele>
        <time>2018-06-10T12:24:29Z</time>
      </trkpt>
      <trkpt lat="45.70129" lon="5.65066">
        <ele>322</ele>
        <time>2018-06-10T12:24:29Z</time>
      </trkpt>
      <trkpt lat="45.7013" lon="5.65063">
        <ele>322</ele>
        <time>2018-06-10T12:24:29Z</time>
      </trkpt>
      <trkpt lat="45.7013" lon="5.6506">
        <ele>322</ele>
        <time>2018-06-10T12:24:29Z</time>
      </trkpt>
      <trkpt lat="45.70129" lon="5.65055">
        <ele>322</ele>
        <time>2018-06-10T12:24:29Z</time>
      </trkpt>
      <trkpt lat="45.70125" lon="5.6505">
        <ele>322</ele>
        <time>2018-06-10T12:24:45Z</time>
      </trkpt>
      <trkpt lat="45.7012" lon="5.65046">
        <ele>324</ele>
        <time>2018-06-10T12:24:45Z</time>
      </trkpt>
      <trkpt lat="45.70116" lon="5.6504">
        <ele>325</ele>
        <time>2018-06-10T12:24:45Z</time>
      </trkpt>
      <trkpt lat="45.70112" lon="5.65034">
        <ele>325</ele>
        <time>2018-06-10T12:24:45Z</time>
      </trkpt>
      <trkpt lat="45.70107" lon="5.65029">
        <ele>325</ele>
        <time>2018-06-10T12:25:01Z</time>
      </trkpt>
      <trkpt lat="45.70103" lon="5.65023">
        <ele>325</ele>
        <time>2018-06-10T12:25:01Z</time>
      </trkpt>
      <trkpt lat="45.70098" lon="5.65017">
        <ele>325</ele>
        <time>2018-06-10T12:25:01Z</time>
      </trkpt>
      <trkpt lat="45.70095" lon="5.65012">
        <ele>325</ele>
        <time>2018-06-10T12:25:01Z</time>
      </trkpt>
      <trkpt lat="45.7009" lon="5.65006">
        <ele>325</ele>
        <time>2018-06-10T12:25:17Z</time>
      </trkpt>
      <trkpt lat="45.70087" lon="5.64998">
        <ele>325</ele>
        <time>2018-06-10T12:25:17Z</time>
      </trkpt>
      <trkpt lat="45.70082" lon="5.64991">
        <ele>325</ele>
        <time>2018-06-10T12:25:17Z</time>
      </trkpt>
      <trkpt lat="45.70078" lon="5.64983">
        <ele>325</ele>
        <time>2018-06-10T12:25:17Z</time>
      </trkpt>
      <trkpt lat="45.70073" lon="5.64978">
        <ele>325</ele>
        <time>2018-06-10T12:25:33Z</time>
      </trkpt>
      <trkpt lat="45.7007" lon="5.64972">
        <ele>325</ele>
        <time>2018-06-10T12:25:33Z</time>
      </trkpt>
      <trkpt lat="45.70066" lon="5.64967">
        <ele>325</ele>
        <time>2018-06-10T12:25:33Z</time>
      </trkpt>
      <trkpt lat="45.70064" lon="5.64966">
        <ele>325</ele>
        <time>2018-06-10T12:25:33Z</time>
      </trkpt>
      <trkpt lat="45.7006" lon="5.64965">
        <ele>325</ele>
        <time>2018-06-10T12:25:49Z</time>
      </trkpt>
      <trkpt lat="45.70055" lon="5.64961">
        <ele>325</ele>
        <time>2018-06-10T12:25:49Z</time>
      </trkpt>
      <trkpt lat="45.70049" lon="5.64955">
        <ele>331</ele>
        <time>2018-06-10T12:25:49Z</time>
      </trkpt>
      <trkpt lat="45.70043" lon="5.64949">
        <ele>331</ele>
        <time>2018-06-10T12:25:49Z</time>
      </trkpt>
      <trkpt lat="45.70038" lon="5.64944">
        <ele>319</ele>
        <time>2018-06-10T12:26:05Z</time>
      </trkpt>
      <trkpt lat="45.70033" lon="5.6494">
        <ele>319</ele>
        <time>2018-06-10T12:26:05Z</time>
      </trkpt>
      <trkpt lat="45.70032" lon="5.64938">
        <ele>319</ele>
        <time>2018-06-10T12:26:05Z</time>
      </trkpt>
      <trkpt lat="45.70028" lon="5.64935">
        <ele>319</ele>
        <time>2018-06-10T12:26:05Z</time>
      </trkpt>
      <trkpt lat="45.70027" lon="5.64932">
        <ele>319</ele>
        <time>2018-06-10T12:26:21Z</time>
      </trkpt>
      <trkpt lat="45.70025" lon="5.6493">
        <ele>319</ele>
        <time>2018-06-10T12:26:21Z</time>
      </trkpt>
      <trkpt lat="45.70017" lon="5.64924">
        <ele>319</ele>
        <time>2018-06-10T12:26:21Z</time>
      </trkpt>
      <trkpt lat="45.70011" lon="5.6492">
        <ele>319</ele>
        <time>2018-06-10T12:26:21Z</time>
      </trkpt>
      <trkpt lat="45.69998" lon="5.64909">
        <ele>319</ele>
        <time>2018-06-10T12:26:57Z</time>
      </trkpt>
      <trkpt lat="45.69998" lon="5.64908">
        <ele>319</ele>
        <time>2018-06-10T12:26:57Z</time>
      </trkpt>
      <trkpt lat="45.69998" lon="5.64908">
        <ele>319</ele>
        <time>2018-06-10T12:26:57Z</time>
      </trkpt>
      <trkpt lat="45.69997" lon="5.64908">
        <ele>319</ele>
        <time>2018-06-10T12:26:57Z</time>
      </trkpt>
      <trkpt lat="45.69997" lon="5.64907">
        <ele>319</ele>
        <time>2018-06-10T12:26:57Z</time>
      </trkpt>
      <trkpt lat="45.69999" lon="5.64907">
        <ele>319</ele>
        <time>2018-06-10T12:27:29Z</time>
      </trkpt>
      <trkpt lat="45.7" lon="5.64909">
        <ele>319</ele>
        <time>2018-06-10T12:27:29Z</time>
      </trkpt>
      <trkpt lat="45.70002" lon="5.64907">
        <ele>319</ele>
        <time>2018-06-10T12:27:29Z</time>
      </trkpt>
      <trkpt lat="45.7" lon="5.64898">
        <ele>319</ele>
        <time>2018-06-10T12:27:29Z</time>
      </trkpt>
      <trkpt lat="45.69995" lon="5.64891">
        <ele>319</ele>
        <time>2018-06-10T12:27:29Z</time>
      </trkpt>
      <trkpt lat="45.69991" lon="5.64888">
        <ele>319</ele>
        <time>2018-06-10T12:27:45Z</time>
      </trkpt>
      <trkpt lat="45.69986" lon="5.64884">
        <ele>319</ele>
        <time>2018-06-10T12:27:45Z</time>
      </trkpt>
      <trkpt lat="45.69981" lon="5.64879">
        <ele>319</ele>
        <time>2018-06-10T12:27:45Z</time>
      </trkpt>
      <trkpt lat="45.69976" lon="5.64875">
        <ele>319</ele>
        <time>2018-06-10T12:27:45Z</time>
      </trkpt>
      <trkpt lat="45.6997" lon="5.64872">
        <ele>324</ele>
        <time>2018-06-10T12:28:01Z</time>
      </trkpt>
      <trkpt lat="45.69966" lon="5.64868">
        <ele>324</ele>
        <time>2018-06-10T12:28:01Z</time>
      </trkpt>
      <trkpt lat="45.69962" lon="5.64866">
        <ele>324</ele>
        <time>2018-06-10T12:28:01Z</time>
      </trkpt>
      <trkpt lat="45.69955" lon="5.64862">
        <ele>316</ele>
        <time>2018-06-10T12:28:01Z</time>
      </trkpt>
      <trkpt lat="45.69951" lon="5.64857">
        <ele>316</ele>
        <time>2018-06-10T12:28:17Z</time>
      </trkpt>
      <trkpt lat="45.69947" lon="5.64853">
        <ele>316</ele>
        <time>2018-06-10T12:28:17Z</time>
      </trkpt>
      <trkpt lat="45.69943" lon="5.64848">
        <ele>316</ele>
        <time>2018-06-10T12:28:17Z</time>
      </trkpt>
      <trkpt lat="45.69941" lon="5.64847">
        <ele>316</ele>
        <time>2018-06-10T12:28:17Z</time>
      </trkpt>
      <trkpt lat="45.69939" lon="5.64844">
        <ele>316</ele>
        <time>2018-06-10T12:28:37Z</time>
      </trkpt>
      <trkpt lat="45.69937" lon="5.64841">
        <ele>316</ele>
        <time>2018-06-10T12:28:37Z</time>
      </trkpt>
      <trkpt lat="45.69937" lon="5.64839">
        <ele>316</ele>
        <time>2018-06-10T12:28:37Z</time>
      </trkpt>
      <trkpt lat="45.69934" lon="5.64835">
        <ele>316</ele>
        <time>2018-06-10T12:28:37Z</time>
      </trkpt>
      <trkpt lat="45.69931" lon="5.6483">
        <ele>316</ele>
        <time>2018-06-10T12:28:37Z</time>
      </trkpt>
      <trkpt lat="45.69928" lon="5.64825">
        <ele>316</ele>
        <time>2018-06-10T12:28:53Z</time>
      </trkpt>
      <trkpt lat="45.69923" lon="5.64819">
        <ele>316</ele>
        <time>2018-06-10T12:28:53Z</time>
      </trkpt>
      <trkpt lat="45.69918" lon="5.64814">
        <ele>316</ele>
        <time>2018-06-10T12:28:53Z</time>
      </trkpt>
      <trkpt lat="45.69913" lon="5.64808">
        <ele>316</ele>
        <time>2018-06-10T12:28:53Z</time>
      </trkpt>
      <trkpt lat="45.69908" lon="5.64801">
        <ele>316</ele>
        <time>2018-06-10T12:29:37Z</time>
      </trkpt>
      <trkpt lat="45.69905" lon="5.64797">
        <ele>316</ele>
        <time>2018-06-10T12:29:37Z</time>
      </trkpt>
      <trkpt lat="45.69901" lon="5.64792">
        <ele>316</ele>
        <time>2018-06-10T12:29:37Z</time>
      </trkpt>
      <trkpt lat="45.69897" lon="5.64786">
        <ele>324</ele>
        <time>2018-06-10T12:29:37Z</time>
      </trkpt>
      <trkpt lat="45.69894" lon="5.64784">
        <ele>324</ele>
        <time>2018-06-10T12:29:37Z</time>
      </trkpt>
      <trkpt lat="45.69893" lon="5.64783">
        <ele>324</ele>
        <time>2018-06-10T12:29:53Z</time>
      </trkpt>
      <trkpt lat="45.69892" lon="5.64782">
        <ele>324</ele>
        <time>2018-06-10T12:29:53Z</time>
      </trkpt>
      <trkpt lat="45.69887" lon="5.64777">
        <ele>324</ele>
        <time>2018-06-10T12:29:53Z</time>
      </trkpt>
      <trkpt lat="45.69884" lon="5.64772">
        <ele>324</ele>
        <time>2018-06-10T12:29:53Z</time>
      </trkpt>
      <trkpt lat="45.69882" lon="5.64765">
        <ele>324</ele>
        <time>2018-06-10T12:30:09Z</time>
      </trkpt>
      <trkpt lat="45.69878" lon="5.64756">
        <ele>324</ele>
        <time>2018-06-10T12:30:09Z</time>
      </trkpt>
      <trkpt lat="45.69876" lon="5.64749">
        <ele>324</ele>
        <time>2018-06-10T12:30:09Z</time>
      </trkpt>
      <trkpt lat="45.69872" lon="5.64742">
        <ele>312</ele>
        <time>2018-06-10T12:30:09Z</time>
      </trkpt>
      <trkpt lat="45.69867" lon="5.64733">
        <ele>312</ele>
        <time>2018-06-10T12:30:25Z</time>
      </trkpt>
      <trkpt lat="45.69864" lon="5.64727">
        <ele>312</ele>
        <time>2018-06-10T12:30:25Z</time>
      </trkpt>
      <trkpt lat="45.6986" lon="5.64722">
        <ele>312</ele>
        <time>2018-06-10T12:30:25Z</time>
      </trkpt>
      <trkpt lat="45.69857" lon="5.64717">
        <ele>312</ele>
        <time>2018-06-10T12:30:25Z</time>
      </trkpt>
      <trkpt lat="45.69852" lon="5.64708">
        <ele>315</ele>
        <time>2018-06-10T12:30:41Z</time>
      </trkpt>
      <trkpt lat="45.69849" lon="5.64704">
        <ele>315</ele>
        <time>2018-06-10T12:30:41Z</time>
      </trkpt>
      <trkpt lat="45.69846" lon="5.64698">
        <ele>315</ele>
        <time>2018-06-10T12:30:41Z</time>
      </trkpt>
      <trkpt lat="45.69843" lon="5.64693">
        <ele>315</ele>
        <time>2018-06-10T12:30:41Z</time>
      </trkpt>
      <trkpt lat="45.69838" lon="5.64688">
        <ele>315</ele>
        <time>2018-06-10T12:30:57Z</time>
      </trkpt>
      <trkpt lat="45.69833" lon="5.64685">
        <ele>315</ele>
        <time>2018-06-10T12:30:57Z</time>
      </trkpt>
      <trkpt lat="45.69829" lon="5.64682">
        <ele>315</ele>
        <time>2018-06-10T12:30:57Z</time>
      </trkpt>
      <trkpt lat="45.69824" lon="5.64678">
        <ele>315</ele>
        <time>2018-06-10T12:30:57Z</time>
      </trkpt>
      <trkpt lat="45.69818" lon="5.64673">
        <ele>315</ele>
        <time>2018-06-10T12:31:13Z</time>
      </trkpt>
      <trkpt lat="45.69814" lon="5.64666">
        <ele>315</ele>
        <time>2018-06-10T12:31:13Z</time>
      </trkpt>
      <trkpt lat="45.69811" lon="5.64661">
        <ele>315</ele>
        <time>2018-06-10T12:31:13Z</time>
      </trkpt>
      <trkpt lat="45.69809" lon="5.64656">
        <ele>315</ele>
        <time>2018-06-10T12:31:13Z</time>
      </trkpt>
      <trkpt lat="45.69807" lon="5.64649">
        <ele>315</ele>
        <time>2018-06-10T12:31:29Z</time>
      </trkpt>
      <trkpt lat="45.69805" lon="5.64641">
        <ele>315</ele>
        <time>2018-06-10T12:31:29Z</time>
      </trkpt>
      <trkpt lat="45.69805" lon="5.64633">
        <ele>315</ele>
        <time>2018-06-10T12:31:29Z</time>
      </trkpt>
      <trkpt lat="45.69806" lon="5.64624">
        <ele>313</ele>
        <time>2018-06-10T12:31:29Z</time>
      </trkpt>
      <trkpt lat="45.69807" lon="5.64615">
        <ele>313</ele>
        <time>2018-06-10T12:31:45Z</time>
      </trkpt>
      <trkpt lat="45.6981" lon="5.64603">
        <ele>313</ele>
        <time>2018-06-10T12:31:45Z</time>
      </trkpt>
      <trkpt lat="45.69814" lon="5.64594">
        <ele>313</ele>
        <time>2018-06-10T12:31:45Z</time>
      </trkpt>
      <trkpt lat="45.69818" lon="5.64586">
        <ele>313</ele>
        <time>2018-06-10T12:31:45Z</time>
      </trkpt>
      <trkpt lat="45.69822" lon="5.64579">
        <ele>313</ele>
        <time>2018-06-10T12:32:01Z</time>
      </trkpt>
      <trkpt lat="45.69827" lon="5.64572">
        <ele>313</ele>
        <time>2018-06-10T12:32:01Z</time>
      </trkpt>
      <trkpt lat="45.69832" lon="5.64562">
        <ele>313</ele>
        <time>2018-06-10T12:32:01Z</time>
      </trkpt>
      <trkpt lat="45.69835" lon="5.64554">
        <ele>313</ele>
        <time>2018-06-10T12:32:01Z</time>
      </trkpt>
      <trkpt lat="45.6984" lon="5.64547">
        <ele>313</ele>
        <time>2018-06-10T12:32:17Z</time>
      </trkpt>
      <trkpt lat="45.69844" lon="5.64538">
        <ele>307</ele>
        <time>2018-06-10T12:32:17Z</time>
      </trkpt>
      <trkpt lat="45.69849" lon="5.6453">
        <ele>307</ele>
        <time>2018-06-10T12:32:17Z</time>
      </trkpt>
      <trkpt lat="45.69854" lon="5.64525">
        <ele>307</ele>
        <time>2018-06-10T12:32:17Z</time>
      </trkpt>
      <trkpt lat="45.69858" lon="5.64517">
        <ele>307</ele>
        <time>2018-06-10T12:32:33Z</time>
      </trkpt>
      <trkpt lat="45.69862" lon="5.64509">
        <ele>307</ele>
        <time>2018-06-10T12:32:33Z</time>
      </trkpt>
      <trkpt lat="45.69866" lon="5.64501">
        <ele>307</ele>
        <time>2018-06-10T12:32:33Z</time>
      </trkpt>
      <trkpt lat="45.6987" lon="5.64494">
        <ele>307</ele>
        <time>2018-06-10T12:32:33Z</time>
      </trkpt>
      <trkpt lat="45.69874" lon="5.64488">
        <ele>307</ele>
        <time>2018-06-10T12:32:49Z</time>
      </trkpt>
      <trkpt lat="45.69878" lon="5.6448">
        <ele>319</ele>
        <time>2018-06-10T12:32:49Z</time>
      </trkpt>
      <trkpt lat="45.69882" lon="5.64473">
        <ele>319</ele>
        <time>2018-06-10T12:32:49Z</time>
      </trkpt>
      <trkpt lat="45.69885" lon="5.64467">
        <ele>319</ele>
        <time>2018-06-10T12:32:49Z</time>
      </trkpt>
      <trkpt lat="45.69889" lon="5.64459">
        <ele>319</ele>
        <time>2018-06-10T12:33:05Z</time>
      </trkpt>
      <trkpt lat="45.69892" lon="5.64453">
        <ele>315</ele>
        <time>2018-06-10T12:33:05Z</time>
      </trkpt>
      <trkpt lat="45.69896" lon="5.64447">
        <ele>315</ele>
        <time>2018-06-10T12:33:05Z</time>
      </trkpt>
      <trkpt lat="45.69899" lon="5.6444">
        <ele>315</ele>
        <time>2018-06-10T12:33:05Z</time>
      </trkpt>
      <trkpt lat="45.69901" lon="5.64432">
        <ele>315</ele>
        <time>2018-06-10T12:33:21Z</time>
      </trkpt>
      <trkpt lat="45.69905" lon="5.64425">
        <ele>315</ele>
        <time>2018-06-10T12:33:21Z</time>
      </trkpt>
      <trkpt lat="45.69907" lon="5.64417">
        <ele>315</ele>
        <time>2018-06-10T12:33:21Z</time>
      </trkpt>
      <trkpt lat="45.6991" lon="5.64409">
        <ele>315</ele>
        <time>2018-06-10T12:33:21Z</time>
      </trkpt>
      <trkpt lat="45.69912" lon="5.64403">
        <ele>315</ele>
        <time>2018-06-10T12:33:37Z</time>
      </trkpt>
      <trkpt lat="45.69914" lon="5.64396">
        <ele>315</ele>
        <time>2018-06-10T12:33:37Z</time>
      </trkpt>
      <trkpt lat="45.69918" lon="5.64389">
        <ele>315</ele>
        <time>2018-06-10T12:33:37Z</time>
      </trkpt>
      <trkpt lat="45.6992" lon="5.64382">
        <ele>315</ele>
        <time>2018-06-10T12:33:37Z</time>
      </trkpt>
      <trkpt lat="45.69925" lon="5.64373">
        <ele>309</ele>
        <time>2018-06-10T12:33:53Z</time>
      </trkpt>
      <trkpt lat="45.69929" lon="5.64366">
        <ele>309</ele>
        <time>2018-06-10T12:33:53Z</time>
      </trkpt>
      <trkpt lat="45.69931" lon="5.64362">
        <ele>309</ele>
        <time>2018-06-10T12:33:53Z</time>
      </trkpt>
      <trkpt lat="45.69933" lon="5.64355">
        <ele>309</ele>
        <time>2018-06-10T12:33:53Z</time>
      </trkpt>
      <trkpt lat="45.69935" lon="5.64348">
        <ele>309</ele>
        <time>2018-06-10T12:34:09Z</time>
      </trkpt>
      <trkpt lat="45.69939" lon="5.64342">
        <ele>309</ele>
        <time>2018-06-10T12:34:09Z</time>
      </trkpt>
      <trkpt lat="45.69942" lon="5.64334">
        <ele>309</ele>
        <time>2018-06-10T12:34:09Z</time>
      </trkpt>
      <trkpt lat="45.69943" lon="5.64326">
        <ele>309</ele>
        <time>2018-06-10T12:34:09Z</time>
      </trkpt>
      <trkpt lat="45.69947" lon="5.64319">
        <ele>309</ele>
        <time>2018-06-10T12:34:25Z</time>
      </trkpt>
      <trkpt lat="45.69951" lon="5.64311">
        <ele>309</ele>
        <time>2018-06-10T12:34:25Z</time>
      </trkpt>
      <trkpt lat="45.69955" lon="5.64304">
        <ele>309</ele>
        <time>2018-06-10T12:34:25Z</time>
      </trkpt>
      <trkpt lat="45.69958" lon="5.64298">
        <ele>309</ele>
        <time>2018-06-10T12:34:25Z</time>
      </trkpt>
      <trkpt lat="45.69961" lon="5.64293">
        <ele>324</ele>
        <time>2018-06-10T12:34:41Z</time>
      </trkpt>
      <trkpt lat="45.69963" lon="5.64287">
        <ele>312</ele>
        <time>2018-06-10T12:34:41Z</time>
      </trkpt>
      <trkpt lat="45.69967" lon="5.64284">
        <ele>312</ele>
        <time>2018-06-10T12:34:41Z</time>
      </trkpt>
      <trkpt lat="45.6997" lon="5.64277">
        <ele>312</ele>
        <time>2018-06-10T12:34:41Z</time>
      </trkpt>
      <trkpt lat="45.69974" lon="5.64271">
        <ele>312</ele>
        <time>2018-06-10T12:34:57Z</time>
      </trkpt>
      <trkpt lat="45.69977" lon="5.64267">
        <ele>312</ele>
        <time>2018-06-10T12:34:57Z</time>
      </trkpt>
      <trkpt lat="45.69981" lon="5.6426">
        <ele>312</ele>
        <time>2018-06-10T12:34:57Z</time>
      </trkpt>
      <trkpt lat="45.69985" lon="5.64256">
        <ele>312</ele>
        <time>2018-06-10T12:34:57Z</time>
      </trkpt>
      <trkpt lat="45.69988" lon="5.64249">
        <ele>312</ele>
        <time>2018-06-10T12:35:13Z</time>
      </trkpt>
      <trkpt lat="45.69991" lon="5.64241">
        <ele>312</ele>
        <time>2018-06-10T12:35:13Z</time>
      </trkpt>
      <trkpt lat="45.69993" lon="5.64235">
        <ele>312</ele>
        <time>2018-06-10T12:35:13Z</time>
      </trkpt>
      <trkpt lat="45.69996" lon="5.64226">
        <ele>312</ele>
        <time>2018-06-10T12:35:13Z</time>
      </trkpt>
      <trkpt lat="45.69999" lon="5.64219">
        <ele>312</ele>
        <time>2018-06-10T12:35:29Z</time>
      </trkpt>
      <trkpt lat="45.70001" lon="5.64212">
        <ele>312</ele>
        <time>2018-06-10T12:35:29Z</time>
      </trkpt>
      <trkpt lat="45.70004" lon="5.64203">
        <ele>312</ele>
        <time>2018-06-10T12:35:29Z</time>
      </trkpt>
      <trkpt lat="45.70007" lon="5.64196">
        <ele>312</ele>
        <time>2018-06-10T12:35:29Z</time>
      </trkpt>
      <trkpt lat="45.7001" lon="5.64191">
        <ele>312</ele>
        <time>2018-06-10T12:35:45Z</time>
      </trkpt>
      <trkpt lat="45.70012" lon="5.64184">
        <ele>312</ele>
        <time>2018-06-10T12:35:45Z</time>
      </trkpt>
      <trkpt lat="45.70014" lon="5.64179">
        <ele>312</ele>
        <time>2018-06-10T12:35:45Z</time>
      </trkpt>
      <trkpt lat="45.70019" lon="5.64171">
        <ele>312</ele>
        <time>2018-06-10T12:35:45Z</time>
      </trkpt>
      <trkpt lat="45.70022" lon="5.64165">
        <ele>312</ele>
        <time>2018-06-10T12:36:01Z</time>
      </trkpt>
      <trkpt lat="45.70024" lon="5.64157">
        <ele>312</ele>
        <time>2018-06-10T12:36:01Z</time>
      </trkpt>
      <trkpt lat="45.70027" lon="5.64149">
        <ele>312</ele>
        <time>2018-06-10T12:36:01Z</time>
      </trkpt>
      <trkpt lat="45.70031" lon="5.64143">
        <ele>312</ele>
        <time>2018-06-10T12:36:01Z</time>
      </trkpt>
      <trkpt lat="45.70034" lon="5.64136">
        <ele>312</ele>
        <time>2018-06-10T12:36:17Z</time>
      </trkpt>
      <trkpt lat="45.70037" lon="5.6413">
        <ele>312</ele>
        <time>2018-06-10T12:36:17Z</time>
      </trkpt>
      <trkpt lat="45.70042" lon="5.64124">
        <ele>316</ele>
        <time>2018-06-10T12:36:17Z</time>
      </trkpt>
      <trkpt lat="45.70046" lon="5.64118">
        <ele>316</ele>
        <time>2018-06-10T12:36:17Z</time>
      </trkpt>
      <trkpt lat="45.70049" lon="5.6411">
        <ele>316</ele>
        <time>2018-06-10T12:36:33Z</time>
      </trkpt>
      <trkpt lat="45.70052" lon="5.64104">
        <ele>316</ele>
        <time>2018-06-10T12:36:33Z</time>
      </trkpt>
      <trkpt lat="45.70053" lon="5.64099">
        <ele>316</ele>
        <time>2018-06-10T12:36:33Z</time>
      </trkpt>
      <trkpt lat="45.70058" lon="5.64096">
        <ele>316</ele>
        <time>2018-06-10T12:36:33Z</time>
      </trkpt>
      <trkpt lat="45.70062" lon="5.64089">
        <ele>316</ele>
        <time>2018-06-10T12:36:49Z</time>
      </trkpt>
      <trkpt lat="45.70066" lon="5.64081">
        <ele>316</ele>
        <time>2018-06-10T12:36:49Z</time>
      </trkpt>
      <trkpt lat="45.7007" lon="5.64077">
        <ele>316</ele>
        <time>2018-06-10T12:36:49Z</time>
      </trkpt>
      <trkpt lat="45.70073" lon="5.6407">
        <ele>316</ele>
        <time>2018-06-10T12:36:49Z</time>
      </trkpt>
      <trkpt lat="45.70076" lon="5.64063">
        <ele>316</ele>
        <time>2018-06-10T12:37:05Z</time>
      </trkpt>
      <trkpt lat="45.70077" lon="5.64058">
        <ele>316</ele>
        <time>2018-06-10T12:37:05Z</time>
      </trkpt>
      <trkpt lat="45.70074" lon="5.64051">
        <ele>316</ele>
        <time>2018-06-10T12:37:05Z</time>
      </trkpt>
      <trkpt lat="45.7007" lon="5.64045">
        <ele>316</ele>
        <time>2018-06-10T12:37:05Z</time>
      </trkpt>
      <trkpt lat="45.70067" lon="5.64041">
        <ele>313</ele>
        <time>2018-06-10T12:37:21Z</time>
      </trkpt>
      <trkpt lat="45.70064" lon="5.64034">
        <ele>313</ele>
        <time>2018-06-10T12:37:21Z</time>
      </trkpt>
      <trkpt lat="45.70061" lon="5.64027">
        <ele>313</ele>
        <time>2018-06-10T12:37:21Z</time>
      </trkpt>
      <trkpt lat="45.70057" lon="5.64019">
        <ele>313</ele>
        <time>2018-06-10T12:37:21Z</time>
      </trkpt>
      <trkpt lat="45.70056" lon="5.64011">
        <ele>313</ele>
        <time>2018-06-10T12:37:37Z</time>
      </trkpt>
      <trkpt lat="45.70055" lon="5.64004">
        <ele>313</ele>
        <time>2018-06-10T12:37:37Z</time>
      </trkpt>
      <trkpt lat="45.70057" lon="5.63994">
        <ele>313</ele>
        <time>2018-06-10T12:37:37Z</time>
      </trkpt>
      <trkpt lat="45.7006" lon="5.63985">
        <ele>313</ele>
        <time>2018-06-10T12:37:37Z</time>
      </trkpt>
      <trkpt lat="45.70063" lon="5.63977">
        <ele>313</ele>
        <time>2018-06-10T12:37:53Z</time>
      </trkpt>
      <trkpt lat="45.70065" lon="5.6397">
        <ele>313</ele>
        <time>2018-06-10T12:37:53Z</time>
      </trkpt>
      <trkpt lat="45.70068" lon="5.6396">
        <ele>313</ele>
        <time>2018-06-10T12:37:53Z</time>
      </trkpt>
      <trkpt lat="45.7007" lon="5.63952">
        <ele>310</ele>
        <time>2018-06-10T12:37:53Z</time>
      </trkpt>
      <trkpt lat="45.70072" lon="5.63946">
        <ele>310</ele>
        <time>2018-06-10T12:38:09Z</time>
      </trkpt>
      <trkpt lat="45.70074" lon="5.63939">
        <ele>310</ele>
        <time>2018-06-10T12:38:09Z</time>
      </trkpt>
      <trkpt lat="45.70076" lon="5.63932">
        <ele>310</ele>
        <time>2018-06-10T12:38:09Z</time>
      </trkpt>
      <trkpt lat="45.70078" lon="5.63924">
        <ele>310</ele>
        <time>2018-06-10T12:38:09Z</time>
      </trkpt>
      <trkpt lat="45.7008" lon="5.63917">
        <ele>310</ele>
        <time>2018-06-10T12:38:25Z</time>
      </trkpt>
      <trkpt lat="45.70082" lon="5.63907">
        <ele>310</ele>
        <time>2018-06-10T12:38:25Z</time>
      </trkpt>
      <trkpt lat="45.70084" lon="5.63901">
        <ele>310</ele>
        <time>2018-06-10T12:38:25Z</time>
      </trkpt>
      <trkpt lat="45.70087" lon="5.63891">
        <ele>310</ele>
        <time>2018-06-10T12:38:25Z</time>
      </trkpt>
      <trkpt lat="45.70088" lon="5.63884">
        <ele>310</ele>
        <time>2018-06-10T12:38:41Z</time>
      </trkpt>
      <trkpt lat="45.70089" lon="5.63877">
        <ele>310</ele>
        <time>2018-06-10T12:38:41Z</time>
      </trkpt>
      <trkpt lat="45.70088" lon="5.63856">
        <ele>309</ele>
        <time>2018-06-10T12:38:41Z</time>
      </trkpt>
      <trkpt lat="45.70086" lon="5.63811">
        <ele>309</ele>
        <time>2018-06-10T12:38:41Z</time>
      </trkpt>
      <trkpt lat="45.70088" lon="5.63786">
        <ele>309</ele>
        <time>2018-06-10T12:38:57Z</time>
      </trkpt>
      <trkpt lat="45.70098" lon="5.63756">
        <ele>309</ele>
        <time>2018-06-10T12:38:57Z</time>
      </trkpt>
      <trkpt lat="45.70117" lon="5.63743">
        <ele>309</ele>
        <time>2018-06-10T12:38:57Z</time>
      </trkpt>
      <trkpt lat="45.70124" lon="5.63735">
        <ele>309</ele>
        <time>2018-06-10T12:38:57Z</time>
      </trkpt>
      <trkpt lat="45.70125" lon="5.63734">
        <ele>310</ele>
        <time>2018-06-10T12:39:13Z</time>
      </trkpt>
      <trkpt lat="45.70128" lon="5.63729">
        <ele>310</ele>
        <time>2018-06-10T12:39:13Z</time>
      </trkpt>
      <trkpt lat="45.7013" lon="5.63722">
        <ele>310</ele>
        <time>2018-06-10T12:39:13Z</time>
      </trkpt>
      <trkpt lat="45.70132" lon="5.63714">
        <ele>310</ele>
        <time>2018-06-10T12:39:13Z</time>
      </trkpt>
      <trkpt lat="45.70133" lon="5.63708">
        <ele>310</ele>
        <time>2018-06-10T12:39:29Z</time>
      </trkpt>
      <trkpt lat="45.70134" lon="5.63701">
        <ele>310</ele>
        <time>2018-06-10T12:39:29Z</time>
      </trkpt>
      <trkpt lat="45.70134" lon="5.63693">
        <ele>310</ele>
        <time>2018-06-10T12:39:29Z</time>
      </trkpt>
      <trkpt lat="45.70133" lon="5.63685">
        <ele>310</ele>
        <time>2018-06-10T12:39:29Z</time>
      </trkpt>
      <trkpt lat="45.70133" lon="5.63672">
        <ele>310</ele>
        <time>2018-06-10T12:39:45Z</time>
      </trkpt>
      <trkpt lat="45.70134" lon="5.63662">
        <ele>310</ele>
        <time>2018-06-10T12:39:45Z</time>
      </trkpt>
      <trkpt lat="45.70134" lon="5.63655">
        <ele>310</ele>
        <time>2018-06-10T12:39:45Z</time>
      </trkpt>
      <trkpt lat="45.70135" lon="5.63648">
        <ele>310</ele>
        <time>2018-06-10T12:39:45Z</time>
      </trkpt>
      <trkpt lat="45.70136" lon="5.63641">
        <ele>310</ele>
        <time>2018-06-10T12:40:01Z</time>
      </trkpt>
      <trkpt lat="45.70135" lon="5.63629">
        <ele>310</ele>
        <time>2018-06-10T12:40:01Z</time>
      </trkpt>
      <trkpt lat="45.70136" lon="5.63622">
        <ele>310</ele>
        <time>2018-06-10T12:40:01Z</time>
      </trkpt>
      <trkpt lat="45.70138" lon="5.63614">
        <ele>310</ele>
        <time>2018-06-10T12:40:01Z</time>
      </trkpt>
      <trkpt lat="45.70139" lon="5.63609">
        <ele>310</ele>
        <time>2018-06-10T12:40:17Z</time>
      </trkpt>
      <trkpt lat="45.70141" lon="5.63601">
        <ele>310</ele>
        <time>2018-06-10T12:40:17Z</time>
      </trkpt>
      <trkpt lat="45.70143" lon="5.63595">
        <ele>310</ele>
        <time>2018-06-10T12:40:17Z</time>
      </trkpt>
      <trkpt lat="45.70146" lon="5.63589">
        <ele>310</ele>
        <time>2018-06-10T12:40:17Z</time>
      </trkpt>
      <trkpt lat="45.70149" lon="5.63557">
        <ele>310</ele>
        <time>2018-06-10T12:41:45Z</time>
      </trkpt>
      <trkpt lat="45.70148" lon="5.63556">
        <ele>310</ele>
        <time>2018-06-10T12:41:45Z</time>
      </trkpt>
      <trkpt lat="45.70146" lon="5.63554">
        <ele>310</ele>
        <time>2018-06-10T12:41:45Z</time>
      </trkpt>
      <trkpt lat="45.70145" lon="5.63553">
        <ele>310</ele>
        <time>2018-06-10T12:41:45Z</time>
      </trkpt>
      <trkpt lat="45.70145" lon="5.63552">
        <ele>310</ele>
        <time>2018-06-10T12:41:45Z</time>
      </trkpt>
      <trkpt lat="45.70147" lon="5.6355">
        <ele>310</ele>
        <time>2018-06-10T12:43:21Z</time>
      </trkpt>
      <trkpt lat="45.70145" lon="5.63546">
        <ele>310</ele>
        <time>2018-06-10T12:43:21Z</time>
      </trkpt>
      <trkpt lat="45.70142" lon="5.63541">
        <ele>313</ele>
        <time>2018-06-10T12:43:21Z</time>
      </trkpt>
      <trkpt lat="45.70142" lon="5.63539">
        <ele>313</ele>
        <time>2018-06-10T12:43:21Z</time>
      </trkpt>
      <trkpt lat="45.7014" lon="5.63537">
        <ele>313</ele>
        <time>2018-06-10T12:43:21Z</time>
      </trkpt>
      <trkpt lat="45.70132" lon="5.63527">
        <ele>313</ele>
        <time>2018-06-10T12:43:49Z</time>
      </trkpt>
      <trkpt lat="45.70131" lon="5.63526">
        <ele>313</ele>
        <time>2018-06-10T12:43:49Z</time>
      </trkpt>
      <trkpt lat="45.7013" lon="5.63524">
        <ele>313</ele>
        <time>2018-06-10T12:43:49Z</time>
      </trkpt>
      <trkpt lat="45.7013" lon="5.63524">
        <ele>313</ele>
        <time>2018-06-10T12:43:49Z</time>
      </trkpt>
      <trkpt lat="45.70127" lon="5.63522">
        <ele>313</ele>
        <time>2018-06-10T12:43:49Z</time>
      </trkpt>
      <trkpt lat="45.70127" lon="5.63521">
        <ele>313</ele>
        <time>2018-06-10T12:44:05Z</time>
      </trkpt>
      <trkpt lat="45.70126" lon="5.63521">
        <ele>313</ele>
        <time>2018-06-10T12:44:05Z</time>
      </trkpt>
      <trkpt lat="45.70124" lon="5.63518">
        <ele>316</ele>
        <time>2018-06-10T12:44:05Z</time>
      </trkpt>
      <trkpt lat="45.70119" lon="5.63513">
        <ele>316</ele>
        <time>2018-06-10T12:44:05Z</time>
      </trkpt>
      <trkpt lat="45.70116" lon="5.63511">
        <ele>316</ele>
        <time>2018-06-10T12:44:21Z</time>
      </trkpt>
      <trkpt lat="45.70116" lon="5.6351">
        <ele>316</ele>
        <time>2018-06-10T12:44:21Z</time>
      </trkpt>
      <trkpt lat="45.70115" lon="5.63507">
        <ele>316</ele>
        <time>2018-06-10T12:44:21Z</time>
      </trkpt>
      <trkpt lat="45.70111" lon="5.63498">
        <ele>316</ele>
        <time>2018-06-10T12:44:21Z</time>
      </trkpt>
      <trkpt lat="45.70104" lon="5.63479">
        <ele>316</ele>
        <time>2018-06-10T12:44:37Z</time>
      </trkpt>
      <trkpt lat="45.70099" lon="5.63453">
        <ele>324</ele>
        <time>2018-06-10T12:44:37Z</time>
      </trkpt>
      <trkpt lat="45.70096" lon="5.63438">
        <ele>324</ele>
        <time>2018-06-10T12:44:37Z</time>
      </trkpt>
      <trkpt lat="45.70096" lon="5.63429">
        <ele>324</ele>
        <time>2018-06-10T12:44:37Z</time>
      </trkpt>
      <trkpt lat="45.70097" lon="5.63419">
        <ele>324</ele>
        <time>2018-06-10T12:44:53Z</time>
      </trkpt>
      <trkpt lat="45.70101" lon="5.63412">
        <ele>324</ele>
        <time>2018-06-10T12:44:53Z</time>
      </trkpt>
      <trkpt lat="45.70103" lon="5.63406">
        <ele>324</ele>
        <time>2018-06-10T12:44:53Z</time>
      </trkpt>
      <trkpt lat="45.70104" lon="5.63402">
        <ele>324</ele>
        <time>2018-06-10T12:44:53Z</time>
      </trkpt>
      <trkpt lat="45.70106" lon="5.63398">
        <ele>324</ele>
        <time>2018-06-10T12:45:09Z</time>
      </trkpt>
      <trkpt lat="45.70108" lon="5.63392">
        <ele>324</ele>
        <time>2018-06-10T12:45:09Z</time>
      </trkpt>
      <trkpt lat="45.7011" lon="5.63384">
        <ele>324</ele>
        <time>2018-06-10T12:45:09Z</time>
      </trkpt>
      <trkpt lat="45.70111" lon="5.63372">
        <ele>325</ele>
        <time>2018-06-10T12:45:09Z</time>
      </trkpt>
      <trkpt lat="45.7011" lon="5.63364">
        <ele>325</ele>
        <time>2018-06-10T12:45:25Z</time>
      </trkpt>
      <trkpt lat="45.70108" lon="5.63356">
        <ele>325</ele>
        <time>2018-06-10T12:45:25Z</time>
      </trkpt>
      <trkpt lat="45.70106" lon="5.63351">
        <ele>325</ele>
        <time>2018-06-10T12:45:25Z</time>
      </trkpt>
      <trkpt lat="45.70105" lon="5.63348">
        <ele>325</ele>
        <time>2018-06-10T12:45:25Z</time>
      </trkpt>
      <trkpt lat="45.70104" lon="5.63345">
        <ele>325</ele>
        <time>2018-06-10T12:45:41Z</time>
      </trkpt>
      <trkpt lat="45.70101" lon="5.6334">
        <ele>325</ele>
        <time>2018-06-10T12:45:41Z</time>
      </trkpt>
      <trkpt lat="45.70093" lon="5.63317">
        <ele>325</ele>
        <time>2018-06-10T12:45:41Z</time>
      </trkpt>
      <trkpt lat="45.70077" lon="5.63298">
        <ele>325</ele>
        <time>2018-06-10T12:45:41Z</time>
      </trkpt>
      <trkpt lat="45.70063" lon="5.63298">
        <ele>325</ele>
        <time>2018-06-10T12:45:57Z</time>
      </trkpt>
      <trkpt lat="45.70038" lon="5.63308">
        <ele>332</ele>
        <time>2018-06-10T12:45:57Z</time>
      </trkpt>
      <trkpt lat="45.70015" lon="5.63322">
        <ele>332</ele>
        <time>2018-06-10T12:45:57Z</time>
      </trkpt>
      <trkpt lat="45.70001" lon="5.63324">
        <ele>332</ele>
        <time>2018-06-10T12:45:57Z</time>
      </trkpt>
      <trkpt lat="45.69995" lon="5.63322">
        <ele>332</ele>
        <time>2018-06-10T12:46:13Z</time>
      </trkpt>
      <trkpt lat="45.6999" lon="5.63318">
        <ele>332</ele>
        <time>2018-06-10T12:46:13Z</time>
      </trkpt>
      <trkpt lat="45.69985" lon="5.63311">
        <ele>332</ele>
        <time>2018-06-10T12:46:13Z</time>
      </trkpt>
      <trkpt lat="45.69983" lon="5.63306">
        <ele>332</ele>
        <time>2018-06-10T12:46:13Z</time>
      </trkpt>
      <trkpt lat="45.6998" lon="5.63297">
        <ele>332</ele>
        <time>2018-06-10T12:46:29Z</time>
      </trkpt>
      <trkpt lat="45.69977" lon="5.63289">
        <ele>339</ele>
        <time>2018-06-10T12:46:29Z</time>
      </trkpt>
      <trkpt lat="45.69975" lon="5.6328">
        <ele>339</ele>
        <time>2018-06-10T12:46:29Z</time>
      </trkpt>
      <trkpt lat="45.69973" lon="5.63273">
        <ele>339</ele>
        <time>2018-06-10T12:46:29Z</time>
      </trkpt>
      <trkpt lat="45.69972" lon="5.63264">
        <ele>339</ele>
        <time>2018-06-10T12:46:45Z</time>
      </trkpt>
      <trkpt lat="45.69971" lon="5.63257">
        <ele>339</ele>
        <time>2018-06-10T12:46:45Z</time>
      </trkpt>
      <trkpt lat="45.69971" lon="5.63244">
        <ele>339</ele>
        <time>2018-06-10T12:46:45Z</time>
      </trkpt>
      <trkpt lat="45.69969" lon="5.63237">
        <ele>339</ele>
        <time>2018-06-10T12:46:45Z</time>
      </trkpt>
      <trkpt lat="45.69967" lon="5.63228">
        <ele>339</ele>
        <time>2018-06-10T12:47:01Z</time>
      </trkpt>
      <trkpt lat="45.69964" lon="5.63221">
        <ele>339</ele>
        <time>2018-06-10T12:47:01Z</time>
      </trkpt>
      <trkpt lat="45.69963" lon="5.63214">
        <ele>339</ele>
        <time>2018-06-10T12:47:01Z</time>
      </trkpt>
      <trkpt lat="45.69963" lon="5.63206">
        <ele>350</ele>
        <time>2018-06-10T12:47:01Z</time>
      </trkpt>
      <trkpt lat="45.6996" lon="5.63199">
        <ele>350</ele>
        <time>2018-06-10T12:47:17Z</time>
      </trkpt>
      <trkpt lat="45.69956" lon="5.63193">
        <ele>350</ele>
        <time>2018-06-10T12:47:17Z</time>
      </trkpt>
      <trkpt lat="45.69953" lon="5.63187">
        <ele>350</ele>
        <time>2018-06-10T12:47:17Z</time>
      </trkpt>
      <trkpt lat="45.69951" lon="5.6318">
        <ele>350</ele>
        <time>2018-06-10T12:47:17Z</time>
      </trkpt>
      <trkpt lat="45.69951" lon="5.6317">
        <ele>350</ele>
        <time>2018-06-10T12:47:33Z</time>
      </trkpt>
      <trkpt lat="45.6995" lon="5.63162">
        <ele>350</ele>
        <time>2018-06-10T12:47:33Z</time>
      </trkpt>
      <trkpt lat="45.69951" lon="5.63157">
        <ele>350</ele>
        <time>2018-06-10T12:47:33Z</time>
      </trkpt>
      <trkpt lat="45.69951" lon="5.63151">
        <ele>350</ele>
        <time>2018-06-10T12:47:33Z</time>
      </trkpt>
      <trkpt lat="45.69951" lon="5.63141">
        <ele>350</ele>
        <time>2018-06-10T12:47:49Z</time>
      </trkpt>
      <trkpt lat="45.69952" lon="5.63134">
        <ele>350</ele>
        <time>2018-06-10T12:47:49Z</time>
      </trkpt>
      <trkpt lat="45.69953" lon="5.63128">
        <ele>350</ele>
        <time>2018-06-10T12:47:49Z</time>
      </trkpt>
      <trkpt lat="45.69953" lon="5.63122">
        <ele>360</ele>
        <time>2018-06-10T12:47:49Z</time>
      </trkpt>
      <trkpt lat="45.69951" lon="5.63115">
        <ele>360</ele>
        <time>2018-06-10T12:48:05Z</time>
      </trkpt>
      <trkpt lat="45.69951" lon="5.63108">
        <ele>360</ele>
        <time>2018-06-10T12:48:05Z</time>
      </trkpt>
      <trkpt lat="45.69949" lon="5.631">
        <ele>360</ele>
        <time>2018-06-10T12:48:05Z</time>
      </trkpt>
      <trkpt lat="45.69947" lon="5.63094">
        <ele>360</ele>
        <time>2018-06-10T12:48:05Z</time>
      </trkpt>
      <trkpt lat="45.69946" lon="5.63089">
        <ele>360</ele>
        <time>2018-06-10T12:48:25Z</time>
      </trkpt>
      <trkpt lat="45.69945" lon="5.63084">
        <ele>360</ele>
        <time>2018-06-10T12:48:25Z</time>
      </trkpt>
      <trkpt lat="45.69944" lon="5.63083">
        <ele>360</ele>
        <time>2018-06-10T12:48:25Z</time>
      </trkpt>
      <trkpt lat="45.69944" lon="5.63082">
        <ele>360</ele>
        <time>2018-06-10T12:48:25Z</time>
      </trkpt>
      <trkpt lat="45.69941" lon="5.63074">
        <ele>360</ele>
        <time>2018-06-10T12:48:25Z</time>
      </trkpt>
      <trkpt lat="45.69938" lon="5.63066">
        <ele>360</ele>
        <time>2018-06-10T12:48:41Z</time>
      </trkpt>
      <trkpt lat="45.69936" lon="5.63062">
        <ele>360</ele>
        <time>2018-06-10T12:48:41Z</time>
      </trkpt>
      <trkpt lat="45.69934" lon="5.63055">
        <ele>360</ele>
        <time>2018-06-10T12:48:41Z</time>
      </trkpt>
      <trkpt lat="45.69932" lon="5.63052">
        <ele>360</ele>
        <time>2018-06-10T12:48:41Z</time>
      </trkpt>
      <trkpt lat="45.69928" lon="5.63047">
        <ele>360</ele>
        <time>2018-06-10T12:48:57Z</time>
      </trkpt>
      <trkpt lat="45.69924" lon="5.63039">
        <ele>369</ele>
        <time>2018-06-10T12:48:57Z</time>
      </trkpt>
      <trkpt lat="45.69919" lon="5.63031">
        <ele>369</ele>
        <time>2018-06-10T12:48:57Z</time>
      </trkpt>
      <trkpt lat="45.69915" lon="5.63022">
        <ele>369</ele>
        <time>2018-06-10T12:48:57Z</time>
      </trkpt>
      <trkpt lat="45.69911" lon="5.63016">
        <ele>369</ele>
        <time>2018-06-10T12:49:13Z</time>
      </trkpt>
      <trkpt lat="45.69909" lon="5.63012">
        <ele>369</ele>
        <time>2018-06-10T12:49:13Z</time>
      </trkpt>
      <trkpt lat="45.69906" lon="5.63006">
        <ele>369</ele>
        <time>2018-06-10T12:49:13Z</time>
      </trkpt>
      <trkpt lat="45.69902" lon="5.62998">
        <ele>369</ele>
        <time>2018-06-10T12:49:13Z</time>
      </trkpt>
      <trkpt lat="45.69899" lon="5.6299">
        <ele>369</ele>
        <time>2018-06-10T12:49:29Z</time>
      </trkpt>
      <trkpt lat="45.69896" lon="5.62983">
        <ele>369</ele>
        <time>2018-06-10T12:49:29Z</time>
      </trkpt>
      <trkpt lat="45.69895" lon="5.62976">
        <ele>369</ele>
        <time>2018-06-10T12:49:29Z</time>
      </trkpt>
      <trkpt lat="45.69893" lon="5.62969">
        <ele>369</ele>
        <time>2018-06-10T12:49:29Z</time>
      </trkpt>
      <trkpt lat="45.69891" lon="5.62964">
        <ele>369</ele>
        <time>2018-06-10T12:49:45Z</time>
      </trkpt>
      <trkpt lat="45.69889" lon="5.62956">
        <ele>375</ele>
        <time>2018-06-10T12:49:45Z</time>
      </trkpt>
      <trkpt lat="45.69887" lon="5.6295">
        <ele>375</ele>
        <time>2018-06-10T12:49:45Z</time>
      </trkpt>
      <trkpt lat="45.69884" lon="5.62944">
        <ele>375</ele>
        <time>2018-06-10T12:49:45Z</time>
      </trkpt>
      <trkpt lat="45.69882" lon="5.62937">
        <ele>375</ele>
        <time>2018-06-10T12:50:01Z</time>
      </trkpt>
      <trkpt lat="45.69878" lon="5.62929">
        <ele>375</ele>
        <time>2018-06-10T12:50:01Z</time>
      </trkpt>
      <trkpt lat="45.69876" lon="5.62923">
        <ele>375</ele>
        <time>2018-06-10T12:50:01Z</time>
      </trkpt>
      <trkpt lat="45.69873" lon="5.62917">
        <ele>370</ele>
        <time>2018-06-10T12:50:01Z</time>
      </trkpt>
      <trkpt lat="45.69871" lon="5.62914">
        <ele>370</ele>
        <time>2018-06-10T12:50:33Z</time>
      </trkpt>
      <trkpt lat="45.69871" lon="5.62913">
        <ele>370</ele>
        <time>2018-06-10T12:50:33Z</time>
      </trkpt>
      <trkpt lat="45.69867" lon="5.62913">
        <ele>370</ele>
        <time>2018-06-10T12:50:33Z</time>
      </trkpt>
      <trkpt lat="45.69864" lon="5.62914">
        <ele>370</ele>
        <time>2018-06-10T12:50:33Z</time>
      </trkpt>
      <trkpt lat="45.69859" lon="5.62914">
        <ele>370</ele>
        <time>2018-06-10T12:50:33Z</time>
      </trkpt>
      <trkpt lat="45.69855" lon="5.62914">
        <ele>370</ele>
        <time>2018-06-10T12:50:49Z</time>
      </trkpt>
      <trkpt lat="45.69851" lon="5.62914">
        <ele>370</ele>
        <time>2018-06-10T12:50:49Z</time>
      </trkpt>
      <trkpt lat="45.69847" lon="5.62918">
        <ele>370</ele>
        <time>2018-06-10T12:50:49Z</time>
      </trkpt>
      <trkpt lat="45.69841" lon="5.62918">
        <ele>370</ele>
        <time>2018-06-10T12:50:49Z</time>
      </trkpt>
      <trkpt lat="45.69836" lon="5.62915">
        <ele>370</ele>
        <time>2018-06-10T12:51:05Z</time>
      </trkpt>
      <trkpt lat="45.69831" lon="5.62911">
        <ele>370</ele>
        <time>2018-06-10T12:51:05Z</time>
      </trkpt>
      <trkpt lat="45.69826" lon="5.62907">
        <ele>370</ele>
        <time>2018-06-10T12:51:05Z</time>
      </trkpt>
      <trkpt lat="45.69822" lon="5.62906">
        <ele>370</ele>
        <time>2018-06-10T12:51:05Z</time>
      </trkpt>
      <trkpt lat="45.69817" lon="5.62902">
        <ele>370</ele>
        <time>2018-06-10T12:51:21Z</time>
      </trkpt>
      <trkpt lat="45.69816" lon="5.62897">
        <ele>370</ele>
        <time>2018-06-10T12:51:21Z</time>
      </trkpt>
      <trkpt lat="45.69817" lon="5.62893">
        <ele>370</ele>
        <time>2018-06-10T12:51:21Z</time>
      </trkpt>
      <trkpt lat="45.6982" lon="5.62885">
        <ele>370</ele>
        <time>2018-06-10T12:51:21Z</time>
      </trkpt>
      <trkpt lat="45.69823" lon="5.62876">
        <ele>370</ele>
        <time>2018-06-10T12:51:37Z</time>
      </trkpt>
      <trkpt lat="45.69826" lon="5.62868">
        <ele>366</ele>
        <time>2018-06-10T12:51:37Z</time>
      </trkpt>
      <trkpt lat="45.69828" lon="5.62859">
        <ele>366</ele>
        <time>2018-06-10T12:51:37Z</time>
      </trkpt>
      <trkpt lat="45.6983" lon="5.6285">
        <ele>366</ele>
        <time>2018-06-10T12:51:37Z</time>
      </trkpt>
      <trkpt lat="45.6983" lon="5.62843">
        <ele>366</ele>
        <time>2018-06-10T12:51:53Z</time>
      </trkpt>
      <trkpt lat="45.6983" lon="5.62836">
        <ele>366</ele>
        <time>2018-06-10T12:51:53Z</time>
      </trkpt>
      <trkpt lat="45.69833" lon="5.62829">
        <ele>366</ele>
        <time>2018-06-10T12:51:53Z</time>
      </trkpt>
      <trkpt lat="45.69833" lon="5.62821">
        <ele>366</ele>
        <time>2018-06-10T12:51:53Z</time>
      </trkpt>
      <trkpt lat="45.69834" lon="5.62814">
        <ele>366</ele>
        <time>2018-06-10T12:52:09Z</time>
      </trkpt>
      <trkpt lat="45.69834" lon="5.62805">
        <ele>366</ele>
        <time>2018-06-10T12:52:09Z</time>
      </trkpt>
      <trkpt lat="45.69834" lon="5.62794">
        <ele>366</ele>
        <time>2018-06-10T12:52:09Z</time>
      </trkpt>
      <trkpt lat="45.69834" lon="5.62785">
        <ele>361</ele>
        <time>2018-06-10T12:52:09Z</time>
      </trkpt>
      <trkpt lat="45.69833" lon="5.62777">
        <ele>361</ele>
        <time>2018-06-10T12:52:25Z</time>
      </trkpt>
      <trkpt lat="45.69832" lon="5.62768">
        <ele>361</ele>
        <time>2018-06-10T12:52:25Z</time>
      </trkpt>
      <trkpt lat="45.69832" lon="5.62761">
        <ele>361</ele>
        <time>2018-06-10T12:52:25Z</time>
      </trkpt>
      <trkpt lat="45.69832" lon="5.62755">
        <ele>361</ele>
        <time>2018-06-10T12:52:25Z</time>
      </trkpt>
      <trkpt lat="45.69831" lon="5.62746">
        <ele>361</ele>
        <time>2018-06-10T12:52:41Z</time>
      </trkpt>
      <trkpt lat="45.69831" lon="5.62737">
        <ele>361</ele>
        <time>2018-06-10T12:52:41Z</time>
      </trkpt>
      <trkpt lat="45.69832" lon="5.62727">
        <ele>361</ele>
        <time>2018-06-10T12:52:41Z</time>
      </trkpt>
      <trkpt lat="45.69831" lon="5.6272">
        <ele>361</ele>
        <time>2018-06-10T12:52:41Z</time>
      </trkpt>
      <trkpt lat="45.69831" lon="5.62719">
        <ele>361</ele>
        <time>2018-06-10T12:52:57Z</time>
      </trkpt>
      <trkpt lat="45.69832" lon="5.62711">
        <ele>361</ele>
        <time>2018-06-10T12:52:57Z</time>
      </trkpt>
      <trkpt lat="45.69833" lon="5.62702">
        <ele>355</ele>
        <time>2018-06-10T12:52:57Z</time>
      </trkpt>
      <trkpt lat="45.69834" lon="5.62696">
        <ele>355</ele>
        <time>2018-06-10T12:52:57Z</time>
      </trkpt>
      <trkpt lat="45.69836" lon="5.62689">
        <ele>355</ele>
        <time>2018-06-10T12:53:13Z</time>
      </trkpt>
      <trkpt lat="45.69838" lon="5.62678">
        <ele>355</ele>
        <time>2018-06-10T12:53:14Z</time>
      </trkpt>
      <trkpt lat="45.6984" lon="5.6267">
        <ele>355</ele>
        <time>2018-06-10T12:53:14Z</time>
      </trkpt>
      <trkpt lat="45.69842" lon="5.62662">
        <ele>355</ele>
        <time>2018-06-10T12:53:14Z</time>
      </trkpt>
      <trkpt lat="45.69843" lon="5.62655">
        <ele>355</ele>
        <time>2018-06-10T12:53:29Z</time>
      </trkpt>
      <trkpt lat="45.69845" lon="5.62645">
        <ele>355</ele>
        <time>2018-06-10T12:53:29Z</time>
      </trkpt>
      <trkpt lat="45.69846" lon="5.62638">
        <ele>355</ele>
        <time>2018-06-10T12:53:29Z</time>
      </trkpt>
      <trkpt lat="45.69847" lon="5.6263">
        <ele>355</ele>
        <time>2018-06-10T12:53:29Z</time>
      </trkpt>
      <trkpt lat="45.69845" lon="5.62619">
        <ele>351</ele>
        <time>2018-06-10T12:53:45Z</time>
      </trkpt>
      <trkpt lat="45.69846" lon="5.62608">
        <ele>351</ele>
        <time>2018-06-10T12:53:45Z</time>
      </trkpt>
      <trkpt lat="45.69849" lon="5.62594">
        <ele>351</ele>
        <time>2018-06-10T12:53:45Z</time>
      </trkpt>
      <trkpt lat="45.69848" lon="5.62576">
        <ele>351</ele>
        <time>2018-06-10T12:53:45Z</time>
      </trkpt>
      <trkpt lat="45.69846" lon="5.62562">
        <ele>351</ele>
        <time>2018-06-10T12:54:01Z</time>
      </trkpt>
      <trkpt lat="45.69845" lon="5.62555">
        <ele>351</ele>
        <time>2018-06-10T12:54:01Z</time>
      </trkpt>
      <trkpt lat="45.69843" lon="5.62547">
        <ele>351</ele>
        <time>2018-06-10T12:54:01Z</time>
      </trkpt>
      <trkpt lat="45.6984" lon="5.62539">
        <ele>350</ele>
        <time>2018-06-10T12:54:01Z</time>
      </trkpt>
      <trkpt lat="45.69831" lon="5.62517">
        <ele>350</ele>
        <time>2018-06-10T12:54:17Z</time>
      </trkpt>
      <trkpt lat="45.69826" lon="5.62487">
        <ele>350</ele>
        <time>2018-06-10T12:54:17Z</time>
      </trkpt>
      <trkpt lat="45.69824" lon="5.62458">
        <ele>353</ele>
        <time>2018-06-10T12:54:17Z</time>
      </trkpt>
      <trkpt lat="45.69821" lon="5.62443">
        <ele>353</ele>
        <time>2018-06-10T12:54:17Z</time>
      </trkpt>
      <trkpt lat="45.6982" lon="5.62432">
        <ele>353</ele>
        <time>2018-06-10T12:54:33Z</time>
      </trkpt>
      <trkpt lat="45.6982" lon="5.62424">
        <ele>353</ele>
        <time>2018-06-10T12:54:33Z</time>
      </trkpt>
      <trkpt lat="45.69817" lon="5.62415">
        <ele>353</ele>
        <time>2018-06-10T12:54:33Z</time>
      </trkpt>
      <trkpt lat="45.69814" lon="5.62406">
        <ele>353</ele>
        <time>2018-06-10T12:54:33Z</time>
      </trkpt>
      <trkpt lat="45.69811" lon="5.62396">
        <ele>353</ele>
        <time>2018-06-10T12:54:49Z</time>
      </trkpt>
      <trkpt lat="45.69809" lon="5.62387">
        <ele>353</ele>
        <time>2018-06-10T12:54:49Z</time>
      </trkpt>
      <trkpt lat="45.69808" lon="5.62378">
        <ele>353</ele>
        <time>2018-06-10T12:54:49Z</time>
      </trkpt>
      <trkpt lat="45.69809" lon="5.62373">
        <ele>354</ele>
        <time>2018-06-10T12:54:49Z</time>
      </trkpt>
      <trkpt lat="45.69807" lon="5.62368">
        <ele>354</ele>
        <time>2018-06-10T12:55:05Z</time>
      </trkpt>
      <trkpt lat="45.69807" lon="5.6236">
        <ele>354</ele>
        <time>2018-06-10T12:55:05Z</time>
      </trkpt>
      <trkpt lat="45.69806" lon="5.62353">
        <ele>354</ele>
        <time>2018-06-10T12:55:05Z</time>
      </trkpt>
      <trkpt lat="45.69805" lon="5.62348">
        <ele>354</ele>
        <time>2018-06-10T12:55:05Z</time>
      </trkpt>
      <trkpt lat="45.69804" lon="5.62341">
        <ele>354</ele>
        <time>2018-06-10T12:55:21Z</time>
      </trkpt>
      <trkpt lat="45.69803" lon="5.62334">
        <ele>354</ele>
        <time>2018-06-10T12:55:21Z</time>
      </trkpt>
      <trkpt lat="45.69803" lon="5.62329">
        <ele>354</ele>
        <time>2018-06-10T12:55:21Z</time>
      </trkpt>
      <trkpt lat="45.69802" lon="5.62322">
        <ele>354</ele>
        <time>2018-06-10T12:55:21Z</time>
      </trkpt>
      <trkpt lat="45.698" lon="5.62315">
        <ele>354</ele>
        <time>2018-06-10T12:55:37Z</time>
      </trkpt>
      <trkpt lat="45.69798" lon="5.62309">
        <ele>354</ele>
        <time>2018-06-10T12:55:37Z</time>
      </trkpt>
      <trkpt lat="45.69797" lon="5.62302">
        <ele>354</ele>
        <time>2018-06-10T12:55:37Z</time>
      </trkpt>
      <trkpt lat="45.69796" lon="5.623">
        <ele>354</ele>
        <time>2018-06-10T12:55:37Z</time>
      </trkpt>
      <trkpt lat="45.69795" lon="5.62292">
        <ele>354</ele>
        <time>2018-06-10T12:55:53Z</time>
      </trkpt>
      <trkpt lat="45.69793" lon="5.62285">
        <ele>354</ele>
        <time>2018-06-10T12:55:53Z</time>
      </trkpt>
      <trkpt lat="45.69792" lon="5.62276">
        <ele>353</ele>
        <time>2018-06-10T12:55:53Z</time>
      </trkpt>
      <trkpt lat="45.69789" lon="5.62268">
        <ele>353</ele>
        <time>2018-06-10T12:55:53Z</time>
      </trkpt>
      <trkpt lat="45.69789" lon="5.62252">
        <ele>353</ele>
        <time>2018-06-10T12:56:25Z</time>
      </trkpt>
      <trkpt lat="45.69794" lon="5.62249">
        <ele>354</ele>
        <time>2018-06-10T12:56:25Z</time>
      </trkpt>
      <trkpt lat="45.69799" lon="5.62245">
        <ele>354</ele>
        <time>2018-06-10T12:56:25Z</time>
      </trkpt>
      <trkpt lat="45.69804" lon="5.62242">
        <ele>354</ele>
        <time>2018-06-10T12:56:25Z</time>
      </trkpt>
      <trkpt lat="45.6981" lon="5.62239">
        <ele>354</ele>
        <time>2018-06-10T12:56:25Z</time>
      </trkpt>
      <trkpt lat="45.69816" lon="5.62235">
        <ele>354</ele>
        <time>2018-06-10T12:56:41Z</time>
      </trkpt>
      <trkpt lat="45.69821" lon="5.62233">
        <ele>354</ele>
        <time>2018-06-10T12:56:41Z</time>
      </trkpt>
      <trkpt lat="45.69825" lon="5.62228">
        <ele>354</ele>
        <time>2018-06-10T12:56:41Z</time>
      </trkpt>
      <trkpt lat="45.69828" lon="5.62223">
        <ele>354</ele>
        <time>2018-06-10T12:56:41Z</time>
      </trkpt>
      <trkpt lat="45.69833" lon="5.6222">
        <ele>354</ele>
        <time>2018-06-10T12:56:57Z</time>
      </trkpt>
      <trkpt lat="45.69838" lon="5.62216">
        <ele>354</ele>
        <time>2018-06-10T12:56:57Z</time>
      </trkpt>
      <trkpt lat="45.69842" lon="5.62211">
        <ele>354</ele>
        <time>2018-06-10T12:56:57Z</time>
      </trkpt>
      <trkpt lat="45.69842" lon="5.62211">
        <ele>354</ele>
        <time>2018-06-10T12:56:57Z</time>
      </trkpt>
      <trkpt lat="45.69842" lon="5.6221">
        <ele>354</ele>
        <time>2018-06-10T12:57:33Z</time>
      </trkpt>
      <trkpt lat="45.69838" lon="5.62215">
        <ele>354</ele>
        <time>2018-06-10T12:57:33Z</time>
      </trkpt>
      <trkpt lat="45.69835" lon="5.62219">
        <ele>354</ele>
        <time>2018-06-10T12:57:33Z</time>
      </trkpt>
      <trkpt lat="45.69828" lon="5.62226">
        <ele>354</ele>
        <time>2018-06-10T12:57:33Z</time>
      </trkpt>
      <trkpt lat="45.69823" lon="5.62233">
        <ele>354</ele>
        <time>2018-06-10T12:57:33Z</time>
      </trkpt>
      <trkpt lat="45.69822" lon="5.62231">
        <ele>354</ele>
        <time>2018-06-10T12:57:49Z</time>
      </trkpt>
      <trkpt lat="45.69823" lon="5.62228">
        <ele>354</ele>
        <time>2018-06-10T12:57:49Z</time>
      </trkpt>
      <trkpt lat="45.69827" lon="5.62228">
        <ele>354</ele>
        <time>2018-06-10T12:57:49Z</time>
      </trkpt>
      <trkpt lat="45.69835" lon="5.62229">
        <ele>354</ele>
        <time>2018-06-10T12:57:49Z</time>
      </trkpt>
      <trkpt lat="45.69841" lon="5.62231">
        <ele>354</ele>
        <time>2018-06-10T12:58:13Z</time>
      </trkpt>
      <trkpt lat="45.69841" lon="5.62231">
        <ele>354</ele>
        <time>2018-06-10T12:58:13Z</time>
      </trkpt>
      <trkpt lat="45.69841" lon="5.62232">
        <ele>354</ele>
        <time>2018-06-10T12:58:13Z</time>
      </trkpt>
      <trkpt lat="45.69845" lon="5.62231">
        <ele>354</ele>
        <time>2018-06-10T12:58:13Z</time>
      </trkpt>
      <trkpt lat="45.69851" lon="5.6223">
        <ele>354</ele>
        <time>2018-06-10T12:58:13Z</time>
      </trkpt>
      <trkpt lat="45.69859" lon="5.62228">
        <ele>354</ele>
        <time>2018-06-10T12:58:29Z</time>
      </trkpt>
      <trkpt lat="45.69866" lon="5.62225">
        <ele>354</ele>
        <time>2018-06-10T12:58:29Z</time>
      </trkpt>
      <trkpt lat="45.69872" lon="5.62222">
        <ele>354</ele>
        <time>2018-06-10T12:58:29Z</time>
      </trkpt>
      <trkpt lat="45.69878" lon="5.62221">
        <ele>366</ele>
        <time>2018-06-10T12:58:29Z</time>
      </trkpt>
      <trkpt lat="45.69882" lon="5.62219">
        <ele>366</ele>
        <time>2018-06-10T12:58:45Z</time>
      </trkpt>
      <trkpt lat="45.69887" lon="5.62221">
        <ele>366</ele>
        <time>2018-06-10T12:58:45Z</time>
      </trkpt>
      <trkpt lat="45.69896" lon="5.6222">
        <ele>366</ele>
        <time>2018-06-10T12:58:45Z</time>
      </trkpt>
      <trkpt lat="45.69901" lon="5.62217">
        <ele>366</ele>
        <time>2018-06-10T12:58:45Z</time>
      </trkpt>
      <trkpt lat="45.69904" lon="5.62211">
        <ele>366</ele>
        <time>2018-06-10T12:59:01Z</time>
      </trkpt>
      <trkpt lat="45.69908" lon="5.62205">
        <ele>366</ele>
        <time>2018-06-10T12:59:01Z</time>
      </trkpt>
      <trkpt lat="45.6991" lon="5.62198">
        <ele>366</ele>
        <time>2018-06-10T12:59:01Z</time>
      </trkpt>
      <trkpt lat="45.69914" lon="5.62193">
        <ele>366</ele>
        <time>2018-06-10T12:59:01Z</time>
      </trkpt>
      <trkpt lat="45.69919" lon="5.6219">
        <ele>366</ele>
        <time>2018-06-10T12:59:17Z</time>
      </trkpt>
      <trkpt lat="45.69924" lon="5.62188">
        <ele>366</ele>
        <time>2018-06-10T12:59:17Z</time>
      </trkpt>
      <trkpt lat="45.69928" lon="5.62187">
        <ele>366</ele>
        <time>2018-06-10T12:59:17Z</time>
      </trkpt>
      <trkpt lat="45.69932" lon="5.62182">
        <ele>366</ele>
        <time>2018-06-10T12:59:17Z</time>
      </trkpt>
      <trkpt lat="45.69935" lon="5.6218">
        <ele>366</ele>
        <time>2018-06-10T12:59:33Z</time>
      </trkpt>
      <trkpt lat="45.69938" lon="5.62176">
        <ele>366</ele>
        <time>2018-06-10T12:59:33Z</time>
      </trkpt>
      <trkpt lat="45.69942" lon="5.62172">
        <ele>366</ele>
        <time>2018-06-10T12:59:33Z</time>
      </trkpt>
      <trkpt lat="45.69946" lon="5.62165">
        <ele>366</ele>
        <time>2018-06-10T12:59:33Z</time>
      </trkpt>
      <trkpt lat="45.6995" lon="5.62162">
        <ele>366</ele>
        <time>2018-06-10T12:59:49Z</time>
      </trkpt>
      <trkpt lat="45.69953" lon="5.6216">
        <ele>366</ele>
        <time>2018-06-10T12:59:49Z</time>
      </trkpt>
      <trkpt lat="45.69957" lon="5.6216">
        <ele>366</ele>
        <time>2018-06-10T12:59:49Z</time>
      </trkpt>
      <trkpt lat="45.69961" lon="5.62161">
        <ele>389</ele>
        <time>2018-06-10T12:59:49Z</time>
      </trkpt>
      <trkpt lat="45.69968" lon="5.62159">
        <ele>389</ele>
        <time>2018-06-10T13:00:05Z</time>
      </trkpt>
      <trkpt lat="45.69973" lon="5.62153">
        <ele>389</ele>
        <time>2018-06-10T13:00:05Z</time>
      </trkpt>
      <trkpt lat="45.6998" lon="5.6215">
        <ele>389</ele>
        <time>2018-06-10T13:00:05Z</time>
      </trkpt>
      <trkpt lat="45.69984" lon="5.62146">
        <ele>389</ele>
        <time>2018-06-10T13:00:05Z</time>
      </trkpt>
      <trkpt lat="45.69986" lon="5.62143">
        <ele>389</ele>
        <time>2018-06-10T13:00:21Z</time>
      </trkpt>
      <trkpt lat="45.69992" lon="5.62139">
        <ele>389</ele>
        <time>2018-06-10T13:00:21Z</time>
      </trkpt>
      <trkpt lat="45.69996" lon="5.62135">
        <ele>389</ele>
        <time>2018-06-10T13:00:21Z</time>
      </trkpt>
      <trkpt lat="45.7" lon="5.62128">
        <ele>389</ele>
        <time>2018-06-10T13:00:21Z</time>
      </trkpt>
      <trkpt lat="45.70003" lon="5.62124">
        <ele>388</ele>
        <time>2018-06-10T13:00:37Z</time>
      </trkpt>
      <trkpt lat="45.70003" lon="5.62124">
        <ele>388</ele>
        <time>2018-06-10T13:00:37Z</time>
      </trkpt>
      <trkpt lat="45.70005" lon="5.62115">
        <ele>388</ele>
        <time>2018-06-10T13:00:37Z</time>
      </trkpt>
      <trkpt lat="45.70006" lon="5.6211">
        <ele>388</ele>
        <time>2018-06-10T13:00:37Z</time>
      </trkpt>
      <trkpt lat="45.70008" lon="5.62101">
        <ele>388</ele>
        <time>2018-06-10T13:00:53Z</time>
      </trkpt>
      <trkpt lat="45.7001" lon="5.62093">
        <ele>388</ele>
        <time>2018-06-10T13:00:53Z</time>
      </trkpt>
      <trkpt lat="45.70016" lon="5.62086">
        <ele>388</ele>
        <time>2018-06-10T13:00:53Z</time>
      </trkpt>
      <trkpt lat="45.70019" lon="5.62087">
        <ele>388</ele>
        <time>2018-06-10T13:00:53Z</time>
      </trkpt>
      <trkpt lat="45.70025" lon="5.62082">
        <ele>388</ele>
        <time>2018-06-10T13:01:09Z</time>
      </trkpt>
      <trkpt lat="45.70028" lon="5.62076">
        <ele>388</ele>
        <time>2018-06-10T13:01:09Z</time>
      </trkpt>
      <trkpt lat="45.70033" lon="5.62071">
        <ele>388</ele>
        <time>2018-06-10T13:01:09Z</time>
      </trkpt>
      <trkpt lat="45.70036" lon="5.62065">
        <ele>388</ele>
        <time>2018-06-10T13:01:09Z</time>
      </trkpt>
      <trkpt lat="45.70041" lon="5.62058">
        <ele>388</ele>
        <time>2018-06-10T13:01:25Z</time>
      </trkpt>
      <trkpt lat="45.70046" lon="5.62054">
        <ele>407</ele>
        <time>2018-06-10T13:01:25Z</time>
      </trkpt>
      <trkpt lat="45.70048" lon="5.62049">
        <ele>407</ele>
        <time>2018-06-10T13:01:25Z</time>
      </trkpt>
      <trkpt lat="45.70053" lon="5.62039">
        <ele>396</ele>
        <time>2018-06-10T13:01:25Z</time>
      </trkpt>
      <trkpt lat="45.70059" lon="5.62034">
        <ele>396</ele>
        <time>2018-06-10T13:01:41Z</time>
      </trkpt>
      <trkpt lat="45.70064" lon="5.62028">
        <ele>396</ele>
        <time>2018-06-10T13:01:41Z</time>
      </trkpt>
      <trkpt lat="45.70069" lon="5.62023">
        <ele>396</ele>
        <time>2018-06-10T13:01:41Z</time>
      </trkpt>
      <trkpt lat="45.70073" lon="5.62018">
        <ele>396</ele>
        <time>2018-06-10T13:01:41Z</time>
      </trkpt>
      <trkpt lat="45.70077" lon="5.62011">
        <ele>396</ele>
        <time>2018-06-10T13:01:57Z</time>
      </trkpt>
      <trkpt lat="45.70081" lon="5.62007">
        <ele>396</ele>
        <time>2018-06-10T13:01:57Z</time>
      </trkpt>
      <trkpt lat="45.70086" lon="5.62002">
        <ele>396</ele>
        <time>2018-06-10T13:01:57Z</time>
      </trkpt>
      <trkpt lat="45.70093" lon="5.62">
        <ele>396</ele>
        <time>2018-06-10T13:01:57Z</time>
      </trkpt>
      <trkpt lat="45.70095" lon="5.62">
        <ele>396</ele>
        <time>2018-06-10T13:02:25Z</time>
      </trkpt>
      <trkpt lat="45.701" lon="5.62005">
        <ele>396</ele>
        <time>2018-06-10T13:02:25Z</time>
      </trkpt>
      <trkpt lat="45.70104" lon="5.62009">
        <ele>396</ele>
        <time>2018-06-10T13:02:25Z</time>
      </trkpt>
      <trkpt lat="45.70108" lon="5.62011">
        <ele>396</ele>
        <time>2018-06-10T13:02:25Z</time>
      </trkpt>
      <trkpt lat="45.70115" lon="5.62015">
        <ele>396</ele>
        <time>2018-06-10T13:02:25Z</time>
      </trkpt>
      <trkpt lat="45.70122" lon="5.62015">
        <ele>396</ele>
        <time>2018-06-10T13:02:41Z</time>
      </trkpt>
      <trkpt lat="45.70129" lon="5.6202">
        <ele>396</ele>
        <time>2018-06-10T13:02:41Z</time>
      </trkpt>
      <trkpt lat="45.70135" lon="5.62025">
        <ele>396</ele>
        <time>2018-06-10T13:02:41Z</time>
      </trkpt>
      <trkpt lat="45.70138" lon="5.62035">
        <ele>396</ele>
        <time>2018-06-10T13:02:41Z</time>
      </trkpt>
      <trkpt lat="45.70142" lon="5.62041">
        <ele>396</ele>
        <time>2018-06-10T13:02:57Z</time>
      </trkpt>
      <trkpt lat="45.70145" lon="5.62046">
        <ele>400</ele>
        <time>2018-06-10T13:02:57Z</time>
      </trkpt>
      <trkpt lat="45.70148" lon="5.62049">
        <ele>400</ele>
        <time>2018-06-10T13:02:57Z</time>
      </trkpt>
      <trkpt lat="45.70154" lon="5.62057">
        <ele>400</ele>
        <time>2018-06-10T13:02:57Z</time>
      </trkpt>
      <trkpt lat="45.70157" lon="5.62066">
        <ele>400</ele>
        <time>2018-06-10T13:03:13Z</time>
      </trkpt>
      <trkpt lat="45.7016" lon="5.62072">
        <ele>400</ele>
        <time>2018-06-10T13:03:13Z</time>
      </trkpt>
      <trkpt lat="45.70164" lon="5.62076">
        <ele>400</ele>
        <time>2018-06-10T13:03:13Z</time>
      </trkpt>
      <trkpt lat="45.70169" lon="5.62082">
        <ele>400</ele>
        <time>2018-06-10T13:03:13Z</time>
      </trkpt>
      <trkpt lat="45.70171" lon="5.62089">
        <ele>400</ele>
        <time>2018-06-10T13:03:29Z</time>
      </trkpt>
      <trkpt lat="45.70175" lon="5.62093">
        <ele>400</ele>
        <time>2018-06-10T13:03:29Z</time>
      </trkpt>
      <trkpt lat="45.70181" lon="5.62098">
        <ele>400</ele>
        <time>2018-06-10T13:03:29Z</time>
      </trkpt>
      <trkpt lat="45.70187" lon="5.62104">
        <ele>400</ele>
        <time>2018-06-10T13:03:29Z</time>
      </trkpt>
      <trkpt lat="45.70193" lon="5.62109">
        <ele>400</ele>
        <time>2018-06-10T13:03:45Z</time>
      </trkpt>
      <trkpt lat="45.70198" lon="5.62115">
        <ele>400</ele>
        <time>2018-06-10T13:03:45Z</time>
      </trkpt>
      <trkpt lat="45.70202" lon="5.62115">
        <ele>400</ele>
        <time>2018-06-10T13:03:45Z</time>
      </trkpt>
      <trkpt lat="45.70205" lon="5.6211">
        <ele>400</ele>
        <time>2018-06-10T13:03:45Z</time>
      </trkpt>
      <trkpt lat="45.70208" lon="5.62105">
        <ele>400</ele>
        <time>2018-06-10T13:04:01Z</time>
      </trkpt>
      <trkpt lat="45.7021" lon="5.62099">
        <ele>400</ele>
        <time>2018-06-10T13:04:01Z</time>
      </trkpt>
      <trkpt lat="45.70211" lon="5.62097">
        <ele>400</ele>
        <time>2018-06-10T13:04:01Z</time>
      </trkpt>
      <trkpt lat="45.7021" lon="5.62092">
        <ele>400</ele>
        <time>2018-06-10T13:04:01Z</time>
      </trkpt>
      <trkpt lat="45.7021" lon="5.62092">
        <ele>400</ele>
        <time>2018-06-10T13:04:17Z</time>
      </trkpt>
      <trkpt lat="45.70211" lon="5.62093">
        <ele>400</ele>
        <time>2018-06-10T13:04:17Z</time>
      </trkpt>
      <trkpt lat="45.70214" lon="5.62088">
        <ele>400</ele>
        <time>2018-06-10T13:04:17Z</time>
      </trkpt>
      <trkpt lat="45.70217" lon="5.62084">
        <ele>400</ele>
        <time>2018-06-10T13:04:17Z</time>
      </trkpt>
      <trkpt lat="45.7022" lon="5.62077">
        <ele>400</ele>
        <time>2018-06-10T13:04:33Z</time>
      </trkpt>
      <trkpt lat="45.70221" lon="5.62072">
        <ele>400</ele>
        <time>2018-06-10T13:04:33Z</time>
      </trkpt>
      <trkpt lat="45.70223" lon="5.62066">
        <ele>400</ele>
        <time>2018-06-10T13:04:33Z</time>
      </trkpt>
      <trkpt lat="45.70226" lon="5.62059">
        <ele>400</ele>
        <time>2018-06-10T13:04:33Z</time>
      </trkpt>
      <trkpt lat="45.70229" lon="5.62052">
        <ele>400</ele>
        <time>2018-06-10T13:04:49Z</time>
      </trkpt>
      <trkpt lat="45.70233" lon="5.62045">
        <ele>400</ele>
        <time>2018-06-10T13:04:49Z</time>
      </trkpt>
      <trkpt lat="45.70237" lon="5.62036">
        <ele>399</ele>
        <time>2018-06-10T13:04:49Z</time>
      </trkpt>
      <trkpt lat="45.70241" lon="5.62031">
        <ele>399</ele>
        <time>2018-06-10T13:04:49Z</time>
      </trkpt>
      <trkpt lat="45.70244" lon="5.62024">
        <ele>399</ele>
        <time>2018-06-10T13:05:05Z</time>
      </trkpt>
      <trkpt lat="45.70247" lon="5.62019">
        <ele>399</ele>
        <time>2018-06-10T13:05:05Z</time>
      </trkpt>
      <trkpt lat="45.7025" lon="5.62012">
        <ele>399</ele>
        <time>2018-06-10T13:05:05Z</time>
      </trkpt>
      <trkpt lat="45.70256" lon="5.62008">
        <ele>399</ele>
        <time>2018-06-10T13:05:05Z</time>
      </trkpt>
      <trkpt lat="45.70259" lon="5.61999">
        <ele>399</ele>
        <time>2018-06-10T13:05:21Z</time>
      </trkpt>
      <trkpt lat="45.70262" lon="5.61991">
        <ele>399</ele>
        <time>2018-06-10T13:05:21Z</time>
      </trkpt>
      <trkpt lat="45.70265" lon="5.61984">
        <ele>399</ele>
        <time>2018-06-10T13:05:21Z</time>
      </trkpt>
      <trkpt lat="45.70267" lon="5.61976">
        <ele>399</ele>
        <time>2018-06-10T13:05:21Z</time>
      </trkpt>
      <trkpt lat="45.70269" lon="5.61971">
        <ele>399</ele>
        <time>2018-06-10T13:05:37Z</time>
      </trkpt>
      <trkpt lat="45.70271" lon="5.61966">
        <ele>399</ele>
        <time>2018-06-10T13:05:37Z</time>
      </trkpt>
      <trkpt lat="45.70273" lon="5.61956">
        <ele>397</ele>
        <time>2018-06-10T13:05:37Z</time>
      </trkpt>
      <trkpt lat="45.70275" lon="5.61947">
        <ele>397</ele>
        <time>2018-06-10T13:05:37Z</time>
      </trkpt>
      <trkpt lat="45.70277" lon="5.61937">
        <ele>397</ele>
        <time>2018-06-10T13:05:53Z</time>
      </trkpt>
      <trkpt lat="45.70279" lon="5.61927">
        <ele>397</ele>
        <time>2018-06-10T13:05:53Z</time>
      </trkpt>
      <trkpt lat="45.70279" lon="5.61918">
        <ele>397</ele>
        <time>2018-06-10T13:05:53Z</time>
      </trkpt>
      <trkpt lat="45.7028" lon="5.61911">
        <ele>397</ele>
        <time>2018-06-10T13:05:53Z</time>
      </trkpt>
      <trkpt lat="45.7028" lon="5.61904">
        <ele>397</ele>
        <time>2018-06-10T13:06:09Z</time>
      </trkpt>
      <trkpt lat="45.70281" lon="5.61898">
        <ele>397</ele>
        <time>2018-06-10T13:06:09Z</time>
      </trkpt>
      <trkpt lat="45.70282" lon="5.61894">
        <ele>397</ele>
        <time>2018-06-10T13:06:09Z</time>
      </trkpt>
      <trkpt lat="45.70281" lon="5.61887">
        <ele>397</ele>
        <time>2018-06-10T13:06:09Z</time>
      </trkpt>
      <trkpt lat="45.7028" lon="5.61881">
        <ele>397</ele>
        <time>2018-06-10T13:06:25Z</time>
      </trkpt>
      <trkpt lat="45.7028" lon="5.61876">
        <ele>397</ele>
        <time>2018-06-10T13:06:25Z</time>
      </trkpt>
      <trkpt lat="45.70279" lon="5.61869">
        <ele>392</ele>
        <time>2018-06-10T13:06:25Z</time>
      </trkpt>
      <trkpt lat="45.70279" lon="5.61865">
        <ele>392</ele>
        <time>2018-06-10T13:06:25Z</time>
      </trkpt>
      <trkpt lat="45.70277" lon="5.61859">
        <ele>392</ele>
        <time>2018-06-10T13:06:41Z</time>
      </trkpt>
      <trkpt lat="45.70276" lon="5.61851">
        <ele>392</ele>
        <time>2018-06-10T13:06:41Z</time>
      </trkpt>
      <trkpt lat="45.70273" lon="5.61842">
        <ele>392</ele>
        <time>2018-06-10T13:06:41Z</time>
      </trkpt>
      <trkpt lat="45.70272" lon="5.61838">
        <ele>392</ele>
        <time>2018-06-10T13:06:41Z</time>
      </trkpt>
      <trkpt lat="45.70271" lon="5.61834">
        <ele>392</ele>
        <time>2018-06-10T13:06:57Z</time>
      </trkpt>
      <trkpt lat="45.70271" lon="5.61831">
        <ele>392</ele>
        <time>2018-06-10T13:06:57Z</time>
      </trkpt>
      <trkpt lat="45.70268" lon="5.61823">
        <ele>392</ele>
        <time>2018-06-10T13:06:57Z</time>
      </trkpt>
      <trkpt lat="45.70266" lon="5.61816">
        <ele>392</ele>
        <time>2018-06-10T13:06:57Z</time>
      </trkpt>
      <trkpt lat="45.70265" lon="5.61808">
        <ele>392</ele>
        <time>2018-06-10T13:07:13Z</time>
      </trkpt>
      <trkpt lat="45.70266" lon="5.61798">
        <ele>392</ele>
        <time>2018-06-10T13:07:13Z</time>
      </trkpt>
      <trkpt lat="45.70268" lon="5.61791">
        <ele>385</ele>
        <time>2018-06-10T13:07:13Z</time>
      </trkpt>
      <trkpt lat="45.7027" lon="5.61784">
        <ele>385</ele>
        <time>2018-06-10T13:07:13Z</time>
      </trkpt>
      <trkpt lat="45.70273" lon="5.61778">
        <ele>385</ele>
        <time>2018-06-10T13:07:29Z</time>
      </trkpt>
      <trkpt lat="45.70275" lon="5.61772">
        <ele>385</ele>
        <time>2018-06-10T13:07:29Z</time>
      </trkpt>
      <trkpt lat="45.70279" lon="5.61765">
        <ele>385</ele>
        <time>2018-06-10T13:07:29Z</time>
      </trkpt>
      <trkpt lat="45.70281" lon="5.61759">
        <ele>385</ele>
        <time>2018-06-10T13:07:29Z</time>
      </trkpt>
      <trkpt lat="45.70284" lon="5.61754">
        <ele>385</ele>
        <time>2018-06-10T13:07:45Z</time>
      </trkpt>
      <trkpt lat="45.70287" lon="5.61748">
        <ele>385</ele>
        <time>2018-06-10T13:07:45Z</time>
      </trkpt>
      <trkpt lat="45.7029" lon="5.61741">
        <ele>385</ele>
        <time>2018-06-10T13:07:45Z</time>
      </trkpt>
      <trkpt lat="45.70292" lon="5.61735">
        <ele>400</ele>
        <time>2018-06-10T13:07:45Z</time>
      </trkpt>
      <trkpt lat="45.70294" lon="5.61726">
        <ele>400</ele>
        <time>2018-06-10T13:08:01Z</time>
      </trkpt>
      <trkpt lat="45.70296" lon="5.6172">
        <ele>400</ele>
        <time>2018-06-10T13:08:01Z</time>
      </trkpt>
      <trkpt lat="45.70297" lon="5.61715">
        <ele>400</ele>
        <time>2018-06-10T13:08:01Z</time>
      </trkpt>
      <trkpt lat="45.703" lon="5.6171">
        <ele>400</ele>
        <time>2018-06-10T13:08:01Z</time>
      </trkpt>
      <trkpt lat="45.70301" lon="5.61704">
        <ele>389</ele>
        <time>2018-06-10T13:08:17Z</time>
      </trkpt>
      <trkpt lat="45.70303" lon="5.61697">
        <ele>389</ele>
        <time>2018-06-10T13:08:17Z</time>
      </trkpt>
      <trkpt lat="45.70305" lon="5.61689">
        <ele>389</ele>
        <time>2018-06-10T13:08:17Z</time>
      </trkpt>
      <trkpt lat="45.70308" lon="5.61683">
        <ele>389</ele>
        <time>2018-06-10T13:08:17Z</time>
      </trkpt>
      <trkpt lat="45.7031" lon="5.61675">
        <ele>389</ele>
        <time>2018-06-10T13:08:33Z</time>
      </trkpt>
      <trkpt lat="45.70312" lon="5.61669">
        <ele>389</ele>
        <time>2018-06-10T13:08:33Z</time>
      </trkpt>
      <trkpt lat="45.70313" lon="5.61662">
        <ele>389</ele>
        <time>2018-06-10T13:08:33Z</time>
      </trkpt>
      <trkpt lat="45.70315" lon="5.61658">
        <ele>389</ele>
        <time>2018-06-10T13:08:33Z</time>
      </trkpt>
      <trkpt lat="45.70317" lon="5.61655">
        <ele>389</ele>
        <time>2018-06-10T13:08:49Z</time>
      </trkpt>
      <trkpt lat="45.70319" lon="5.6165">
        <ele>389</ele>
        <time>2018-06-10T13:08:49Z</time>
      </trkpt>
      <trkpt lat="45.70321" lon="5.61643">
        <ele>389</ele>
        <time>2018-06-10T13:08:49Z</time>
      </trkpt>
      <trkpt lat="45.70323" lon="5.61638">
        <ele>389</ele>
        <time>2018-06-10T13:08:49Z</time>
      </trkpt>
      <trkpt lat="45.70326" lon="5.61633">
        <ele>389</ele>
        <time>2018-06-10T13:09:05Z</time>
      </trkpt>
      <trkpt lat="45.70328" lon="5.6163">
        <ele>389</ele>
        <time>2018-06-10T13:09:05Z</time>
      </trkpt>
      <trkpt lat="45.70332" lon="5.61626">
        <ele>389</ele>
        <time>2018-06-10T13:09:05Z</time>
      </trkpt>
      <trkpt lat="45.70335" lon="5.61621">
        <ele>382</ele>
        <time>2018-06-10T13:09:05Z</time>
      </trkpt>
      <trkpt lat="45.70338" lon="5.61618">
        <ele>382</ele>
        <time>2018-06-10T13:09:21Z</time>
      </trkpt>
      <trkpt lat="45.70343" lon="5.61613">
        <ele>382</ele>
        <time>2018-06-10T13:09:21Z</time>
      </trkpt>
      <trkpt lat="45.70346" lon="5.61612">
        <ele>382</ele>
        <time>2018-06-10T13:09:21Z</time>
      </trkpt>
      <trkpt lat="45.70348" lon="5.6161">
        <ele>382</ele>
        <time>2018-06-10T13:09:21Z</time>
      </trkpt>
      <trkpt lat="45.70351" lon="5.61603">
        <ele>382</ele>
        <time>2018-06-10T13:09:37Z</time>
      </trkpt>
      <trkpt lat="45.70355" lon="5.61598">
        <ele>382</ele>
        <time>2018-06-10T13:09:37Z</time>
      </trkpt>
      <trkpt lat="45.7036" lon="5.61593">
        <ele>382</ele>
        <time>2018-06-10T13:09:37Z</time>
      </trkpt>
      <trkpt lat="45.70367" lon="5.61584">
        <ele>382</ele>
        <time>2018-06-10T13:09:37Z</time>
      </trkpt>
      <trkpt lat="45.70372" lon="5.61579">
        <ele>382</ele>
        <time>2018-06-10T13:09:53Z</time>
      </trkpt>
      <trkpt lat="45.70373" lon="5.61578">
        <ele>382</ele>
        <time>2018-06-10T13:09:53Z</time>
      </trkpt>
      <trkpt lat="45.70376" lon="5.61574">
        <ele>400</ele>
        <time>2018-06-10T13:09:53Z</time>
      </trkpt>
      <trkpt lat="45.7038" lon="5.6157">
        <ele>400</ele>
        <time>2018-06-10T13:09:53Z</time>
      </trkpt>
      <trkpt lat="45.70383" lon="5.61561">
        <ele>400</ele>
        <time>2018-06-10T13:10:09Z</time>
      </trkpt>
      <trkpt lat="45.7039" lon="5.61554">
        <ele>400</ele>
        <time>2018-06-10T13:10:09Z</time>
      </trkpt>
      <trkpt lat="45.70392" lon="5.61548">
        <ele>400</ele>
        <time>2018-06-10T13:10:09Z</time>
      </trkpt>
      <trkpt lat="45.70396" lon="5.6154">
        <ele>391</ele>
        <time>2018-06-10T13:10:09Z</time>
      </trkpt>
      <trkpt lat="45.704" lon="5.61533">
        <ele>391</ele>
        <time>2018-06-10T13:10:25Z</time>
      </trkpt>
      <trkpt lat="45.70404" lon="5.61528">
        <ele>391</ele>
        <time>2018-06-10T13:10:25Z</time>
      </trkpt>
      <trkpt lat="45.70406" lon="5.61524">
        <ele>391</ele>
        <time>2018-06-10T13:10:25Z</time>
      </trkpt>
      <trkpt lat="45.70409" lon="5.61516">
        <ele>391</ele>
        <time>2018-06-10T13:10:25Z</time>
      </trkpt>
      <trkpt lat="45.70415" lon="5.61512">
        <ele>391</ele>
        <time>2018-06-10T13:10:41Z</time>
      </trkpt>
      <trkpt lat="45.70419" lon="5.61506">
        <ele>391</ele>
        <time>2018-06-10T13:10:41Z</time>
      </trkpt>
      <trkpt lat="45.70426" lon="5.615">
        <ele>391</ele>
        <time>2018-06-10T13:10:41Z</time>
      </trkpt>
      <trkpt lat="45.70432" lon="5.61496">
        <ele>391</ele>
        <time>2018-06-10T13:10:41Z</time>
      </trkpt>
      <trkpt lat="45.70437" lon="5.61489">
        <ele>391</ele>
        <time>2018-06-10T13:10:57Z</time>
      </trkpt>
      <trkpt lat="45.70441" lon="5.61483">
        <ele>391</ele>
        <time>2018-06-10T13:10:57Z</time>
      </trkpt>
      <trkpt lat="45.70443" lon="5.61478">
        <ele>391</ele>
        <time>2018-06-10T13:10:57Z</time>
      </trkpt>
      <trkpt lat="45.70447" lon="5.61474">
        <ele>391</ele>
        <time>2018-06-10T13:10:57Z</time>
      </trkpt>
      <trkpt lat="45.7045" lon="5.61466">
        <ele>391</ele>
        <time>2018-06-10T13:11:13Z</time>
      </trkpt>
      <trkpt lat="45.70454" lon="5.61459">
        <ele>391</ele>
        <time>2018-06-10T13:11:13Z</time>
      </trkpt>
      <trkpt lat="45.70456" lon="5.61451">
        <ele>385</ele>
        <time>2018-06-10T13:11:13Z</time>
      </trkpt>
      <trkpt lat="45.70461" lon="5.61445">
        <ele>385</ele>
        <time>2018-06-10T13:11:13Z</time>
      </trkpt>
      <trkpt lat="45.70464" lon="5.61441">
        <ele>385</ele>
        <time>2018-06-10T13:11:29Z</time>
      </trkpt>
      <trkpt lat="45.70467" lon="5.61439">
        <ele>385</ele>
        <time>2018-06-10T13:11:29Z</time>
      </trkpt>
      <trkpt lat="45.70472" lon="5.61435">
        <ele>385</ele>
        <time>2018-06-10T13:11:29Z</time>
      </trkpt>
      <trkpt lat="45.70477" lon="5.61433">
        <ele>385</ele>
        <time>2018-06-10T13:11:29Z</time>
      </trkpt>
      <trkpt lat="45.7048" lon="5.61431">
        <ele>385</ele>
        <time>2018-06-10T13:11:45Z</time>
      </trkpt>
      <trkpt lat="45.70485" lon="5.61429">
        <ele>385</ele>
        <time>2018-06-10T13:11:45Z</time>
      </trkpt>
      <trkpt lat="45.7049" lon="5.61426">
        <ele>385</ele>
        <time>2018-06-10T13:11:45Z</time>
      </trkpt>
      <trkpt lat="45.70494" lon="5.61421">
        <ele>385</ele>
        <time>2018-06-10T13:11:45Z</time>
      </trkpt>
      <trkpt lat="45.70497" lon="5.61415">
        <ele>385</ele>
        <time>2018-06-10T13:12:01Z</time>
      </trkpt>
      <trkpt lat="45.70503" lon="5.61407">
        <ele>385</ele>
        <time>2018-06-10T13:12:01Z</time>
      </trkpt>
      <trkpt lat="45.70507" lon="5.61401">
        <ele>385</ele>
        <time>2018-06-10T13:12:01Z</time>
      </trkpt>
      <trkpt lat="45.7051" lon="5.61397">
        <ele>385</ele>
        <time>2018-06-10T13:12:01Z</time>
      </trkpt>
      <trkpt lat="45.70513" lon="5.61398">
        <ele>385</ele>
        <time>2018-06-10T13:12:17Z</time>
      </trkpt>
      <trkpt lat="45.70519" lon="5.61395">
        <ele>385</ele>
        <time>2018-06-10T13:12:17Z</time>
      </trkpt>
      <trkpt lat="45.70528" lon="5.61389">
        <ele>385</ele>
        <time>2018-06-10T13:12:17Z</time>
      </trkpt>
      <trkpt lat="45.70536" lon="5.61387">
        <ele>385</ele>
        <time>2018-06-10T13:12:17Z</time>
      </trkpt>
      <trkpt lat="45.70542" lon="5.61385">
        <ele>385</ele>
        <time>2018-06-10T13:12:33Z</time>
      </trkpt>
      <trkpt lat="45.70548" lon="5.61388">
        <ele>386</ele>
        <time>2018-06-10T13:12:33Z</time>
      </trkpt>
      <trkpt lat="45.7055" lon="5.61386">
        <ele>386</ele>
        <time>2018-06-10T13:12:33Z</time>
      </trkpt>
      <trkpt lat="45.70552" lon="5.61377">
        <ele>386</ele>
        <time>2018-06-10T13:12:33Z</time>
      </trkpt>
      <trkpt lat="45.70553" lon="5.61374">
        <ele>383</ele>
        <time>2018-06-10T13:12:49Z</time>
      </trkpt>
      <trkpt lat="45.70556" lon="5.61368">
        <ele>383</ele>
        <time>2018-06-10T13:12:49Z</time>
      </trkpt>
      <trkpt lat="45.70561" lon="5.61366">
        <ele>383</ele>
        <time>2018-06-10T13:12:49Z</time>
      </trkpt>
      <trkpt lat="45.70568" lon="5.61362">
        <ele>383</ele>
        <time>2018-06-10T13:12:49Z</time>
      </trkpt>
      <trkpt lat="45.70573" lon="5.61356">
        <ele>383</ele>
        <time>2018-06-10T13:13:05Z</time>
      </trkpt>
      <trkpt lat="45.70581" lon="5.61354">
        <ele>383</ele>
        <time>2018-06-10T13:13:05Z</time>
      </trkpt>
      <trkpt lat="45.70586" lon="5.61347">
        <ele>383</ele>
        <time>2018-06-10T13:13:05Z</time>
      </trkpt>
      <trkpt lat="45.70591" lon="5.61342">
        <ele>383</ele>
        <time>2018-06-10T13:13:05Z</time>
      </trkpt>
      <trkpt lat="45.70595" lon="5.61337">
        <ele>383</ele>
        <time>2018-06-10T13:13:21Z</time>
      </trkpt>
      <trkpt lat="45.70604" lon="5.61332">
        <ele>383</ele>
        <time>2018-06-10T13:13:21Z</time>
      </trkpt>
      <trkpt lat="45.70608" lon="5.61325">
        <ele>383</ele>
        <time>2018-06-10T13:13:21Z</time>
      </trkpt>
      <trkpt lat="45.70611" lon="5.61318">
        <ele>383</ele>
        <time>2018-06-10T13:13:21Z</time>
      </trkpt>
      <trkpt lat="45.70615" lon="5.61312">
        <ele>383</ele>
        <time>2018-06-10T13:13:37Z</time>
      </trkpt>
      <trkpt lat="45.7062" lon="5.61308">
        <ele>383</ele>
        <time>2018-06-10T13:13:37Z</time>
      </trkpt>
      <trkpt lat="45.70627" lon="5.61306">
        <ele>380</ele>
        <time>2018-06-10T13:13:37Z</time>
      </trkpt>
      <trkpt lat="45.70632" lon="5.61305">
        <ele>380</ele>
        <time>2018-06-10T13:13:37Z</time>
      </trkpt>
      <trkpt lat="45.70635" lon="5.61306">
        <ele>380</ele>
        <time>2018-06-10T13:13:53Z</time>
      </trkpt>
      <trkpt lat="45.7064" lon="5.61305">
        <ele>380</ele>
        <time>2018-06-10T13:13:53Z</time>
      </trkpt>
      <trkpt lat="45.70645" lon="5.61301">
        <ele>380</ele>
        <time>2018-06-10T13:13:53Z</time>
      </trkpt>
      <trkpt lat="45.70652" lon="5.61297">
        <ele>380</ele>
        <time>2018-06-10T13:13:53Z</time>
      </trkpt>
      <trkpt lat="45.70658" lon="5.6129">
        <ele>385</ele>
        <time>2018-06-10T13:14:09Z</time>
      </trkpt>
      <trkpt lat="45.70662" lon="5.61283">
        <ele>385</ele>
        <time>2018-06-10T13:14:09Z</time>
      </trkpt>
      <trkpt lat="45.7067" lon="5.61282">
        <ele>385</ele>
        <time>2018-06-10T13:14:09Z</time>
      </trkpt>
      <trkpt lat="45.70677" lon="5.6128">
        <ele>385</ele>
        <time>2018-06-10T13:14:09Z</time>
      </trkpt>
      <trkpt lat="45.70684" lon="5.61278">
        <ele>385</ele>
        <time>2018-06-10T13:14:25Z</time>
      </trkpt>
      <trkpt lat="45.7069" lon="5.61277">
        <ele>385</ele>
        <time>2018-06-10T13:14:25Z</time>
      </trkpt>
      <trkpt lat="45.70695" lon="5.61276">
        <ele>385</ele>
        <time>2018-06-10T13:14:25Z</time>
      </trkpt>
      <trkpt lat="45.70701" lon="5.61273">
        <ele>385</ele>
        <time>2018-06-10T13:14:25Z</time>
      </trkpt>
      <trkpt lat="45.70706" lon="5.61268">
        <ele>385</ele>
        <time>2018-06-10T13:14:41Z</time>
      </trkpt>
      <trkpt lat="45.70711" lon="5.61263">
        <ele>386</ele>
        <time>2018-06-10T13:14:41Z</time>
      </trkpt>
      <trkpt lat="45.70716" lon="5.61258">
        <ele>386</ele>
        <time>2018-06-10T13:14:41Z</time>
      </trkpt>
      <trkpt lat="45.7072" lon="5.61254">
        <ele>386</ele>
        <time>2018-06-10T13:14:41Z</time>
      </trkpt>
      <trkpt lat="45.70724" lon="5.61248">
        <ele>386</ele>
        <time>2018-06-10T13:14:57Z</time>
      </trkpt>
      <trkpt lat="45.70728" lon="5.61244">
        <ele>386</ele>
        <time>2018-06-10T13:14:57Z</time>
      </trkpt>
      <trkpt lat="45.70731" lon="5.61239">
        <ele>386</ele>
        <time>2018-06-10T13:14:57Z</time>
      </trkpt>
      <trkpt lat="45.70735" lon="5.61234">
        <ele>386</ele>
        <time>2018-06-10T13:14:57Z</time>
      </trkpt>
      <trkpt lat="45.7074" lon="5.61232">
        <ele>386</ele>
        <time>2018-06-10T13:15:17Z</time>
      </trkpt>
      <trkpt lat="45.70742" lon="5.6123">
        <ele>386</ele>
        <time>2018-06-10T13:15:17Z</time>
      </trkpt>
      <trkpt lat="45.70743" lon="5.6123">
        <ele>386</ele>
        <time>2018-06-10T13:15:17Z</time>
      </trkpt>
      <trkpt lat="45.70744" lon="5.61229">
        <ele>386</ele>
        <time>2018-06-10T13:15:17Z</time>
      </trkpt>
      <trkpt lat="45.7075" lon="5.61223">
        <ele>386</ele>
        <time>2018-06-10T13:15:17Z</time>
      </trkpt>
      <trkpt lat="45.70767" lon="5.61215">
        <ele>386</ele>
        <time>2018-06-10T13:15:33Z</time>
      </trkpt>
      <trkpt lat="45.70777" lon="5.61211">
        <ele>386</ele>
        <time>2018-06-10T13:15:33Z</time>
      </trkpt>
      <trkpt lat="45.70782" lon="5.61209">
        <ele>386</ele>
        <time>2018-06-10T13:15:33Z</time>
      </trkpt>
      <trkpt lat="45.70785" lon="5.61209">
        <ele>386</ele>
        <time>2018-06-10T13:15:33Z</time>
      </trkpt>
      <trkpt lat="45.70791" lon="5.61208">
        <ele>391</ele>
        <time>2018-06-10T13:15:49Z</time>
      </trkpt>
      <trkpt lat="45.70796" lon="5.61206">
        <ele>394</ele>
        <time>2018-06-10T13:15:49Z</time>
      </trkpt>
      <trkpt lat="45.70799" lon="5.61206">
        <ele>394</ele>
        <time>2018-06-10T13:15:49Z</time>
      </trkpt>
      <trkpt lat="45.70804" lon="5.61204">
        <ele>394</ele>
        <time>2018-06-10T13:15:49Z</time>
      </trkpt>
      <trkpt lat="45.7081" lon="5.612">
        <ele>394</ele>
        <time>2018-06-10T13:16:05Z</time>
      </trkpt>
      <trkpt lat="45.70815" lon="5.61195">
        <ele>394</ele>
        <time>2018-06-10T13:16:05Z</time>
      </trkpt>
      <trkpt lat="45.7082" lon="5.61188">
        <ele>394</ele>
        <time>2018-06-10T13:16:05Z</time>
      </trkpt>
      <trkpt lat="45.70826" lon="5.6118">
        <ele>394</ele>
        <time>2018-06-10T13:16:05Z</time>
      </trkpt>
      <trkpt lat="45.70832" lon="5.61173">
        <ele>394</ele>
        <time>2018-06-10T13:16:21Z</time>
      </trkpt>
      <trkpt lat="45.70838" lon="5.61168">
        <ele>394</ele>
        <time>2018-06-10T13:16:21Z</time>
      </trkpt>
      <trkpt lat="45.70844" lon="5.61167">
        <ele>394</ele>
        <time>2018-06-10T13:16:21Z</time>
      </trkpt>
      <trkpt lat="45.70848" lon="5.61164">
        <ele>394</ele>
        <time>2018-06-10T13:16:21Z</time>
      </trkpt>
      <trkpt lat="45.70853" lon="5.61163">
        <ele>394</ele>
        <time>2018-06-10T13:16:37Z</time>
      </trkpt>
      <trkpt lat="45.70858" lon="5.61163">
        <ele>394</ele>
        <time>2018-06-10T13:16:37Z</time>
      </trkpt>
      <trkpt lat="45.70863" lon="5.61163">
        <ele>394</ele>
        <time>2018-06-10T13:16:37Z</time>
      </trkpt>
      <trkpt lat="45.70868" lon="5.61165">
        <ele>394</ele>
        <time>2018-06-10T13:16:37Z</time>
      </trkpt>
      <trkpt lat="45.70872" lon="5.61166">
        <ele>394</ele>
        <time>2018-06-10T13:16:53Z</time>
      </trkpt>
      <trkpt lat="45.70877" lon="5.61169">
        <ele>387</ele>
        <time>2018-06-10T13:16:53Z</time>
      </trkpt>
      <trkpt lat="45.70882" lon="5.61174">
        <ele>387</ele>
        <time>2018-06-10T13:16:53Z</time>
      </trkpt>
      <trkpt lat="45.70888" lon="5.61176">
        <ele>387</ele>
        <time>2018-06-10T13:16:53Z</time>
      </trkpt>
      <trkpt lat="45.70898" lon="5.61179">
        <ele>387</ele>
        <time>2018-06-10T13:17:09Z</time>
      </trkpt>
      <trkpt lat="45.70904" lon="5.61181">
        <ele>387</ele>
        <time>2018-06-10T13:17:09Z</time>
      </trkpt>
      <trkpt lat="45.70908" lon="5.61183">
        <ele>387</ele>
        <time>2018-06-10T13:17:09Z</time>
      </trkpt>
      <trkpt lat="45.70908" lon="5.61183">
        <ele>387</ele>
        <time>2018-06-10T13:17:09Z</time>
      </trkpt>
      <trkpt lat="45.70907" lon="5.61181">
        <ele>387</ele>
        <time>2018-06-10T13:17:25Z</time>
      </trkpt>
      <trkpt lat="45.70905" lon="5.61182">
        <ele>387</ele>
        <time>2018-06-10T13:17:25Z</time>
      </trkpt>
      <trkpt lat="45.70907" lon="5.61187">
        <ele>387</ele>
        <time>2018-06-10T13:17:25Z</time>
      </trkpt>
      <trkpt lat="45.70916" lon="5.61187">
        <ele>387</ele>
        <time>2018-06-10T13:17:25Z</time>
      </trkpt>
      <trkpt lat="45.70919" lon="5.61183">
        <ele>387</ele>
        <time>2018-06-10T13:17:41Z</time>
      </trkpt>
      <trkpt lat="45.70924" lon="5.61184">
        <ele>387</ele>
        <time>2018-06-10T13:17:41Z</time>
      </trkpt>
      <trkpt lat="45.7093" lon="5.61187">
        <ele>387</ele>
        <time>2018-06-10T13:17:41Z</time>
      </trkpt>
      <trkpt lat="45.70936" lon="5.61188">
        <ele>387</ele>
        <time>2018-06-10T13:17:41Z</time>
      </trkpt>
      <trkpt lat="45.70941" lon="5.61188">
        <ele>387</ele>
        <time>2018-06-10T13:18:01Z</time>
      </trkpt>
      <trkpt lat="45.70944" lon="5.61187">
        <ele>387</ele>
        <time>2018-06-10T13:18:01Z</time>
      </trkpt>
      <trkpt lat="45.70945" lon="5.61186">
        <ele>387</ele>
        <time>2018-06-10T13:18:01Z</time>
      </trkpt>
      <trkpt lat="45.70946" lon="5.61188">
        <ele>387</ele>
        <time>2018-06-10T13:18:01Z</time>
      </trkpt>
      <trkpt lat="45.70951" lon="5.61201">
        <ele>387</ele>
        <time>2018-06-10T13:18:01Z</time>
      </trkpt>
      <trkpt lat="45.70961" lon="5.61206">
        <ele>374</ele>
        <time>2018-06-10T13:18:17Z</time>
      </trkpt>
      <trkpt lat="45.70977" lon="5.61206">
        <ele>374</ele>
        <time>2018-06-10T13:18:17Z</time>
      </trkpt>
      <trkpt lat="45.7098" lon="5.61205">
        <ele>374</ele>
        <time>2018-06-10T13:18:17Z</time>
      </trkpt>
      <trkpt lat="45.70984" lon="5.61206">
        <ele>374</ele>
        <time>2018-06-10T13:18:17Z</time>
      </trkpt>
      <trkpt lat="45.70988" lon="5.6121">
        <ele>386</ele>
        <time>2018-06-10T13:18:33Z</time>
      </trkpt>
      <trkpt lat="45.70989" lon="5.61216">
        <ele>386</ele>
        <time>2018-06-10T13:18:33Z</time>
      </trkpt>
      <trkpt lat="45.7099" lon="5.61219">
        <ele>386</ele>
        <time>2018-06-10T13:18:33Z</time>
      </trkpt>
      <trkpt lat="45.7099" lon="5.61224">
        <ele>386</ele>
        <time>2018-06-10T13:18:33Z</time>
      </trkpt>
      <trkpt lat="45.70992" lon="5.61233">
        <ele>386</ele>
        <time>2018-06-10T13:18:49Z</time>
      </trkpt>
      <trkpt lat="45.70994" lon="5.61236">
        <ele>386</ele>
        <time>2018-06-10T13:18:49Z</time>
      </trkpt>
      <trkpt lat="45.70998" lon="5.61244">
        <ele>386</ele>
        <time>2018-06-10T13:18:49Z</time>
      </trkpt>
      <trkpt lat="45.71" lon="5.61278">
        <ele>386</ele>
        <time>2018-06-10T13:18:49Z</time>
      </trkpt>
      <trkpt lat="45.71" lon="5.61304">
        <ele>395</ele>
        <time>2018-06-10T13:19:05Z</time>
      </trkpt>
      <trkpt lat="45.71001" lon="5.61333">
        <ele>395</ele>
        <time>2018-06-10T13:19:05Z</time>
      </trkpt>
      <trkpt lat="45.71007" lon="5.61361">
        <ele>395</ele>
        <time>2018-06-10T13:19:05Z</time>
      </trkpt>
      <trkpt lat="45.71025" lon="5.61379">
        <ele>398</ele>
        <time>2018-06-10T13:19:05Z</time>
      </trkpt>
      <trkpt lat="45.71032" lon="5.61387">
        <ele>398</ele>
        <time>2018-06-10T13:19:21Z</time>
      </trkpt>
      <trkpt lat="45.71034" lon="5.61385">
        <ele>398</ele>
        <time>2018-06-10T13:19:21Z</time>
      </trkpt>
      <trkpt lat="45.71036" lon="5.61389">
        <ele>398</ele>
        <time>2018-06-10T13:19:21Z</time>
      </trkpt>
      <trkpt lat="45.71039" lon="5.61397">
        <ele>398</ele>
        <time>2018-06-10T13:19:21Z</time>
      </trkpt>
      <trkpt lat="45.71045" lon="5.61418">
        <ele>389</ele>
        <time>2018-06-10T13:19:49Z</time>
      </trkpt>
      <trkpt lat="45.71045" lon="5.6142">
        <ele>389</ele>
        <time>2018-06-10T13:19:49Z</time>
      </trkpt>
      <trkpt lat="45.71045" lon="5.6142">
        <ele>389</ele>
        <time>2018-06-10T13:19:49Z</time>
      </trkpt>
      <trkpt lat="45.71045" lon="5.61421">
        <ele>389</ele>
        <time>2018-06-10T13:19:49Z</time>
      </trkpt>
      <trkpt lat="45.71045" lon="5.61424">
        <ele>389</ele>
        <time>2018-06-10T13:19:49Z</time>
      </trkpt>
      <trkpt lat="45.71045" lon="5.61417">
        <ele>389</ele>
        <time>2018-06-10T13:20:05Z</time>
      </trkpt>
      <trkpt lat="45.7105" lon="5.6141">
        <ele>389</ele>
        <time>2018-06-10T13:20:05Z</time>
      </trkpt>
      <trkpt lat="45.71055" lon="5.61406">
        <ele>389</ele>
        <time>2018-06-10T13:20:05Z</time>
      </trkpt>
      <trkpt lat="45.71059" lon="5.61409">
        <ele>389</ele>
        <time>2018-06-10T13:20:05Z</time>
      </trkpt>
      <trkpt lat="45.71062" lon="5.61416">
        <ele>389</ele>
        <time>2018-06-10T13:20:37Z</time>
      </trkpt>
      <trkpt lat="45.71062" lon="5.6142">
        <ele>389</ele>
        <time>2018-06-10T13:20:37Z</time>
      </trkpt>
      <trkpt lat="45.71062" lon="5.6142">
        <ele>389</ele>
        <time>2018-06-10T13:20:37Z</time>
      </trkpt>
      <trkpt lat="45.71062" lon="5.61423">
        <ele>389</ele>
        <time>2018-06-10T13:20:37Z</time>
      </trkpt>
      <trkpt lat="45.71061" lon="5.61424">
        <ele>389</ele>
        <time>2018-06-10T13:20:37Z</time>
      </trkpt>
      <trkpt lat="45.71063" lon="5.61428">
        <ele>389</ele>
        <time>2018-06-10T13:21:09Z</time>
      </trkpt>
      <trkpt lat="45.71066" lon="5.61431">
        <ele>389</ele>
        <time>2018-06-10T13:21:09Z</time>
      </trkpt>
      <trkpt lat="45.71066" lon="5.61432">
        <ele>389</ele>
        <time>2018-06-10T13:21:09Z</time>
      </trkpt>
      <trkpt lat="45.71067" lon="5.61434">
        <ele>389</ele>
        <time>2018-06-10T13:21:09Z</time>
      </trkpt>
      <trkpt lat="45.71065" lon="5.61438">
        <ele>389</ele>
        <time>2018-06-10T13:21:09Z</time>
      </trkpt>
      <trkpt lat="45.71063" lon="5.61447">
        <ele>389</ele>
        <time>2018-06-10T13:21:25Z</time>
      </trkpt>
      <trkpt lat="45.71064" lon="5.61459">
        <ele>379</ele>
        <time>2018-06-10T13:21:25Z</time>
      </trkpt>
      <trkpt lat="45.71063" lon="5.61465">
        <ele>379</ele>
        <time>2018-06-10T13:21:25Z</time>
      </trkpt>
      <trkpt lat="45.71062" lon="5.61466">
        <ele>379</ele>
        <time>2018-06-10T13:21:25Z</time>
      </trkpt>
      <trkpt lat="45.71063" lon="5.61481">
        <ele>379</ele>
        <time>2018-06-10T13:22:21Z</time>
      </trkpt>
      <trkpt lat="45.71063" lon="5.61481">
        <ele>379</ele>
        <time>2018-06-10T13:22:21Z</time>
      </trkpt>
      <trkpt lat="45.71063" lon="5.61481">
        <ele>379</ele>
        <time>2018-06-10T13:22:21Z</time>
      </trkpt>
      <trkpt lat="45.71063" lon="5.61482">
        <ele>379</ele>
        <time>2018-06-10T13:22:21Z</time>
      </trkpt>
      <trkpt lat="45.71064" lon="5.61483">
        <ele>379</ele>
        <time>2018-06-10T13:22:21Z</time>
      </trkpt>
      <trkpt lat="45.71062" lon="5.61488">
        <ele>379</ele>
        <time>2018-06-10T13:22:37Z</time>
      </trkpt>
      <trkpt lat="45.71061" lon="5.61495">
        <ele>379</ele>
        <time>2018-06-10T13:22:37Z</time>
      </trkpt>
      <trkpt lat="45.71058" lon="5.61501">
        <ele>379</ele>
        <time>2018-06-10T13:22:37Z</time>
      </trkpt>
      <trkpt lat="45.71058" lon="5.61505">
        <ele>379</ele>
        <time>2018-06-10T13:22:37Z</time>
      </trkpt>
      <trkpt lat="45.71056" lon="5.6151">
        <ele>379</ele>
        <time>2018-06-10T13:22:53Z</time>
      </trkpt>
      <trkpt lat="45.71055" lon="5.61513">
        <ele>379</ele>
        <time>2018-06-10T13:22:53Z</time>
      </trkpt>
      <trkpt lat="45.71055" lon="5.61518">
        <ele>379</ele>
        <time>2018-06-10T13:22:53Z</time>
      </trkpt>
      <trkpt lat="45.71058" lon="5.61525">
        <ele>379</ele>
        <time>2018-06-10T13:22:53Z</time>
      </trkpt>
      <trkpt lat="45.71061" lon="5.6153">
        <ele>379</ele>
        <time>2018-06-10T13:23:13Z</time>
      </trkpt>
      <trkpt lat="45.71062" lon="5.61533">
        <ele>379</ele>
        <time>2018-06-10T13:23:13Z</time>
      </trkpt>
      <trkpt lat="45.71064" lon="5.61536">
        <ele>379</ele>
        <time>2018-06-10T13:23:13Z</time>
      </trkpt>
      <trkpt lat="45.71065" lon="5.61539">
        <ele>379</ele>
        <time>2018-06-10T13:23:13Z</time>
      </trkpt>
      <trkpt lat="45.71067" lon="5.6154">
        <ele>379</ele>
        <time>2018-06-10T13:23:13Z</time>
      </trkpt>
      <trkpt lat="45.71067" lon="5.61542">
        <ele>366</ele>
        <time>2018-06-10T13:23:29Z</time>
      </trkpt>
      <trkpt lat="45.71068" lon="5.61544">
        <ele>366</ele>
        <time>2018-06-10T13:23:29Z</time>
      </trkpt>
      <trkpt lat="45.71072" lon="5.61551">
        <ele>366</ele>
        <time>2018-06-10T13:23:29Z</time>
      </trkpt>
      <trkpt lat="45.71076" lon="5.61554">
        <ele>366</ele>
        <time>2018-06-10T13:23:29Z</time>
      </trkpt>
      <trkpt lat="45.7108" lon="5.6156">
        <ele>366</ele>
        <time>2018-06-10T13:23:45Z</time>
      </trkpt>
      <trkpt lat="45.71087" lon="5.61565">
        <ele>366</ele>
        <time>2018-06-10T13:23:45Z</time>
      </trkpt>
      <trkpt lat="45.71097" lon="5.61573">
        <ele>366</ele>
        <time>2018-06-10T13:23:45Z</time>
      </trkpt>
      <trkpt lat="45.71103" lon="5.61578">
        <ele>366</ele>
        <time>2018-06-10T13:23:45Z</time>
      </trkpt>
      <trkpt lat="45.71105" lon="5.61586">
        <ele>366</ele>
        <time>2018-06-10T13:24:01Z</time>
      </trkpt>
      <trkpt lat="45.71106" lon="5.61595">
        <ele>366</ele>
        <time>2018-06-10T13:24:01Z</time>
      </trkpt>
      <trkpt lat="45.71108" lon="5.61604">
        <ele>366</ele>
        <time>2018-06-10T13:24:01Z</time>
      </trkpt>
      <trkpt lat="45.7111" lon="5.61614">
        <ele>366</ele>
        <time>2018-06-10T13:24:01Z</time>
      </trkpt>
      <trkpt lat="45.7111" lon="5.61621">
        <ele>366</ele>
        <time>2018-06-10T13:24:33Z</time>
      </trkpt>
      <trkpt lat="45.71108" lon="5.61625">
        <ele>357</ele>
        <time>2018-06-10T13:24:33Z</time>
      </trkpt>
      <trkpt lat="45.71107" lon="5.61631">
        <ele>357</ele>
        <time>2018-06-10T13:24:33Z</time>
      </trkpt>
      <trkpt lat="45.71106" lon="5.61632">
        <ele>357</ele>
        <time>2018-06-10T13:24:33Z</time>
      </trkpt>
      <trkpt lat="45.71108" lon="5.61634">
        <ele>357</ele>
        <time>2018-06-10T13:24:33Z</time>
      </trkpt>
      <trkpt lat="45.71108" lon="5.61639">
        <ele>357</ele>
        <time>2018-06-10T13:24:49Z</time>
      </trkpt>
      <trkpt lat="45.71109" lon="5.61643">
        <ele>357</ele>
        <time>2018-06-10T13:24:49Z</time>
      </trkpt>
      <trkpt lat="45.71107" lon="5.61653">
        <ele>357</ele>
        <time>2018-06-10T13:24:49Z</time>
      </trkpt>
      <trkpt lat="45.7111" lon="5.61663">
        <ele>357</ele>
        <time>2018-06-10T13:24:49Z</time>
      </trkpt>
      <trkpt lat="45.7111" lon="5.61674">
        <ele>357</ele>
        <time>2018-06-10T13:25:05Z</time>
      </trkpt>
      <trkpt lat="45.71107" lon="5.61679">
        <ele>357</ele>
        <time>2018-06-10T13:25:05Z</time>
      </trkpt>
      <trkpt lat="45.71103" lon="5.61681">
        <ele>357</ele>
        <time>2018-06-10T13:25:05Z</time>
      </trkpt>
      <trkpt lat="45.711" lon="5.61682">
        <ele>357</ele>
        <time>2018-06-10T13:25:05Z</time>
      </trkpt>
      <trkpt lat="45.71097" lon="5.61683">
        <ele>357</ele>
        <time>2018-06-10T13:25:21Z</time>
      </trkpt>
      <trkpt lat="45.71084" lon="5.61686">
        <ele>357</ele>
        <time>2018-06-10T13:25:21Z</time>
      </trkpt>
      <trkpt lat="45.71079" lon="5.61688">
        <ele>357</ele>
        <time>2018-06-10T13:25:21Z</time>
      </trkpt>
      <trkpt lat="45.71075" lon="5.61693">
        <ele>357</ele>
        <time>2018-06-10T13:25:21Z</time>
      </trkpt>
      <trkpt lat="45.71072" lon="5.61698">
        <ele>357</ele>
        <time>2018-06-10T13:26:01Z</time>
      </trkpt>
      <trkpt lat="45.71071" lon="5.61702">
        <ele>357</ele>
        <time>2018-06-10T13:26:01Z</time>
      </trkpt>
      <trkpt lat="45.71067" lon="5.61707">
        <ele>357</ele>
        <time>2018-06-10T13:26:01Z</time>
      </trkpt>
      <trkpt lat="45.71064" lon="5.6171">
        <ele>358</ele>
        <time>2018-06-10T13:26:01Z</time>
      </trkpt>
      <trkpt lat="45.71063" lon="5.61714">
        <ele>358</ele>
        <time>2018-06-10T13:26:01Z</time>
      </trkpt>
      <trkpt lat="45.71069" lon="5.61722">
        <ele>358</ele>
        <time>2018-06-10T14:34:08Z</time>
      </trkpt>
      <trkpt lat="45.71096" lon="5.61686">
        <ele>357</ele>
        <time>2018-06-10T14:34:08Z</time>
      </trkpt>
      <trkpt lat="45.71104" lon="5.61698">
        <ele>357</ele>
        <time>2018-06-10T14:34:08Z</time>
      </trkpt>
      <trkpt lat="45.71105" lon="5.61697">
        <ele>357</ele>
        <time>2018-06-10T14:34:08Z</time>
      </trkpt>
      <trkpt lat="45.71105" lon="5.61692">
        <ele>357</ele>
        <time>2018-06-10T14:34:08Z</time>
      </trkpt>
      <trkpt lat="45.71108" lon="5.61686">
        <ele>357</ele>
        <time>2018-06-10T14:34:28Z</time>
      </trkpt>
      <trkpt lat="45.71109" lon="5.61683">
        <ele>357</ele>
        <time>2018-06-10T14:34:28Z</time>
      </trkpt>
      <trkpt lat="45.7111" lon="5.61682">
        <ele>357</ele>
        <time>2018-06-10T14:34:28Z</time>
      </trkpt>
      <trkpt lat="45.71111" lon="5.61679">
        <ele>357</ele>
        <time>2018-06-10T14:34:28Z</time>
      </trkpt>
      <trkpt lat="45.71112" lon="5.61672">
        <ele>357</ele>
        <time>2018-06-10T14:34:28Z</time>
      </trkpt>
      <trkpt lat="45.71115" lon="5.61667">
        <ele>357</ele>
        <time>2018-06-10T14:34:44Z</time>
      </trkpt>
      <trkpt lat="45.71117" lon="5.61658">
        <ele>357</ele>
        <time>2018-06-10T14:34:44Z</time>
      </trkpt>
      <trkpt lat="45.71114" lon="5.61645">
        <ele>357</ele>
        <time>2018-06-10T14:34:44Z</time>
      </trkpt>
      <trkpt lat="45.71109" lon="5.61635">
        <ele>357</ele>
        <time>2018-06-10T14:34:44Z</time>
      </trkpt>
      <trkpt lat="45.71107" lon="5.61622">
        <ele>366</ele>
        <time>2018-06-10T14:35:00Z</time>
      </trkpt>
      <trkpt lat="45.71109" lon="5.61613">
        <ele>366</ele>
        <time>2018-06-10T14:35:00Z</time>
      </trkpt>
      <trkpt lat="45.71113" lon="5.61612">
        <ele>366</ele>
        <time>2018-06-10T14:35:00Z</time>
      </trkpt>
      <trkpt lat="45.71117" lon="5.61609">
        <ele>366</ele>
        <time>2018-06-10T14:35:00Z</time>
      </trkpt>
      <trkpt lat="45.71123" lon="5.61608">
        <ele>366</ele>
        <time>2018-06-10T14:35:16Z</time>
      </trkpt>
      <trkpt lat="45.71132" lon="5.61609">
        <ele>360</ele>
        <time>2018-06-10T14:35:16Z</time>
      </trkpt>
      <trkpt lat="45.71137" lon="5.61611">
        <ele>360</ele>
        <time>2018-06-10T14:35:16Z</time>
      </trkpt>
      <trkpt lat="45.71141" lon="5.61612">
        <ele>360</ele>
        <time>2018-06-10T14:35:16Z</time>
      </trkpt>
      <trkpt lat="45.71144" lon="5.61609">
        <ele>360</ele>
        <time>2018-06-10T14:35:32Z</time>
      </trkpt>
      <trkpt lat="45.71151" lon="5.61608">
        <ele>360</ele>
        <time>2018-06-10T14:35:32Z</time>
      </trkpt>
      <trkpt lat="45.71159" lon="5.61608">
        <ele>360</ele>
        <time>2018-06-10T14:35:32Z</time>
      </trkpt>
      <trkpt lat="45.71166" lon="5.6161">
        <ele>360</ele>
        <time>2018-06-10T14:35:32Z</time>
      </trkpt>
      <trkpt lat="45.71171" lon="5.61609">
        <ele>360</ele>
        <time>2018-06-10T14:35:48Z</time>
      </trkpt>
      <trkpt lat="45.71175" lon="5.61607">
        <ele>360</ele>
        <time>2018-06-10T14:35:48Z</time>
      </trkpt>
      <trkpt lat="45.71179" lon="5.61605">
        <ele>360</ele>
        <time>2018-06-10T14:35:48Z</time>
      </trkpt>
      <trkpt lat="45.71187" lon="5.61604">
        <ele>360</ele>
        <time>2018-06-10T14:35:48Z</time>
      </trkpt>
      <trkpt lat="45.71197" lon="5.61604">
        <ele>360</ele>
        <time>2018-06-10T14:36:04Z</time>
      </trkpt>
      <trkpt lat="45.71205" lon="5.61603">
        <ele>360</ele>
        <time>2018-06-10T14:36:04Z</time>
      </trkpt>
      <trkpt lat="45.7121" lon="5.616">
        <ele>351</ele>
        <time>2018-06-10T14:36:04Z</time>
      </trkpt>
      <trkpt lat="45.71216" lon="5.61599">
        <ele>351</ele>
        <time>2018-06-10T14:36:04Z</time>
      </trkpt>
      <trkpt lat="45.71219" lon="5.61599">
        <ele>351</ele>
        <time>2018-06-10T14:36:20Z</time>
      </trkpt>
      <trkpt lat="45.71225" lon="5.616">
        <ele>351</ele>
        <time>2018-06-10T14:36:20Z</time>
      </trkpt>
      <trkpt lat="45.71232" lon="5.616">
        <ele>351</ele>
        <time>2018-06-10T14:36:20Z</time>
      </trkpt>
      <trkpt lat="45.71238" lon="5.61602">
        <ele>351</ele>
        <time>2018-06-10T14:36:20Z</time>
      </trkpt>
      <trkpt lat="45.71243" lon="5.61601">
        <ele>351</ele>
        <time>2018-06-10T14:36:36Z</time>
      </trkpt>
      <trkpt lat="45.7125" lon="5.61602">
        <ele>351</ele>
        <time>2018-06-10T14:36:36Z</time>
      </trkpt>
      <trkpt lat="45.71253" lon="5.61602">
        <ele>351</ele>
        <time>2018-06-10T14:36:36Z</time>
      </trkpt>
      <trkpt lat="45.71257" lon="5.61601">
        <ele>351</ele>
        <time>2018-06-10T14:36:36Z</time>
      </trkpt>
      <trkpt lat="45.71264" lon="5.61597">
        <ele>351</ele>
        <time>2018-06-10T14:36:52Z</time>
      </trkpt>
      <trkpt lat="45.71267" lon="5.61595">
        <ele>351</ele>
        <time>2018-06-10T14:36:52Z</time>
      </trkpt>
      <trkpt lat="45.71271" lon="5.61591">
        <ele>351</ele>
        <time>2018-06-10T14:36:52Z</time>
      </trkpt>
      <trkpt lat="45.71277" lon="5.61586">
        <ele>351</ele>
        <time>2018-06-10T14:36:52Z</time>
      </trkpt>
      <trkpt lat="45.71293" lon="5.61576">
        <ele>344</ele>
        <time>2018-06-10T14:37:36Z</time>
      </trkpt>
      <trkpt lat="45.71296" lon="5.61575">
        <ele>344</ele>
        <time>2018-06-10T14:37:36Z</time>
      </trkpt>
      <trkpt lat="45.713" lon="5.61569">
        <ele>344</ele>
        <time>2018-06-10T14:37:36Z</time>
      </trkpt>
      <trkpt lat="45.71307" lon="5.61567">
        <ele>344</ele>
        <time>2018-06-10T14:37:36Z</time>
      </trkpt>
      <trkpt lat="45.7131" lon="5.61564">
        <ele>344</ele>
        <time>2018-06-10T14:37:36Z</time>
      </trkpt>
      <trkpt lat="45.71312" lon="5.61555">
        <ele>344</ele>
        <time>2018-06-10T14:37:52Z</time>
      </trkpt>
      <trkpt lat="45.71317" lon="5.61547">
        <ele>344</ele>
        <time>2018-06-10T14:37:52Z</time>
      </trkpt>
      <trkpt lat="45.71319" lon="5.61542">
        <ele>344</ele>
        <time>2018-06-10T14:37:52Z</time>
      </trkpt>
      <trkpt lat="45.71324" lon="5.6154">
        <ele>354</ele>
        <time>2018-06-10T14:37:52Z</time>
      </trkpt>
      <trkpt lat="45.71327" lon="5.61537">
        <ele>354</ele>
        <time>2018-06-10T14:38:08Z</time>
      </trkpt>
      <trkpt lat="45.71332" lon="5.61536">
        <ele>354</ele>
        <time>2018-06-10T14:38:08Z</time>
      </trkpt>
      <trkpt lat="45.71339" lon="5.61535">
        <ele>354</ele>
        <time>2018-06-10T14:38:08Z</time>
      </trkpt>
      <trkpt lat="45.71345" lon="5.61535">
        <ele>354</ele>
        <time>2018-06-10T14:38:08Z</time>
      </trkpt>
      <trkpt lat="45.71354" lon="5.61533">
        <ele>354</ele>
        <time>2018-06-10T14:38:24Z</time>
      </trkpt>
      <trkpt lat="45.71359" lon="5.61532">
        <ele>354</ele>
        <time>2018-06-10T14:38:24Z</time>
      </trkpt>
      <trkpt lat="45.71365" lon="5.61529">
        <ele>354</ele>
        <time>2018-06-10T14:38:24Z</time>
      </trkpt>
      <trkpt lat="45.71371" lon="5.61529">
        <ele>354</ele>
        <time>2018-06-10T14:38:24Z</time>
      </trkpt>
      <trkpt lat="45.71378" lon="5.61527">
        <ele>341</ele>
        <time>2018-06-10T14:38:40Z</time>
      </trkpt>
      <trkpt lat="45.7138" lon="5.61526">
        <ele>341</ele>
        <time>2018-06-10T14:38:40Z</time>
      </trkpt>
      <trkpt lat="45.71388" lon="5.61524">
        <ele>341</ele>
        <time>2018-06-10T14:38:40Z</time>
      </trkpt>
      <trkpt lat="45.71395" lon="5.61521">
        <ele>341</ele>
        <time>2018-06-10T14:38:40Z</time>
      </trkpt>
      <trkpt lat="45.714" lon="5.61518">
        <ele>341</ele>
        <time>2018-06-10T14:38:56Z</time>
      </trkpt>
      <trkpt lat="45.71404" lon="5.61518">
        <ele>341</ele>
        <time>2018-06-10T14:38:56Z</time>
      </trkpt>
      <trkpt lat="45.71411" lon="5.61516">
        <ele>341</ele>
        <time>2018-06-10T14:38:56Z</time>
      </trkpt>
      <trkpt lat="45.71416" lon="5.61514">
        <ele>341</ele>
        <time>2018-06-10T14:38:56Z</time>
      </trkpt>
      <trkpt lat="45.71422" lon="5.61513">
        <ele>341</ele>
        <time>2018-06-10T14:39:12Z</time>
      </trkpt>
      <trkpt lat="45.71429" lon="5.61511">
        <ele>341</ele>
        <time>2018-06-10T14:39:12Z</time>
      </trkpt>
      <trkpt lat="45.71434" lon="5.61509">
        <ele>341</ele>
        <time>2018-06-10T14:39:12Z</time>
      </trkpt>
      <trkpt lat="45.7144" lon="5.61507">
        <ele>341</ele>
        <time>2018-06-10T14:39:12Z</time>
      </trkpt>
      <trkpt lat="45.71445" lon="5.61507">
        <ele>341</ele>
        <time>2018-06-10T14:39:28Z</time>
      </trkpt>
      <trkpt lat="45.71454" lon="5.61507">
        <ele>341</ele>
        <time>2018-06-10T14:39:28Z</time>
      </trkpt>
      <trkpt lat="45.71459" lon="5.61509">
        <ele>330</ele>
        <time>2018-06-10T14:39:28Z</time>
      </trkpt>
      <trkpt lat="45.71463" lon="5.61508">
        <ele>330</ele>
        <time>2018-06-10T14:39:28Z</time>
      </trkpt>
      <trkpt lat="45.71467" lon="5.61506">
        <ele>330</ele>
        <time>2018-06-10T14:39:44Z</time>
      </trkpt>
      <trkpt lat="45.71474" lon="5.61504">
        <ele>330</ele>
        <time>2018-06-10T14:39:44Z</time>
      </trkpt>
      <trkpt lat="45.71478" lon="5.61502">
        <ele>330</ele>
        <time>2018-06-10T14:39:44Z</time>
      </trkpt>
      <trkpt lat="45.71483" lon="5.61499">
        <ele>330</ele>
        <time>2018-06-10T14:39:44Z</time>
      </trkpt>
      <trkpt lat="45.7149" lon="5.61496">
        <ele>330</ele>
        <time>2018-06-10T14:40:00Z</time>
      </trkpt>
      <trkpt lat="45.71496" lon="5.61494">
        <ele>330</ele>
        <time>2018-06-10T14:40:00Z</time>
      </trkpt>
      <trkpt lat="45.71503" lon="5.61495">
        <ele>330</ele>
        <time>2018-06-10T14:40:00Z</time>
      </trkpt>
      <trkpt lat="45.7151" lon="5.61497">
        <ele>330</ele>
        <time>2018-06-10T14:40:00Z</time>
      </trkpt>
      <trkpt lat="45.71515" lon="5.61496">
        <ele>330</ele>
        <time>2018-06-10T14:40:16Z</time>
      </trkpt>
      <trkpt lat="45.71522" lon="5.61494">
        <ele>330</ele>
        <time>2018-06-10T14:40:16Z</time>
      </trkpt>
      <trkpt lat="45.71528" lon="5.61491">
        <ele>330</ele>
        <time>2018-06-10T14:40:16Z</time>
      </trkpt>
      <trkpt lat="45.71533" lon="5.61492">
        <ele>330</ele>
        <time>2018-06-10T14:40:16Z</time>
      </trkpt>
      <trkpt lat="45.71538" lon="5.61488">
        <ele>330</ele>
        <time>2018-06-10T14:40:32Z</time>
      </trkpt>
      <trkpt lat="45.71544" lon="5.61485">
        <ele>323</ele>
        <time>2018-06-10T14:40:32Z</time>
      </trkpt>
      <trkpt lat="45.71549" lon="5.61482">
        <ele>323</ele>
        <time>2018-06-10T14:40:32Z</time>
      </trkpt>
      <trkpt lat="45.71554" lon="5.6148">
        <ele>323</ele>
        <time>2018-06-10T14:40:32Z</time>
      </trkpt>
      <trkpt lat="45.71558" lon="5.61479">
        <ele>323</ele>
        <time>2018-06-10T14:40:48Z</time>
      </trkpt>
      <trkpt lat="45.71565" lon="5.61476">
        <ele>323</ele>
        <time>2018-06-10T14:40:48Z</time>
      </trkpt>
      <trkpt lat="45.71571" lon="5.61474">
        <ele>323</ele>
        <time>2018-06-10T14:40:48Z</time>
      </trkpt>
      <trkpt lat="45.71578" lon="5.61474">
        <ele>323</ele>
        <time>2018-06-10T14:40:48Z</time>
      </trkpt>
      <trkpt lat="45.71584" lon="5.61471">
        <ele>323</ele>
        <time>2018-06-10T14:41:04Z</time>
      </trkpt>
      <trkpt lat="45.71589" lon="5.61467">
        <ele>323</ele>
        <time>2018-06-10T14:41:04Z</time>
      </trkpt>
      <trkpt lat="45.71595" lon="5.61465">
        <ele>323</ele>
        <time>2018-06-10T14:41:04Z</time>
      </trkpt>
      <trkpt lat="45.716" lon="5.61463">
        <ele>323</ele>
        <time>2018-06-10T14:41:04Z</time>
      </trkpt>
      <trkpt lat="45.71607" lon="5.61462">
        <ele>323</ele>
        <time>2018-06-10T14:41:20Z</time>
      </trkpt>
      <trkpt lat="45.71613" lon="5.61459">
        <ele>323</ele>
        <time>2018-06-10T14:41:20Z</time>
      </trkpt>
      <trkpt lat="45.71618" lon="5.61455">
        <ele>337</ele>
        <time>2018-06-10T14:41:20Z</time>
      </trkpt>
      <trkpt lat="45.71623" lon="5.6145">
        <ele>337</ele>
        <time>2018-06-10T14:41:20Z</time>
      </trkpt>
      <trkpt lat="45.71628" lon="5.61446">
        <ele>328</ele>
        <time>2018-06-10T14:41:36Z</time>
      </trkpt>
      <trkpt lat="45.71632" lon="5.61444">
        <ele>328</ele>
        <time>2018-06-10T14:41:36Z</time>
      </trkpt>
      <trkpt lat="45.71636" lon="5.61441">
        <ele>328</ele>
        <time>2018-06-10T14:41:36Z</time>
      </trkpt>
      <trkpt lat="45.71642" lon="5.61437">
        <ele>328</ele>
        <time>2018-06-10T14:41:36Z</time>
      </trkpt>
      <trkpt lat="45.71646" lon="5.61434">
        <ele>328</ele>
        <time>2018-06-10T14:41:52Z</time>
      </trkpt>
      <trkpt lat="45.71651" lon="5.6143">
        <ele>328</ele>
        <time>2018-06-10T14:41:52Z</time>
      </trkpt>
      <trkpt lat="45.71656" lon="5.61425">
        <ele>328</ele>
        <time>2018-06-10T14:41:52Z</time>
      </trkpt>
      <trkpt lat="45.71659" lon="5.61422">
        <ele>328</ele>
        <time>2018-06-10T14:41:52Z</time>
      </trkpt>
      <trkpt lat="45.71662" lon="5.61417">
        <ele>328</ele>
        <time>2018-06-10T14:42:08Z</time>
      </trkpt>
      <trkpt lat="45.71666" lon="5.6141">
        <ele>328</ele>
        <time>2018-06-10T14:42:08Z</time>
      </trkpt>
      <trkpt lat="45.7167" lon="5.61405">
        <ele>328</ele>
        <time>2018-06-10T14:42:08Z</time>
      </trkpt>
      <trkpt lat="45.71674" lon="5.61398">
        <ele>328</ele>
        <time>2018-06-10T14:42:08Z</time>
      </trkpt>
      <trkpt lat="45.71677" lon="5.6139">
        <ele>328</ele>
        <time>2018-06-10T14:42:24Z</time>
      </trkpt>
      <trkpt lat="45.71681" lon="5.61382">
        <ele>328</ele>
        <time>2018-06-10T14:42:24Z</time>
      </trkpt>
      <trkpt lat="45.71685" lon="5.61378">
        <ele>328</ele>
        <time>2018-06-10T14:42:24Z</time>
      </trkpt>
      <trkpt lat="45.71687" lon="5.61375">
        <ele>344</ele>
        <time>2018-06-10T14:42:24Z</time>
      </trkpt>
      <trkpt lat="45.71687" lon="5.61375">
        <ele>344</ele>
        <time>2018-06-10T14:42:40Z</time>
      </trkpt>
      <trkpt lat="45.7169" lon="5.61373">
        <ele>344</ele>
        <time>2018-06-10T14:42:40Z</time>
      </trkpt>
      <trkpt lat="45.71695" lon="5.61368">
        <ele>344</ele>
        <time>2018-06-10T14:42:40Z</time>
      </trkpt>
      <trkpt lat="45.71698" lon="5.61363">
        <ele>344</ele>
        <time>2018-06-10T14:42:40Z</time>
      </trkpt>
      <trkpt lat="45.71701" lon="5.61359">
        <ele>344</ele>
        <time>2018-06-10T14:42:56Z</time>
      </trkpt>
      <trkpt lat="45.71706" lon="5.61354">
        <ele>344</ele>
        <time>2018-06-10T14:42:56Z</time>
      </trkpt>
      <trkpt lat="45.71711" lon="5.61352">
        <ele>334</ele>
        <time>2018-06-10T14:42:56Z</time>
      </trkpt>
      <trkpt lat="45.71716" lon="5.61347">
        <ele>334</ele>
        <time>2018-06-10T14:42:56Z</time>
      </trkpt>
      <trkpt lat="45.71723" lon="5.61343">
        <ele>334</ele>
        <time>2018-06-10T14:43:12Z</time>
      </trkpt>
      <trkpt lat="45.71727" lon="5.61342">
        <ele>334</ele>
        <time>2018-06-10T14:43:12Z</time>
      </trkpt>
      <trkpt lat="45.71731" lon="5.6134">
        <ele>334</ele>
        <time>2018-06-10T14:43:12Z</time>
      </trkpt>
      <trkpt lat="45.71735" lon="5.61339">
        <ele>334</ele>
        <time>2018-06-10T14:43:12Z</time>
      </trkpt>
      <trkpt lat="45.71738" lon="5.6134">
        <ele>334</ele>
        <time>2018-06-10T14:43:28Z</time>
      </trkpt>
      <trkpt lat="45.71744" lon="5.61338">
        <ele>334</ele>
        <time>2018-06-10T14:43:28Z</time>
      </trkpt>
      <trkpt lat="45.7175" lon="5.61342">
        <ele>334</ele>
        <time>2018-06-10T14:43:28Z</time>
      </trkpt>
      <trkpt lat="45.71755" lon="5.61344">
        <ele>334</ele>
        <time>2018-06-10T14:43:28Z</time>
      </trkpt>
      <trkpt lat="45.71761" lon="5.61343">
        <ele>334</ele>
        <time>2018-06-10T14:43:52Z</time>
      </trkpt>
      <trkpt lat="45.71762" lon="5.61342">
        <ele>334</ele>
        <time>2018-06-10T14:43:52Z</time>
      </trkpt>
      <trkpt lat="45.71762" lon="5.61342">
        <ele>334</ele>
        <time>2018-06-10T14:43:52Z</time>
      </trkpt>
      <trkpt lat="45.71768" lon="5.61344">
        <ele>334</ele>
        <time>2018-06-10T14:43:52Z</time>
      </trkpt>
      <trkpt lat="45.71775" lon="5.61343">
        <ele>334</ele>
        <time>2018-06-10T14:43:52Z</time>
      </trkpt>
      <trkpt lat="45.71783" lon="5.61341">
        <ele>334</ele>
        <time>2018-06-10T14:44:08Z</time>
      </trkpt>
      <trkpt lat="45.71788" lon="5.61339">
        <ele>334</ele>
        <time>2018-06-10T14:44:08Z</time>
      </trkpt>
      <trkpt lat="45.71794" lon="5.61336">
        <ele>328</ele>
        <time>2018-06-10T14:44:08Z</time>
      </trkpt>
      <trkpt lat="45.718" lon="5.61332">
        <ele>328</ele>
        <time>2018-06-10T14:44:08Z</time>
      </trkpt>
      <trkpt lat="45.71805" lon="5.6133">
        <ele>328</ele>
        <time>2018-06-10T14:44:24Z</time>
      </trkpt>
      <trkpt lat="45.71808" lon="5.61328">
        <ele>328</ele>
        <time>2018-06-10T14:44:24Z</time>
      </trkpt>
      <trkpt lat="45.71812" lon="5.61325">
        <ele>328</ele>
        <time>2018-06-10T14:44:24Z</time>
      </trkpt>
      <trkpt lat="45.71819" lon="5.6132">
        <ele>328</ele>
        <time>2018-06-10T14:44:24Z</time>
      </trkpt>
      <trkpt lat="45.71831" lon="5.6131">
        <ele>328</ele>
        <time>2018-06-10T14:44:40Z</time>
      </trkpt>
      <trkpt lat="45.71844" lon="5.61301">
        <ele>328</ele>
        <time>2018-06-10T14:44:40Z</time>
      </trkpt>
      <trkpt lat="45.7185" lon="5.61295">
        <ele>328</ele>
        <time>2018-06-10T14:44:40Z</time>
      </trkpt>
      <trkpt lat="45.71856" lon="5.61292">
        <ele>328</ele>
        <time>2018-06-10T14:44:40Z</time>
      </trkpt>
      <trkpt lat="45.7186" lon="5.61289">
        <ele>341</ele>
        <time>2018-06-10T14:44:56Z</time>
      </trkpt>
      <trkpt lat="45.71863" lon="5.61285">
        <ele>341</ele>
        <time>2018-06-10T14:44:56Z</time>
      </trkpt>
      <trkpt lat="45.71869" lon="5.61279">
        <ele>341</ele>
        <time>2018-06-10T14:44:56Z</time>
      </trkpt>
      <trkpt lat="45.71874" lon="5.61275">
        <ele>341</ele>
        <time>2018-06-10T14:44:56Z</time>
      </trkpt>
      <trkpt lat="45.71878" lon="5.61269">
        <ele>333</ele>
        <time>2018-06-10T14:45:12Z</time>
      </trkpt>
      <trkpt lat="45.71883" lon="5.61265">
        <ele>333</ele>
        <time>2018-06-10T14:45:12Z</time>
      </trkpt>
      <trkpt lat="45.71886" lon="5.61264">
        <ele>333</ele>
        <time>2018-06-10T14:45:12Z</time>
      </trkpt>
      <trkpt lat="45.71893" lon="5.6126">
        <ele>333</ele>
        <time>2018-06-10T14:45:12Z</time>
      </trkpt>
      <trkpt lat="45.71898" lon="5.61256">
        <ele>333</ele>
        <time>2018-06-10T14:45:28Z</time>
      </trkpt>
      <trkpt lat="45.71905" lon="5.6125">
        <ele>333</ele>
        <time>2018-06-10T14:45:28Z</time>
      </trkpt>
      <trkpt lat="45.7191" lon="5.61245">
        <ele>333</ele>
        <time>2018-06-10T14:45:28Z</time>
      </trkpt>
      <trkpt lat="45.71917" lon="5.61242">
        <ele>333</ele>
        <time>2018-06-10T14:45:28Z</time>
      </trkpt>
      <trkpt lat="45.71919" lon="5.6124">
        <ele>333</ele>
        <time>2018-06-10T14:45:44Z</time>
      </trkpt>
      <trkpt lat="45.71923" lon="5.61239">
        <ele>333</ele>
        <time>2018-06-10T14:45:44Z</time>
      </trkpt>
      <trkpt lat="45.71927" lon="5.61238">
        <ele>333</ele>
        <time>2018-06-10T14:45:44Z</time>
      </trkpt>
      <trkpt lat="45.71931" lon="5.61235">
        <ele>333</ele>
        <time>2018-06-10T14:45:44Z</time>
      </trkpt>
      <trkpt lat="45.71935" lon="5.61231">
        <ele>333</ele>
        <time>2018-06-10T14:46:00Z</time>
      </trkpt>
      <trkpt lat="45.7194" lon="5.61225">
        <ele>333</ele>
        <time>2018-06-10T14:46:00Z</time>
      </trkpt>
      <trkpt lat="45.71946" lon="5.6122">
        <ele>333</ele>
        <time>2018-06-10T14:46:00Z</time>
      </trkpt>
      <trkpt lat="45.71951" lon="5.61214">
        <ele>333</ele>
        <time>2018-06-10T14:46:00Z</time>
      </trkpt>
      <trkpt lat="45.71955" lon="5.61208">
        <ele>346</ele>
        <time>2018-06-10T14:46:16Z</time>
      </trkpt>
      <trkpt lat="45.7196" lon="5.61195">
        <ele>333</ele>
        <time>2018-06-10T14:46:16Z</time>
      </trkpt>
      <trkpt lat="45.71964" lon="5.61187">
        <ele>333</ele>
        <time>2018-06-10T14:46:16Z</time>
      </trkpt>
      <trkpt lat="45.71967" lon="5.61181">
        <ele>333</ele>
        <time>2018-06-10T14:46:16Z</time>
      </trkpt>
      <trkpt lat="45.71969" lon="5.61175">
        <ele>333</ele>
        <time>2018-06-10T14:46:36Z</time>
      </trkpt>
      <trkpt lat="45.71971" lon="5.61174">
        <ele>333</ele>
        <time>2018-06-10T14:46:36Z</time>
      </trkpt>
      <trkpt lat="45.71973" lon="5.61172">
        <ele>333</ele>
        <time>2018-06-10T14:46:36Z</time>
      </trkpt>
      <trkpt lat="45.71975" lon="5.61169">
        <ele>333</ele>
        <time>2018-06-10T14:46:36Z</time>
      </trkpt>
      <trkpt lat="45.71977" lon="5.61164">
        <ele>333</ele>
        <time>2018-06-10T14:46:36Z</time>
      </trkpt>
      <trkpt lat="45.71981" lon="5.61156">
        <ele>333</ele>
        <time>2018-06-10T14:46:52Z</time>
      </trkpt>
      <trkpt lat="45.71985" lon="5.61147">
        <ele>333</ele>
        <time>2018-06-10T14:46:52Z</time>
      </trkpt>
      <trkpt lat="45.71986" lon="5.61145">
        <ele>333</ele>
        <time>2018-06-10T14:46:52Z</time>
      </trkpt>
      <trkpt lat="45.71989" lon="5.61138">
        <ele>333</ele>
        <time>2018-06-10T14:46:52Z</time>
      </trkpt>
      <trkpt lat="45.71992" lon="5.61131">
        <ele>333</ele>
        <time>2018-06-10T14:47:08Z</time>
      </trkpt>
      <trkpt lat="45.71996" lon="5.61123">
        <ele>334</ele>
        <time>2018-06-10T14:47:08Z</time>
      </trkpt>
      <trkpt lat="45.72" lon="5.61113">
        <ele>334</ele>
        <time>2018-06-10T14:47:08Z</time>
      </trkpt>
      <trkpt lat="45.72009" lon="5.61095">
        <ele>334</ele>
        <time>2018-06-10T14:47:08Z</time>
      </trkpt>
      <trkpt lat="45.72011" lon="5.61083">
        <ele>334</ele>
        <time>2018-06-10T14:47:24Z</time>
      </trkpt>
      <trkpt lat="45.72012" lon="5.61074">
        <ele>334</ele>
        <time>2018-06-10T14:47:24Z</time>
      </trkpt>
      <trkpt lat="45.72013" lon="5.61068">
        <ele>334</ele>
        <time>2018-06-10T14:47:24Z</time>
      </trkpt>
      <trkpt lat="45.72015" lon="5.61063">
        <ele>334</ele>
        <time>2018-06-10T14:47:24Z</time>
      </trkpt>
      <trkpt lat="45.72021" lon="5.6106">
        <ele>334</ele>
        <time>2018-06-10T14:47:40Z</time>
      </trkpt>
      <trkpt lat="45.72027" lon="5.61054">
        <ele>334</ele>
        <time>2018-06-10T14:47:40Z</time>
      </trkpt>
      <trkpt lat="45.72034" lon="5.6105">
        <ele>334</ele>
        <time>2018-06-10T14:47:40Z</time>
      </trkpt>
      <trkpt lat="45.72039" lon="5.61047">
        <ele>334</ele>
        <time>2018-06-10T14:47:40Z</time>
      </trkpt>
      <trkpt lat="45.72043" lon="5.61047">
        <ele>327</ele>
        <time>2018-06-10T14:47:56Z</time>
      </trkpt>
      <trkpt lat="45.72049" lon="5.61044">
        <ele>327</ele>
        <time>2018-06-10T14:47:56Z</time>
      </trkpt>
      <trkpt lat="45.72053" lon="5.61042">
        <ele>327</ele>
        <time>2018-06-10T14:47:56Z</time>
      </trkpt>
      <trkpt lat="45.72061" lon="5.61039">
        <ele>333</ele>
        <time>2018-06-10T14:47:56Z</time>
      </trkpt>
      <trkpt lat="45.72069" lon="5.61038">
        <ele>333</ele>
        <time>2018-06-10T14:48:12Z</time>
      </trkpt>
      <trkpt lat="45.72076" lon="5.61036">
        <ele>333</ele>
        <time>2018-06-10T14:48:12Z</time>
      </trkpt>
      <trkpt lat="45.72081" lon="5.61033">
        <ele>333</ele>
        <time>2018-06-10T14:48:12Z</time>
      </trkpt>
      <trkpt lat="45.72087" lon="5.61032">
        <ele>333</ele>
        <time>2018-06-10T14:48:12Z</time>
      </trkpt>
      <trkpt lat="45.72089" lon="5.61031">
        <ele>333</ele>
        <time>2018-06-10T14:48:28Z</time>
      </trkpt>
      <trkpt lat="45.72094" lon="5.61029">
        <ele>333</ele>
        <time>2018-06-10T14:48:28Z</time>
      </trkpt>
      <trkpt lat="45.72098" lon="5.61027">
        <ele>333</ele>
        <time>2018-06-10T14:48:28Z</time>
      </trkpt>
      <trkpt lat="45.721" lon="5.61027">
        <ele>333</ele>
        <time>2018-06-10T14:48:28Z</time>
      </trkpt>
      <trkpt lat="45.72105" lon="5.61027">
        <ele>333</ele>
        <time>2018-06-10T14:48:44Z</time>
      </trkpt>
      <trkpt lat="45.72112" lon="5.61028">
        <ele>333</ele>
        <time>2018-06-10T14:48:44Z</time>
      </trkpt>
      <trkpt lat="45.72116" lon="5.61026">
        <ele>333</ele>
        <time>2018-06-10T14:48:44Z</time>
      </trkpt>
      <trkpt lat="45.72121" lon="5.61023">
        <ele>333</ele>
        <time>2018-06-10T14:48:44Z</time>
      </trkpt>
      <trkpt lat="45.72125" lon="5.61019">
        <ele>333</ele>
        <time>2018-06-10T14:49:00Z</time>
      </trkpt>
      <trkpt lat="45.72131" lon="5.61014">
        <ele>330</ele>
        <time>2018-06-10T14:49:00Z</time>
      </trkpt>
      <trkpt lat="45.72137" lon="5.61011">
        <ele>330</ele>
        <time>2018-06-10T14:49:00Z</time>
      </trkpt>
      <trkpt lat="45.7214" lon="5.6101">
        <ele>330</ele>
        <time>2018-06-10T14:49:00Z</time>
      </trkpt>
      <trkpt lat="45.72143" lon="5.61005">
        <ele>330</ele>
        <time>2018-06-10T14:49:16Z</time>
      </trkpt>
      <trkpt lat="45.72146" lon="5.60999">
        <ele>330</ele>
        <time>2018-06-10T14:49:16Z</time>
      </trkpt>
      <trkpt lat="45.72149" lon="5.60996">
        <ele>330</ele>
        <time>2018-06-10T14:49:16Z</time>
      </trkpt>
      <trkpt lat="45.72152" lon="5.60993">
        <ele>330</ele>
        <time>2018-06-10T14:49:16Z</time>
      </trkpt>
      <trkpt lat="45.7216" lon="5.60991">
        <ele>330</ele>
        <time>2018-06-10T14:49:32Z</time>
      </trkpt>
      <trkpt lat="45.72166" lon="5.60987">
        <ele>330</ele>
        <time>2018-06-10T14:49:32Z</time>
      </trkpt>
      <trkpt lat="45.72171" lon="5.60982">
        <ele>330</ele>
        <time>2018-06-10T14:49:32Z</time>
      </trkpt>
      <trkpt lat="45.72176" lon="5.60978">
        <ele>330</ele>
        <time>2018-06-10T14:49:32Z</time>
      </trkpt>
      <trkpt lat="45.72182" lon="5.60974">
        <ele>330</ele>
        <time>2018-06-10T14:49:48Z</time>
      </trkpt>
      <trkpt lat="45.72186" lon="5.60967">
        <ele>330</ele>
        <time>2018-06-10T14:49:48Z</time>
      </trkpt>
      <trkpt lat="45.72191" lon="5.6096">
        <ele>330</ele>
        <time>2018-06-10T14:49:48Z</time>
      </trkpt>
      <trkpt lat="45.72195" lon="5.60953">
        <ele>342</ele>
        <time>2018-06-10T14:49:48Z</time>
      </trkpt>
      <trkpt lat="45.72199" lon="5.60946">
        <ele>342</ele>
        <time>2018-06-10T14:50:04Z</time>
      </trkpt>
      <trkpt lat="45.72201" lon="5.60939">
        <ele>342</ele>
        <time>2018-06-10T14:50:04Z</time>
      </trkpt>
      <trkpt lat="45.72204" lon="5.60931">
        <ele>342</ele>
        <time>2018-06-10T14:50:04Z</time>
      </trkpt>
      <trkpt lat="45.72208" lon="5.60926">
        <ele>342</ele>
        <time>2018-06-10T14:50:04Z</time>
      </trkpt>
      <trkpt lat="45.72212" lon="5.6092">
        <ele>333</ele>
        <time>2018-06-10T14:50:20Z</time>
      </trkpt>
      <trkpt lat="45.72216" lon="5.60914">
        <ele>333</ele>
        <time>2018-06-10T14:50:20Z</time>
      </trkpt>
      <trkpt lat="45.72221" lon="5.60909">
        <ele>333</ele>
        <time>2018-06-10T14:50:20Z</time>
      </trkpt>
      <trkpt lat="45.72226" lon="5.60904">
        <ele>333</ele>
        <time>2018-06-10T14:50:20Z</time>
      </trkpt>
      <trkpt lat="45.72231" lon="5.609">
        <ele>333</ele>
        <time>2018-06-10T14:50:36Z</time>
      </trkpt>
      <trkpt lat="45.72234" lon="5.60894">
        <ele>333</ele>
        <time>2018-06-10T14:50:36Z</time>
      </trkpt>
      <trkpt lat="45.72236" lon="5.6089">
        <ele>333</ele>
        <time>2018-06-10T14:50:36Z</time>
      </trkpt>
      <trkpt lat="45.7224" lon="5.60885">
        <ele>333</ele>
        <time>2018-06-10T14:50:36Z</time>
      </trkpt>
      <trkpt lat="45.72244" lon="5.6088">
        <ele>333</ele>
        <time>2018-06-10T14:50:52Z</time>
      </trkpt>
      <trkpt lat="45.72248" lon="5.60878">
        <ele>333</ele>
        <time>2018-06-10T14:50:52Z</time>
      </trkpt>
      <trkpt lat="45.72252" lon="5.60876">
        <ele>333</ele>
        <time>2018-06-10T14:50:52Z</time>
      </trkpt>
      <trkpt lat="45.72258" lon="5.60874">
        <ele>351</ele>
        <time>2018-06-10T14:50:52Z</time>
      </trkpt>
      <trkpt lat="45.72265" lon="5.60871">
        <ele>351</ele>
        <time>2018-06-10T14:51:08Z</time>
      </trkpt>
      <trkpt lat="45.7227" lon="5.60868">
        <ele>351</ele>
        <time>2018-06-10T14:51:08Z</time>
      </trkpt>
      <trkpt lat="45.72276" lon="5.60863">
        <ele>351</ele>
        <time>2018-06-10T14:51:08Z</time>
      </trkpt>
      <trkpt lat="45.72281" lon="5.60857">
        <ele>351</ele>
        <time>2018-06-10T14:51:08Z</time>
      </trkpt>
      <trkpt lat="45.72288" lon="5.60853">
        <ele>351</ele>
        <time>2018-06-10T14:51:24Z</time>
      </trkpt>
      <trkpt lat="45.72294" lon="5.60848">
        <ele>341</ele>
        <time>2018-06-10T14:51:24Z</time>
      </trkpt>
      <trkpt lat="45.723" lon="5.60844">
        <ele>341</ele>
        <time>2018-06-10T14:51:24Z</time>
      </trkpt>
      <trkpt lat="45.72305" lon="5.6084">
        <ele>341</ele>
        <time>2018-06-10T14:51:24Z</time>
      </trkpt>
      <trkpt lat="45.7231" lon="5.60836">
        <ele>341</ele>
        <time>2018-06-10T14:51:40Z</time>
      </trkpt>
      <trkpt lat="45.72314" lon="5.60831">
        <ele>341</ele>
        <time>2018-06-10T14:51:40Z</time>
      </trkpt>
      <trkpt lat="45.72318" lon="5.60828">
        <ele>341</ele>
        <time>2018-06-10T14:51:40Z</time>
      </trkpt>
      <trkpt lat="45.72324" lon="5.60822">
        <ele>341</ele>
        <time>2018-06-10T14:51:40Z</time>
      </trkpt>
      <trkpt lat="45.72332" lon="5.60817">
        <ele>341</ele>
        <time>2018-06-10T14:51:56Z</time>
      </trkpt>
      <trkpt lat="45.72339" lon="5.60813">
        <ele>341</ele>
        <time>2018-06-10T14:51:56Z</time>
      </trkpt>
      <trkpt lat="45.72346" lon="5.60812">
        <ele>341</ele>
        <time>2018-06-10T14:51:56Z</time>
      </trkpt>
      <trkpt lat="45.72351" lon="5.60808">
        <ele>341</ele>
        <time>2018-06-10T14:51:56Z</time>
      </trkpt>
      <trkpt lat="45.72356" lon="5.60802">
        <ele>341</ele>
        <time>2018-06-10T14:52:12Z</time>
      </trkpt>
      <trkpt lat="45.72361" lon="5.60796">
        <ele>341</ele>
        <time>2018-06-10T14:52:12Z</time>
      </trkpt>
      <trkpt lat="45.72366" lon="5.60793">
        <ele>341</ele>
        <time>2018-06-10T14:52:12Z</time>
      </trkpt>
      <trkpt lat="45.72371" lon="5.60787">
        <ele>356</ele>
        <time>2018-06-10T14:52:12Z</time>
      </trkpt>
      <trkpt lat="45.72376" lon="5.60785">
        <ele>347</ele>
        <time>2018-06-10T14:52:28Z</time>
      </trkpt>
      <trkpt lat="45.72381" lon="5.60782">
        <ele>347</ele>
        <time>2018-06-10T14:52:28Z</time>
      </trkpt>
      <trkpt lat="45.72385" lon="5.60775">
        <ele>347</ele>
        <time>2018-06-10T14:52:28Z</time>
      </trkpt>
      <trkpt lat="45.72387" lon="5.6077">
        <ele>347</ele>
        <time>2018-06-10T14:52:28Z</time>
      </trkpt>
      <trkpt lat="45.72388" lon="5.60766">
        <ele>347</ele>
        <time>2018-06-10T14:52:44Z</time>
      </trkpt>
      <trkpt lat="45.72394" lon="5.60763">
        <ele>347</ele>
        <time>2018-06-10T14:52:44Z</time>
      </trkpt>
      <trkpt lat="45.72397" lon="5.60759">
        <ele>347</ele>
        <time>2018-06-10T14:52:44Z</time>
      </trkpt>
      <trkpt lat="45.72402" lon="5.60755">
        <ele>347</ele>
        <time>2018-06-10T14:52:44Z</time>
      </trkpt>
      <trkpt lat="45.72407" lon="5.6075">
        <ele>347</ele>
        <time>2018-06-10T14:53:00Z</time>
      </trkpt>
      <trkpt lat="45.72413" lon="5.60745">
        <ele>347</ele>
        <time>2018-06-10T14:53:00Z</time>
      </trkpt>
      <trkpt lat="45.72418" lon="5.60741">
        <ele>347</ele>
        <time>2018-06-10T14:53:00Z</time>
      </trkpt>
      <trkpt lat="45.72421" lon="5.60736">
        <ele>347</ele>
        <time>2018-06-10T14:53:00Z</time>
      </trkpt>
      <trkpt lat="45.72425" lon="5.60734">
        <ele>347</ele>
        <time>2018-06-10T14:53:16Z</time>
      </trkpt>
      <trkpt lat="45.72429" lon="5.6073">
        <ele>347</ele>
        <time>2018-06-10T14:53:16Z</time>
      </trkpt>
      <trkpt lat="45.72435" lon="5.60722">
        <ele>347</ele>
        <time>2018-06-10T14:53:16Z</time>
      </trkpt>
      <trkpt lat="45.72437" lon="5.60717">
        <ele>347</ele>
        <time>2018-06-10T14:53:16Z</time>
      </trkpt>
      <trkpt lat="45.72442" lon="5.60711">
        <ele>347</ele>
        <time>2018-06-10T14:53:32Z</time>
      </trkpt>
      <trkpt lat="45.72444" lon="5.60704">
        <ele>360</ele>
        <time>2018-06-10T14:53:32Z</time>
      </trkpt>
      <trkpt lat="45.72447" lon="5.60699">
        <ele>360</ele>
        <time>2018-06-10T14:53:32Z</time>
      </trkpt>
      <trkpt lat="45.7245" lon="5.60694">
        <ele>360</ele>
        <time>2018-06-10T14:53:32Z</time>
      </trkpt>
      <trkpt lat="45.72452" lon="5.60687">
        <ele>360</ele>
        <time>2018-06-10T14:53:48Z</time>
      </trkpt>
      <trkpt lat="45.72454" lon="5.60683">
        <ele>360</ele>
        <time>2018-06-10T14:53:48Z</time>
      </trkpt>
      <trkpt lat="45.72457" lon="5.60678">
        <ele>360</ele>
        <time>2018-06-10T14:53:48Z</time>
      </trkpt>
      <trkpt lat="45.72459" lon="5.60671">
        <ele>348</ele>
        <time>2018-06-10T14:53:48Z</time>
      </trkpt>
      <trkpt lat="45.72463" lon="5.60663">
        <ele>348</ele>
        <time>2018-06-10T14:54:04Z</time>
      </trkpt>
      <trkpt lat="45.72466" lon="5.60655">
        <ele>348</ele>
        <time>2018-06-10T14:54:04Z</time>
      </trkpt>
      <trkpt lat="45.72467" lon="5.60648">
        <ele>348</ele>
        <time>2018-06-10T14:54:04Z</time>
      </trkpt>
      <trkpt lat="45.7247" lon="5.60641">
        <ele>348</ele>
        <time>2018-06-10T14:54:04Z</time>
      </trkpt>
      <trkpt lat="45.72473" lon="5.60633">
        <ele>348</ele>
        <time>2018-06-10T14:54:20Z</time>
      </trkpt>
      <trkpt lat="45.72477" lon="5.60624">
        <ele>354</ele>
        <time>2018-06-10T14:54:20Z</time>
      </trkpt>
      <trkpt lat="45.72482" lon="5.60614">
        <ele>354</ele>
        <time>2018-06-10T14:54:20Z</time>
      </trkpt>
      <trkpt lat="45.72484" lon="5.6061">
        <ele>354</ele>
        <time>2018-06-10T14:54:20Z</time>
      </trkpt>
      <trkpt lat="45.72488" lon="5.60606">
        <ele>354</ele>
        <time>2018-06-10T14:54:36Z</time>
      </trkpt>
      <trkpt lat="45.72492" lon="5.606">
        <ele>354</ele>
        <time>2018-06-10T14:54:36Z</time>
      </trkpt>
      <trkpt lat="45.72495" lon="5.60591">
        <ele>354</ele>
        <time>2018-06-10T14:54:36Z</time>
      </trkpt>
      <trkpt lat="45.725" lon="5.60586">
        <ele>354</ele>
        <time>2018-06-10T14:54:36Z</time>
      </trkpt>
      <trkpt lat="45.72503" lon="5.60581">
        <ele>354</ele>
        <time>2018-06-10T14:54:52Z</time>
      </trkpt>
      <trkpt lat="45.72506" lon="5.60577">
        <ele>354</ele>
        <time>2018-06-10T14:54:52Z</time>
      </trkpt>
      <trkpt lat="45.7251" lon="5.60572">
        <ele>354</ele>
        <time>2018-06-10T14:54:52Z</time>
      </trkpt>
      <trkpt lat="45.72516" lon="5.60565">
        <ele>354</ele>
        <time>2018-06-10T14:54:52Z</time>
      </trkpt>
      <trkpt lat="45.7252" lon="5.60562">
        <ele>354</ele>
        <time>2018-06-10T14:55:20Z</time>
      </trkpt>
      <trkpt lat="45.7252" lon="5.60562">
        <ele>354</ele>
        <time>2018-06-10T14:55:20Z</time>
      </trkpt>
      <trkpt lat="45.72523" lon="5.60562">
        <ele>354</ele>
        <time>2018-06-10T14:55:20Z</time>
      </trkpt>
      <trkpt lat="45.72526" lon="5.60563">
        <ele>354</ele>
        <time>2018-06-10T14:55:20Z</time>
      </trkpt>
      <trkpt lat="45.7253" lon="5.60563">
        <ele>354</ele>
        <time>2018-06-10T14:55:20Z</time>
      </trkpt>
      <trkpt lat="45.72531" lon="5.60561">
        <ele>354</ele>
        <time>2018-06-10T14:57:08Z</time>
      </trkpt>
      <trkpt lat="45.72531" lon="5.6056">
        <ele>354</ele>
        <time>2018-06-10T14:57:08Z</time>
      </trkpt>
      <trkpt lat="45.7253" lon="5.6056">
        <ele>354</ele>
        <time>2018-06-10T14:57:08Z</time>
      </trkpt>
      <trkpt lat="45.72527" lon="5.60561">
        <ele>354</ele>
        <time>2018-06-10T14:57:08Z</time>
      </trkpt>
      <trkpt lat="45.72524" lon="5.60566">
        <ele>354</ele>
        <time>2018-06-10T14:57:08Z</time>
      </trkpt>
      <trkpt lat="45.72526" lon="5.60572">
        <ele>354</ele>
        <time>2018-06-10T15:00:44Z</time>
      </trkpt>
      <trkpt lat="45.7253" lon="5.60568">
        <ele>354</ele>
        <time>2018-06-10T15:00:44Z</time>
      </trkpt>
      <trkpt lat="45.72534" lon="5.60568">
        <ele>354</ele>
        <time>2018-06-10T15:00:44Z</time>
      </trkpt>
      <trkpt lat="45.72536" lon="5.60572">
        <ele>354</ele>
        <time>2018-06-10T15:00:44Z</time>
      </trkpt>
      <trkpt lat="45.72538" lon="5.60574">
        <ele>354</ele>
        <time>2018-06-10T15:00:44Z</time>
      </trkpt>
      <trkpt lat="45.7254" lon="5.60579">
        <ele>354</ele>
        <time>2018-06-10T15:01:00Z</time>
      </trkpt>
      <trkpt lat="45.72543" lon="5.60586">
        <ele>354</ele>
        <time>2018-06-10T15:01:00Z</time>
      </trkpt>
      <trkpt lat="45.72549" lon="5.60596">
        <ele>354</ele>
        <time>2018-06-10T15:01:00Z</time>
      </trkpt>
      <trkpt lat="45.72553" lon="5.60604">
        <ele>354</ele>
        <time>2018-06-10T15:01:00Z</time>
      </trkpt>
      <trkpt lat="45.72555" lon="5.60611">
        <ele>354</ele>
        <time>2018-06-10T15:01:20Z</time>
      </trkpt>
      <trkpt lat="45.72557" lon="5.60618">
        <ele>354</ele>
        <time>2018-06-10T15:01:20Z</time>
      </trkpt>
      <trkpt lat="45.72558" lon="5.60619">
        <ele>354</ele>
        <time>2018-06-10T15:01:20Z</time>
      </trkpt>
      <trkpt lat="45.72559" lon="5.60619">
        <ele>354</ele>
        <time>2018-06-10T15:01:20Z</time>
      </trkpt>
      <trkpt lat="45.7256" lon="5.60625">
        <ele>354</ele>
        <time>2018-06-10T15:01:20Z</time>
      </trkpt>
      <trkpt lat="45.72563" lon="5.6063">
        <ele>352</ele>
        <time>2018-06-10T15:01:36Z</time>
      </trkpt>
      <trkpt lat="45.72566" lon="5.60637">
        <ele>352</ele>
        <time>2018-06-10T15:01:36Z</time>
      </trkpt>
      <trkpt lat="45.72567" lon="5.60642">
        <ele>352</ele>
        <time>2018-06-10T15:01:36Z</time>
      </trkpt>
      <trkpt lat="45.72569" lon="5.60648">
        <ele>352</ele>
        <time>2018-06-10T15:01:36Z</time>
      </trkpt>
      <trkpt lat="45.72571" lon="5.60654">
        <ele>352</ele>
        <time>2018-06-10T15:01:56Z</time>
      </trkpt>
      <trkpt lat="45.72572" lon="5.60657">
        <ele>352</ele>
        <time>2018-06-10T15:01:56Z</time>
      </trkpt>
      <trkpt lat="45.72573" lon="5.60658">
        <ele>352</ele>
        <time>2018-06-10T15:01:56Z</time>
      </trkpt>
      <trkpt lat="45.72575" lon="5.60664">
        <ele>352</ele>
        <time>2018-06-10T15:01:56Z</time>
      </trkpt>
      <trkpt lat="45.72577" lon="5.60669">
        <ele>352</ele>
        <time>2018-06-10T15:01:56Z</time>
      </trkpt>
      <trkpt lat="45.72579" lon="5.60673">
        <ele>352</ele>
        <time>2018-06-10T15:02:12Z</time>
      </trkpt>
      <trkpt lat="45.72584" lon="5.6068">
        <ele>352</ele>
        <time>2018-06-10T15:02:12Z</time>
      </trkpt>
      <trkpt lat="45.72588" lon="5.60686">
        <ele>352</ele>
        <time>2018-06-10T15:02:12Z</time>
      </trkpt>
      <trkpt lat="45.72592" lon="5.60692">
        <ele>352</ele>
        <time>2018-06-10T15:02:12Z</time>
      </trkpt>
      <trkpt lat="45.72597" lon="5.60696">
        <ele>352</ele>
        <time>2018-06-10T15:02:28Z</time>
      </trkpt>
      <trkpt lat="45.726" lon="5.60699">
        <ele>352</ele>
        <time>2018-06-10T15:02:28Z</time>
      </trkpt>
      <trkpt lat="45.72602" lon="5.60704">
        <ele>352</ele>
        <time>2018-06-10T15:02:28Z</time>
      </trkpt>
      <trkpt lat="45.72603" lon="5.60707">
        <ele>352</ele>
        <time>2018-06-10T15:02:28Z</time>
      </trkpt>
      <trkpt lat="45.72604" lon="5.60709">
        <ele>350</ele>
        <time>2018-06-10T15:02:44Z</time>
      </trkpt>
      <trkpt lat="45.72608" lon="5.60713">
        <ele>350</ele>
        <time>2018-06-10T15:02:44Z</time>
      </trkpt>
      <trkpt lat="45.72612" lon="5.60719">
        <ele>350</ele>
        <time>2018-06-10T15:02:44Z</time>
      </trkpt>
      <trkpt lat="45.72617" lon="5.60724">
        <ele>350</ele>
        <time>2018-06-10T15:02:44Z</time>
      </trkpt>
      <trkpt lat="45.72621" lon="5.60729">
        <ele>350</ele>
        <time>2018-06-10T15:03:40Z</time>
      </trkpt>
      <trkpt lat="45.72621" lon="5.6073">
        <ele>350</ele>
        <time>2018-06-10T15:03:40Z</time>
      </trkpt>
      <trkpt lat="45.72621" lon="5.60735">
        <ele>350</ele>
        <time>2018-06-10T15:03:40Z</time>
      </trkpt>
      <trkpt lat="45.72617" lon="5.60742">
        <ele>350</ele>
        <time>2018-06-10T15:03:40Z</time>
      </trkpt>
      <trkpt lat="45.72614" lon="5.60746">
        <ele>350</ele>
        <time>2018-06-10T15:03:40Z</time>
      </trkpt>
      <trkpt lat="45.72611" lon="5.60753">
        <ele>350</ele>
        <time>2018-06-10T15:03:56Z</time>
      </trkpt>
      <trkpt lat="45.72609" lon="5.60758">
        <ele>350</ele>
        <time>2018-06-10T15:03:56Z</time>
      </trkpt>
      <trkpt lat="45.72606" lon="5.60764">
        <ele>350</ele>
        <time>2018-06-10T15:03:56Z</time>
      </trkpt>
      <trkpt lat="45.72603" lon="5.6077">
        <ele>350</ele>
        <time>2018-06-10T15:03:56Z</time>
      </trkpt>
      <trkpt lat="45.72601" lon="5.60778">
        <ele>350</ele>
        <time>2018-06-10T15:04:12Z</time>
      </trkpt>
      <trkpt lat="45.72599" lon="5.60785">
        <ele>350</ele>
        <time>2018-06-10T15:04:12Z</time>
      </trkpt>
      <trkpt lat="45.72599" lon="5.60792">
        <ele>346</ele>
        <time>2018-06-10T15:04:12Z</time>
      </trkpt>
      <trkpt lat="45.72598" lon="5.60799">
        <ele>346</ele>
        <time>2018-06-10T15:04:12Z</time>
      </trkpt>
      <trkpt lat="45.72596" lon="5.60807">
        <ele>346</ele>
        <time>2018-06-10T15:04:28Z</time>
      </trkpt>
      <trkpt lat="45.72595" lon="5.60813">
        <ele>346</ele>
        <time>2018-06-10T15:04:28Z</time>
      </trkpt>
      <trkpt lat="45.72594" lon="5.60819">
        <ele>346</ele>
        <time>2018-06-10T15:04:28Z</time>
      </trkpt>
      <trkpt lat="45.72594" lon="5.60827">
        <ele>346</ele>
        <time>2018-06-10T15:04:28Z</time>
      </trkpt>
      <trkpt lat="45.72594" lon="5.60835">
        <ele>346</ele>
        <time>2018-06-10T15:04:44Z</time>
      </trkpt>
      <trkpt lat="45.72593" lon="5.60843">
        <ele>346</ele>
        <time>2018-06-10T15:04:44Z</time>
      </trkpt>
      <trkpt lat="45.72594" lon="5.60851">
        <ele>346</ele>
        <time>2018-06-10T15:04:44Z</time>
      </trkpt>
      <trkpt lat="45.72594" lon="5.60857">
        <ele>346</ele>
        <time>2018-06-10T15:04:44Z</time>
      </trkpt>
      <trkpt lat="45.72595" lon="5.60864">
        <ele>346</ele>
        <time>2018-06-10T15:05:00Z</time>
      </trkpt>
      <trkpt lat="45.72595" lon="5.60873">
        <ele>346</ele>
        <time>2018-06-10T15:05:00Z</time>
      </trkpt>
      <trkpt lat="45.72594" lon="5.60881">
        <ele>341</ele>
        <time>2018-06-10T15:05:00Z</time>
      </trkpt>
      <trkpt lat="45.72592" lon="5.60891">
        <ele>341</ele>
        <time>2018-06-10T15:05:00Z</time>
      </trkpt>
      <trkpt lat="45.72592" lon="5.60899">
        <ele>341</ele>
        <time>2018-06-10T15:05:16Z</time>
      </trkpt>
      <trkpt lat="45.72592" lon="5.60907">
        <ele>341</ele>
        <time>2018-06-10T15:05:16Z</time>
      </trkpt>
      <trkpt lat="45.72591" lon="5.60914">
        <ele>341</ele>
        <time>2018-06-10T15:05:16Z</time>
      </trkpt>
      <trkpt lat="45.72591" lon="5.60921">
        <ele>341</ele>
        <time>2018-06-10T15:05:16Z</time>
      </trkpt>
      <trkpt lat="45.72591" lon="5.60928">
        <ele>341</ele>
        <time>2018-06-10T15:05:32Z</time>
      </trkpt>
      <trkpt lat="45.72591" lon="5.60936">
        <ele>341</ele>
        <time>2018-06-10T15:05:32Z</time>
      </trkpt>
      <trkpt lat="45.72593" lon="5.60943">
        <ele>341</ele>
        <time>2018-06-10T15:05:32Z</time>
      </trkpt>
      <trkpt lat="45.72594" lon="5.60951">
        <ele>341</ele>
        <time>2018-06-10T15:05:32Z</time>
      </trkpt>
      <trkpt lat="45.72595" lon="5.60958">
        <ele>341</ele>
        <time>2018-06-10T15:05:48Z</time>
      </trkpt>
      <trkpt lat="45.72594" lon="5.60965">
        <ele>337</ele>
        <time>2018-06-10T15:05:48Z</time>
      </trkpt>
      <trkpt lat="45.72593" lon="5.60974">
        <ele>337</ele>
        <time>2018-06-10T15:05:48Z</time>
      </trkpt>
      <trkpt lat="45.72591" lon="5.60983">
        <ele>337</ele>
        <time>2018-06-10T15:05:48Z</time>
      </trkpt>
      <trkpt lat="45.72587" lon="5.61021">
        <ele>337</ele>
        <time>2018-06-10T15:06:24Z</time>
      </trkpt>
      <trkpt lat="45.72587" lon="5.61031">
        <ele>337</ele>
        <time>2018-06-10T15:06:24Z</time>
      </trkpt>
      <trkpt lat="45.72586" lon="5.61038">
        <ele>337</ele>
        <time>2018-06-10T15:06:24Z</time>
      </trkpt>
      <trkpt lat="45.72586" lon="5.61044">
        <ele>332</ele>
        <time>2018-06-10T15:06:24Z</time>
      </trkpt>
      <trkpt lat="45.72586" lon="5.61051">
        <ele>332</ele>
        <time>2018-06-10T15:06:40Z</time>
      </trkpt>
      <trkpt lat="45.72587" lon="5.61054">
        <ele>332</ele>
        <time>2018-06-10T15:06:40Z</time>
      </trkpt>
      <trkpt lat="45.7259" lon="5.61059">
        <ele>332</ele>
        <time>2018-06-10T15:06:40Z</time>
      </trkpt>
      <trkpt lat="45.72592" lon="5.61063">
        <ele>332</ele>
        <time>2018-06-10T15:06:40Z</time>
      </trkpt>
      <trkpt lat="45.726" lon="5.6107">
        <ele>332</ele>
        <time>2018-06-10T15:06:56Z</time>
      </trkpt>
      <trkpt lat="45.72608" lon="5.61073">
        <ele>332</ele>
        <time>2018-06-10T15:06:56Z</time>
      </trkpt>
      <trkpt lat="45.72611" lon="5.61079">
        <ele>332</ele>
        <time>2018-06-10T15:06:56Z</time>
      </trkpt>
      <trkpt lat="45.72614" lon="5.61087">
        <ele>332</ele>
        <time>2018-06-10T15:06:56Z</time>
      </trkpt>
      <trkpt lat="45.72617" lon="5.61093">
        <ele>332</ele>
        <time>2018-06-10T15:07:12Z</time>
      </trkpt>
      <trkpt lat="45.72621" lon="5.61102">
        <ele>332</ele>
        <time>2018-06-10T15:07:12Z</time>
      </trkpt>
      <trkpt lat="45.72625" lon="5.61109">
        <ele>332</ele>
        <time>2018-06-10T15:07:12Z</time>
      </trkpt>
      <trkpt lat="45.72628" lon="5.61118">
        <ele>334</ele>
        <time>2018-06-10T15:07:12Z</time>
      </trkpt>
      <trkpt lat="45.72632" lon="5.61128">
        <ele>334</ele>
        <time>2018-06-10T15:07:28Z</time>
      </trkpt>
      <trkpt lat="45.72634" lon="5.61136">
        <ele>334</ele>
        <time>2018-06-10T15:07:28Z</time>
      </trkpt>
      <trkpt lat="45.72631" lon="5.61143">
        <ele>334</ele>
        <time>2018-06-10T15:07:28Z</time>
      </trkpt>
      <trkpt lat="45.72628" lon="5.61151">
        <ele>334</ele>
        <time>2018-06-10T15:07:28Z</time>
      </trkpt>
      <trkpt lat="45.72625" lon="5.61157">
        <ele>332</ele>
        <time>2018-06-10T15:07:44Z</time>
      </trkpt>
      <trkpt lat="45.7262" lon="5.61162">
        <ele>332</ele>
        <time>2018-06-10T15:07:44Z</time>
      </trkpt>
      <trkpt lat="45.72618" lon="5.61167">
        <ele>332</ele>
        <time>2018-06-10T15:07:44Z</time>
      </trkpt>
      <trkpt lat="45.72616" lon="5.61174">
        <ele>332</ele>
        <time>2018-06-10T15:07:44Z</time>
      </trkpt>
      <trkpt lat="45.72614" lon="5.61179">
        <ele>332</ele>
        <time>2018-06-10T15:08:00Z</time>
      </trkpt>
      <trkpt lat="45.72611" lon="5.61186">
        <ele>332</ele>
        <time>2018-06-10T15:08:00Z</time>
      </trkpt>
      <trkpt lat="45.72607" lon="5.61194">
        <ele>332</ele>
        <time>2018-06-10T15:08:00Z</time>
      </trkpt>
      <trkpt lat="45.72602" lon="5.61201">
        <ele>332</ele>
        <time>2018-06-10T15:08:00Z</time>
      </trkpt>
      <trkpt lat="45.72598" lon="5.61205">
        <ele>332</ele>
        <time>2018-06-10T15:08:16Z</time>
      </trkpt>
      <trkpt lat="45.72594" lon="5.61212">
        <ele>335</ele>
        <time>2018-06-10T15:08:16Z</time>
      </trkpt>
      <trkpt lat="45.7259" lon="5.61217">
        <ele>335</ele>
        <time>2018-06-10T15:08:16Z</time>
      </trkpt>
      <trkpt lat="45.72589" lon="5.61218">
        <ele>335</ele>
        <time>2018-06-10T15:08:16Z</time>
      </trkpt>
      <trkpt lat="45.72591" lon="5.61211">
        <ele>335</ele>
        <time>2018-06-10T15:08:32Z</time>
      </trkpt>
      <trkpt lat="45.72597" lon="5.61203">
        <ele>332</ele>
        <time>2018-06-10T15:08:32Z</time>
      </trkpt>
      <trkpt lat="45.72599" lon="5.61201">
        <ele>332</ele>
        <time>2018-06-10T15:08:32Z</time>
      </trkpt>
      <trkpt lat="45.72603" lon="5.61198">
        <ele>332</ele>
        <time>2018-06-10T15:08:32Z</time>
      </trkpt>
      <trkpt lat="45.72605" lon="5.61203">
        <ele>332</ele>
        <time>2018-06-10T15:08:48Z</time>
      </trkpt>
      <trkpt lat="45.72608" lon="5.6121">
        <ele>335</ele>
        <time>2018-06-10T15:08:48Z</time>
      </trkpt>
      <trkpt lat="45.7261" lon="5.61217">
        <ele>335</ele>
        <time>2018-06-10T15:08:48Z</time>
      </trkpt>
      <trkpt lat="45.72609" lon="5.61221">
        <ele>335</ele>
        <time>2018-06-10T15:08:48Z</time>
      </trkpt>
      <trkpt lat="45.72607" lon="5.61226">
        <ele>335</ele>
        <time>2018-06-10T15:09:04Z</time>
      </trkpt>
      <trkpt lat="45.72605" lon="5.61235">
        <ele>335</ele>
        <time>2018-06-10T15:09:04Z</time>
      </trkpt>
      <trkpt lat="45.72604" lon="5.61241">
        <ele>335</ele>
        <time>2018-06-10T15:09:04Z</time>
      </trkpt>
      <trkpt lat="45.72603" lon="5.61248">
        <ele>335</ele>
        <time>2018-06-10T15:09:04Z</time>
      </trkpt>
      <trkpt lat="45.72603" lon="5.61256">
        <ele>335</ele>
        <time>2018-06-10T15:09:20Z</time>
      </trkpt>
      <trkpt lat="45.72603" lon="5.61264">
        <ele>335</ele>
        <time>2018-06-10T15:09:20Z</time>
      </trkpt>
      <trkpt lat="45.72603" lon="5.61272">
        <ele>335</ele>
        <time>2018-06-10T15:09:20Z</time>
      </trkpt>
      <trkpt lat="45.72603" lon="5.61278">
        <ele>335</ele>
        <time>2018-06-10T15:09:20Z</time>
      </trkpt>
      <trkpt lat="45.72602" lon="5.61286">
        <ele>335</ele>
        <time>2018-06-10T15:09:36Z</time>
      </trkpt>
      <trkpt lat="45.72602" lon="5.61293">
        <ele>334</ele>
        <time>2018-06-10T15:09:36Z</time>
      </trkpt>
      <trkpt lat="45.72599" lon="5.61297">
        <ele>334</ele>
        <time>2018-06-10T15:09:36Z</time>
      </trkpt>
      <trkpt lat="45.72597" lon="5.613">
        <ele>334</ele>
        <time>2018-06-10T15:09:36Z</time>
      </trkpt>
      <trkpt lat="45.72593" lon="5.61303">
        <ele>334</ele>
        <time>2018-06-10T15:09:52Z</time>
      </trkpt>
      <trkpt lat="45.72588" lon="5.61309">
        <ele>334</ele>
        <time>2018-06-10T15:09:52Z</time>
      </trkpt>
      <trkpt lat="45.72584" lon="5.61315">
        <ele>334</ele>
        <time>2018-06-10T15:09:52Z</time>
      </trkpt>
      <trkpt lat="45.7258" lon="5.61319">
        <ele>334</ele>
        <time>2018-06-10T15:09:52Z</time>
      </trkpt>
      <trkpt lat="45.72579" lon="5.61322">
        <ele>334</ele>
        <time>2018-06-10T15:10:08Z</time>
      </trkpt>
      <trkpt lat="45.72577" lon="5.61327">
        <ele>334</ele>
        <time>2018-06-10T15:10:08Z</time>
      </trkpt>
      <trkpt lat="45.72573" lon="5.61332">
        <ele>334</ele>
        <time>2018-06-10T15:10:08Z</time>
      </trkpt>
      <trkpt lat="45.72574" lon="5.6134">
        <ele>334</ele>
        <time>2018-06-10T15:10:08Z</time>
      </trkpt>
      <trkpt lat="45.72578" lon="5.61357">
        <ele>334</ele>
        <time>2018-06-10T15:10:24Z</time>
      </trkpt>
      <trkpt lat="45.72583" lon="5.61368">
        <ele>334</ele>
        <time>2018-06-10T15:10:24Z</time>
      </trkpt>
      <trkpt lat="45.72586" lon="5.61373">
        <ele>334</ele>
        <time>2018-06-10T15:10:24Z</time>
      </trkpt>
      <trkpt lat="45.72588" lon="5.61376">
        <ele>334</ele>
        <time>2018-06-10T15:10:24Z</time>
      </trkpt>
      <trkpt lat="45.72592" lon="5.61381">
        <ele>334</ele>
        <time>2018-06-10T15:10:40Z</time>
      </trkpt>
      <trkpt lat="45.72598" lon="5.61385">
        <ele>334</ele>
        <time>2018-06-10T15:10:40Z</time>
      </trkpt>
      <trkpt lat="45.72602" lon="5.61386">
        <ele>334</ele>
        <time>2018-06-10T15:10:40Z</time>
      </trkpt>
      <trkpt lat="45.72605" lon="5.6139">
        <ele>334</ele>
        <time>2018-06-10T15:10:40Z</time>
      </trkpt>
      <trkpt lat="45.72608" lon="5.61392">
        <ele>334</ele>
        <time>2018-06-10T15:10:56Z</time>
      </trkpt>
      <trkpt lat="45.72612" lon="5.61396">
        <ele>334</ele>
        <time>2018-06-10T15:10:56Z</time>
      </trkpt>
      <trkpt lat="45.72616" lon="5.61399">
        <ele>334</ele>
        <time>2018-06-10T15:10:56Z</time>
      </trkpt>
      <trkpt lat="45.72619" lon="5.61402">
        <ele>334</ele>
        <time>2018-06-10T15:10:56Z</time>
      </trkpt>
      <trkpt lat="45.72624" lon="5.61405">
        <ele>334</ele>
        <time>2018-06-10T15:11:12Z</time>
      </trkpt>
      <trkpt lat="45.72628" lon="5.61408">
        <ele>331</ele>
        <time>2018-06-10T15:11:12Z</time>
      </trkpt>
      <trkpt lat="45.72638" lon="5.61414">
        <ele>331</ele>
        <time>2018-06-10T15:11:12Z</time>
      </trkpt>
      <trkpt lat="45.72654" lon="5.61427">
        <ele>331</ele>
        <time>2018-06-10T15:11:12Z</time>
      </trkpt>
      <trkpt lat="45.72671" lon="5.61442">
        <ele>331</ele>
        <time>2018-06-10T15:11:28Z</time>
      </trkpt>
      <trkpt lat="45.72685" lon="5.61456">
        <ele>331</ele>
        <time>2018-06-10T15:11:28Z</time>
      </trkpt>
      <trkpt lat="45.72694" lon="5.61465">
        <ele>335</ele>
        <time>2018-06-10T15:11:28Z</time>
      </trkpt>
      <trkpt lat="45.72699" lon="5.61471">
        <ele>335</ele>
        <time>2018-06-10T15:11:28Z</time>
      </trkpt>
      <trkpt lat="45.72704" lon="5.61477">
        <ele>335</ele>
        <time>2018-06-10T15:11:44Z</time>
      </trkpt>
      <trkpt lat="45.72708" lon="5.61481">
        <ele>335</ele>
        <time>2018-06-10T15:11:44Z</time>
      </trkpt>
      <trkpt lat="45.72712" lon="5.61487">
        <ele>333</ele>
        <time>2018-06-10T15:11:44Z</time>
      </trkpt>
      <trkpt lat="45.72714" lon="5.61492">
        <ele>333</ele>
        <time>2018-06-10T15:11:44Z</time>
      </trkpt>
      <trkpt lat="45.72717" lon="5.61497">
        <ele>333</ele>
        <time>2018-06-10T15:12:00Z</time>
      </trkpt>
      <trkpt lat="45.72721" lon="5.615">
        <ele>333</ele>
        <time>2018-06-10T15:12:00Z</time>
      </trkpt>
      <trkpt lat="45.72726" lon="5.61504">
        <ele>333</ele>
        <time>2018-06-10T15:12:00Z</time>
      </trkpt>
      <trkpt lat="45.72735" lon="5.6151">
        <ele>333</ele>
        <time>2018-06-10T15:12:00Z</time>
      </trkpt>
      <trkpt lat="45.72739" lon="5.61512">
        <ele>333</ele>
        <time>2018-06-10T15:12:20Z</time>
      </trkpt>
      <trkpt lat="45.72742" lon="5.61515">
        <ele>333</ele>
        <time>2018-06-10T15:12:20Z</time>
      </trkpt>
      <trkpt lat="45.72744" lon="5.61518">
        <ele>333</ele>
        <time>2018-06-10T15:12:20Z</time>
      </trkpt>
      <trkpt lat="45.72746" lon="5.6152">
        <ele>333</ele>
        <time>2018-06-10T15:12:20Z</time>
      </trkpt>
      <trkpt lat="45.7275" lon="5.61523">
        <ele>333</ele>
        <time>2018-06-10T15:12:20Z</time>
      </trkpt>
      <trkpt lat="45.72755" lon="5.61527">
        <ele>333</ele>
        <time>2018-06-10T15:12:36Z</time>
      </trkpt>
      <trkpt lat="45.7276" lon="5.61529">
        <ele>333</ele>
        <time>2018-06-10T15:12:36Z</time>
      </trkpt>
      <trkpt lat="45.72765" lon="5.61532">
        <ele>333</ele>
        <time>2018-06-10T15:12:36Z</time>
      </trkpt>
      <trkpt lat="45.72769" lon="5.61534">
        <ele>333</ele>
        <time>2018-06-10T15:12:36Z</time>
      </trkpt>
      <trkpt lat="45.72774" lon="5.6154">
        <ele>333</ele>
        <time>2018-06-10T15:12:52Z</time>
      </trkpt>
      <trkpt lat="45.72779" lon="5.61547">
        <ele>348</ele>
        <time>2018-06-10T15:12:52Z</time>
      </trkpt>
      <trkpt lat="45.72783" lon="5.61554">
        <ele>348</ele>
        <time>2018-06-10T15:12:52Z</time>
      </trkpt>
      <trkpt lat="45.72786" lon="5.61559">
        <ele>348</ele>
        <time>2018-06-10T15:12:52Z</time>
      </trkpt>
      <trkpt lat="45.72792" lon="5.61577">
        <ele>349</ele>
        <time>2018-06-10T15:14:08Z</time>
      </trkpt>
      <trkpt lat="45.72797" lon="5.61572">
        <ele>349</ele>
        <time>2018-06-10T15:14:08Z</time>
      </trkpt>
      <trkpt lat="45.72801" lon="5.61572">
        <ele>349</ele>
        <time>2018-06-10T15:14:08Z</time>
      </trkpt>
      <trkpt lat="45.72805" lon="5.61571">
        <ele>349</ele>
        <time>2018-06-10T15:14:08Z</time>
      </trkpt>
      <trkpt lat="45.72809" lon="5.61571">
        <ele>349</ele>
        <time>2018-06-10T15:14:08Z</time>
      </trkpt>
      <trkpt lat="45.72815" lon="5.6157">
        <ele>349</ele>
        <time>2018-06-10T15:14:24Z</time>
      </trkpt>
      <trkpt lat="45.72819" lon="5.61569">
        <ele>349</ele>
        <time>2018-06-10T15:14:24Z</time>
      </trkpt>
      <trkpt lat="45.72825" lon="5.61569">
        <ele>349</ele>
        <time>2018-06-10T15:14:24Z</time>
      </trkpt>
      <trkpt lat="45.72831" lon="5.61567">
        <ele>349</ele>
        <time>2018-06-10T15:14:24Z</time>
      </trkpt>
      <trkpt lat="45.72838" lon="5.61568">
        <ele>349</ele>
        <time>2018-06-10T15:14:40Z</time>
      </trkpt>
      <trkpt lat="45.72842" lon="5.61565">
        <ele>349</ele>
        <time>2018-06-10T15:14:40Z</time>
      </trkpt>
      <trkpt lat="45.72845" lon="5.61563">
        <ele>349</ele>
        <time>2018-06-10T15:14:40Z</time>
      </trkpt>
      <trkpt lat="45.7285" lon="5.61563">
        <ele>349</ele>
        <time>2018-06-10T15:14:40Z</time>
      </trkpt>
      <trkpt lat="45.72855" lon="5.61562">
        <ele>349</ele>
        <time>2018-06-10T15:14:56Z</time>
      </trkpt>
      <trkpt lat="45.72859" lon="5.6156">
        <ele>349</ele>
        <time>2018-06-10T15:14:56Z</time>
      </trkpt>
      <trkpt lat="45.7286" lon="5.6156">
        <ele>349</ele>
        <time>2018-06-10T15:14:56Z</time>
      </trkpt>
      <trkpt lat="45.72865" lon="5.6156">
        <ele>349</ele>
        <time>2018-06-10T15:14:56Z</time>
      </trkpt>
      <trkpt lat="45.7287" lon="5.61559">
        <ele>349</ele>
        <time>2018-06-10T15:15:12Z</time>
      </trkpt>
      <trkpt lat="45.72875" lon="5.61557">
        <ele>355</ele>
        <time>2018-06-10T15:15:12Z</time>
      </trkpt>
      <trkpt lat="45.72881" lon="5.61555">
        <ele>355</ele>
        <time>2018-06-10T15:15:12Z</time>
      </trkpt>
      <trkpt lat="45.72886" lon="5.61552">
        <ele>355</ele>
        <time>2018-06-10T15:15:12Z</time>
      </trkpt>
      <trkpt lat="45.7289" lon="5.61548">
        <ele>355</ele>
        <time>2018-06-10T15:15:28Z</time>
      </trkpt>
      <trkpt lat="45.72896" lon="5.61546">
        <ele>355</ele>
        <time>2018-06-10T15:15:28Z</time>
      </trkpt>
      <trkpt lat="45.72902" lon="5.61544">
        <ele>355</ele>
        <time>2018-06-10T15:15:28Z</time>
      </trkpt>
      <trkpt lat="45.72907" lon="5.61542">
        <ele>355</ele>
        <time>2018-06-10T15:15:28Z</time>
      </trkpt>
      <trkpt lat="45.72914" lon="5.61541">
        <ele>335</ele>
        <time>2018-06-10T15:15:44Z</time>
      </trkpt>
      <trkpt lat="45.7292" lon="5.61538">
        <ele>335</ele>
        <time>2018-06-10T15:15:44Z</time>
      </trkpt>
      <trkpt lat="45.72924" lon="5.61534">
        <ele>335</ele>
        <time>2018-06-10T15:15:44Z</time>
      </trkpt>
      <trkpt lat="45.7293" lon="5.61531">
        <ele>335</ele>
        <time>2018-06-10T15:15:44Z</time>
      </trkpt>
      <trkpt lat="45.72936" lon="5.61531">
        <ele>335</ele>
        <time>2018-06-10T15:16:00Z</time>
      </trkpt>
      <trkpt lat="45.7294" lon="5.6153">
        <ele>335</ele>
        <time>2018-06-10T15:16:00Z</time>
      </trkpt>
      <trkpt lat="45.72947" lon="5.61528">
        <ele>335</ele>
        <time>2018-06-10T15:16:00Z</time>
      </trkpt>
      <trkpt lat="45.72951" lon="5.61529">
        <ele>335</ele>
        <time>2018-06-10T15:16:00Z</time>
      </trkpt>
      <trkpt lat="45.72953" lon="5.61529">
        <ele>335</ele>
        <time>2018-06-10T15:16:16Z</time>
      </trkpt>
      <trkpt lat="45.72958" lon="5.61527">
        <ele>335</ele>
        <time>2018-06-10T15:16:16Z</time>
      </trkpt>
      <trkpt lat="45.7296" lon="5.61526">
        <ele>339</ele>
        <time>2018-06-10T15:16:16Z</time>
      </trkpt>
      <trkpt lat="45.72963" lon="5.61526">
        <ele>339</ele>
        <time>2018-06-10T15:16:16Z</time>
      </trkpt>
      <trkpt lat="45.72968" lon="5.61523">
        <ele>339</ele>
        <time>2018-06-10T15:16:32Z</time>
      </trkpt>
      <trkpt lat="45.72973" lon="5.61522">
        <ele>339</ele>
        <time>2018-06-10T15:16:32Z</time>
      </trkpt>
      <trkpt lat="45.72978" lon="5.6152">
        <ele>339</ele>
        <time>2018-06-10T15:16:32Z</time>
      </trkpt>
      <trkpt lat="45.72984" lon="5.61517">
        <ele>339</ele>
        <time>2018-06-10T15:16:32Z</time>
      </trkpt>
      <trkpt lat="45.72991" lon="5.61516">
        <ele>339</ele>
        <time>2018-06-10T15:16:48Z</time>
      </trkpt>
      <trkpt lat="45.72997" lon="5.61516">
        <ele>339</ele>
        <time>2018-06-10T15:16:48Z</time>
      </trkpt>
      <trkpt lat="45.73001" lon="5.61514">
        <ele>339</ele>
        <time>2018-06-10T15:16:48Z</time>
      </trkpt>
      <trkpt lat="45.73006" lon="5.61511">
        <ele>339</ele>
        <time>2018-06-10T15:16:48Z</time>
      </trkpt>
      <trkpt lat="45.73012" lon="5.6151">
        <ele>339</ele>
        <time>2018-06-10T15:17:04Z</time>
      </trkpt>
      <trkpt lat="45.73017" lon="5.61507">
        <ele>339</ele>
        <time>2018-06-10T15:17:04Z</time>
      </trkpt>
      <trkpt lat="45.73023" lon="5.61502">
        <ele>339</ele>
        <time>2018-06-10T15:17:04Z</time>
      </trkpt>
      <trkpt lat="45.73029" lon="5.61502">
        <ele>339</ele>
        <time>2018-06-10T15:17:04Z</time>
      </trkpt>
      <trkpt lat="45.73034" lon="5.61497">
        <ele>339</ele>
        <time>2018-06-10T15:17:20Z</time>
      </trkpt>
      <trkpt lat="45.73041" lon="5.61494">
        <ele>339</ele>
        <time>2018-06-10T15:17:20Z</time>
      </trkpt>
      <trkpt lat="45.73045" lon="5.61489">
        <ele>355</ele>
        <time>2018-06-10T15:17:20Z</time>
      </trkpt>
      <trkpt lat="45.73052" lon="5.61484">
        <ele>355</ele>
        <time>2018-06-10T15:17:20Z</time>
      </trkpt>
      <trkpt lat="45.73058" lon="5.6148">
        <ele>355</ele>
        <time>2018-06-10T15:17:36Z</time>
      </trkpt>
      <trkpt lat="45.73064" lon="5.61477">
        <ele>355</ele>
        <time>2018-06-10T15:17:36Z</time>
      </trkpt>
      <trkpt lat="45.7307" lon="5.61475">
        <ele>355</ele>
        <time>2018-06-10T15:17:36Z</time>
      </trkpt>
      <trkpt lat="45.73076" lon="5.61473">
        <ele>355</ele>
        <time>2018-06-10T15:17:36Z</time>
      </trkpt>
      <trkpt lat="45.73082" lon="5.6147">
        <ele>355</ele>
        <time>2018-06-10T15:17:52Z</time>
      </trkpt>
      <trkpt lat="45.73088" lon="5.61465">
        <ele>355</ele>
        <time>2018-06-10T15:17:52Z</time>
      </trkpt>
      <trkpt lat="45.73093" lon="5.61461">
        <ele>355</ele>
        <time>2018-06-10T15:17:52Z</time>
      </trkpt>
      <trkpt lat="45.73097" lon="5.61454">
        <ele>335</ele>
        <time>2018-06-10T15:17:52Z</time>
      </trkpt>
      <trkpt lat="45.73101" lon="5.61449">
        <ele>335</ele>
        <time>2018-06-10T15:18:08Z</time>
      </trkpt>
      <trkpt lat="45.73106" lon="5.61444">
        <ele>335</ele>
        <time>2018-06-10T15:18:08Z</time>
      </trkpt>
      <trkpt lat="45.7311" lon="5.6144">
        <ele>335</ele>
        <time>2018-06-10T15:18:08Z</time>
      </trkpt>
      <trkpt lat="45.73114" lon="5.61437">
        <ele>335</ele>
        <time>2018-06-10T15:18:08Z</time>
      </trkpt>
      <trkpt lat="45.7312" lon="5.61434">
        <ele>335</ele>
        <time>2018-06-10T15:18:24Z</time>
      </trkpt>
      <trkpt lat="45.73125" lon="5.61431">
        <ele>342</ele>
        <time>2018-06-10T15:18:24Z</time>
      </trkpt>
      <trkpt lat="45.73133" lon="5.61427">
        <ele>342</ele>
        <time>2018-06-10T15:18:24Z</time>
      </trkpt>
      <trkpt lat="45.7314" lon="5.61423">
        <ele>342</ele>
        <time>2018-06-10T15:18:24Z</time>
      </trkpt>
      <trkpt lat="45.73145" lon="5.61419">
        <ele>342</ele>
        <time>2018-06-10T15:18:40Z</time>
      </trkpt>
      <trkpt lat="45.7315" lon="5.61418">
        <ele>342</ele>
        <time>2018-06-10T15:18:40Z</time>
      </trkpt>
      <trkpt lat="45.73156" lon="5.61416">
        <ele>342</ele>
        <time>2018-06-10T15:18:40Z</time>
      </trkpt>
      <trkpt lat="45.7316" lon="5.61414">
        <ele>342</ele>
        <time>2018-06-10T15:18:40Z</time>
      </trkpt>
      <trkpt lat="45.73165" lon="5.61409">
        <ele>342</ele>
        <time>2018-06-10T15:18:56Z</time>
      </trkpt>
      <trkpt lat="45.73169" lon="5.61407">
        <ele>342</ele>
        <time>2018-06-10T15:18:56Z</time>
      </trkpt>
      <trkpt lat="45.73173" lon="5.61404">
        <ele>342</ele>
        <time>2018-06-10T15:18:56Z</time>
      </trkpt>
      <trkpt lat="45.73176" lon="5.61401">
        <ele>342</ele>
        <time>2018-06-10T15:18:56Z</time>
      </trkpt>
      <trkpt lat="45.7318" lon="5.61397">
        <ele>342</ele>
        <time>2018-06-10T15:19:12Z</time>
      </trkpt>
      <trkpt lat="45.73184" lon="5.61395">
        <ele>342</ele>
        <time>2018-06-10T15:19:12Z</time>
      </trkpt>
      <trkpt lat="45.73189" lon="5.61392">
        <ele>342</ele>
        <time>2018-06-10T15:19:12Z</time>
      </trkpt>
      <trkpt lat="45.73192" lon="5.6139">
        <ele>342</ele>
        <time>2018-06-10T15:19:12Z</time>
      </trkpt>
      <trkpt lat="45.73195" lon="5.61387">
        <ele>342</ele>
        <time>2018-06-10T15:19:28Z</time>
      </trkpt>
      <trkpt lat="45.732" lon="5.61382">
        <ele>342</ele>
        <time>2018-06-10T15:19:28Z</time>
      </trkpt>
      <trkpt lat="45.73205" lon="5.61375">
        <ele>331</ele>
        <time>2018-06-10T15:19:28Z</time>
      </trkpt>
      <trkpt lat="45.73211" lon="5.6137">
        <ele>337</ele>
        <time>2018-06-10T15:19:28Z</time>
      </trkpt>
      <trkpt lat="45.73216" lon="5.61365">
        <ele>337</ele>
        <time>2018-06-10T15:19:44Z</time>
      </trkpt>
      <trkpt lat="45.7322" lon="5.61364">
        <ele>337</ele>
        <time>2018-06-10T15:19:44Z</time>
      </trkpt>
      <trkpt lat="45.73223" lon="5.61359">
        <ele>337</ele>
        <time>2018-06-10T15:19:44Z</time>
      </trkpt>
      <trkpt lat="45.73228" lon="5.61356">
        <ele>337</ele>
        <time>2018-06-10T15:19:44Z</time>
      </trkpt>
      <trkpt lat="45.73233" lon="5.61352">
        <ele>337</ele>
        <time>2018-06-10T15:20:00Z</time>
      </trkpt>
      <trkpt lat="45.73237" lon="5.6135">
        <ele>337</ele>
        <time>2018-06-10T15:20:00Z</time>
      </trkpt>
      <trkpt lat="45.73242" lon="5.61349">
        <ele>337</ele>
        <time>2018-06-10T15:20:00Z</time>
      </trkpt>
      <trkpt lat="45.73247" lon="5.61348">
        <ele>337</ele>
        <time>2018-06-10T15:20:00Z</time>
      </trkpt>
      <trkpt lat="45.73252" lon="5.61344">
        <ele>337</ele>
        <time>2018-06-10T15:20:16Z</time>
      </trkpt>
      <trkpt lat="45.73256" lon="5.61346">
        <ele>337</ele>
        <time>2018-06-10T15:20:16Z</time>
      </trkpt>
      <trkpt lat="45.7326" lon="5.61346">
        <ele>337</ele>
        <time>2018-06-10T15:20:16Z</time>
      </trkpt>
      <trkpt lat="45.73262" lon="5.61345">
        <ele>337</ele>
        <time>2018-06-10T15:20:16Z</time>
      </trkpt>
      <trkpt lat="45.73269" lon="5.61343">
        <ele>337</ele>
        <time>2018-06-10T15:20:32Z</time>
      </trkpt>
      <trkpt lat="45.73273" lon="5.61342">
        <ele>337</ele>
        <time>2018-06-10T15:20:32Z</time>
      </trkpt>
      <trkpt lat="45.73278" lon="5.61338">
        <ele>337</ele>
        <time>2018-06-10T15:20:32Z</time>
      </trkpt>
      <trkpt lat="45.73283" lon="5.61335">
        <ele>337</ele>
        <time>2018-06-10T15:20:32Z</time>
      </trkpt>
      <trkpt lat="45.73288" lon="5.6133">
        <ele>337</ele>
        <time>2018-06-10T15:20:48Z</time>
      </trkpt>
      <trkpt lat="45.73293" lon="5.61328">
        <ele>352</ele>
        <time>2018-06-10T15:20:48Z</time>
      </trkpt>
      <trkpt lat="45.73297" lon="5.61327">
        <ele>352</ele>
        <time>2018-06-10T15:20:48Z</time>
      </trkpt>
      <trkpt lat="45.73303" lon="5.61326">
        <ele>352</ele>
        <time>2018-06-10T15:20:48Z</time>
      </trkpt>
      <trkpt lat="45.73308" lon="5.61326">
        <ele>352</ele>
        <time>2018-06-10T15:21:04Z</time>
      </trkpt>
      <trkpt lat="45.73317" lon="5.61319">
        <ele>352</ele>
        <time>2018-06-10T15:21:04Z</time>
      </trkpt>
      <trkpt lat="45.73321" lon="5.61314">
        <ele>352</ele>
        <time>2018-06-10T15:21:04Z</time>
      </trkpt>
      <trkpt lat="45.73325" lon="5.61313">
        <ele>352</ele>
        <time>2018-06-10T15:21:04Z</time>
      </trkpt>
      <trkpt lat="45.73333" lon="5.61316">
        <ele>352</ele>
        <time>2018-06-10T15:21:20Z</time>
      </trkpt>
      <trkpt lat="45.7334" lon="5.61311">
        <ele>352</ele>
        <time>2018-06-10T15:21:20Z</time>
      </trkpt>
      <trkpt lat="45.73346" lon="5.61306">
        <ele>352</ele>
        <time>2018-06-10T15:21:20Z</time>
      </trkpt>
      <trkpt lat="45.73353" lon="5.61304">
        <ele>352</ele>
        <time>2018-06-10T15:21:20Z</time>
      </trkpt>
      <trkpt lat="45.73357" lon="5.61303">
        <ele>352</ele>
        <time>2018-06-10T15:21:36Z</time>
      </trkpt>
      <trkpt lat="45.73362" lon="5.61299">
        <ele>352</ele>
        <time>2018-06-10T15:21:36Z</time>
      </trkpt>
      <trkpt lat="45.73367" lon="5.61296">
        <ele>352</ele>
        <time>2018-06-10T15:21:36Z</time>
      </trkpt>
      <trkpt lat="45.73372" lon="5.61292">
        <ele>352</ele>
        <time>2018-06-10T15:21:36Z</time>
      </trkpt>
      <trkpt lat="45.73377" lon="5.61289">
        <ele>348</ele>
        <time>2018-06-10T15:21:52Z</time>
      </trkpt>
      <trkpt lat="45.73383" lon="5.61284">
        <ele>348</ele>
        <time>2018-06-10T15:21:52Z</time>
      </trkpt>
      <trkpt lat="45.73389" lon="5.61281">
        <ele>348</ele>
        <time>2018-06-10T15:21:52Z</time>
      </trkpt>
      <trkpt lat="45.73396" lon="5.61275">
        <ele>348</ele>
        <time>2018-06-10T15:21:52Z</time>
      </trkpt>
      <trkpt lat="45.73401" lon="5.6127">
        <ele>348</ele>
        <time>2018-06-10T15:22:08Z</time>
      </trkpt>
      <trkpt lat="45.73405" lon="5.61266">
        <ele>348</ele>
        <time>2018-06-10T15:22:08Z</time>
      </trkpt>
      <trkpt lat="45.73411" lon="5.61261">
        <ele>348</ele>
        <time>2018-06-10T15:22:08Z</time>
      </trkpt>
      <trkpt lat="45.73417" lon="5.61258">
        <ele>348</ele>
        <time>2018-06-10T15:22:08Z</time>
      </trkpt>
      <trkpt lat="45.73424" lon="5.61254">
        <ele>348</ele>
        <time>2018-06-10T15:22:24Z</time>
      </trkpt>
      <trkpt lat="45.7343" lon="5.61249">
        <ele>348</ele>
        <time>2018-06-10T15:22:24Z</time>
      </trkpt>
      <trkpt lat="45.73436" lon="5.61247">
        <ele>348</ele>
        <time>2018-06-10T15:22:24Z</time>
      </trkpt>
      <trkpt lat="45.73441" lon="5.61243">
        <ele>348</ele>
        <time>2018-06-10T15:22:24Z</time>
      </trkpt>
      <trkpt lat="45.73445" lon="5.61242">
        <ele>348</ele>
        <time>2018-06-10T15:22:40Z</time>
      </trkpt>
      <trkpt lat="45.73453" lon="5.6124">
        <ele>348</ele>
        <time>2018-06-10T15:22:40Z</time>
      </trkpt>
      <trkpt lat="45.73464" lon="5.61238">
        <ele>357</ele>
        <time>2018-06-10T15:22:40Z</time>
      </trkpt>
      <trkpt lat="45.73477" lon="5.61234">
        <ele>357</ele>
        <time>2018-06-10T15:22:40Z</time>
      </trkpt>
      <trkpt lat="45.73485" lon="5.6123">
        <ele>357</ele>
        <time>2018-06-10T15:22:56Z</time>
      </trkpt>
      <trkpt lat="45.73491" lon="5.61226">
        <ele>357</ele>
        <time>2018-06-10T15:22:56Z</time>
      </trkpt>
      <trkpt lat="45.73496" lon="5.61222">
        <ele>357</ele>
        <time>2018-06-10T15:22:56Z</time>
      </trkpt>
      <trkpt lat="45.735" lon="5.61218">
        <ele>357</ele>
        <time>2018-06-10T15:22:56Z</time>
      </trkpt>
      <trkpt lat="45.73505" lon="5.61212">
        <ele>357</ele>
        <time>2018-06-10T15:23:12Z</time>
      </trkpt>
      <trkpt lat="45.73509" lon="5.61209">
        <ele>357</ele>
        <time>2018-06-10T15:23:12Z</time>
      </trkpt>
      <trkpt lat="45.73513" lon="5.61208">
        <ele>337</ele>
        <time>2018-06-10T15:23:12Z</time>
      </trkpt>
      <trkpt lat="45.73518" lon="5.61205">
        <ele>337</ele>
        <time>2018-06-10T15:23:12Z</time>
      </trkpt>
      <trkpt lat="45.73524" lon="5.61201">
        <ele>337</ele>
        <time>2018-06-10T15:23:28Z</time>
      </trkpt>
      <trkpt lat="45.73529" lon="5.61197">
        <ele>337</ele>
        <time>2018-06-10T15:23:28Z</time>
      </trkpt>
      <trkpt lat="45.73534" lon="5.61194">
        <ele>337</ele>
        <time>2018-06-10T15:23:28Z</time>
      </trkpt>
      <trkpt lat="45.7354" lon="5.61192">
        <ele>337</ele>
        <time>2018-06-10T15:23:28Z</time>
      </trkpt>
      <trkpt lat="45.73545" lon="5.61189">
        <ele>346</ele>
        <time>2018-06-10T15:23:44Z</time>
      </trkpt>
      <trkpt lat="45.73551" lon="5.61183">
        <ele>346</ele>
        <time>2018-06-10T15:23:44Z</time>
      </trkpt>
      <trkpt lat="45.73556" lon="5.61179">
        <ele>346</ele>
        <time>2018-06-10T15:23:44Z</time>
      </trkpt>
      <trkpt lat="45.73561" lon="5.61177">
        <ele>346</ele>
        <time>2018-06-10T15:23:44Z</time>
      </trkpt>
      <trkpt lat="45.73565" lon="5.61178">
        <ele>346</ele>
        <time>2018-06-10T15:24:00Z</time>
      </trkpt>
      <trkpt lat="45.73568" lon="5.61174">
        <ele>346</ele>
        <time>2018-06-10T15:24:00Z</time>
      </trkpt>
      <trkpt lat="45.73573" lon="5.61172">
        <ele>346</ele>
        <time>2018-06-10T15:24:00Z</time>
      </trkpt>
      <trkpt lat="45.73576" lon="5.6117">
        <ele>346</ele>
        <time>2018-06-10T15:24:00Z</time>
      </trkpt>
      <trkpt lat="45.73582" lon="5.61168">
        <ele>346</ele>
        <time>2018-06-10T15:24:16Z</time>
      </trkpt>
      <trkpt lat="45.73588" lon="5.61167">
        <ele>346</ele>
        <time>2018-06-10T15:24:16Z</time>
      </trkpt>
      <trkpt lat="45.73591" lon="5.61163">
        <ele>346</ele>
        <time>2018-06-10T15:24:16Z</time>
      </trkpt>
      <trkpt lat="45.73596" lon="5.61159">
        <ele>346</ele>
        <time>2018-06-10T15:24:16Z</time>
      </trkpt>
      <trkpt lat="45.73601" lon="5.61155">
        <ele>346</ele>
        <time>2018-06-10T15:24:32Z</time>
      </trkpt>
      <trkpt lat="45.73605" lon="5.6115">
        <ele>346</ele>
        <time>2018-06-10T15:24:32Z</time>
      </trkpt>
      <trkpt lat="45.73611" lon="5.61146">
        <ele>346</ele>
        <time>2018-06-10T15:24:32Z</time>
      </trkpt>
      <trkpt lat="45.73618" lon="5.6114">
        <ele>346</ele>
        <time>2018-06-10T15:24:32Z</time>
      </trkpt>
      <trkpt lat="45.73622" lon="5.61137">
        <ele>346</ele>
        <time>2018-06-10T15:24:48Z</time>
      </trkpt>
      <trkpt lat="45.73627" lon="5.61137">
        <ele>363</ele>
        <time>2018-06-10T15:24:48Z</time>
      </trkpt>
      <trkpt lat="45.73631" lon="5.61136">
        <ele>363</ele>
        <time>2018-06-10T15:24:48Z</time>
      </trkpt>
      <trkpt lat="45.73635" lon="5.61131">
        <ele>363</ele>
        <time>2018-06-10T15:24:48Z</time>
      </trkpt>
      <trkpt lat="45.7364" lon="5.61128">
        <ele>363</ele>
        <time>2018-06-10T15:25:04Z</time>
      </trkpt>
      <trkpt lat="45.73645" lon="5.61129">
        <ele>363</ele>
        <time>2018-06-10T15:25:04Z</time>
      </trkpt>
      <trkpt lat="45.7365" lon="5.61126">
        <ele>363</ele>
        <time>2018-06-10T15:25:04Z</time>
      </trkpt>
      <trkpt lat="45.73656" lon="5.61122">
        <ele>339</ele>
        <time>2018-06-10T15:25:04Z</time>
      </trkpt>
      <trkpt lat="45.73661" lon="5.6112">
        <ele>339</ele>
        <time>2018-06-10T15:25:20Z</time>
      </trkpt>
      <trkpt lat="45.73668" lon="5.61116">
        <ele>339</ele>
        <time>2018-06-10T15:25:20Z</time>
      </trkpt>
      <trkpt lat="45.73674" lon="5.61116">
        <ele>339</ele>
        <time>2018-06-10T15:25:20Z</time>
      </trkpt>
      <trkpt lat="45.73679" lon="5.61117">
        <ele>339</ele>
        <time>2018-06-10T15:25:20Z</time>
      </trkpt>
      <trkpt lat="45.73686" lon="5.61115">
        <ele>339</ele>
        <time>2018-06-10T15:25:36Z</time>
      </trkpt>
      <trkpt lat="45.73697" lon="5.61113">
        <ele>339</ele>
        <time>2018-06-10T15:25:36Z</time>
      </trkpt>
      <trkpt lat="45.73702" lon="5.61111">
        <ele>339</ele>
        <time>2018-06-10T15:25:36Z</time>
      </trkpt>
      <trkpt lat="45.73705" lon="5.6111">
        <ele>339</ele>
        <time>2018-06-10T15:25:36Z</time>
      </trkpt>
      <trkpt lat="45.73709" lon="5.61107">
        <ele>341</ele>
        <time>2018-06-10T15:25:52Z</time>
      </trkpt>
      <trkpt lat="45.73713" lon="5.61106">
        <ele>341</ele>
        <time>2018-06-10T15:25:52Z</time>
      </trkpt>
      <trkpt lat="45.73716" lon="5.61106">
        <ele>341</ele>
        <time>2018-06-10T15:25:52Z</time>
      </trkpt>
      <trkpt lat="45.73721" lon="5.61104">
        <ele>341</ele>
        <time>2018-06-10T15:25:52Z</time>
      </trkpt>
      <trkpt lat="45.73727" lon="5.61106">
        <ele>341</ele>
        <time>2018-06-10T15:26:08Z</time>
      </trkpt>
      <trkpt lat="45.73735" lon="5.61109">
        <ele>341</ele>
        <time>2018-06-10T15:26:08Z</time>
      </trkpt>
      <trkpt lat="45.73743" lon="5.61108">
        <ele>341</ele>
        <time>2018-06-10T15:26:08Z</time>
      </trkpt>
      <trkpt lat="45.73748" lon="5.61107">
        <ele>341</ele>
        <time>2018-06-10T15:26:08Z</time>
      </trkpt>
      <trkpt lat="45.73755" lon="5.61107">
        <ele>341</ele>
        <time>2018-06-10T15:26:24Z</time>
      </trkpt>
      <trkpt lat="45.73761" lon="5.61105">
        <ele>341</ele>
        <time>2018-06-10T15:26:24Z</time>
      </trkpt>
      <trkpt lat="45.73767" lon="5.61106">
        <ele>341</ele>
        <time>2018-06-10T15:26:24Z</time>
      </trkpt>
      <trkpt lat="45.73768" lon="5.61105">
        <ele>341</ele>
        <time>2018-06-10T15:26:24Z</time>
      </trkpt>
      <trkpt lat="45.73769" lon="5.61104">
        <ele>341</ele>
        <time>2018-06-10T15:26:40Z</time>
      </trkpt>
      <trkpt lat="45.73772" lon="5.61104">
        <ele>341</ele>
        <time>2018-06-10T15:26:40Z</time>
      </trkpt>
      <trkpt lat="45.73779" lon="5.61103">
        <ele>341</ele>
        <time>2018-06-10T15:26:40Z</time>
      </trkpt>
      <trkpt lat="45.73786" lon="5.61103">
        <ele>341</ele>
        <time>2018-06-10T15:26:40Z</time>
      </trkpt>
      <trkpt lat="45.73792" lon="5.61104">
        <ele>341</ele>
        <time>2018-06-10T15:26:56Z</time>
      </trkpt>
      <trkpt lat="45.73799" lon="5.61102">
        <ele>346</ele>
        <time>2018-06-10T15:26:56Z</time>
      </trkpt>
      <trkpt lat="45.73804" lon="5.611">
        <ele>346</ele>
        <time>2018-06-10T15:26:56Z</time>
      </trkpt>
      <trkpt lat="45.73809" lon="5.61097">
        <ele>346</ele>
        <time>2018-06-10T15:26:56Z</time>
      </trkpt>
      <trkpt lat="45.73814" lon="5.61094">
        <ele>346</ele>
        <time>2018-06-10T15:27:12Z</time>
      </trkpt>
      <trkpt lat="45.73819" lon="5.61092">
        <ele>346</ele>
        <time>2018-06-10T15:27:12Z</time>
      </trkpt>
      <trkpt lat="45.73827" lon="5.61091">
        <ele>346</ele>
        <time>2018-06-10T15:27:12Z</time>
      </trkpt>
      <trkpt lat="45.73832" lon="5.61087">
        <ele>346</ele>
        <time>2018-06-10T15:27:12Z</time>
      </trkpt>
      <trkpt lat="45.73837" lon="5.61085">
        <ele>346</ele>
        <time>2018-06-10T15:27:28Z</time>
      </trkpt>
      <trkpt lat="45.7384" lon="5.61084">
        <ele>346</ele>
        <time>2018-06-10T15:27:28Z</time>
      </trkpt>
      <trkpt lat="45.73845" lon="5.61083">
        <ele>346</ele>
        <time>2018-06-10T15:27:28Z</time>
      </trkpt>
      <trkpt lat="45.73851" lon="5.61083">
        <ele>346</ele>
        <time>2018-06-10T15:27:28Z</time>
      </trkpt>
      <trkpt lat="45.73855" lon="5.61084">
        <ele>346</ele>
        <time>2018-06-10T15:27:44Z</time>
      </trkpt>
      <trkpt lat="45.7386" lon="5.61083">
        <ele>346</ele>
        <time>2018-06-10T15:27:44Z</time>
      </trkpt>
      <trkpt lat="45.73865" lon="5.61081">
        <ele>346</ele>
        <time>2018-06-10T15:27:44Z</time>
      </trkpt>
      <trkpt lat="45.7387" lon="5.61077">
        <ele>346</ele>
        <time>2018-06-10T15:27:44Z</time>
      </trkpt>
      <trkpt lat="45.73875" lon="5.61076">
        <ele>352</ele>
        <time>2018-06-10T15:28:00Z</time>
      </trkpt>
      <trkpt lat="45.73881" lon="5.61074">
        <ele>352</ele>
        <time>2018-06-10T15:28:00Z</time>
      </trkpt>
      <trkpt lat="45.73887" lon="5.61073">
        <ele>352</ele>
        <time>2018-06-10T15:28:00Z</time>
      </trkpt>
      <trkpt lat="45.73893" lon="5.61073">
        <ele>352</ele>
        <time>2018-06-10T15:28:00Z</time>
      </trkpt>
      <trkpt lat="45.739" lon="5.61076">
        <ele>352</ele>
        <time>2018-06-10T15:28:40Z</time>
      </trkpt>
      <trkpt lat="45.73899" lon="5.61076">
        <ele>352</ele>
        <time>2018-06-10T15:28:40Z</time>
      </trkpt>
      <trkpt lat="45.73897" lon="5.61077">
        <ele>352</ele>
        <time>2018-06-10T15:28:40Z</time>
      </trkpt>
      <trkpt lat="45.73895" lon="5.61081">
        <ele>352</ele>
        <time>2018-06-10T15:28:40Z</time>
      </trkpt>
      <trkpt lat="45.73892" lon="5.61087">
        <ele>352</ele>
        <time>2018-06-10T15:28:40Z</time>
      </trkpt>
      <trkpt lat="45.7389" lon="5.61091">
        <ele>352</ele>
        <time>2018-06-10T15:28:56Z</time>
      </trkpt>
      <trkpt lat="45.73884" lon="5.61098">
        <ele>352</ele>
        <time>2018-06-10T15:28:56Z</time>
      </trkpt>
      <trkpt lat="45.7388" lon="5.61105">
        <ele>352</ele>
        <time>2018-06-10T15:28:56Z</time>
      </trkpt>
      <trkpt lat="45.73876" lon="5.61109">
        <ele>352</ele>
        <time>2018-06-10T15:28:56Z</time>
      </trkpt>
      <trkpt lat="45.73875" lon="5.6111">
        <ele>352</ele>
        <time>2018-06-10T15:29:16Z</time>
      </trkpt>
      <trkpt lat="45.73874" lon="5.61113">
        <ele>346</ele>
        <time>2018-06-10T15:29:16Z</time>
      </trkpt>
      <trkpt lat="45.7387" lon="5.61116">
        <ele>346</ele>
        <time>2018-06-10T15:29:16Z</time>
      </trkpt>
      <trkpt lat="45.73869" lon="5.61118">
        <ele>346</ele>
        <time>2018-06-10T15:29:16Z</time>
      </trkpt>
      <trkpt lat="45.73865" lon="5.61124">
        <ele>346</ele>
        <time>2018-06-10T15:29:16Z</time>
      </trkpt>
      <trkpt lat="45.73859" lon="5.61132">
        <ele>377</ele>
        <time>2018-06-10T15:29:44Z</time>
      </trkpt>
      <trkpt lat="45.73858" lon="5.61133">
        <ele>377</ele>
        <time>2018-06-10T15:29:44Z</time>
      </trkpt>
      <trkpt lat="45.73858" lon="5.61134">
        <ele>377</ele>
        <time>2018-06-10T15:29:44Z</time>
      </trkpt>
      <trkpt lat="45.73857" lon="5.61137">
        <ele>377</ele>
        <time>2018-06-10T15:29:44Z</time>
      </trkpt>
      <trkpt lat="45.73855" lon="5.6114">
        <ele>377</ele>
        <time>2018-06-10T15:29:44Z</time>
      </trkpt>
      <trkpt lat="45.73851" lon="5.61143">
        <ele>377</ele>
        <time>2018-06-10T15:30:00Z</time>
      </trkpt>
      <trkpt lat="45.73846" lon="5.61147">
        <ele>377</ele>
        <time>2018-06-10T15:30:00Z</time>
      </trkpt>
      <trkpt lat="45.73844" lon="5.61148">
        <ele>377</ele>
        <time>2018-06-10T15:30:00Z</time>
      </trkpt>
      <trkpt lat="45.73841" lon="5.6115">
        <ele>377</ele>
        <time>2018-06-10T15:30:00Z</time>
      </trkpt>
      <trkpt lat="45.73832" lon="5.61161">
        <ele>377</ele>
        <time>2018-06-10T15:30:36Z</time>
      </trkpt>
      <trkpt lat="45.73832" lon="5.61161">
        <ele>377</ele>
        <time>2018-06-10T15:30:36Z</time>
      </trkpt>
      <trkpt lat="45.73832" lon="5.61161">
        <ele>377</ele>
        <time>2018-06-10T15:30:36Z</time>
      </trkpt>
      <trkpt lat="45.73833" lon="5.61162">
        <ele>377</ele>
        <time>2018-06-10T15:30:36Z</time>
      </trkpt>
      <trkpt lat="45.73832" lon="5.61167">
        <ele>377</ele>
        <time>2018-06-10T15:30:36Z</time>
      </trkpt>
      <trkpt lat="45.73834" lon="5.61169">
        <ele>377</ele>
        <time>2018-06-10T15:31:04Z</time>
      </trkpt>
      <trkpt lat="45.73836" lon="5.61174">
        <ele>377</ele>
        <time>2018-06-10T15:31:04Z</time>
      </trkpt>
      <trkpt lat="45.73836" lon="5.61174">
        <ele>377</ele>
        <time>2018-06-10T15:31:04Z</time>
      </trkpt>
      <trkpt lat="45.73837" lon="5.61174">
        <ele>377</ele>
        <time>2018-06-10T15:31:04Z</time>
      </trkpt>
      <trkpt lat="45.7384" lon="5.61178">
        <ele>377</ele>
        <time>2018-06-10T15:31:04Z</time>
      </trkpt>
      <trkpt lat="45.73844" lon="5.61181">
        <ele>377</ele>
        <time>2018-06-10T15:31:20Z</time>
      </trkpt>
      <trkpt lat="45.73848" lon="5.61187">
        <ele>377</ele>
        <time>2018-06-10T15:31:20Z</time>
      </trkpt>
      <trkpt lat="45.73851" lon="5.61192">
        <ele>377</ele>
        <time>2018-06-10T15:31:20Z</time>
      </trkpt>
      <trkpt lat="45.73854" lon="5.61193">
        <ele>377</ele>
        <time>2018-06-10T15:31:20Z</time>
      </trkpt>
      <trkpt lat="45.73857" lon="5.61195">
        <ele>377</ele>
        <time>2018-06-10T15:31:40Z</time>
      </trkpt>
      <trkpt lat="45.73863" lon="5.61198">
        <ele>377</ele>
        <time>2018-06-10T15:31:40Z</time>
      </trkpt>
      <trkpt lat="45.73865" lon="5.61199">
        <ele>377</ele>
        <time>2018-06-10T15:31:40Z</time>
      </trkpt>
      <trkpt lat="45.73866" lon="5.61199">
        <ele>377</ele>
        <time>2018-06-10T15:31:40Z</time>
      </trkpt>
      <trkpt lat="45.73866" lon="5.61199">
        <ele>377</ele>
        <time>2018-06-10T15:31:40Z</time>
      </trkpt>
      <trkpt lat="45.73869" lon="5.612">
        <ele>377</ele>
        <time>2018-06-10T15:32:00Z</time>
      </trkpt>
      <trkpt lat="45.73872" lon="5.61202">
        <ele>377</ele>
        <time>2018-06-10T15:32:00Z</time>
      </trkpt>
      <trkpt lat="45.73876" lon="5.61201">
        <ele>383</ele>
        <time>2018-06-10T15:32:00Z</time>
      </trkpt>
      <trkpt lat="45.73877" lon="5.61201">
        <ele>383</ele>
        <time>2018-06-10T15:32:00Z</time>
      </trkpt>
      <trkpt lat="45.73882" lon="5.61204">
        <ele>383</ele>
        <time>2018-06-10T15:32:00Z</time>
      </trkpt>
      <trkpt lat="45.73888" lon="5.61208">
        <ele>383</ele>
        <time>2018-06-10T15:32:16Z</time>
      </trkpt>
      <trkpt lat="45.73893" lon="5.61209">
        <ele>404</ele>
        <time>2018-06-10T15:32:16Z</time>
      </trkpt>
      <trkpt lat="45.73898" lon="5.61211">
        <ele>404</ele>
        <time>2018-06-10T15:32:16Z</time>
      </trkpt>
      <trkpt lat="45.73902" lon="5.61211">
        <ele>404</ele>
        <time>2018-06-10T15:32:16Z</time>
      </trkpt>
      <trkpt lat="45.73907" lon="5.61213">
        <ele>404</ele>
        <time>2018-06-10T15:32:32Z</time>
      </trkpt>
      <trkpt lat="45.73911" lon="5.61214">
        <ele>404</ele>
        <time>2018-06-10T15:32:32Z</time>
      </trkpt>
      <trkpt lat="45.73914" lon="5.61216">
        <ele>404</ele>
        <time>2018-06-10T15:32:32Z</time>
      </trkpt>
      <trkpt lat="45.73918" lon="5.61215">
        <ele>404</ele>
        <time>2018-06-10T15:32:32Z</time>
      </trkpt>
      <trkpt lat="45.73926" lon="5.61215">
        <ele>404</ele>
        <time>2018-06-10T15:33:16Z</time>
      </trkpt>
      <trkpt lat="45.73925" lon="5.61218">
        <ele>404</ele>
        <time>2018-06-10T15:33:16Z</time>
      </trkpt>
      <trkpt lat="45.73925" lon="5.61221">
        <ele>404</ele>
        <time>2018-06-10T15:33:16Z</time>
      </trkpt>
      <trkpt lat="45.73923" lon="5.61223">
        <ele>404</ele>
        <time>2018-06-10T15:33:16Z</time>
      </trkpt>
      <trkpt lat="45.73924" lon="5.6123">
        <ele>404</ele>
        <time>2018-06-10T15:33:16Z</time>
      </trkpt>
      <trkpt lat="45.7393" lon="5.61233">
        <ele>404</ele>
        <time>2018-06-10T15:34:24Z</time>
      </trkpt>
      <trkpt lat="45.73931" lon="5.61233">
        <ele>404</ele>
        <time>2018-06-10T15:34:24Z</time>
      </trkpt>
      <trkpt lat="45.73932" lon="5.6124">
        <ele>404</ele>
        <time>2018-06-10T15:34:24Z</time>
      </trkpt>
      <trkpt lat="45.73932" lon="5.61243">
        <ele>404</ele>
        <time>2018-06-10T15:34:24Z</time>
      </trkpt>
      <trkpt lat="45.7393" lon="5.61247">
        <ele>404</ele>
        <time>2018-06-10T15:34:24Z</time>
      </trkpt>
      <trkpt lat="45.73926" lon="5.61252">
        <ele>404</ele>
        <time>2018-06-10T15:34:40Z</time>
      </trkpt>
      <trkpt lat="45.73923" lon="5.61256">
        <ele>404</ele>
        <time>2018-06-10T15:34:40Z</time>
      </trkpt>
      <trkpt lat="45.73921" lon="5.61259">
        <ele>404</ele>
        <time>2018-06-10T15:34:40Z</time>
      </trkpt>
      <trkpt lat="45.73917" lon="5.6126">
        <ele>404</ele>
        <time>2018-06-10T15:34:40Z</time>
      </trkpt>
      <trkpt lat="45.73915" lon="5.61262">
        <ele>404</ele>
        <time>2018-06-10T15:34:56Z</time>
      </trkpt>
      <trkpt lat="45.73911" lon="5.61268">
        <ele>404</ele>
        <time>2018-06-10T15:34:56Z</time>
      </trkpt>
      <trkpt lat="45.73909" lon="5.61272">
        <ele>404</ele>
        <time>2018-06-10T15:34:56Z</time>
      </trkpt>
      <trkpt lat="45.73908" lon="5.61274">
        <ele>404</ele>
        <time>2018-06-10T15:34:56Z</time>
      </trkpt>
      <trkpt lat="45.73908" lon="5.61274">
        <ele>404</ele>
        <time>2018-06-10T15:35:12Z</time>
      </trkpt>
      <trkpt lat="45.73906" lon="5.61279">
        <ele>404</ele>
        <time>2018-06-10T15:35:12Z</time>
      </trkpt>
      <trkpt lat="45.73904" lon="5.61285">
        <ele>404</ele>
        <time>2018-06-10T15:35:12Z</time>
      </trkpt>
      <trkpt lat="45.73905" lon="5.61292">
        <ele>402</ele>
        <time>2018-06-10T15:35:12Z</time>
      </trkpt>
      <trkpt lat="45.73906" lon="5.61297">
        <ele>402</ele>
        <time>2018-06-10T15:35:28Z</time>
      </trkpt>
      <trkpt lat="45.73904" lon="5.61309">
        <ele>402</ele>
        <time>2018-06-10T15:35:28Z</time>
      </trkpt>
      <trkpt lat="45.73901" lon="5.61317">
        <ele>402</ele>
        <time>2018-06-10T15:35:28Z</time>
      </trkpt>
      <trkpt lat="45.73901" lon="5.61323">
        <ele>402</ele>
        <time>2018-06-10T15:35:28Z</time>
      </trkpt>
      <trkpt lat="45.73899" lon="5.61331">
        <ele>402</ele>
        <time>2018-06-10T15:35:44Z</time>
      </trkpt>
      <trkpt lat="45.739" lon="5.61337">
        <ele>402</ele>
        <time>2018-06-10T15:35:44Z</time>
      </trkpt>
      <trkpt lat="45.73902" lon="5.61344">
        <ele>402</ele>
        <time>2018-06-10T15:35:44Z</time>
      </trkpt>
      <trkpt lat="45.73902" lon="5.61346">
        <ele>402</ele>
        <time>2018-06-10T15:35:44Z</time>
      </trkpt>
      <trkpt lat="45.73902" lon="5.61351">
        <ele>402</ele>
        <time>2018-06-10T15:36:00Z</time>
      </trkpt>
      <trkpt lat="45.73902" lon="5.61354">
        <ele>402</ele>
        <time>2018-06-10T15:36:00Z</time>
      </trkpt>
      <trkpt lat="45.73901" lon="5.61358">
        <ele>402</ele>
        <time>2018-06-10T15:36:00Z</time>
      </trkpt>
      <trkpt lat="45.739" lon="5.61366">
        <ele>402</ele>
        <time>2018-06-10T15:36:00Z</time>
      </trkpt>
      <trkpt lat="45.73899" lon="5.61371">
        <ele>402</ele>
        <time>2018-06-10T15:36:20Z</time>
      </trkpt>
      <trkpt lat="45.73899" lon="5.61373">
        <ele>402</ele>
        <time>2018-06-10T15:36:20Z</time>
      </trkpt>
      <trkpt lat="45.73899" lon="5.61378">
        <ele>389</ele>
        <time>2018-06-10T15:36:20Z</time>
      </trkpt>
      <trkpt lat="45.73896" lon="5.61383">
        <ele>389</ele>
        <time>2018-06-10T15:36:20Z</time>
      </trkpt>
      <trkpt lat="45.73893" lon="5.61387">
        <ele>389</ele>
        <time>2018-06-10T15:36:20Z</time>
      </trkpt>
      <trkpt lat="45.73888" lon="5.61394">
        <ele>389</ele>
        <time>2018-06-10T15:36:36Z</time>
      </trkpt>
      <trkpt lat="45.73883" lon="5.61401">
        <ele>389</ele>
        <time>2018-06-10T15:36:36Z</time>
      </trkpt>
      <trkpt lat="45.73877" lon="5.61407">
        <ele>389</ele>
        <time>2018-06-10T15:36:36Z</time>
      </trkpt>
      <trkpt lat="45.73872" lon="5.61414">
        <ele>397</ele>
        <time>2018-06-10T15:36:36Z</time>
      </trkpt>
      <trkpt lat="45.73869" lon="5.61418">
        <ele>397</ele>
        <time>2018-06-10T15:36:52Z</time>
      </trkpt>
      <trkpt lat="45.73866" lon="5.6142">
        <ele>397</ele>
        <time>2018-06-10T15:36:52Z</time>
      </trkpt>
      <trkpt lat="45.7386" lon="5.61422">
        <ele>397</ele>
        <time>2018-06-10T15:36:52Z</time>
      </trkpt>
      <trkpt lat="45.73858" lon="5.61423">
        <ele>397</ele>
        <time>2018-06-10T15:36:52Z</time>
      </trkpt>
      <trkpt lat="45.73855" lon="5.61426">
        <ele>397</ele>
        <time>2018-06-10T15:37:16Z</time>
      </trkpt>
      <trkpt lat="45.73854" lon="5.61427">
        <ele>397</ele>
        <time>2018-06-10T15:37:16Z</time>
      </trkpt>
      <trkpt lat="45.73854" lon="5.61427">
        <ele>397</ele>
        <time>2018-06-10T15:37:16Z</time>
      </trkpt>
      <trkpt lat="45.73851" lon="5.61432">
        <ele>397</ele>
        <time>2018-06-10T15:37:16Z</time>
      </trkpt>
      <trkpt lat="45.73848" lon="5.61435">
        <ele>397</ele>
        <time>2018-06-10T15:37:16Z</time>
      </trkpt>
      <trkpt lat="45.73842" lon="5.61443">
        <ele>397</ele>
        <time>2018-06-10T15:37:32Z</time>
      </trkpt>
      <trkpt lat="45.73835" lon="5.61454">
        <ele>397</ele>
        <time>2018-06-10T15:37:32Z</time>
      </trkpt>
      <trkpt lat="45.73825" lon="5.61461">
        <ele>384</ele>
        <time>2018-06-10T15:37:32Z</time>
      </trkpt>
      <trkpt lat="45.73818" lon="5.61465">
        <ele>384</ele>
        <time>2018-06-10T15:37:32Z</time>
      </trkpt>
      <trkpt lat="45.73815" lon="5.61468">
        <ele>384</ele>
        <time>2018-06-10T15:37:48Z</time>
      </trkpt>
      <trkpt lat="45.7381" lon="5.61469">
        <ele>384</ele>
        <time>2018-06-10T15:37:48Z</time>
      </trkpt>
      <trkpt lat="45.73805" lon="5.61472">
        <ele>384</ele>
        <time>2018-06-10T15:37:48Z</time>
      </trkpt>
      <trkpt lat="45.73798" lon="5.61474">
        <ele>384</ele>
        <time>2018-06-10T15:37:48Z</time>
      </trkpt>
      <trkpt lat="45.73796" lon="5.61481">
        <ele>384</ele>
        <time>2018-06-10T15:38:04Z</time>
      </trkpt>
      <trkpt lat="45.73793" lon="5.61483">
        <ele>384</ele>
        <time>2018-06-10T15:38:04Z</time>
      </trkpt>
      <trkpt lat="45.73787" lon="5.61484">
        <ele>388</ele>
        <time>2018-06-10T15:38:04Z</time>
      </trkpt>
      <trkpt lat="45.73776" lon="5.61488">
        <ele>388</ele>
        <time>2018-06-10T15:38:04Z</time>
      </trkpt>
      <trkpt lat="45.73766" lon="5.6149">
        <ele>388</ele>
        <time>2018-06-10T15:38:28Z</time>
      </trkpt>
      <trkpt lat="45.73765" lon="5.61493">
        <ele>388</ele>
        <time>2018-06-10T15:38:28Z</time>
      </trkpt>
      <trkpt lat="45.73764" lon="5.61494">
        <ele>388</ele>
        <time>2018-06-10T15:38:28Z</time>
      </trkpt>
      <trkpt lat="45.73764" lon="5.61495">
        <ele>388</ele>
        <time>2018-06-10T15:38:28Z</time>
      </trkpt>
      <trkpt lat="45.73761" lon="5.61498">
        <ele>388</ele>
        <time>2018-06-10T15:38:28Z</time>
      </trkpt>
      <trkpt lat="45.73756" lon="5.615">
        <ele>388</ele>
        <time>2018-06-10T15:38:52Z</time>
      </trkpt>
      <trkpt lat="45.73754" lon="5.615">
        <ele>388</ele>
        <time>2018-06-10T15:38:52Z</time>
      </trkpt>
      <trkpt lat="45.73752" lon="5.61501">
        <ele>388</ele>
        <time>2018-06-10T15:38:52Z</time>
      </trkpt>
      <trkpt lat="45.73752" lon="5.61501">
        <ele>388</ele>
        <time>2018-06-10T15:38:52Z</time>
      </trkpt>
      <trkpt lat="45.7375" lon="5.61504">
        <ele>388</ele>
        <time>2018-06-10T15:38:52Z</time>
      </trkpt>
      <trkpt lat="45.73749" lon="5.61504">
        <ele>388</ele>
        <time>2018-06-10T15:39:08Z</time>
      </trkpt>
      <trkpt lat="45.73745" lon="5.61507">
        <ele>388</ele>
        <time>2018-06-10T15:39:08Z</time>
      </trkpt>
      <trkpt lat="45.7374" lon="5.61512">
        <ele>388</ele>
        <time>2018-06-10T15:39:08Z</time>
      </trkpt>
      <trkpt lat="45.73735" lon="5.61518">
        <ele>388</ele>
        <time>2018-06-10T15:39:08Z</time>
      </trkpt>
      <trkpt lat="45.73719" lon="5.61522">
        <ele>388</ele>
        <time>2018-06-10T15:39:24Z</time>
      </trkpt>
      <trkpt lat="45.73711" lon="5.61527">
        <ele>388</ele>
        <time>2018-06-10T15:39:24Z</time>
      </trkpt>
      <trkpt lat="45.73703" lon="5.61537">
        <ele>396</ele>
        <time>2018-06-10T15:39:24Z</time>
      </trkpt>
      <trkpt lat="45.73697" lon="5.61544">
        <ele>383</ele>
        <time>2018-06-10T15:39:24Z</time>
      </trkpt>
      <trkpt lat="45.7369" lon="5.61551">
        <ele>383</ele>
        <time>2018-06-10T15:39:40Z</time>
      </trkpt>
      <trkpt lat="45.73685" lon="5.6156">
        <ele>383</ele>
        <time>2018-06-10T15:39:40Z</time>
      </trkpt>
      <trkpt lat="45.73679" lon="5.61569">
        <ele>383</ele>
        <time>2018-06-10T15:39:40Z</time>
      </trkpt>
      <trkpt lat="45.73675" lon="5.61574">
        <ele>383</ele>
        <time>2018-06-10T15:39:40Z</time>
      </trkpt>
      <trkpt lat="45.73671" lon="5.61578">
        <ele>383</ele>
        <time>2018-06-10T15:39:56Z</time>
      </trkpt>
      <trkpt lat="45.73663" lon="5.61576">
        <ele>383</ele>
        <time>2018-06-10T15:39:56Z</time>
      </trkpt>
      <trkpt lat="45.73661" lon="5.61577">
        <ele>383</ele>
        <time>2018-06-10T15:39:56Z</time>
      </trkpt>
      <trkpt lat="45.73657" lon="5.61581">
        <ele>383</ele>
        <time>2018-06-10T15:39:56Z</time>
      </trkpt>
      <trkpt lat="45.7365" lon="5.6159">
        <ele>383</ele>
        <time>2018-06-10T15:40:12Z</time>
      </trkpt>
      <trkpt lat="45.73642" lon="5.61603">
        <ele>383</ele>
        <time>2018-06-10T15:40:12Z</time>
      </trkpt>
      <trkpt lat="45.73639" lon="5.61607">
        <ele>383</ele>
        <time>2018-06-10T15:40:12Z</time>
      </trkpt>
      <trkpt lat="45.73637" lon="5.61614">
        <ele>383</ele>
        <time>2018-06-10T15:40:12Z</time>
      </trkpt>
      <trkpt lat="45.73634" lon="5.61621">
        <ele>383</ele>
        <time>2018-06-10T15:40:28Z</time>
      </trkpt>
      <trkpt lat="45.73632" lon="5.61626">
        <ele>368</ele>
        <time>2018-06-10T15:40:28Z</time>
      </trkpt>
      <trkpt lat="45.73627" lon="5.61633">
        <ele>368</ele>
        <time>2018-06-10T15:40:28Z</time>
      </trkpt>
      <trkpt lat="45.73619" lon="5.6164">
        <ele>375</ele>
        <time>2018-06-10T15:40:28Z</time>
      </trkpt>
      <trkpt lat="45.73616" lon="5.61643">
        <ele>375</ele>
        <time>2018-06-10T15:40:44Z</time>
      </trkpt>
      <trkpt lat="45.73608" lon="5.61647">
        <ele>375</ele>
        <time>2018-06-10T15:40:44Z</time>
      </trkpt>
      <trkpt lat="45.73602" lon="5.61651">
        <ele>375</ele>
        <time>2018-06-10T15:40:44Z</time>
      </trkpt>
      <trkpt lat="45.73592" lon="5.61661">
        <ele>375</ele>
        <time>2018-06-10T15:40:44Z</time>
      </trkpt>
      <trkpt lat="45.73588" lon="5.61668">
        <ele>375</ele>
        <time>2018-06-10T15:41:00Z</time>
      </trkpt>
      <trkpt lat="45.73584" lon="5.61673">
        <ele>375</ele>
        <time>2018-06-10T15:41:00Z</time>
      </trkpt>
      <trkpt lat="45.7358" lon="5.61678">
        <ele>375</ele>
        <time>2018-06-10T15:41:00Z</time>
      </trkpt>
      <trkpt lat="45.73577" lon="5.61682">
        <ele>375</ele>
        <time>2018-06-10T15:41:00Z</time>
      </trkpt>
      <trkpt lat="45.73572" lon="5.61686">
        <ele>375</ele>
        <time>2018-06-10T15:41:16Z</time>
      </trkpt>
      <trkpt lat="45.73568" lon="5.61691">
        <ele>375</ele>
        <time>2018-06-10T15:41:16Z</time>
      </trkpt>
      <trkpt lat="45.73564" lon="5.61693">
        <ele>375</ele>
        <time>2018-06-10T15:41:16Z</time>
      </trkpt>
      <trkpt lat="45.73561" lon="5.61696">
        <ele>375</ele>
        <time>2018-06-10T15:41:16Z</time>
      </trkpt>
      <trkpt lat="45.73555" lon="5.61701">
        <ele>375</ele>
        <time>2018-06-10T15:41:32Z</time>
      </trkpt>
      <trkpt lat="45.7355" lon="5.61704">
        <ele>375</ele>
        <time>2018-06-10T15:41:32Z</time>
      </trkpt>
      <trkpt lat="45.73545" lon="5.61711">
        <ele>358</ele>
        <time>2018-06-10T15:41:32Z</time>
      </trkpt>
      <trkpt lat="45.73539" lon="5.61716">
        <ele>366</ele>
        <time>2018-06-10T15:41:32Z</time>
      </trkpt>
      <trkpt lat="45.73534" lon="5.61721">
        <ele>366</ele>
        <time>2018-06-10T15:41:48Z</time>
      </trkpt>
      <trkpt lat="45.7353" lon="5.61728">
        <ele>366</ele>
        <time>2018-06-10T15:41:48Z</time>
      </trkpt>
      <trkpt lat="45.73526" lon="5.61733">
        <ele>366</ele>
        <time>2018-06-10T15:41:48Z</time>
      </trkpt>
      <trkpt lat="45.73525" lon="5.61734">
        <ele>366</ele>
        <time>2018-06-10T15:41:48Z</time>
      </trkpt>
      <trkpt lat="45.7352" lon="5.61752">
        <ele>366</ele>
        <time>2018-06-10T15:42:12Z</time>
      </trkpt>
      <trkpt lat="45.73518" lon="5.61753">
        <ele>366</ele>
        <time>2018-06-10T15:42:12Z</time>
      </trkpt>
      <trkpt lat="45.73516" lon="5.61753">
        <ele>366</ele>
        <time>2018-06-10T15:42:12Z</time>
      </trkpt>
      <trkpt lat="45.73516" lon="5.61753">
        <ele>366</ele>
        <time>2018-06-10T15:42:12Z</time>
      </trkpt>
      <trkpt lat="45.73516" lon="5.61753">
        <ele>366</ele>
        <time>2018-06-10T15:42:12Z</time>
      </trkpt>
      <trkpt lat="45.73516" lon="5.61754">
        <ele>366</ele>
        <time>2018-06-10T15:42:32Z</time>
      </trkpt>
      <trkpt lat="45.73515" lon="5.61755">
        <ele>366</ele>
        <time>2018-06-10T15:42:32Z</time>
      </trkpt>
      <trkpt lat="45.73518" lon="5.61755">
        <ele>366</ele>
        <time>2018-06-10T15:42:32Z</time>
      </trkpt>
      <trkpt lat="45.73523" lon="5.61754">
        <ele>366</ele>
        <time>2018-06-10T15:42:32Z</time>
      </trkpt>
      <trkpt lat="45.73526" lon="5.61754">
        <ele>366</ele>
        <time>2018-06-10T15:42:32Z</time>
      </trkpt>
      <trkpt lat="45.7353" lon="5.61754">
        <ele>366</ele>
        <time>2018-06-10T15:42:48Z</time>
      </trkpt>
      <trkpt lat="45.73536" lon="5.61753">
        <ele>366</ele>
        <time>2018-06-10T15:42:48Z</time>
      </trkpt>
      <trkpt lat="45.7354" lon="5.61753">
        <ele>366</ele>
        <time>2018-06-10T15:42:48Z</time>
      </trkpt>
      <trkpt lat="45.73543" lon="5.61752">
        <ele>358</ele>
        <time>2018-06-10T15:42:48Z</time>
      </trkpt>
      <trkpt lat="45.7355" lon="5.61749">
        <ele>358</ele>
        <time>2018-06-10T15:43:16Z</time>
      </trkpt>
      <trkpt lat="45.73551" lon="5.6175">
        <ele>358</ele>
        <time>2018-06-10T15:43:16Z</time>
      </trkpt>
      <trkpt lat="45.73551" lon="5.61749">
        <ele>358</ele>
        <time>2018-06-10T15:43:16Z</time>
      </trkpt>
      <trkpt lat="45.73554" lon="5.61747">
        <ele>358</ele>
        <time>2018-06-10T15:43:16Z</time>
      </trkpt>
      <trkpt lat="45.73557" lon="5.61746">
        <ele>358</ele>
        <time>2018-06-10T15:43:16Z</time>
      </trkpt>
      <trkpt lat="45.73562" lon="5.61745">
        <ele>358</ele>
        <time>2018-06-10T15:43:32Z</time>
      </trkpt>
      <trkpt lat="45.73567" lon="5.61747">
        <ele>358</ele>
        <time>2018-06-10T15:43:32Z</time>
      </trkpt>
      <trkpt lat="45.73571" lon="5.61747">
        <ele>358</ele>
        <time>2018-06-10T15:43:32Z</time>
      </trkpt>
      <trkpt lat="45.73575" lon="5.61746">
        <ele>358</ele>
        <time>2018-06-10T15:43:32Z</time>
      </trkpt>
      <trkpt lat="45.7358" lon="5.61744">
        <ele>358</ele>
        <time>2018-06-10T15:43:48Z</time>
      </trkpt>
      <trkpt lat="45.73585" lon="5.61743">
        <ele>358</ele>
        <time>2018-06-10T15:43:48Z</time>
      </trkpt>
      <trkpt lat="45.7359" lon="5.61742">
        <ele>358</ele>
        <time>2018-06-10T15:43:48Z</time>
      </trkpt>
      <trkpt lat="45.73596" lon="5.61741">
        <ele>358</ele>
        <time>2018-06-10T15:43:48Z</time>
      </trkpt>
      <trkpt lat="45.73601" lon="5.61741">
        <ele>358</ele>
        <time>2018-06-10T15:44:04Z</time>
      </trkpt>
      <trkpt lat="45.73606" lon="5.6174">
        <ele>358</ele>
        <time>2018-06-10T15:44:04Z</time>
      </trkpt>
      <trkpt lat="45.73613" lon="5.61739">
        <ele>358</ele>
        <time>2018-06-10T15:44:04Z</time>
      </trkpt>
      <trkpt lat="45.73618" lon="5.61739">
        <ele>358</ele>
        <time>2018-06-10T15:44:04Z</time>
      </trkpt>
      <trkpt lat="45.73624" lon="5.61739">
        <ele>358</ele>
        <time>2018-06-10T15:44:20Z</time>
      </trkpt>
      <trkpt lat="45.73629" lon="5.61741">
        <ele>348</ele>
        <time>2018-06-10T15:44:20Z</time>
      </trkpt>
      <trkpt lat="45.73628" lon="5.61751">
        <ele>348</ele>
        <time>2018-06-10T15:44:20Z</time>
      </trkpt>
      <trkpt lat="45.73625" lon="5.61755">
        <ele>358</ele>
        <time>2018-06-10T15:44:20Z</time>
      </trkpt>
      <trkpt lat="45.73621" lon="5.61758">
        <ele>358</ele>
        <time>2018-06-10T15:44:36Z</time>
      </trkpt>
      <trkpt lat="45.73617" lon="5.61761">
        <ele>358</ele>
        <time>2018-06-10T15:44:36Z</time>
      </trkpt>
      <trkpt lat="45.73613" lon="5.61763">
        <ele>358</ele>
        <time>2018-06-10T15:44:36Z</time>
      </trkpt>
      <trkpt lat="45.7361" lon="5.61767">
        <ele>358</ele>
        <time>2018-06-10T15:44:36Z</time>
      </trkpt>
      <trkpt lat="45.73606" lon="5.6177">
        <ele>358</ele>
        <time>2018-06-10T15:44:52Z</time>
      </trkpt>
      <trkpt lat="45.73599" lon="5.61778">
        <ele>358</ele>
        <time>2018-06-10T15:44:52Z</time>
      </trkpt>
      <trkpt lat="45.73594" lon="5.61783">
        <ele>358</ele>
        <time>2018-06-10T15:44:52Z</time>
      </trkpt>
      <trkpt lat="45.73589" lon="5.61788">
        <ele>358</ele>
        <time>2018-06-10T15:44:52Z</time>
      </trkpt>
      <trkpt lat="45.73587" lon="5.61794">
        <ele>346</ele>
        <time>2018-06-10T15:45:08Z</time>
      </trkpt>
      <trkpt lat="45.73587" lon="5.61801">
        <ele>346</ele>
        <time>2018-06-10T15:45:08Z</time>
      </trkpt>
      <trkpt lat="45.73587" lon="5.61813">
        <ele>346</ele>
        <time>2018-06-10T15:45:08Z</time>
      </trkpt>
      <trkpt lat="45.7359" lon="5.61821">
        <ele>346</ele>
        <time>2018-06-10T15:45:08Z</time>
      </trkpt>
      <trkpt lat="45.73592" lon="5.61829">
        <ele>346</ele>
        <time>2018-06-10T15:45:24Z</time>
      </trkpt>
      <trkpt lat="45.73591" lon="5.61838">
        <ele>346</ele>
        <time>2018-06-10T15:45:24Z</time>
      </trkpt>
      <trkpt lat="45.73589" lon="5.61846">
        <ele>346</ele>
        <time>2018-06-10T15:45:24Z</time>
      </trkpt>
      <trkpt lat="45.73587" lon="5.61852">
        <ele>346</ele>
        <time>2018-06-10T15:45:24Z</time>
      </trkpt>
      <trkpt lat="45.73583" lon="5.61857">
        <ele>346</ele>
        <time>2018-06-10T15:45:40Z</time>
      </trkpt>
      <trkpt lat="45.7358" lon="5.61861">
        <ele>346</ele>
        <time>2018-06-10T15:45:40Z</time>
      </trkpt>
      <trkpt lat="45.73576" lon="5.61865">
        <ele>346</ele>
        <time>2018-06-10T15:45:40Z</time>
      </trkpt>
      <trkpt lat="45.73574" lon="5.61869">
        <ele>346</ele>
        <time>2018-06-10T15:45:40Z</time>
      </trkpt>
      <trkpt lat="45.7357" lon="5.61874">
        <ele>346</ele>
        <time>2018-06-10T15:45:56Z</time>
      </trkpt>
      <trkpt lat="45.73567" lon="5.61878">
        <ele>351</ele>
        <time>2018-06-10T15:45:56Z</time>
      </trkpt>
      <trkpt lat="45.73562" lon="5.61883">
        <ele>351</ele>
        <time>2018-06-10T15:45:56Z</time>
      </trkpt>
      <trkpt lat="45.73556" lon="5.61887">
        <ele>351</ele>
        <time>2018-06-10T15:45:56Z</time>
      </trkpt>
      <trkpt lat="45.7355" lon="5.61893">
        <ele>351</ele>
        <time>2018-06-10T15:46:12Z</time>
      </trkpt>
      <trkpt lat="45.73545" lon="5.61897">
        <ele>351</ele>
        <time>2018-06-10T15:46:12Z</time>
      </trkpt>
      <trkpt lat="45.73542" lon="5.61902">
        <ele>351</ele>
        <time>2018-06-10T15:46:12Z</time>
      </trkpt>
      <trkpt lat="45.73538" lon="5.61905">
        <ele>344</ele>
        <time>2018-06-10T15:46:12Z</time>
      </trkpt>
      <trkpt lat="45.73532" lon="5.61908">
        <ele>344</ele>
        <time>2018-06-10T15:46:28Z</time>
      </trkpt>
      <trkpt lat="45.73528" lon="5.61911">
        <ele>344</ele>
        <time>2018-06-10T15:46:28Z</time>
      </trkpt>
      <trkpt lat="45.73522" lon="5.61913">
        <ele>344</ele>
        <time>2018-06-10T15:46:28Z</time>
      </trkpt>
      <trkpt lat="45.73518" lon="5.61914">
        <ele>344</ele>
        <time>2018-06-10T15:46:28Z</time>
      </trkpt>
      <trkpt lat="45.73512" lon="5.61919">
        <ele>344</ele>
        <time>2018-06-10T15:46:44Z</time>
      </trkpt>
      <trkpt lat="45.73506" lon="5.61923">
        <ele>344</ele>
        <time>2018-06-10T15:46:44Z</time>
      </trkpt>
      <trkpt lat="45.735" lon="5.61926">
        <ele>344</ele>
        <time>2018-06-10T15:46:44Z</time>
      </trkpt>
      <trkpt lat="45.73497" lon="5.61927">
        <ele>344</ele>
        <time>2018-06-10T15:46:44Z</time>
      </trkpt>
      <trkpt lat="45.73493" lon="5.61928">
        <ele>344</ele>
        <time>2018-06-10T15:47:08Z</time>
      </trkpt>
      <trkpt lat="45.73492" lon="5.61927">
        <ele>344</ele>
        <time>2018-06-10T15:47:08Z</time>
      </trkpt>
      <trkpt lat="45.73491" lon="5.61927">
        <ele>344</ele>
        <time>2018-06-10T15:47:08Z</time>
      </trkpt>
      <trkpt lat="45.73486" lon="5.61929">
        <ele>344</ele>
        <time>2018-06-10T15:47:08Z</time>
      </trkpt>
      <trkpt lat="45.73481" lon="5.61933">
        <ele>344</ele>
        <time>2018-06-10T15:47:08Z</time>
      </trkpt>
      <trkpt lat="45.73477" lon="5.61939">
        <ele>344</ele>
        <time>2018-06-10T15:47:24Z</time>
      </trkpt>
      <trkpt lat="45.73473" lon="5.61943">
        <ele>344</ele>
        <time>2018-06-10T15:47:24Z</time>
      </trkpt>
      <trkpt lat="45.73468" lon="5.61947">
        <ele>344</ele>
        <time>2018-06-10T15:47:24Z</time>
      </trkpt>
      <trkpt lat="45.73463" lon="5.61952">
        <ele>344</ele>
        <time>2018-06-10T15:47:24Z</time>
      </trkpt>
      <trkpt lat="45.73458" lon="5.61954">
        <ele>341</ele>
        <time>2018-06-10T15:47:40Z</time>
      </trkpt>
      <trkpt lat="45.73454" lon="5.61957">
        <ele>341</ele>
        <time>2018-06-10T15:47:40Z</time>
      </trkpt>
      <trkpt lat="45.73449" lon="5.61962">
        <ele>339</ele>
        <time>2018-06-10T15:47:40Z</time>
      </trkpt>
      <trkpt lat="45.73444" lon="5.61966">
        <ele>339</ele>
        <time>2018-06-10T15:47:40Z</time>
      </trkpt>
      <trkpt lat="45.7344" lon="5.61972">
        <ele>339</ele>
        <time>2018-06-10T15:47:56Z</time>
      </trkpt>
      <trkpt lat="45.73435" lon="5.61979">
        <ele>339</ele>
        <time>2018-06-10T15:47:56Z</time>
      </trkpt>
      <trkpt lat="45.7343" lon="5.61986">
        <ele>339</ele>
        <time>2018-06-10T15:47:56Z</time>
      </trkpt>
      <trkpt lat="45.73425" lon="5.61988">
        <ele>339</ele>
        <time>2018-06-10T15:47:56Z</time>
      </trkpt>
      <trkpt lat="45.73422" lon="5.61991">
        <ele>339</ele>
        <time>2018-06-10T15:48:12Z</time>
      </trkpt>
      <trkpt lat="45.73418" lon="5.61997">
        <ele>339</ele>
        <time>2018-06-10T15:48:12Z</time>
      </trkpt>
      <trkpt lat="45.73415" lon="5.62003">
        <ele>339</ele>
        <time>2018-06-10T15:48:12Z</time>
      </trkpt>
      <trkpt lat="45.7341" lon="5.62009">
        <ele>339</ele>
        <time>2018-06-10T15:48:12Z</time>
      </trkpt>
      <trkpt lat="45.73405" lon="5.62013">
        <ele>339</ele>
        <time>2018-06-10T15:48:28Z</time>
      </trkpt>
      <trkpt lat="45.734" lon="5.62019">
        <ele>339</ele>
        <time>2018-06-10T15:48:28Z</time>
      </trkpt>
      <trkpt lat="45.73397" lon="5.62025">
        <ele>339</ele>
        <time>2018-06-10T15:48:28Z</time>
      </trkpt>
      <trkpt lat="45.73394" lon="5.62031">
        <ele>339</ele>
        <time>2018-06-10T15:48:28Z</time>
      </trkpt>
      <trkpt lat="45.7339" lon="5.62039">
        <ele>339</ele>
        <time>2018-06-10T15:48:44Z</time>
      </trkpt>
      <trkpt lat="45.73385" lon="5.62043">
        <ele>332</ele>
        <time>2018-06-10T15:48:44Z</time>
      </trkpt>
      <trkpt lat="45.7338" lon="5.62048">
        <ele>332</ele>
        <time>2018-06-10T15:48:44Z</time>
      </trkpt>
      <trkpt lat="45.73375" lon="5.62051">
        <ele>332</ele>
        <time>2018-06-10T15:48:44Z</time>
      </trkpt>
      <trkpt lat="45.73371" lon="5.62053">
        <ele>330</ele>
        <time>2018-06-10T15:49:00Z</time>
      </trkpt>
      <trkpt lat="45.73368" lon="5.62054">
        <ele>330</ele>
        <time>2018-06-10T15:49:00Z</time>
      </trkpt>
      <trkpt lat="45.73366" lon="5.62057">
        <ele>330</ele>
        <time>2018-06-10T15:49:00Z</time>
      </trkpt>
      <trkpt lat="45.73364" lon="5.62065">
        <ele>330</ele>
        <time>2018-06-10T15:49:00Z</time>
      </trkpt>
      <trkpt lat="45.73364" lon="5.62072">
        <ele>330</ele>
        <time>2018-06-10T15:49:16Z</time>
      </trkpt>
      <trkpt lat="45.73363" lon="5.62082">
        <ele>330</ele>
        <time>2018-06-10T15:49:16Z</time>
      </trkpt>
      <trkpt lat="45.73361" lon="5.62093">
        <ele>330</ele>
        <time>2018-06-10T15:49:16Z</time>
      </trkpt>
      <trkpt lat="45.7336" lon="5.62101">
        <ele>330</ele>
        <time>2018-06-10T15:49:16Z</time>
      </trkpt>
      <trkpt lat="45.73358" lon="5.62109">
        <ele>330</ele>
        <time>2018-06-10T15:49:32Z</time>
      </trkpt>
      <trkpt lat="45.7336" lon="5.62114">
        <ele>330</ele>
        <time>2018-06-10T15:49:32Z</time>
      </trkpt>
      <trkpt lat="45.73364" lon="5.62116">
        <ele>330</ele>
        <time>2018-06-10T15:49:32Z</time>
      </trkpt>
      <trkpt lat="45.73367" lon="5.62117">
        <ele>330</ele>
        <time>2018-06-10T15:49:32Z</time>
      </trkpt>
      <trkpt lat="45.73372" lon="5.62118">
        <ele>330</ele>
        <time>2018-06-10T15:49:48Z</time>
      </trkpt>
      <trkpt lat="45.73377" lon="5.62122">
        <ele>332</ele>
        <time>2018-06-10T15:49:48Z</time>
      </trkpt>
      <trkpt lat="45.73382" lon="5.62122">
        <ele>332</ele>
        <time>2018-06-10T15:49:48Z</time>
      </trkpt>
      <trkpt lat="45.73387" lon="5.62122">
        <ele>332</ele>
        <time>2018-06-10T15:49:48Z</time>
      </trkpt>
      <trkpt lat="45.73393" lon="5.62121">
        <ele>332</ele>
        <time>2018-06-10T15:50:04Z</time>
      </trkpt>
      <trkpt lat="45.73398" lon="5.62123">
        <ele>332</ele>
        <time>2018-06-10T15:50:04Z</time>
      </trkpt>
      <trkpt lat="45.73405" lon="5.62123">
        <ele>332</ele>
        <time>2018-06-10T15:50:04Z</time>
      </trkpt>
      <trkpt lat="45.7341" lon="5.62123">
        <ele>332</ele>
        <time>2018-06-10T15:50:04Z</time>
      </trkpt>
      <trkpt lat="45.73416" lon="5.62124">
        <ele>332</ele>
        <time>2018-06-10T15:50:20Z</time>
      </trkpt>
      <trkpt lat="45.73422" lon="5.62125">
        <ele>332</ele>
        <time>2018-06-10T15:50:20Z</time>
      </trkpt>
      <trkpt lat="45.73427" lon="5.62127">
        <ele>327</ele>
        <time>2018-06-10T15:50:20Z</time>
      </trkpt>
      <trkpt lat="45.73434" lon="5.62127">
        <ele>327</ele>
        <time>2018-06-10T15:50:20Z</time>
      </trkpt>
      <trkpt lat="45.73439" lon="5.62127">
        <ele>327</ele>
        <time>2018-06-10T15:50:36Z</time>
      </trkpt>
      <trkpt lat="45.73442" lon="5.62127">
        <ele>327</ele>
        <time>2018-06-10T15:50:36Z</time>
      </trkpt>
      <trkpt lat="45.73448" lon="5.62128">
        <ele>327</ele>
        <time>2018-06-10T15:50:36Z</time>
      </trkpt>
      <trkpt lat="45.73454" lon="5.62128">
        <ele>327</ele>
        <time>2018-06-10T15:50:36Z</time>
      </trkpt>
      <trkpt lat="45.73464" lon="5.62131">
        <ele>326</ele>
        <time>2018-06-10T15:51:12Z</time>
      </trkpt>
      <trkpt lat="45.73466" lon="5.62133">
        <ele>326</ele>
        <time>2018-06-10T15:51:12Z</time>
      </trkpt>
      <trkpt lat="45.73469" lon="5.62132">
        <ele>326</ele>
        <time>2018-06-10T15:51:12Z</time>
      </trkpt>
      <trkpt lat="45.7347" lon="5.62132">
        <ele>326</ele>
        <time>2018-06-10T15:51:12Z</time>
      </trkpt>
      <trkpt lat="45.73471" lon="5.62133">
        <ele>326</ele>
        <time>2018-06-10T15:51:12Z</time>
      </trkpt>
      <trkpt lat="45.73477" lon="5.62133">
        <ele>326</ele>
        <time>2018-06-10T15:51:48Z</time>
      </trkpt>
      <trkpt lat="45.73477" lon="5.62134">
        <ele>326</ele>
        <time>2018-06-10T15:51:48Z</time>
      </trkpt>
      <trkpt lat="45.73478" lon="5.62134">
        <ele>326</ele>
        <time>2018-06-10T15:51:48Z</time>
      </trkpt>
      <trkpt lat="45.73481" lon="5.62135">
        <ele>326</ele>
        <time>2018-06-10T15:51:48Z</time>
      </trkpt>
      <trkpt lat="45.73485" lon="5.62135">
        <ele>326</ele>
        <time>2018-06-10T15:51:48Z</time>
      </trkpt>
      <trkpt lat="45.73488" lon="5.62131">
        <ele>326</ele>
        <time>2018-06-10T15:53:12Z</time>
      </trkpt>
      <trkpt lat="45.73489" lon="5.62132">
        <ele>326</ele>
        <time>2018-06-10T15:53:12Z</time>
      </trkpt>
      <trkpt lat="45.7349" lon="5.62131">
        <ele>326</ele>
        <time>2018-06-10T15:53:12Z</time>
      </trkpt>
      <trkpt lat="45.73492" lon="5.6213">
        <ele>326</ele>
        <time>2018-06-10T15:53:12Z</time>
      </trkpt>
      <trkpt lat="45.73496" lon="5.6213">
        <ele>326</ele>
        <time>2018-06-10T15:53:12Z</time>
      </trkpt>
      <trkpt lat="45.73503" lon="5.6213">
        <ele>326</ele>
        <time>2018-06-10T15:53:28Z</time>
      </trkpt>
      <trkpt lat="45.7351" lon="5.6213">
        <ele>326</ele>
        <time>2018-06-10T15:53:28Z</time>
      </trkpt>
      <trkpt lat="45.73516" lon="5.62132">
        <ele>326</ele>
        <time>2018-06-10T15:53:28Z</time>
      </trkpt>
      <trkpt lat="45.73521" lon="5.62131">
        <ele>326</ele>
        <time>2018-06-10T15:53:28Z</time>
      </trkpt>
      <trkpt lat="45.73527" lon="5.62129">
        <ele>326</ele>
        <time>2018-06-10T15:53:44Z</time>
      </trkpt>
      <trkpt lat="45.73532" lon="5.6213">
        <ele>326</ele>
        <time>2018-06-10T15:53:44Z</time>
      </trkpt>
      <trkpt lat="45.73538" lon="5.6213">
        <ele>326</ele>
        <time>2018-06-10T15:53:44Z</time>
      </trkpt>
      <trkpt lat="45.73543" lon="5.62132">
        <ele>326</ele>
        <time>2018-06-10T15:53:44Z</time>
      </trkpt>
      <trkpt lat="45.73548" lon="5.62133">
        <ele>326</ele>
        <time>2018-06-10T15:54:00Z</time>
      </trkpt>
      <trkpt lat="45.73554" lon="5.62134">
        <ele>326</ele>
        <time>2018-06-10T15:54:00Z</time>
      </trkpt>
      <trkpt lat="45.7356" lon="5.62134">
        <ele>326</ele>
        <time>2018-06-10T15:54:00Z</time>
      </trkpt>
      <trkpt lat="45.73567" lon="5.62134">
        <ele>326</ele>
        <time>2018-06-10T15:54:00Z</time>
      </trkpt>
      <trkpt lat="45.73571" lon="5.62136">
        <ele>326</ele>
        <time>2018-06-10T15:54:16Z</time>
      </trkpt>
      <trkpt lat="45.73579" lon="5.62138">
        <ele>326</ele>
        <time>2018-06-10T15:54:16Z</time>
      </trkpt>
      <trkpt lat="45.73585" lon="5.6214">
        <ele>326</ele>
        <time>2018-06-10T15:54:16Z</time>
      </trkpt>
      <trkpt lat="45.73592" lon="5.62141">
        <ele>326</ele>
        <time>2018-06-10T15:54:16Z</time>
      </trkpt>
      <trkpt lat="45.73599" lon="5.62141">
        <ele>326</ele>
        <time>2018-06-10T15:54:32Z</time>
      </trkpt>
      <trkpt lat="45.73604" lon="5.62142">
        <ele>326</ele>
        <time>2018-06-10T15:54:32Z</time>
      </trkpt>
      <trkpt lat="45.7361" lon="5.62141">
        <ele>326</ele>
        <time>2018-06-10T15:54:32Z</time>
      </trkpt>
      <trkpt lat="45.73615" lon="5.62141">
        <ele>326</ele>
        <time>2018-06-10T15:54:32Z</time>
      </trkpt>
      <trkpt lat="45.73621" lon="5.6214">
        <ele>326</ele>
        <time>2018-06-10T15:54:48Z</time>
      </trkpt>
      <trkpt lat="45.73627" lon="5.6214">
        <ele>324</ele>
        <time>2018-06-10T15:54:48Z</time>
      </trkpt>
      <trkpt lat="45.73631" lon="5.62139">
        <ele>324</ele>
        <time>2018-06-10T15:54:48Z</time>
      </trkpt>
      <trkpt lat="45.73636" lon="5.62141">
        <ele>324</ele>
        <time>2018-06-10T15:54:48Z</time>
      </trkpt>
      <trkpt lat="45.73642" lon="5.62142">
        <ele>324</ele>
        <time>2018-06-10T15:55:04Z</time>
      </trkpt>
      <trkpt lat="45.73648" lon="5.62141">
        <ele>324</ele>
        <time>2018-06-10T15:55:04Z</time>
      </trkpt>
      <trkpt lat="45.73653" lon="5.6214">
        <ele>324</ele>
        <time>2018-06-10T15:55:04Z</time>
      </trkpt>
      <trkpt lat="45.73659" lon="5.62142">
        <ele>324</ele>
        <time>2018-06-10T15:55:04Z</time>
      </trkpt>
      <trkpt lat="45.73665" lon="5.62142">
        <ele>324</ele>
        <time>2018-06-10T15:55:20Z</time>
      </trkpt>
      <trkpt lat="45.7367" lon="5.62143">
        <ele>324</ele>
        <time>2018-06-10T15:55:20Z</time>
      </trkpt>
      <trkpt lat="45.73675" lon="5.62144">
        <ele>324</ele>
        <time>2018-06-10T15:55:20Z</time>
      </trkpt>
      <trkpt lat="45.7368" lon="5.62144">
        <ele>324</ele>
        <time>2018-06-10T15:55:20Z</time>
      </trkpt>
      <trkpt lat="45.73685" lon="5.62144">
        <ele>324</ele>
        <time>2018-06-10T15:55:36Z</time>
      </trkpt>
      <trkpt lat="45.73691" lon="5.62145">
        <ele>324</ele>
        <time>2018-06-10T15:55:36Z</time>
      </trkpt>
      <trkpt lat="45.73696" lon="5.62147">
        <ele>324</ele>
        <time>2018-06-10T15:55:36Z</time>
      </trkpt>
      <trkpt lat="45.73703" lon="5.62148">
        <ele>324</ele>
        <time>2018-06-10T15:55:36Z</time>
      </trkpt>
      <trkpt lat="45.73709" lon="5.6215">
        <ele>324</ele>
        <time>2018-06-10T15:55:52Z</time>
      </trkpt>
      <trkpt lat="45.73713" lon="5.62151">
        <ele>324</ele>
        <time>2018-06-10T15:55:52Z</time>
      </trkpt>
      <trkpt lat="45.73719" lon="5.62152">
        <ele>324</ele>
        <time>2018-06-10T15:55:52Z</time>
      </trkpt>
      <trkpt lat="45.73725" lon="5.62153">
        <ele>324</ele>
        <time>2018-06-10T15:55:52Z</time>
      </trkpt>
      <trkpt lat="45.73732" lon="5.6215">
        <ele>324</ele>
        <time>2018-06-10T15:56:08Z</time>
      </trkpt>
      <trkpt lat="45.73737" lon="5.62151">
        <ele>324</ele>
        <time>2018-06-10T15:56:08Z</time>
      </trkpt>
      <trkpt lat="45.73742" lon="5.62153">
        <ele>324</ele>
        <time>2018-06-10T15:56:08Z</time>
      </trkpt>
      <trkpt lat="45.73747" lon="5.62154">
        <ele>324</ele>
        <time>2018-06-10T15:56:08Z</time>
      </trkpt>
      <trkpt lat="45.73754" lon="5.62155">
        <ele>324</ele>
        <time>2018-06-10T15:56:24Z</time>
      </trkpt>
      <trkpt lat="45.73759" lon="5.62155">
        <ele>324</ele>
        <time>2018-06-10T15:56:24Z</time>
      </trkpt>
      <trkpt lat="45.73763" lon="5.62155">
        <ele>324</ele>
        <time>2018-06-10T15:56:24Z</time>
      </trkpt>
      <trkpt lat="45.73764" lon="5.62156">
        <ele>324</ele>
        <time>2018-06-10T15:56:24Z</time>
      </trkpt>
      <trkpt lat="45.73769" lon="5.62159">
        <ele>324</ele>
        <time>2018-06-10T15:56:40Z</time>
      </trkpt>
      <trkpt lat="45.73778" lon="5.6216">
        <ele>324</ele>
        <time>2018-06-10T15:56:40Z</time>
      </trkpt>
      <trkpt lat="45.73785" lon="5.62161">
        <ele>324</ele>
        <time>2018-06-10T15:56:40Z</time>
      </trkpt>
      <trkpt lat="45.73792" lon="5.62162">
        <ele>325</ele>
        <time>2018-06-10T15:56:40Z</time>
      </trkpt>
      <trkpt lat="45.73799" lon="5.62163">
        <ele>325</ele>
        <time>2018-06-10T15:56:56Z</time>
      </trkpt>
      <trkpt lat="45.73806" lon="5.62164">
        <ele>325</ele>
        <time>2018-06-10T15:56:56Z</time>
      </trkpt>
      <trkpt lat="45.73813" lon="5.62164">
        <ele>325</ele>
        <time>2018-06-10T15:56:56Z</time>
      </trkpt>
      <trkpt lat="45.73818" lon="5.62167">
        <ele>325</ele>
        <time>2018-06-10T15:56:56Z</time>
      </trkpt>
      <trkpt lat="45.73823" lon="5.62168">
        <ele>325</ele>
        <time>2018-06-10T15:57:12Z</time>
      </trkpt>
      <trkpt lat="45.73829" lon="5.6217">
        <ele>325</ele>
        <time>2018-06-10T15:57:12Z</time>
      </trkpt>
      <trkpt lat="45.73834" lon="5.6217">
        <ele>325</ele>
        <time>2018-06-10T15:57:12Z</time>
      </trkpt>
      <trkpt lat="45.73839" lon="5.6217">
        <ele>325</ele>
        <time>2018-06-10T15:57:12Z</time>
      </trkpt>
      <trkpt lat="45.73845" lon="5.6217">
        <ele>325</ele>
        <time>2018-06-10T15:57:28Z</time>
      </trkpt>
      <trkpt lat="45.73851" lon="5.62172">
        <ele>325</ele>
        <time>2018-06-10T15:57:28Z</time>
      </trkpt>
      <trkpt lat="45.73857" lon="5.62174">
        <ele>325</ele>
        <time>2018-06-10T15:57:28Z</time>
      </trkpt>
      <trkpt lat="45.73863" lon="5.62176">
        <ele>325</ele>
        <time>2018-06-10T15:57:28Z</time>
      </trkpt>
      <trkpt lat="45.7387" lon="5.62178">
        <ele>325</ele>
        <time>2018-06-10T15:57:44Z</time>
      </trkpt>
      <trkpt lat="45.73874" lon="5.62179">
        <ele>325</ele>
        <time>2018-06-10T15:57:44Z</time>
      </trkpt>
      <trkpt lat="45.73879" lon="5.62181">
        <ele>326</ele>
        <time>2018-06-10T15:57:44Z</time>
      </trkpt>
      <trkpt lat="45.73884" lon="5.62181">
        <ele>326</ele>
        <time>2018-06-10T15:57:44Z</time>
      </trkpt>
      <trkpt lat="45.73889" lon="5.62181">
        <ele>326</ele>
        <time>2018-06-10T15:58:00Z</time>
      </trkpt>
      <trkpt lat="45.73895" lon="5.62183">
        <ele>326</ele>
        <time>2018-06-10T15:58:00Z</time>
      </trkpt>
      <trkpt lat="45.73901" lon="5.62185">
        <ele>326</ele>
        <time>2018-06-10T15:58:00Z</time>
      </trkpt>
      <trkpt lat="45.73907" lon="5.62185">
        <ele>326</ele>
        <time>2018-06-10T15:58:00Z</time>
      </trkpt>
      <trkpt lat="45.7391" lon="5.62186">
        <ele>326</ele>
        <time>2018-06-10T15:58:16Z</time>
      </trkpt>
      <trkpt lat="45.73915" lon="5.62185">
        <ele>326</ele>
        <time>2018-06-10T15:58:16Z</time>
      </trkpt>
      <trkpt lat="45.7392" lon="5.62184">
        <ele>326</ele>
        <time>2018-06-10T15:58:16Z</time>
      </trkpt>
      <trkpt lat="45.73926" lon="5.62183">
        <ele>326</ele>
        <time>2018-06-10T15:58:16Z</time>
      </trkpt>
      <trkpt lat="45.73934" lon="5.62183">
        <ele>326</ele>
        <time>2018-06-10T15:58:32Z</time>
      </trkpt>
      <trkpt lat="45.7394" lon="5.62184">
        <ele>326</ele>
        <time>2018-06-10T15:58:32Z</time>
      </trkpt>
      <trkpt lat="45.73945" lon="5.62184">
        <ele>326</ele>
        <time>2018-06-10T15:58:32Z</time>
      </trkpt>
      <trkpt lat="45.73949" lon="5.62182">
        <ele>326</ele>
        <time>2018-06-10T15:58:32Z</time>
      </trkpt>
      <trkpt lat="45.73954" lon="5.62183">
        <ele>326</ele>
        <time>2018-06-10T15:58:48Z</time>
      </trkpt>
      <trkpt lat="45.73959" lon="5.62185">
        <ele>328</ele>
        <time>2018-06-10T15:58:48Z</time>
      </trkpt>
      <trkpt lat="45.73964" lon="5.62185">
        <ele>328</ele>
        <time>2018-06-10T15:58:48Z</time>
      </trkpt>
      <trkpt lat="45.73971" lon="5.62184">
        <ele>328</ele>
        <time>2018-06-10T15:58:48Z</time>
      </trkpt>
      <trkpt lat="45.73977" lon="5.62183">
        <ele>328</ele>
        <time>2018-06-10T15:59:04Z</time>
      </trkpt>
      <trkpt lat="45.73982" lon="5.62184">
        <ele>328</ele>
        <time>2018-06-10T15:59:04Z</time>
      </trkpt>
      <trkpt lat="45.73988" lon="5.62184">
        <ele>328</ele>
        <time>2018-06-10T15:59:04Z</time>
      </trkpt>
      <trkpt lat="45.73995" lon="5.62182">
        <ele>328</ele>
        <time>2018-06-10T15:59:04Z</time>
      </trkpt>
      <trkpt lat="45.74002" lon="5.6218">
        <ele>328</ele>
        <time>2018-06-10T15:59:20Z</time>
      </trkpt>
      <trkpt lat="45.74008" lon="5.6218">
        <ele>328</ele>
        <time>2018-06-10T15:59:20Z</time>
      </trkpt>
      <trkpt lat="45.74013" lon="5.62181">
        <ele>328</ele>
        <time>2018-06-10T15:59:20Z</time>
      </trkpt>
      <trkpt lat="45.74016" lon="5.62187">
        <ele>328</ele>
        <time>2018-06-10T15:59:20Z</time>
      </trkpt>
      <trkpt lat="45.74013" lon="5.62198">
        <ele>328</ele>
        <time>2018-06-10T15:59:36Z</time>
      </trkpt>
      <trkpt lat="45.74012" lon="5.62206">
        <ele>328</ele>
        <time>2018-06-10T15:59:36Z</time>
      </trkpt>
      <trkpt lat="45.74011" lon="5.62214">
        <ele>326</ele>
        <time>2018-06-10T15:59:36Z</time>
      </trkpt>
      <trkpt lat="45.74012" lon="5.6222">
        <ele>326</ele>
        <time>2018-06-10T15:59:36Z</time>
      </trkpt>
      <trkpt lat="45.74013" lon="5.62225">
        <ele>326</ele>
        <time>2018-06-10T15:59:52Z</time>
      </trkpt>
      <trkpt lat="45.74012" lon="5.62231">
        <ele>326</ele>
        <time>2018-06-10T15:59:52Z</time>
      </trkpt>
      <trkpt lat="45.74012" lon="5.6224">
        <ele>326</ele>
        <time>2018-06-10T15:59:52Z</time>
      </trkpt>
      <trkpt lat="45.74011" lon="5.62249">
        <ele>326</ele>
        <time>2018-06-10T15:59:52Z</time>
      </trkpt>
      <trkpt lat="45.74011" lon="5.62256">
        <ele>326</ele>
        <time>2018-06-10T16:00:08Z</time>
      </trkpt>
      <trkpt lat="45.7401" lon="5.62263">
        <ele>326</ele>
        <time>2018-06-10T16:00:08Z</time>
      </trkpt>
      <trkpt lat="45.7401" lon="5.62269">
        <ele>326</ele>
        <time>2018-06-10T16:00:08Z</time>
      </trkpt>
      <trkpt lat="45.74009" lon="5.62275">
        <ele>326</ele>
        <time>2018-06-10T16:00:08Z</time>
      </trkpt>
      <trkpt lat="45.74008" lon="5.62281">
        <ele>326</ele>
        <time>2018-06-10T16:00:24Z</time>
      </trkpt>
      <trkpt lat="45.74009" lon="5.62288">
        <ele>326</ele>
        <time>2018-06-10T16:00:24Z</time>
      </trkpt>
      <trkpt lat="45.74011" lon="5.62295">
        <ele>326</ele>
        <time>2018-06-10T16:00:24Z</time>
      </trkpt>
      <trkpt lat="45.74013" lon="5.62296">
        <ele>326</ele>
        <time>2018-06-10T16:00:24Z</time>
      </trkpt>
      <trkpt lat="45.74013" lon="5.62296">
        <ele>326</ele>
        <time>2018-06-10T16:00:48Z</time>
      </trkpt>
      <trkpt lat="45.74013" lon="5.62296">
        <ele>326</ele>
        <time>2018-06-10T16:00:48Z</time>
      </trkpt>
      <trkpt lat="45.74013" lon="5.62299">
        <ele>326</ele>
        <time>2018-06-10T16:00:48Z</time>
      </trkpt>
      <trkpt lat="45.74017" lon="5.62305">
        <ele>326</ele>
        <time>2018-06-10T16:00:48Z</time>
      </trkpt>
      <trkpt lat="45.74024" lon="5.62309">
        <ele>326</ele>
        <time>2018-06-10T16:00:48Z</time>
      </trkpt>
      <trkpt lat="45.74029" lon="5.62311">
        <ele>326</ele>
        <time>2018-06-10T16:01:04Z</time>
      </trkpt>
      <trkpt lat="45.74034" lon="5.62314">
        <ele>326</ele>
        <time>2018-06-10T16:01:04Z</time>
      </trkpt>
      <trkpt lat="45.74037" lon="5.62321">
        <ele>326</ele>
        <time>2018-06-10T16:01:04Z</time>
      </trkpt>
      <trkpt lat="45.74041" lon="5.62323">
        <ele>326</ele>
        <time>2018-06-10T16:01:04Z</time>
      </trkpt>
      <trkpt lat="45.74045" lon="5.62325">
        <ele>327</ele>
        <time>2018-06-10T16:01:20Z</time>
      </trkpt>
      <trkpt lat="45.74048" lon="5.62328">
        <ele>327</ele>
        <time>2018-06-10T16:01:20Z</time>
      </trkpt>
      <trkpt lat="45.74053" lon="5.62329">
        <ele>327</ele>
        <time>2018-06-10T16:01:20Z</time>
      </trkpt>
      <trkpt lat="45.74059" lon="5.62332">
        <ele>327</ele>
        <time>2018-06-10T16:01:20Z</time>
      </trkpt>
      <trkpt lat="45.74065" lon="5.62334">
        <ele>327</ele>
        <time>2018-06-10T16:01:36Z</time>
      </trkpt>
      <trkpt lat="45.7407" lon="5.62336">
        <ele>327</ele>
        <time>2018-06-10T16:01:36Z</time>
      </trkpt>
      <trkpt lat="45.74076" lon="5.62338">
        <ele>327</ele>
        <time>2018-06-10T16:01:36Z</time>
      </trkpt>
      <trkpt lat="45.74078" lon="5.6234">
        <ele>327</ele>
        <time>2018-06-10T16:01:36Z</time>
      </trkpt>
      <trkpt lat="45.7408" lon="5.6234">
        <ele>327</ele>
        <time>2018-06-10T16:01:52Z</time>
      </trkpt>
      <trkpt lat="45.74084" lon="5.62342">
        <ele>327</ele>
        <time>2018-06-10T16:01:52Z</time>
      </trkpt>
      <trkpt lat="45.74088" lon="5.62344">
        <ele>327</ele>
        <time>2018-06-10T16:01:52Z</time>
      </trkpt>
      <trkpt lat="45.74093" lon="5.6235">
        <ele>327</ele>
        <time>2018-06-10T16:01:52Z</time>
      </trkpt>
      <trkpt lat="45.74103" lon="5.62353">
        <ele>327</ele>
        <time>2018-06-10T16:02:08Z</time>
      </trkpt>
      <trkpt lat="45.74109" lon="5.62356">
        <ele>327</ele>
        <time>2018-06-10T16:02:08Z</time>
      </trkpt>
      <trkpt lat="45.74111" lon="5.62357">
        <ele>327</ele>
        <time>2018-06-10T16:02:08Z</time>
      </trkpt>
      <trkpt lat="45.74119" lon="5.62354">
        <ele>327</ele>
        <time>2018-06-10T16:02:08Z</time>
      </trkpt>
      <trkpt lat="45.74127" lon="5.62353">
        <ele>328</ele>
        <time>2018-06-10T16:02:24Z</time>
      </trkpt>
      <trkpt lat="45.74134" lon="5.62353">
        <ele>328</ele>
        <time>2018-06-10T16:02:24Z</time>
      </trkpt>
      <trkpt lat="45.7414" lon="5.62354">
        <ele>328</ele>
        <time>2018-06-10T16:02:24Z</time>
      </trkpt>
      <trkpt lat="45.74146" lon="5.62356">
        <ele>328</ele>
        <time>2018-06-10T16:02:24Z</time>
      </trkpt>
      <trkpt lat="45.74151" lon="5.62357">
        <ele>328</ele>
        <time>2018-06-10T16:02:40Z</time>
      </trkpt>
      <trkpt lat="45.74155" lon="5.62358">
        <ele>328</ele>
        <time>2018-06-10T16:02:40Z</time>
      </trkpt>
      <trkpt lat="45.7416" lon="5.62359">
        <ele>328</ele>
        <time>2018-06-10T16:02:40Z</time>
      </trkpt>
      <trkpt lat="45.74165" lon="5.62359">
        <ele>328</ele>
        <time>2018-06-10T16:02:40Z</time>
      </trkpt>
      <trkpt lat="45.74171" lon="5.62359">
        <ele>328</ele>
        <time>2018-06-10T16:02:56Z</time>
      </trkpt>
      <trkpt lat="45.74184" lon="5.62351">
        <ele>328</ele>
        <time>2018-06-10T16:02:56Z</time>
      </trkpt>
      <trkpt lat="45.74205" lon="5.62338">
        <ele>328</ele>
        <time>2018-06-10T16:02:56Z</time>
      </trkpt>
      <trkpt lat="45.74224" lon="5.62336">
        <ele>331</ele>
        <time>2018-06-10T16:02:56Z</time>
      </trkpt>
      <trkpt lat="45.74245" lon="5.62332">
        <ele>331</ele>
        <time>2018-06-10T16:03:12Z</time>
      </trkpt>
      <trkpt lat="45.74266" lon="5.62329">
        <ele>331</ele>
        <time>2018-06-10T16:03:12Z</time>
      </trkpt>
      <trkpt lat="45.74283" lon="5.62332">
        <ele>331</ele>
        <time>2018-06-10T16:03:12Z</time>
      </trkpt>
      <trkpt lat="45.74294" lon="5.62334">
        <ele>330</ele>
        <time>2018-06-10T16:03:12Z</time>
      </trkpt>
      <trkpt lat="45.74301" lon="5.62337">
        <ele>330</ele>
        <time>2018-06-10T16:03:28Z</time>
      </trkpt>
      <trkpt lat="45.74308" lon="5.62339">
        <ele>330</ele>
        <time>2018-06-10T16:03:28Z</time>
      </trkpt>
      <trkpt lat="45.74311" lon="5.62341">
        <ele>330</ele>
        <time>2018-06-10T16:03:28Z</time>
      </trkpt>
      <trkpt lat="45.74318" lon="5.62343">
        <ele>330</ele>
        <time>2018-06-10T16:03:28Z</time>
      </trkpt>
      <trkpt lat="45.74323" lon="5.62346">
        <ele>330</ele>
        <time>2018-06-10T16:03:44Z</time>
      </trkpt>
      <trkpt lat="45.7433" lon="5.62348">
        <ele>330</ele>
        <time>2018-06-10T16:03:44Z</time>
      </trkpt>
      <trkpt lat="45.74337" lon="5.6235">
        <ele>330</ele>
        <time>2018-06-10T16:03:44Z</time>
      </trkpt>
      <trkpt lat="45.74343" lon="5.62349">
        <ele>330</ele>
        <time>2018-06-10T16:03:44Z</time>
      </trkpt>
      <trkpt lat="45.74349" lon="5.6235">
        <ele>330</ele>
        <time>2018-06-10T16:04:04Z</time>
      </trkpt>
      <trkpt lat="45.74353" lon="5.62355">
        <ele>330</ele>
        <time>2018-06-10T16:04:04Z</time>
      </trkpt>
      <trkpt lat="45.74353" lon="5.62359">
        <ele>330</ele>
        <time>2018-06-10T16:04:04Z</time>
      </trkpt>
      <trkpt lat="45.74352" lon="5.62361">
        <ele>330</ele>
        <time>2018-06-10T16:04:04Z</time>
      </trkpt>
      <trkpt lat="45.74353" lon="5.62366">
        <ele>330</ele>
        <time>2018-06-10T16:04:04Z</time>
      </trkpt>
      <trkpt lat="45.74353" lon="5.62371">
        <ele>330</ele>
        <time>2018-06-10T16:04:20Z</time>
      </trkpt>
      <trkpt lat="45.74355" lon="5.62372">
        <ele>330</ele>
        <time>2018-06-10T16:04:20Z</time>
      </trkpt>
      <trkpt lat="45.74362" lon="5.6237">
        <ele>330</ele>
        <time>2018-06-10T16:04:20Z</time>
      </trkpt>
      <trkpt lat="45.74377" lon="5.62366">
        <ele>332</ele>
        <time>2018-06-10T16:04:20Z</time>
      </trkpt>
      <trkpt lat="45.74395" lon="5.62361">
        <ele>332</ele>
        <time>2018-06-10T16:04:36Z</time>
      </trkpt>
      <trkpt lat="45.74408" lon="5.62362">
        <ele>332</ele>
        <time>2018-06-10T16:04:36Z</time>
      </trkpt>
      <trkpt lat="45.74431" lon="5.6236">
        <ele>332</ele>
        <time>2018-06-10T16:04:36Z</time>
      </trkpt>
      <trkpt lat="45.74449" lon="5.62358">
        <ele>332</ele>
        <time>2018-06-10T16:04:36Z</time>
      </trkpt>
      <trkpt lat="45.74464" lon="5.62356">
        <ele>333</ele>
        <time>2018-06-10T16:04:52Z</time>
      </trkpt>
      <trkpt lat="45.7448" lon="5.62359">
        <ele>333</ele>
        <time>2018-06-10T16:04:52Z</time>
      </trkpt>
      <trkpt lat="45.74495" lon="5.62361">
        <ele>333</ele>
        <time>2018-06-10T16:04:52Z</time>
      </trkpt>
      <trkpt lat="45.7452" lon="5.6236">
        <ele>333</ele>
        <time>2018-06-10T16:04:52Z</time>
      </trkpt>
      <trkpt lat="45.74545" lon="5.62362">
        <ele>332</ele>
        <time>2018-06-10T16:05:08Z</time>
      </trkpt>
      <trkpt lat="45.74569" lon="5.62363">
        <ele>332</ele>
        <time>2018-06-10T16:05:08Z</time>
      </trkpt>
      <trkpt lat="45.74591" lon="5.62366">
        <ele>332</ele>
        <time>2018-06-10T16:05:08Z</time>
      </trkpt>
      <trkpt lat="45.74612" lon="5.62366">
        <ele>332</ele>
        <time>2018-06-10T16:05:08Z</time>
      </trkpt>
      <trkpt lat="45.74637" lon="5.62366">
        <ele>333</ele>
        <time>2018-06-10T16:05:24Z</time>
      </trkpt>
      <trkpt lat="45.74662" lon="5.62366">
        <ele>333</ele>
        <time>2018-06-10T16:05:24Z</time>
      </trkpt>
      <trkpt lat="45.74682" lon="5.62365">
        <ele>333</ele>
        <time>2018-06-10T16:05:24Z</time>
      </trkpt>
      <trkpt lat="45.74699" lon="5.62372">
        <ele>333</ele>
        <time>2018-06-10T16:05:24Z</time>
      </trkpt>
      <trkpt lat="45.74714" lon="5.62374">
        <ele>334</ele>
        <time>2018-06-10T16:05:40Z</time>
      </trkpt>
      <trkpt lat="45.74723" lon="5.62375">
        <ele>334</ele>
        <time>2018-06-10T16:05:40Z</time>
      </trkpt>
      <trkpt lat="45.74737" lon="5.62378">
        <ele>359</ele>
        <time>2018-06-10T16:05:40Z</time>
      </trkpt>
      <trkpt lat="45.74756" lon="5.62381">
        <ele>359</ele>
        <time>2018-06-10T16:05:40Z</time>
      </trkpt>
      <trkpt lat="45.74773" lon="5.6238">
        <ele>359</ele>
        <time>2018-06-10T16:05:56Z</time>
      </trkpt>
      <trkpt lat="45.74783" lon="5.6238">
        <ele>359</ele>
        <time>2018-06-10T16:05:56Z</time>
      </trkpt>
      <trkpt lat="45.74792" lon="5.62377">
        <ele>354</ele>
        <time>2018-06-10T16:05:56Z</time>
      </trkpt>
      <trkpt lat="45.74801" lon="5.62378">
        <ele>354</ele>
        <time>2018-06-10T16:05:56Z</time>
      </trkpt>
      <trkpt lat="45.74807" lon="5.62379">
        <ele>354</ele>
        <time>2018-06-10T16:06:12Z</time>
      </trkpt>
      <trkpt lat="45.74813" lon="5.6238">
        <ele>354</ele>
        <time>2018-06-10T16:06:12Z</time>
      </trkpt>
      <trkpt lat="45.74817" lon="5.6238">
        <ele>354</ele>
        <time>2018-06-10T16:06:12Z</time>
      </trkpt>
      <trkpt lat="45.74821" lon="5.62382">
        <ele>354</ele>
        <time>2018-06-10T16:06:12Z</time>
      </trkpt>
      <trkpt lat="45.74823" lon="5.62383">
        <ele>354</ele>
        <time>2018-06-10T16:06:28Z</time>
      </trkpt>
      <trkpt lat="45.74829" lon="5.62384">
        <ele>354</ele>
        <time>2018-06-10T16:06:28Z</time>
      </trkpt>
      <trkpt lat="45.74834" lon="5.62387">
        <ele>354</ele>
        <time>2018-06-10T16:06:28Z</time>
      </trkpt>
      <trkpt lat="45.7484" lon="5.62386">
        <ele>354</ele>
        <time>2018-06-10T16:06:28Z</time>
      </trkpt>
      <trkpt lat="45.74845" lon="5.62385">
        <ele>354</ele>
        <time>2018-06-10T16:06:44Z</time>
      </trkpt>
      <trkpt lat="45.74857" lon="5.62389">
        <ele>354</ele>
        <time>2018-06-10T16:06:44Z</time>
      </trkpt>
      <trkpt lat="45.74864" lon="5.62388">
        <ele>354</ele>
        <time>2018-06-10T16:06:44Z</time>
      </trkpt>
      <trkpt lat="45.74872" lon="5.62387">
        <ele>354</ele>
        <time>2018-06-10T16:06:44Z</time>
      </trkpt>
      <trkpt lat="45.74877" lon="5.62388">
        <ele>351</ele>
        <time>2018-06-10T16:07:00Z</time>
      </trkpt>
      <trkpt lat="45.74884" lon="5.62391">
        <ele>351</ele>
        <time>2018-06-10T16:07:00Z</time>
      </trkpt>
      <trkpt lat="45.7489" lon="5.62391">
        <ele>351</ele>
        <time>2018-06-10T16:07:00Z</time>
      </trkpt>
      <trkpt lat="45.74896" lon="5.6239">
        <ele>351</ele>
        <time>2018-06-10T16:07:00Z</time>
      </trkpt>
      <trkpt lat="45.74906" lon="5.62387">
        <ele>351</ele>
        <time>2018-06-10T16:07:16Z</time>
      </trkpt>
      <trkpt lat="45.74921" lon="5.62384">
        <ele>351</ele>
        <time>2018-06-10T16:07:16Z</time>
      </trkpt>
      <trkpt lat="45.74936" lon="5.62385">
        <ele>351</ele>
        <time>2018-06-10T16:07:16Z</time>
      </trkpt>
      <trkpt lat="45.74953" lon="5.62387">
        <ele>351</ele>
        <time>2018-06-10T16:07:16Z</time>
      </trkpt>
      <trkpt lat="45.74976" lon="5.6239">
        <ele>351</ele>
        <time>2018-06-10T16:07:32Z</time>
      </trkpt>
      <trkpt lat="45.75001" lon="5.62391">
        <ele>351</ele>
        <time>2018-06-10T16:07:32Z</time>
      </trkpt>
      <trkpt lat="45.75022" lon="5.62392">
        <ele>351</ele>
        <time>2018-06-10T16:07:32Z</time>
      </trkpt>
      <trkpt lat="45.75037" lon="5.62392">
        <ele>351</ele>
        <time>2018-06-10T16:07:32Z</time>
      </trkpt>
      <trkpt lat="45.75052" lon="5.62391">
        <ele>355</ele>
        <time>2018-06-10T16:07:48Z</time>
      </trkpt>
      <trkpt lat="45.75068" lon="5.62392">
        <ele>355</ele>
        <time>2018-06-10T16:07:48Z</time>
      </trkpt>
      <trkpt lat="45.75091" lon="5.62393">
        <ele>355</ele>
        <time>2018-06-10T16:07:48Z</time>
      </trkpt>
      <trkpt lat="45.75121" lon="5.62392">
        <ele>355</ele>
        <time>2018-06-10T16:07:48Z</time>
      </trkpt>
      <trkpt lat="45.75141" lon="5.62394">
        <ele>353</ele>
        <time>2018-06-10T16:08:04Z</time>
      </trkpt>
      <trkpt lat="45.75166" lon="5.62392">
        <ele>353</ele>
        <time>2018-06-10T16:08:04Z</time>
      </trkpt>
      <trkpt lat="45.75185" lon="5.62397">
        <ele>353</ele>
        <time>2018-06-10T16:08:04Z</time>
      </trkpt>
      <trkpt lat="45.75208" lon="5.62395">
        <ele>353</ele>
        <time>2018-06-10T16:08:04Z</time>
      </trkpt>
      <trkpt lat="45.7523" lon="5.62395">
        <ele>354</ele>
        <time>2018-06-10T16:08:20Z</time>
      </trkpt>
      <trkpt lat="45.75247" lon="5.62396">
        <ele>354</ele>
        <time>2018-06-10T16:08:20Z</time>
      </trkpt>
      <trkpt lat="45.75267" lon="5.62397">
        <ele>354</ele>
        <time>2018-06-10T16:08:20Z</time>
      </trkpt>
      <trkpt lat="45.75294" lon="5.62404">
        <ele>353</ele>
        <time>2018-06-10T16:08:20Z</time>
      </trkpt>
      <trkpt lat="45.75313" lon="5.62406">
        <ele>353</ele>
        <time>2018-06-10T16:08:36Z</time>
      </trkpt>
      <trkpt lat="45.75331" lon="5.62409">
        <ele>353</ele>
        <time>2018-06-10T16:08:36Z</time>
      </trkpt>
      <trkpt lat="45.7535" lon="5.62415">
        <ele>353</ele>
        <time>2018-06-10T16:08:36Z</time>
      </trkpt>
      <trkpt lat="45.75372" lon="5.62419">
        <ele>353</ele>
        <time>2018-06-10T16:08:36Z</time>
      </trkpt>
      <trkpt lat="45.75393" lon="5.62421">
        <ele>351</ele>
        <time>2018-06-10T16:08:52Z</time>
      </trkpt>
      <trkpt lat="45.75416" lon="5.62416">
        <ele>351</ele>
        <time>2018-06-10T16:08:52Z</time>
      </trkpt>
      <trkpt lat="45.75439" lon="5.62421">
        <ele>351</ele>
        <time>2018-06-10T16:08:52Z</time>
      </trkpt>
      <trkpt lat="45.75459" lon="5.62428">
        <ele>345</ele>
        <time>2018-06-10T16:08:52Z</time>
      </trkpt>
      <trkpt lat="45.75477" lon="5.62438">
        <ele>345</ele>
        <time>2018-06-10T16:09:08Z</time>
      </trkpt>
      <trkpt lat="45.75488" lon="5.62448">
        <ele>345</ele>
        <time>2018-06-10T16:09:08Z</time>
      </trkpt>
      <trkpt lat="45.75509" lon="5.62454">
        <ele>345</ele>
        <time>2018-06-10T16:09:08Z</time>
      </trkpt>
      <trkpt lat="45.75537" lon="5.62459">
        <ele>363</ele>
        <time>2018-06-10T16:09:08Z</time>
      </trkpt>
      <trkpt lat="45.75565" lon="5.62464">
        <ele>353</ele>
        <time>2018-06-10T16:09:24Z</time>
      </trkpt>
      <trkpt lat="45.75584" lon="5.62467">
        <ele>353</ele>
        <time>2018-06-10T16:09:24Z</time>
      </trkpt>
      <trkpt lat="45.75604" lon="5.62471">
        <ele>353</ele>
        <time>2018-06-10T16:09:24Z</time>
      </trkpt>
      <trkpt lat="45.7563" lon="5.62479">
        <ele>351</ele>
        <time>2018-06-10T16:09:24Z</time>
      </trkpt>
      <trkpt lat="45.75655" lon="5.62478">
        <ele>351</ele>
        <time>2018-06-10T16:09:40Z</time>
      </trkpt>
      <trkpt lat="45.75686" lon="5.62473">
        <ele>351</ele>
        <time>2018-06-10T16:09:40Z</time>
      </trkpt>
      <trkpt lat="45.75713" lon="5.62472">
        <ele>356</ele>
        <time>2018-06-10T16:09:40Z</time>
      </trkpt>
      <trkpt lat="45.75735" lon="5.62472">
        <ele>356</ele>
        <time>2018-06-10T16:09:40Z</time>
      </trkpt>
      <trkpt lat="45.75751" lon="5.62478">
        <ele>356</ele>
        <time>2018-06-10T16:09:56Z</time>
      </trkpt>
      <trkpt lat="45.75757" lon="5.62477">
        <ele>356</ele>
        <time>2018-06-10T16:09:56Z</time>
      </trkpt>
      <trkpt lat="45.75764" lon="5.62478">
        <ele>356</ele>
        <time>2018-06-10T16:09:56Z</time>
      </trkpt>
      <trkpt lat="45.75773" lon="5.62478">
        <ele>356</ele>
        <time>2018-06-10T16:09:56Z</time>
      </trkpt>
      <trkpt lat="45.75784" lon="5.62477">
        <ele>356</ele>
        <time>2018-06-10T16:10:12Z</time>
      </trkpt>
      <trkpt lat="45.75793" lon="5.62479">
        <ele>357</ele>
        <time>2018-06-10T16:10:12Z</time>
      </trkpt>
      <trkpt lat="45.75801" lon="5.6248">
        <ele>357</ele>
        <time>2018-06-10T16:10:12Z</time>
      </trkpt>
      <trkpt lat="45.75805" lon="5.62482">
        <ele>357</ele>
        <time>2018-06-10T16:10:12Z</time>
      </trkpt>
      <trkpt lat="45.7581" lon="5.62483">
        <ele>357</ele>
        <time>2018-06-10T16:10:28Z</time>
      </trkpt>
      <trkpt lat="45.75815" lon="5.62486">
        <ele>357</ele>
        <time>2018-06-10T16:10:28Z</time>
      </trkpt>
      <trkpt lat="45.75822" lon="5.62488">
        <ele>357</ele>
        <time>2018-06-10T16:10:28Z</time>
      </trkpt>
      <trkpt lat="45.75828" lon="5.62488">
        <ele>357</ele>
        <time>2018-06-10T16:10:28Z</time>
      </trkpt>
      <trkpt lat="45.75835" lon="5.62486">
        <ele>357</ele>
        <time>2018-06-10T16:10:44Z</time>
      </trkpt>
      <trkpt lat="45.75843" lon="5.62488">
        <ele>357</ele>
        <time>2018-06-10T16:10:44Z</time>
      </trkpt>
      <trkpt lat="45.75858" lon="5.62503">
        <ele>357</ele>
        <time>2018-06-10T16:10:44Z</time>
      </trkpt>
      <trkpt lat="45.75876" lon="5.62512">
        <ele>349</ele>
        <time>2018-06-10T16:10:44Z</time>
      </trkpt>
      <trkpt lat="45.75891" lon="5.62523">
        <ele>349</ele>
        <time>2018-06-10T16:11:00Z</time>
      </trkpt>
      <trkpt lat="45.75909" lon="5.6253">
        <ele>349</ele>
        <time>2018-06-10T16:11:00Z</time>
      </trkpt>
      <trkpt lat="45.75932" lon="5.62533">
        <ele>349</ele>
        <time>2018-06-10T16:11:00Z</time>
      </trkpt>
      <trkpt lat="45.75958" lon="5.62532">
        <ele>347</ele>
        <time>2018-06-10T16:11:00Z</time>
      </trkpt>
      <trkpt lat="45.7598" lon="5.62536">
        <ele>347</ele>
        <time>2018-06-10T16:11:16Z</time>
      </trkpt>
      <trkpt lat="45.76001" lon="5.62547">
        <ele>358</ele>
        <time>2018-06-10T16:11:16Z</time>
      </trkpt>
      <trkpt lat="45.76025" lon="5.62563">
        <ele>358</ele>
        <time>2018-06-10T16:11:16Z</time>
      </trkpt>
      <trkpt lat="45.76041" lon="5.62581">
        <ele>358</ele>
        <time>2018-06-10T16:11:16Z</time>
      </trkpt>
      <trkpt lat="45.76047" lon="5.62586">
        <ele>351</ele>
        <time>2018-06-10T16:11:32Z</time>
      </trkpt>
      <trkpt lat="45.76052" lon="5.62591">
        <ele>351</ele>
        <time>2018-06-10T16:11:32Z</time>
      </trkpt>
      <trkpt lat="45.76061" lon="5.62596">
        <ele>351</ele>
        <time>2018-06-10T16:11:32Z</time>
      </trkpt>
      <trkpt lat="45.76071" lon="5.626">
        <ele>351</ele>
        <time>2018-06-10T16:11:32Z</time>
      </trkpt>
      <trkpt lat="45.76076" lon="5.62602">
        <ele>351</ele>
        <time>2018-06-10T16:11:48Z</time>
      </trkpt>
      <trkpt lat="45.76081" lon="5.62608">
        <ele>351</ele>
        <time>2018-06-10T16:11:48Z</time>
      </trkpt>
      <trkpt lat="45.76084" lon="5.62616">
        <ele>351</ele>
        <time>2018-06-10T16:11:48Z</time>
      </trkpt>
      <trkpt lat="45.76088" lon="5.62619">
        <ele>351</ele>
        <time>2018-06-10T16:11:48Z</time>
      </trkpt>
      <trkpt lat="45.76093" lon="5.62623">
        <ele>351</ele>
        <time>2018-06-10T16:12:04Z</time>
      </trkpt>
      <trkpt lat="45.76097" lon="5.62628">
        <ele>358</ele>
        <time>2018-06-10T16:12:04Z</time>
      </trkpt>
      <trkpt lat="45.76098" lon="5.62631">
        <ele>358</ele>
        <time>2018-06-10T16:12:04Z</time>
      </trkpt>
      <trkpt lat="45.76102" lon="5.62633">
        <ele>358</ele>
        <time>2018-06-10T16:12:04Z</time>
      </trkpt>
      <trkpt lat="45.76105" lon="5.62639">
        <ele>358</ele>
        <time>2018-06-10T16:12:20Z</time>
      </trkpt>
      <trkpt lat="45.76113" lon="5.62645">
        <ele>358</ele>
        <time>2018-06-10T16:12:20Z</time>
      </trkpt>
      <trkpt lat="45.76117" lon="5.62649">
        <ele>358</ele>
        <time>2018-06-10T16:12:20Z</time>
      </trkpt>
      <trkpt lat="45.76124" lon="5.62655">
        <ele>358</ele>
        <time>2018-06-10T16:12:20Z</time>
      </trkpt>
      <trkpt lat="45.76128" lon="5.62661">
        <ele>350</ele>
        <time>2018-06-10T16:12:36Z</time>
      </trkpt>
      <trkpt lat="45.76134" lon="5.62666">
        <ele>350</ele>
        <time>2018-06-10T16:12:36Z</time>
      </trkpt>
      <trkpt lat="45.7614" lon="5.62671">
        <ele>350</ele>
        <time>2018-06-10T16:12:36Z</time>
      </trkpt>
      <trkpt lat="45.76145" lon="5.62675">
        <ele>350</ele>
        <time>2018-06-10T16:12:36Z</time>
      </trkpt>
      <trkpt lat="45.76151" lon="5.6268">
        <ele>350</ele>
        <time>2018-06-10T16:12:52Z</time>
      </trkpt>
      <trkpt lat="45.76155" lon="5.62688">
        <ele>350</ele>
        <time>2018-06-10T16:12:52Z</time>
      </trkpt>
      <trkpt lat="45.76161" lon="5.62694">
        <ele>350</ele>
        <time>2018-06-10T16:12:52Z</time>
      </trkpt>
      <trkpt lat="45.76164" lon="5.62698">
        <ele>350</ele>
        <time>2018-06-10T16:12:52Z</time>
      </trkpt>
      <trkpt lat="45.76167" lon="5.62701">
        <ele>350</ele>
        <time>2018-06-10T16:13:36Z</time>
      </trkpt>
      <trkpt lat="45.76169" lon="5.62706">
        <ele>350</ele>
        <time>2018-06-10T16:13:36Z</time>
      </trkpt>
      <trkpt lat="45.76171" lon="5.62713">
        <ele>356</ele>
        <time>2018-06-10T16:13:36Z</time>
      </trkpt>
      <trkpt lat="45.76171" lon="5.6272">
        <ele>356</ele>
        <time>2018-06-10T16:13:36Z</time>
      </trkpt>
      <trkpt lat="45.76172" lon="5.62728">
        <ele>356</ele>
        <time>2018-06-10T16:13:36Z</time>
      </trkpt>
      <trkpt lat="45.76175" lon="5.62736">
        <ele>356</ele>
        <time>2018-06-10T16:13:52Z</time>
      </trkpt>
      <trkpt lat="45.76178" lon="5.62743">
        <ele>356</ele>
        <time>2018-06-10T16:13:52Z</time>
      </trkpt>
      <trkpt lat="45.76182" lon="5.62748">
        <ele>356</ele>
        <time>2018-06-10T16:13:52Z</time>
      </trkpt>
      <trkpt lat="45.76186" lon="5.62752">
        <ele>356</ele>
        <time>2018-06-10T16:13:52Z</time>
      </trkpt>
      <trkpt lat="45.76193" lon="5.62758">
        <ele>356</ele>
        <time>2018-06-10T16:14:08Z</time>
      </trkpt>
      <trkpt lat="45.76199" lon="5.62759">
        <ele>356</ele>
        <time>2018-06-10T16:14:08Z</time>
      </trkpt>
      <trkpt lat="45.76204" lon="5.62762">
        <ele>356</ele>
        <time>2018-06-10T16:14:08Z</time>
      </trkpt>
      <trkpt lat="45.76208" lon="5.62766">
        <ele>356</ele>
        <time>2018-06-10T16:14:08Z</time>
      </trkpt>
      <trkpt lat="45.76213" lon="5.62769">
        <ele>349</ele>
        <time>2018-06-10T16:14:24Z</time>
      </trkpt>
      <trkpt lat="45.76218" lon="5.62771">
        <ele>349</ele>
        <time>2018-06-10T16:14:24Z</time>
      </trkpt>
      <trkpt lat="45.76222" lon="5.62774">
        <ele>349</ele>
        <time>2018-06-10T16:14:24Z</time>
      </trkpt>
      <trkpt lat="45.76226" lon="5.62778">
        <ele>349</ele>
        <time>2018-06-10T16:14:24Z</time>
      </trkpt>
      <trkpt lat="45.76231" lon="5.62783">
        <ele>349</ele>
        <time>2018-06-10T16:14:40Z</time>
      </trkpt>
      <trkpt lat="45.76236" lon="5.62788">
        <ele>349</ele>
        <time>2018-06-10T16:14:40Z</time>
      </trkpt>
      <trkpt lat="45.76241" lon="5.62791">
        <ele>349</ele>
        <time>2018-06-10T16:14:40Z</time>
      </trkpt>
      <trkpt lat="45.76247" lon="5.62798">
        <ele>352</ele>
        <time>2018-06-10T16:14:40Z</time>
      </trkpt>
      <trkpt lat="45.76247" lon="5.62801">
        <ele>352</ele>
        <time>2018-06-10T16:14:56Z</time>
      </trkpt>
      <trkpt lat="45.7625" lon="5.62809">
        <ele>352</ele>
        <time>2018-06-10T16:14:56Z</time>
      </trkpt>
      <trkpt lat="45.76253" lon="5.62818">
        <ele>352</ele>
        <time>2018-06-10T16:14:56Z</time>
      </trkpt>
      <trkpt lat="45.76256" lon="5.62826">
        <ele>352</ele>
        <time>2018-06-10T16:14:56Z</time>
      </trkpt>
      <trkpt lat="45.76257" lon="5.62834">
        <ele>352</ele>
        <time>2018-06-10T16:15:12Z</time>
      </trkpt>
      <trkpt lat="45.76258" lon="5.62842">
        <ele>352</ele>
        <time>2018-06-10T16:15:12Z</time>
      </trkpt>
      <trkpt lat="45.7626" lon="5.62851">
        <ele>352</ele>
        <time>2018-06-10T16:15:12Z</time>
      </trkpt>
      <trkpt lat="45.7626" lon="5.62861">
        <ele>352</ele>
        <time>2018-06-10T16:15:12Z</time>
      </trkpt>
      <trkpt lat="45.76258" lon="5.6287">
        <ele>352</ele>
        <time>2018-06-10T16:15:28Z</time>
      </trkpt>
      <trkpt lat="45.76253" lon="5.62876">
        <ele>350</ele>
        <time>2018-06-10T16:15:28Z</time>
      </trkpt>
      <trkpt lat="45.76249" lon="5.62877">
        <ele>350</ele>
        <time>2018-06-10T16:15:28Z</time>
      </trkpt>
      <trkpt lat="45.76244" lon="5.62878">
        <ele>350</ele>
        <time>2018-06-10T16:15:28Z</time>
      </trkpt>
      <trkpt lat="45.76239" lon="5.62879">
        <ele>350</ele>
        <time>2018-06-10T16:15:44Z</time>
      </trkpt>
      <trkpt lat="45.76233" lon="5.62882">
        <ele>350</ele>
        <time>2018-06-10T16:15:44Z</time>
      </trkpt>
      <trkpt lat="45.76227" lon="5.62886">
        <ele>350</ele>
        <time>2018-06-10T16:15:44Z</time>
      </trkpt>
      <trkpt lat="45.76223" lon="5.62889">
        <ele>350</ele>
        <time>2018-06-10T16:15:44Z</time>
      </trkpt>
      <trkpt lat="45.7622" lon="5.62891">
        <ele>350</ele>
        <time>2018-06-10T16:16:00Z</time>
      </trkpt>
      <trkpt lat="45.76215" lon="5.62895">
        <ele>350</ele>
        <time>2018-06-10T16:16:00Z</time>
      </trkpt>
      <trkpt lat="45.7621" lon="5.62898">
        <ele>350</ele>
        <time>2018-06-10T16:16:00Z</time>
      </trkpt>
      <trkpt lat="45.76206" lon="5.62902">
        <ele>354</ele>
        <time>2018-06-10T16:16:00Z</time>
      </trkpt>
      <trkpt lat="45.76202" lon="5.62906">
        <ele>354</ele>
        <time>2018-06-10T16:16:16Z</time>
      </trkpt>
      <trkpt lat="45.76197" lon="5.62912">
        <ele>354</ele>
        <time>2018-06-10T16:16:16Z</time>
      </trkpt>
      <trkpt lat="45.76192" lon="5.6292">
        <ele>354</ele>
        <time>2018-06-10T16:16:16Z</time>
      </trkpt>
      <trkpt lat="45.76185" lon="5.62924">
        <ele>354</ele>
        <time>2018-06-10T16:16:16Z</time>
      </trkpt>
      <trkpt lat="45.7618" lon="5.62928">
        <ele>354</ele>
        <time>2018-06-10T16:16:32Z</time>
      </trkpt>
      <trkpt lat="45.76177" lon="5.62936">
        <ele>354</ele>
        <time>2018-06-10T16:16:32Z</time>
      </trkpt>
      <trkpt lat="45.76174" lon="5.62944">
        <ele>354</ele>
        <time>2018-06-10T16:16:32Z</time>
      </trkpt>
      <trkpt lat="45.76173" lon="5.62947">
        <ele>354</ele>
        <time>2018-06-10T16:16:32Z</time>
      </trkpt>
      <trkpt lat="45.76169" lon="5.62956">
        <ele>354</ele>
        <time>2018-06-10T16:16:48Z</time>
      </trkpt>
      <trkpt lat="45.76164" lon="5.62962">
        <ele>352</ele>
        <time>2018-06-10T16:16:48Z</time>
      </trkpt>
      <trkpt lat="45.76161" lon="5.62971">
        <ele>352</ele>
        <time>2018-06-10T16:16:48Z</time>
      </trkpt>
      <trkpt lat="45.76161" lon="5.62978">
        <ele>352</ele>
        <time>2018-06-10T16:16:48Z</time>
      </trkpt>
      <trkpt lat="45.76162" lon="5.62982">
        <ele>352</ele>
        <time>2018-06-10T16:17:04Z</time>
      </trkpt>
      <trkpt lat="45.76162" lon="5.62994">
        <ele>352</ele>
        <time>2018-06-10T16:17:04Z</time>
      </trkpt>
      <trkpt lat="45.76162" lon="5.63004">
        <ele>352</ele>
        <time>2018-06-10T16:17:04Z</time>
      </trkpt>
      <trkpt lat="45.76165" lon="5.63013">
        <ele>352</ele>
        <time>2018-06-10T16:17:04Z</time>
      </trkpt>
      <trkpt lat="45.76168" lon="5.63018">
        <ele>352</ele>
        <time>2018-06-10T16:17:20Z</time>
      </trkpt>
      <trkpt lat="45.76168" lon="5.63025">
        <ele>352</ele>
        <time>2018-06-10T16:17:20Z</time>
      </trkpt>
      <trkpt lat="45.76162" lon="5.63044">
        <ele>359</ele>
        <time>2018-06-10T16:17:20Z</time>
      </trkpt>
      <trkpt lat="45.76162" lon="5.63056">
        <ele>359</ele>
        <time>2018-06-10T16:17:20Z</time>
      </trkpt>
      <trkpt lat="45.76164" lon="5.63064">
        <ele>359</ele>
        <time>2018-06-10T16:17:36Z</time>
      </trkpt>
      <trkpt lat="45.76163" lon="5.63069">
        <ele>359</ele>
        <time>2018-06-10T16:17:36Z</time>
      </trkpt>
      <trkpt lat="45.76165" lon="5.63073">
        <ele>359</ele>
        <time>2018-06-10T16:17:36Z</time>
      </trkpt>
      <trkpt lat="45.76166" lon="5.63081">
        <ele>359</ele>
        <time>2018-06-10T16:17:36Z</time>
      </trkpt>
      <trkpt lat="45.76167" lon="5.6309">
        <ele>359</ele>
        <time>2018-06-10T16:17:52Z</time>
      </trkpt>
      <trkpt lat="45.76168" lon="5.63095">
        <ele>359</ele>
        <time>2018-06-10T16:17:52Z</time>
      </trkpt>
      <trkpt lat="45.7617" lon="5.63102">
        <ele>359</ele>
        <time>2018-06-10T16:17:52Z</time>
      </trkpt>
      <trkpt lat="45.76174" lon="5.6311">
        <ele>359</ele>
        <time>2018-06-10T16:17:52Z</time>
      </trkpt>
      <trkpt lat="45.7618" lon="5.63113">
        <ele>359</ele>
        <time>2018-06-10T16:18:08Z</time>
      </trkpt>
      <trkpt lat="45.76184" lon="5.63113">
        <ele>359</ele>
        <time>2018-06-10T16:18:08Z</time>
      </trkpt>
      <trkpt lat="45.76187" lon="5.63114">
        <ele>359</ele>
        <time>2018-06-10T16:18:08Z</time>
      </trkpt>
      <trkpt lat="45.76189" lon="5.63113">
        <ele>359</ele>
        <time>2018-06-10T16:18:08Z</time>
      </trkpt>
      <trkpt lat="45.76194" lon="5.6311">
        <ele>359</ele>
        <time>2018-06-10T16:18:24Z</time>
      </trkpt>
      <trkpt lat="45.76198" lon="5.63109">
        <ele>359</ele>
        <time>2018-06-10T16:18:24Z</time>
      </trkpt>
      <trkpt lat="45.76204" lon="5.63108">
        <ele>359</ele>
        <time>2018-06-10T16:18:24Z</time>
      </trkpt>
      <trkpt lat="45.76209" lon="5.63107">
        <ele>354</ele>
        <time>2018-06-10T16:18:24Z</time>
      </trkpt>
      <trkpt lat="45.76213" lon="5.63106">
        <ele>354</ele>
        <time>2018-06-10T16:18:40Z</time>
      </trkpt>
      <trkpt lat="45.76222" lon="5.63105">
        <ele>354</ele>
        <time>2018-06-10T16:18:40Z</time>
      </trkpt>
      <trkpt lat="45.7623" lon="5.63103">
        <ele>354</ele>
        <time>2018-06-10T16:18:40Z</time>
      </trkpt>
      <trkpt lat="45.76234" lon="5.63101">
        <ele>354</ele>
        <time>2018-06-10T16:18:40Z</time>
      </trkpt>
      <trkpt lat="45.76238" lon="5.631">
        <ele>354</ele>
        <time>2018-06-10T16:18:56Z</time>
      </trkpt>
      <trkpt lat="45.76245" lon="5.63101">
        <ele>354</ele>
        <time>2018-06-10T16:18:56Z</time>
      </trkpt>
      <trkpt lat="45.76249" lon="5.63102">
        <ele>354</ele>
        <time>2018-06-10T16:18:56Z</time>
      </trkpt>
      <trkpt lat="45.76254" lon="5.63101">
        <ele>354</ele>
        <time>2018-06-10T16:18:56Z</time>
      </trkpt>
      <trkpt lat="45.76272" lon="5.6311">
        <ele>354</ele>
        <time>2018-06-10T16:19:28Z</time>
      </trkpt>
      <trkpt lat="45.76276" lon="5.63114">
        <ele>354</ele>
        <time>2018-06-10T16:19:28Z</time>
      </trkpt>
      <trkpt lat="45.7628" lon="5.63117">
        <ele>354</ele>
        <time>2018-06-10T16:19:28Z</time>
      </trkpt>
      <trkpt lat="45.76281" lon="5.63118">
        <ele>354</ele>
        <time>2018-06-10T16:19:28Z</time>
      </trkpt>
      <trkpt lat="45.76284" lon="5.63116">
        <ele>354</ele>
        <time>2018-06-10T16:19:28Z</time>
      </trkpt>
      <trkpt lat="45.76287" lon="5.63117">
        <ele>354</ele>
        <time>2018-06-10T16:19:52Z</time>
      </trkpt>
      <trkpt lat="45.76288" lon="5.63121">
        <ele>354</ele>
        <time>2018-06-10T16:19:52Z</time>
      </trkpt>
      <trkpt lat="45.76289" lon="5.6312">
        <ele>354</ele>
        <time>2018-06-10T16:19:52Z</time>
      </trkpt>
      <trkpt lat="45.76291" lon="5.63122">
        <ele>354</ele>
        <time>2018-06-10T16:19:52Z</time>
      </trkpt>
      <trkpt lat="45.76296" lon="5.63125">
        <ele>355</ele>
        <time>2018-06-10T16:19:52Z</time>
      </trkpt>
      <trkpt lat="45.76302" lon="5.63129">
        <ele>358</ele>
        <time>2018-06-10T16:20:08Z</time>
      </trkpt>
      <trkpt lat="45.76307" lon="5.63133">
        <ele>358</ele>
        <time>2018-06-10T16:20:08Z</time>
      </trkpt>
      <trkpt lat="45.76311" lon="5.63137">
        <ele>358</ele>
        <time>2018-06-10T16:20:08Z</time>
      </trkpt>
      <trkpt lat="45.76316" lon="5.63142">
        <ele>358</ele>
        <time>2018-06-10T16:20:08Z</time>
      </trkpt>
      <trkpt lat="45.76321" lon="5.63147">
        <ele>358</ele>
        <time>2018-06-10T16:20:24Z</time>
      </trkpt>
      <trkpt lat="45.76327" lon="5.63152">
        <ele>358</ele>
        <time>2018-06-10T16:20:24Z</time>
      </trkpt>
      <trkpt lat="45.76332" lon="5.63157">
        <ele>358</ele>
        <time>2018-06-10T16:20:24Z</time>
      </trkpt>
      <trkpt lat="45.76336" lon="5.63162">
        <ele>358</ele>
        <time>2018-06-10T16:20:24Z</time>
      </trkpt>
      <trkpt lat="45.76341" lon="5.63167">
        <ele>358</ele>
        <time>2018-06-10T16:20:40Z</time>
      </trkpt>
      <trkpt lat="45.76345" lon="5.63174">
        <ele>358</ele>
        <time>2018-06-10T16:20:40Z</time>
      </trkpt>
      <trkpt lat="45.76348" lon="5.6318">
        <ele>358</ele>
        <time>2018-06-10T16:20:40Z</time>
      </trkpt>
      <trkpt lat="45.76351" lon="5.63185">
        <ele>358</ele>
        <time>2018-06-10T16:20:40Z</time>
      </trkpt>
      <trkpt lat="45.76353" lon="5.63192">
        <ele>358</ele>
        <time>2018-06-10T16:20:56Z</time>
      </trkpt>
      <trkpt lat="45.76355" lon="5.63197">
        <ele>358</ele>
        <time>2018-06-10T16:20:56Z</time>
      </trkpt>
      <trkpt lat="45.76357" lon="5.63202">
        <ele>358</ele>
        <time>2018-06-10T16:20:56Z</time>
      </trkpt>
      <trkpt lat="45.76358" lon="5.63205">
        <ele>358</ele>
        <time>2018-06-10T16:20:56Z</time>
      </trkpt>
      <trkpt lat="45.7636" lon="5.63209">
        <ele>351</ele>
        <time>2018-06-10T16:21:12Z</time>
      </trkpt>
      <trkpt lat="45.76363" lon="5.63214">
        <ele>351</ele>
        <time>2018-06-10T16:21:12Z</time>
      </trkpt>
      <trkpt lat="45.76367" lon="5.63216">
        <ele>351</ele>
        <time>2018-06-10T16:21:12Z</time>
      </trkpt>
      <trkpt lat="45.76373" lon="5.63218">
        <ele>351</ele>
        <time>2018-06-10T16:21:12Z</time>
      </trkpt>
      <trkpt lat="45.76379" lon="5.63219">
        <ele>352</ele>
        <time>2018-06-10T16:21:28Z</time>
      </trkpt>
      <trkpt lat="45.76386" lon="5.63221">
        <ele>352</ele>
        <time>2018-06-10T16:21:28Z</time>
      </trkpt>
      <trkpt lat="45.76393" lon="5.63224">
        <ele>352</ele>
        <time>2018-06-10T16:21:28Z</time>
      </trkpt>
      <trkpt lat="45.76399" lon="5.63225">
        <ele>352</ele>
        <time>2018-06-10T16:21:28Z</time>
      </trkpt>
      <trkpt lat="45.76405" lon="5.63225">
        <ele>352</ele>
        <time>2018-06-10T16:21:44Z</time>
      </trkpt>
      <trkpt lat="45.76414" lon="5.63226">
        <ele>352</ele>
        <time>2018-06-10T16:21:44Z</time>
      </trkpt>
      <trkpt lat="45.7642" lon="5.63227">
        <ele>352</ele>
        <time>2018-06-10T16:21:44Z</time>
      </trkpt>
      <trkpt lat="45.76425" lon="5.63227">
        <ele>352</ele>
        <time>2018-06-10T16:21:44Z</time>
      </trkpt>
      <trkpt lat="45.76432" lon="5.63229">
        <ele>352</ele>
        <time>2018-06-10T16:22:00Z</time>
      </trkpt>
      <trkpt lat="45.76438" lon="5.63235">
        <ele>352</ele>
        <time>2018-06-10T16:22:00Z</time>
      </trkpt>
      <trkpt lat="45.76442" lon="5.63241">
        <ele>352</ele>
        <time>2018-06-10T16:22:00Z</time>
      </trkpt>
      <trkpt lat="45.76442" lon="5.63248">
        <ele>352</ele>
        <time>2018-06-10T16:22:00Z</time>
      </trkpt>
      <trkpt lat="45.76445" lon="5.63253">
        <ele>352</ele>
        <time>2018-06-10T16:22:16Z</time>
      </trkpt>
      <trkpt lat="45.76446" lon="5.63261">
        <ele>352</ele>
        <time>2018-06-10T16:22:16Z</time>
      </trkpt>
      <trkpt lat="45.76447" lon="5.63274">
        <ele>352</ele>
        <time>2018-06-10T16:22:16Z</time>
      </trkpt>
      <trkpt lat="45.76447" lon="5.63286">
        <ele>352</ele>
        <time>2018-06-10T16:22:16Z</time>
      </trkpt>
      <trkpt lat="45.76446" lon="5.63297">
        <ele>347</ele>
        <time>2018-06-10T16:22:32Z</time>
      </trkpt>
      <trkpt lat="45.76444" lon="5.63306">
        <ele>347</ele>
        <time>2018-06-10T16:22:32Z</time>
      </trkpt>
      <trkpt lat="45.76443" lon="5.63315">
        <ele>347</ele>
        <time>2018-06-10T16:22:32Z</time>
      </trkpt>
      <trkpt lat="45.76443" lon="5.63324">
        <ele>347</ele>
        <time>2018-06-10T16:22:32Z</time>
      </trkpt>
      <trkpt lat="45.76443" lon="5.63333">
        <ele>347</ele>
        <time>2018-06-10T16:22:48Z</time>
      </trkpt>
      <trkpt lat="45.76443" lon="5.63341">
        <ele>347</ele>
        <time>2018-06-10T16:22:48Z</time>
      </trkpt>
      <trkpt lat="45.76443" lon="5.6335">
        <ele>347</ele>
        <time>2018-06-10T16:22:48Z</time>
      </trkpt>
      <trkpt lat="45.76445" lon="5.63359">
        <ele>347</ele>
        <time>2018-06-10T16:22:48Z</time>
      </trkpt>
      <trkpt lat="45.76446" lon="5.63367">
        <ele>347</ele>
        <time>2018-06-10T16:23:04Z</time>
      </trkpt>
      <trkpt lat="45.76447" lon="5.63374">
        <ele>347</ele>
        <time>2018-06-10T16:23:04Z</time>
      </trkpt>
      <trkpt lat="45.76447" lon="5.63384">
        <ele>346</ele>
        <time>2018-06-10T16:23:04Z</time>
      </trkpt>
      <trkpt lat="45.76448" lon="5.63392">
        <ele>346</ele>
        <time>2018-06-10T16:23:04Z</time>
      </trkpt>
      <trkpt lat="45.76449" lon="5.634">
        <ele>346</ele>
        <time>2018-06-10T16:23:20Z</time>
      </trkpt>
      <trkpt lat="45.76449" lon="5.63408">
        <ele>346</ele>
        <time>2018-06-10T16:23:20Z</time>
      </trkpt>
      <trkpt lat="45.7645" lon="5.63418">
        <ele>346</ele>
        <time>2018-06-10T16:23:20Z</time>
      </trkpt>
      <trkpt lat="45.7645" lon="5.63426">
        <ele>346</ele>
        <time>2018-06-10T16:23:20Z</time>
      </trkpt>
      <trkpt lat="45.7645" lon="5.63433">
        <ele>346</ele>
        <time>2018-06-10T16:23:36Z</time>
      </trkpt>
      <trkpt lat="45.76451" lon="5.63441">
        <ele>346</ele>
        <time>2018-06-10T16:23:36Z</time>
      </trkpt>
      <trkpt lat="45.76449" lon="5.63449">
        <ele>346</ele>
        <time>2018-06-10T16:23:36Z</time>
      </trkpt>
      <trkpt lat="45.76446" lon="5.63456">
        <ele>346</ele>
        <time>2018-06-10T16:23:36Z</time>
      </trkpt>
      <trkpt lat="45.76442" lon="5.63463">
        <ele>347</ele>
        <time>2018-06-10T16:23:52Z</time>
      </trkpt>
      <trkpt lat="45.76438" lon="5.6347">
        <ele>347</ele>
        <time>2018-06-10T16:23:52Z</time>
      </trkpt>
      <trkpt lat="45.76434" lon="5.63477">
        <ele>347</ele>
        <time>2018-06-10T16:23:52Z</time>
      </trkpt>
      <trkpt lat="45.76428" lon="5.63483">
        <ele>347</ele>
        <time>2018-06-10T16:23:52Z</time>
      </trkpt>
      <trkpt lat="45.76423" lon="5.63488">
        <ele>347</ele>
        <time>2018-06-10T16:24:08Z</time>
      </trkpt>
      <trkpt lat="45.76419" lon="5.63492">
        <ele>347</ele>
        <time>2018-06-10T16:24:08Z</time>
      </trkpt>
      <trkpt lat="45.76414" lon="5.63497">
        <ele>347</ele>
        <time>2018-06-10T16:24:08Z</time>
      </trkpt>
      <trkpt lat="45.76409" lon="5.63502">
        <ele>347</ele>
        <time>2018-06-10T16:24:08Z</time>
      </trkpt>
      <trkpt lat="45.76405" lon="5.63507">
        <ele>347</ele>
        <time>2018-06-10T16:24:24Z</time>
      </trkpt>
      <trkpt lat="45.764" lon="5.63512">
        <ele>347</ele>
        <time>2018-06-10T16:24:24Z</time>
      </trkpt>
      <trkpt lat="45.76394" lon="5.63516">
        <ele>347</ele>
        <time>2018-06-10T16:24:24Z</time>
      </trkpt>
      <trkpt lat="45.76389" lon="5.63518">
        <ele>347</ele>
        <time>2018-06-10T16:24:24Z</time>
      </trkpt>
      <trkpt lat="45.76384" lon="5.63519">
        <ele>347</ele>
        <time>2018-06-10T16:24:40Z</time>
      </trkpt>
      <trkpt lat="45.76379" lon="5.6352">
        <ele>347</ele>
        <time>2018-06-10T16:24:40Z</time>
      </trkpt>
      <trkpt lat="45.76374" lon="5.63523">
        <ele>341</ele>
        <time>2018-06-10T16:24:40Z</time>
      </trkpt>
      <trkpt lat="45.76372" lon="5.63525">
        <ele>341</ele>
        <time>2018-06-10T16:24:40Z</time>
      </trkpt>
      <trkpt lat="45.76371" lon="5.63525">
        <ele>341</ele>
        <time>2018-06-10T16:24:56Z</time>
      </trkpt>
      <trkpt lat="45.76368" lon="5.63524">
        <ele>341</ele>
        <time>2018-06-10T16:24:56Z</time>
      </trkpt>
      <trkpt lat="45.76362" lon="5.63524">
        <ele>341</ele>
        <time>2018-06-10T16:24:56Z</time>
      </trkpt>
      <trkpt lat="45.76353" lon="5.63524">
        <ele>341</ele>
        <time>2018-06-10T16:24:56Z</time>
      </trkpt>
      <trkpt lat="45.76346" lon="5.63525">
        <ele>341</ele>
        <time>2018-06-10T16:25:12Z</time>
      </trkpt>
      <trkpt lat="45.7634" lon="5.63529">
        <ele>341</ele>
        <time>2018-06-10T16:25:12Z</time>
      </trkpt>
      <trkpt lat="45.76335" lon="5.63531">
        <ele>341</ele>
        <time>2018-06-10T16:25:12Z</time>
      </trkpt>
      <trkpt lat="45.76329" lon="5.63532">
        <ele>341</ele>
        <time>2018-06-10T16:25:12Z</time>
      </trkpt>
      <trkpt lat="45.76322" lon="5.63529">
        <ele>341</ele>
        <time>2018-06-10T16:25:28Z</time>
      </trkpt>
      <trkpt lat="45.76318" lon="5.63527">
        <ele>341</ele>
        <time>2018-06-10T16:25:28Z</time>
      </trkpt>
      <trkpt lat="45.76313" lon="5.63526">
        <ele>341</ele>
        <time>2018-06-10T16:25:28Z</time>
      </trkpt>
      <trkpt lat="45.76308" lon="5.63526">
        <ele>341</ele>
        <time>2018-06-10T16:25:28Z</time>
      </trkpt>
      <trkpt lat="45.76303" lon="5.63527">
        <ele>341</ele>
        <time>2018-06-10T16:25:44Z</time>
      </trkpt>
      <trkpt lat="45.76296" lon="5.63527">
        <ele>341</ele>
        <time>2018-06-10T16:25:44Z</time>
      </trkpt>
      <trkpt lat="45.7629" lon="5.63524">
        <ele>341</ele>
        <time>2018-06-10T16:25:44Z</time>
      </trkpt>
      <trkpt lat="45.76285" lon="5.63522">
        <ele>341</ele>
        <time>2018-06-10T16:25:44Z</time>
      </trkpt>
      <trkpt lat="45.7628" lon="5.63519">
        <ele>341</ele>
        <time>2018-06-10T16:26:00Z</time>
      </trkpt>
      <trkpt lat="45.76274" lon="5.63518">
        <ele>341</ele>
        <time>2018-06-10T16:26:00Z</time>
      </trkpt>
      <trkpt lat="45.76266" lon="5.63515">
        <ele>341</ele>
        <time>2018-06-10T16:26:00Z</time>
      </trkpt>
      <trkpt lat="45.7626" lon="5.63511">
        <ele>341</ele>
        <time>2018-06-10T16:26:00Z</time>
      </trkpt>
      <trkpt lat="45.76256" lon="5.63509">
        <ele>341</ele>
        <time>2018-06-10T16:26:16Z</time>
      </trkpt>
      <trkpt lat="45.76249" lon="5.63511">
        <ele>341</ele>
        <time>2018-06-10T16:26:16Z</time>
      </trkpt>
      <trkpt lat="45.76246" lon="5.63521">
        <ele>341</ele>
        <time>2018-06-10T16:26:16Z</time>
      </trkpt>
      <trkpt lat="45.76248" lon="5.6353">
        <ele>341</ele>
        <time>2018-06-10T16:26:16Z</time>
      </trkpt>
      <trkpt lat="45.76249" lon="5.63538">
        <ele>341</ele>
        <time>2018-06-10T16:26:32Z</time>
      </trkpt>
      <trkpt lat="45.76249" lon="5.63546">
        <ele>342</ele>
        <time>2018-06-10T16:26:32Z</time>
      </trkpt>
      <trkpt lat="45.76249" lon="5.63552">
        <ele>342</ele>
        <time>2018-06-10T16:26:32Z</time>
      </trkpt>
      <trkpt lat="45.76247" lon="5.6356">
        <ele>342</ele>
        <time>2018-06-10T16:26:32Z</time>
      </trkpt>
      <trkpt lat="45.76243" lon="5.63568">
        <ele>342</ele>
        <time>2018-06-10T16:26:48Z</time>
      </trkpt>
      <trkpt lat="45.76241" lon="5.63575">
        <ele>342</ele>
        <time>2018-06-10T16:26:48Z</time>
      </trkpt>
      <trkpt lat="45.7624" lon="5.63584">
        <ele>342</ele>
        <time>2018-06-10T16:26:48Z</time>
      </trkpt>
      <trkpt lat="45.76237" lon="5.63593">
        <ele>342</ele>
        <time>2018-06-10T16:26:48Z</time>
      </trkpt>
      <trkpt lat="45.76231" lon="5.63601">
        <ele>342</ele>
        <time>2018-06-10T16:27:04Z</time>
      </trkpt>
      <trkpt lat="45.76225" lon="5.63607">
        <ele>342</ele>
        <time>2018-06-10T16:27:04Z</time>
      </trkpt>
      <trkpt lat="45.76219" lon="5.63611">
        <ele>342</ele>
        <time>2018-06-10T16:27:04Z</time>
      </trkpt>
      <trkpt lat="45.76215" lon="5.63618">
        <ele>342</ele>
        <time>2018-06-10T16:27:04Z</time>
      </trkpt>
      <trkpt lat="45.76213" lon="5.63626">
        <ele>344</ele>
        <time>2018-06-10T16:27:20Z</time>
      </trkpt>
      <trkpt lat="45.76211" lon="5.63635">
        <ele>344</ele>
        <time>2018-06-10T16:27:20Z</time>
      </trkpt>
      <trkpt lat="45.76209" lon="5.63644">
        <ele>344</ele>
        <time>2018-06-10T16:27:20Z</time>
      </trkpt>
      <trkpt lat="45.76206" lon="5.63656">
        <ele>344</ele>
        <time>2018-06-10T16:27:20Z</time>
      </trkpt>
      <trkpt lat="45.762" lon="5.63662">
        <ele>344</ele>
        <time>2018-06-10T16:27:36Z</time>
      </trkpt>
      <trkpt lat="45.76195" lon="5.63668">
        <ele>344</ele>
        <time>2018-06-10T16:27:36Z</time>
      </trkpt>
      <trkpt lat="45.7619" lon="5.63676">
        <ele>344</ele>
        <time>2018-06-10T16:27:36Z</time>
      </trkpt>
      <trkpt lat="45.76185" lon="5.63683">
        <ele>344</ele>
        <time>2018-06-10T16:27:36Z</time>
      </trkpt>
      <trkpt lat="45.76181" lon="5.63691">
        <ele>344</ele>
        <time>2018-06-10T16:27:52Z</time>
      </trkpt>
      <trkpt lat="45.76177" lon="5.637">
        <ele>344</ele>
        <time>2018-06-10T16:27:52Z</time>
      </trkpt>
      <trkpt lat="45.76173" lon="5.6371">
        <ele>345</ele>
        <time>2018-06-10T16:27:52Z</time>
      </trkpt>
      <trkpt lat="45.76172" lon="5.6372">
        <ele>345</ele>
        <time>2018-06-10T16:27:52Z</time>
      </trkpt>
      <trkpt lat="45.7617" lon="5.63729">
        <ele>345</ele>
        <time>2018-06-10T16:28:08Z</time>
      </trkpt>
      <trkpt lat="45.76167" lon="5.63736">
        <ele>345</ele>
        <time>2018-06-10T16:28:08Z</time>
      </trkpt>
      <trkpt lat="45.76164" lon="5.63745">
        <ele>345</ele>
        <time>2018-06-10T16:28:08Z</time>
      </trkpt>
      <trkpt lat="45.76162" lon="5.63754">
        <ele>345</ele>
        <time>2018-06-10T16:28:08Z</time>
      </trkpt>
      <trkpt lat="45.76159" lon="5.63763">
        <ele>345</ele>
        <time>2018-06-10T16:28:24Z</time>
      </trkpt>
      <trkpt lat="45.76157" lon="5.63771">
        <ele>345</ele>
        <time>2018-06-10T16:28:24Z</time>
      </trkpt>
      <trkpt lat="45.76154" lon="5.63779">
        <ele>345</ele>
        <time>2018-06-10T16:28:24Z</time>
      </trkpt>
      <trkpt lat="45.76148" lon="5.63785">
        <ele>345</ele>
        <time>2018-06-10T16:28:24Z</time>
      </trkpt>
      <trkpt lat="45.76143" lon="5.63789">
        <ele>345</ele>
        <time>2018-06-10T16:28:40Z</time>
      </trkpt>
      <trkpt lat="45.76137" lon="5.63794">
        <ele>351</ele>
        <time>2018-06-10T16:28:40Z</time>
      </trkpt>
      <trkpt lat="45.76131" lon="5.63796">
        <ele>351</ele>
        <time>2018-06-10T16:28:40Z</time>
      </trkpt>
      <trkpt lat="45.76124" lon="5.63799">
        <ele>353</ele>
        <time>2018-06-10T16:28:40Z</time>
      </trkpt>
      <trkpt lat="45.76117" lon="5.63802">
        <ele>353</ele>
        <time>2018-06-10T16:28:56Z</time>
      </trkpt>
      <trkpt lat="45.7611" lon="5.63803">
        <ele>353</ele>
        <time>2018-06-10T16:28:56Z</time>
      </trkpt>
      <trkpt lat="45.76104" lon="5.63805">
        <ele>353</ele>
        <time>2018-06-10T16:28:56Z</time>
      </trkpt>
      <trkpt lat="45.76097" lon="5.63807">
        <ele>353</ele>
        <time>2018-06-10T16:28:56Z</time>
      </trkpt>
      <trkpt lat="45.76093" lon="5.6381">
        <ele>353</ele>
        <time>2018-06-10T16:29:12Z</time>
      </trkpt>
      <trkpt lat="45.76088" lon="5.63812">
        <ele>353</ele>
        <time>2018-06-10T16:29:12Z</time>
      </trkpt>
      <trkpt lat="45.76081" lon="5.63807">
        <ele>353</ele>
        <time>2018-06-10T16:29:12Z</time>
      </trkpt>
      <trkpt lat="45.76074" lon="5.63804">
        <ele>353</ele>
        <time>2018-06-10T16:29:12Z</time>
      </trkpt>
      <trkpt lat="45.76067" lon="5.63802">
        <ele>353</ele>
        <time>2018-06-10T16:29:28Z</time>
      </trkpt>
      <trkpt lat="45.7606" lon="5.63798">
        <ele>353</ele>
        <time>2018-06-10T16:29:28Z</time>
      </trkpt>
      <trkpt lat="45.76053" lon="5.63793">
        <ele>353</ele>
        <time>2018-06-10T16:29:28Z</time>
      </trkpt>
      <trkpt lat="45.76049" lon="5.63785">
        <ele>344</ele>
        <time>2018-06-10T16:29:28Z</time>
      </trkpt>
      <trkpt lat="45.76039" lon="5.63779">
        <ele>344</ele>
        <time>2018-06-10T16:29:44Z</time>
      </trkpt>
      <trkpt lat="45.76033" lon="5.63774">
        <ele>344</ele>
        <time>2018-06-10T16:29:44Z</time>
      </trkpt>
      <trkpt lat="45.76027" lon="5.63772">
        <ele>344</ele>
        <time>2018-06-10T16:29:44Z</time>
      </trkpt>
      <trkpt lat="45.76022" lon="5.63772">
        <ele>344</ele>
        <time>2018-06-10T16:29:44Z</time>
      </trkpt>
      <trkpt lat="45.76021" lon="5.63777">
        <ele>344</ele>
        <time>2018-06-10T16:30:48Z</time>
      </trkpt>
      <trkpt lat="45.76016" lon="5.63783">
        <ele>344</ele>
        <time>2018-06-10T16:30:48Z</time>
      </trkpt>
      <trkpt lat="45.76011" lon="5.6379">
        <ele>344</ele>
        <time>2018-06-10T16:30:48Z</time>
      </trkpt>
      <trkpt lat="45.76006" lon="5.63796">
        <ele>350</ele>
        <time>2018-06-10T16:30:48Z</time>
      </trkpt>
      <trkpt lat="45.76" lon="5.63801">
        <ele>350</ele>
        <time>2018-06-10T16:30:48Z</time>
      </trkpt>
      <trkpt lat="45.75998" lon="5.638">
        <ele>350</ele>
        <time>2018-06-10T16:31:04Z</time>
      </trkpt>
      <trkpt lat="45.75998" lon="5.63801">
        <ele>350</ele>
        <time>2018-06-10T16:31:04Z</time>
      </trkpt>
      <trkpt lat="45.75996" lon="5.63812">
        <ele>350</ele>
        <time>2018-06-10T16:31:04Z</time>
      </trkpt>
      <trkpt lat="45.75994" lon="5.63817">
        <ele>350</ele>
        <time>2018-06-10T16:31:04Z</time>
      </trkpt>
      <trkpt lat="45.7599" lon="5.63822">
        <ele>350</ele>
        <time>2018-06-10T16:31:20Z</time>
      </trkpt>
      <trkpt lat="45.75986" lon="5.63827">
        <ele>350</ele>
        <time>2018-06-10T16:31:20Z</time>
      </trkpt>
      <trkpt lat="45.75981" lon="5.63832">
        <ele>350</ele>
        <time>2018-06-10T16:31:20Z</time>
      </trkpt>
      <trkpt lat="45.75978" lon="5.63836">
        <ele>350</ele>
        <time>2018-06-10T16:31:20Z</time>
      </trkpt>
      <trkpt lat="45.75972" lon="5.63839">
        <ele>350</ele>
        <time>2018-06-10T16:31:36Z</time>
      </trkpt>
      <trkpt lat="45.75966" lon="5.63842">
        <ele>350</ele>
        <time>2018-06-10T16:31:36Z</time>
      </trkpt>
      <trkpt lat="45.75961" lon="5.63841">
        <ele>350</ele>
        <time>2018-06-10T16:31:36Z</time>
      </trkpt>
      <trkpt lat="45.75955" lon="5.6384">
        <ele>347</ele>
        <time>2018-06-10T16:31:36Z</time>
      </trkpt>
      <trkpt lat="45.75949" lon="5.63838">
        <ele>347</ele>
        <time>2018-06-10T16:31:52Z</time>
      </trkpt>
      <trkpt lat="45.75943" lon="5.63835">
        <ele>347</ele>
        <time>2018-06-10T16:31:52Z</time>
      </trkpt>
      <trkpt lat="45.75937" lon="5.63833">
        <ele>347</ele>
        <time>2018-06-10T16:31:52Z</time>
      </trkpt>
      <trkpt lat="45.75932" lon="5.63831">
        <ele>347</ele>
        <time>2018-06-10T16:31:52Z</time>
      </trkpt>
      <trkpt lat="45.75926" lon="5.6383">
        <ele>347</ele>
        <time>2018-06-10T16:32:08Z</time>
      </trkpt>
      <trkpt lat="45.75921" lon="5.63829">
        <ele>347</ele>
        <time>2018-06-10T16:32:08Z</time>
      </trkpt>
      <trkpt lat="45.75917" lon="5.63828">
        <ele>347</ele>
        <time>2018-06-10T16:32:08Z</time>
      </trkpt>
      <trkpt lat="45.75909" lon="5.63828">
        <ele>347</ele>
        <time>2018-06-10T16:32:08Z</time>
      </trkpt>
      <trkpt lat="45.75902" lon="5.6383">
        <ele>347</ele>
        <time>2018-06-10T16:32:24Z</time>
      </trkpt>
      <trkpt lat="45.75898" lon="5.63832">
        <ele>347</ele>
        <time>2018-06-10T16:32:24Z</time>
      </trkpt>
      <trkpt lat="45.75891" lon="5.63834">
        <ele>347</ele>
        <time>2018-06-10T16:32:24Z</time>
      </trkpt>
      <trkpt lat="45.75883" lon="5.6384">
        <ele>347</ele>
        <time>2018-06-10T16:32:24Z</time>
      </trkpt>
      <trkpt lat="45.75877" lon="5.63838">
        <ele>347</ele>
        <time>2018-06-10T16:32:40Z</time>
      </trkpt>
      <trkpt lat="45.75871" lon="5.63834">
        <ele>348</ele>
        <time>2018-06-10T16:32:40Z</time>
      </trkpt>
      <trkpt lat="45.75866" lon="5.6383">
        <ele>348</ele>
        <time>2018-06-10T16:32:40Z</time>
      </trkpt>
      <trkpt lat="45.75858" lon="5.63827">
        <ele>348</ele>
        <time>2018-06-10T16:32:40Z</time>
      </trkpt>
      <trkpt lat="45.75851" lon="5.63827">
        <ele>348</ele>
        <time>2018-06-10T16:32:56Z</time>
      </trkpt>
      <trkpt lat="45.75845" lon="5.6383">
        <ele>348</ele>
        <time>2018-06-10T16:32:56Z</time>
      </trkpt>
      <trkpt lat="45.7584" lon="5.63832">
        <ele>348</ele>
        <time>2018-06-10T16:32:56Z</time>
      </trkpt>
      <trkpt lat="45.75834" lon="5.63834">
        <ele>348</ele>
        <time>2018-06-10T16:32:56Z</time>
      </trkpt>
      <trkpt lat="45.75829" lon="5.63836">
        <ele>348</ele>
        <time>2018-06-10T16:33:12Z</time>
      </trkpt>
      <trkpt lat="45.75823" lon="5.6384">
        <ele>348</ele>
        <time>2018-06-10T16:33:12Z</time>
      </trkpt>
      <trkpt lat="45.75817" lon="5.63843">
        <ele>348</ele>
        <time>2018-06-10T16:33:12Z</time>
      </trkpt>
      <trkpt lat="45.75812" lon="5.63847">
        <ele>348</ele>
        <time>2018-06-10T16:33:12Z</time>
      </trkpt>
      <trkpt lat="45.75796" lon="5.6386">
        <ele>348</ele>
        <time>2018-06-10T16:33:56Z</time>
      </trkpt>
      <trkpt lat="45.75795" lon="5.63863">
        <ele>348</ele>
        <time>2018-06-10T16:33:56Z</time>
      </trkpt>
      <trkpt lat="45.75791" lon="5.63869">
        <ele>345</ele>
        <time>2018-06-10T16:33:56Z</time>
      </trkpt>
      <trkpt lat="45.75785" lon="5.63871">
        <ele>345</ele>
        <time>2018-06-10T16:33:56Z</time>
      </trkpt>
      <trkpt lat="45.75778" lon="5.63874">
        <ele>345</ele>
        <time>2018-06-10T16:33:56Z</time>
      </trkpt>
      <trkpt lat="45.75773" lon="5.63873">
        <ele>345</ele>
        <time>2018-06-10T16:34:12Z</time>
      </trkpt>
      <trkpt lat="45.75769" lon="5.63873">
        <ele>345</ele>
        <time>2018-06-10T16:34:12Z</time>
      </trkpt>
      <trkpt lat="45.75765" lon="5.63872">
        <ele>345</ele>
        <time>2018-06-10T16:34:12Z</time>
      </trkpt>
      <trkpt lat="45.7576" lon="5.63873">
        <ele>345</ele>
        <time>2018-06-10T16:34:12Z</time>
      </trkpt>
      <trkpt lat="45.75755" lon="5.63873">
        <ele>345</ele>
        <time>2018-06-10T16:34:28Z</time>
      </trkpt>
      <trkpt lat="45.75752" lon="5.63874">
        <ele>345</ele>
        <time>2018-06-10T16:34:28Z</time>
      </trkpt>
      <trkpt lat="45.75747" lon="5.63872">
        <ele>345</ele>
        <time>2018-06-10T16:34:28Z</time>
      </trkpt>
      <trkpt lat="45.75742" lon="5.6387">
        <ele>345</ele>
        <time>2018-06-10T16:34:28Z</time>
      </trkpt>
      <trkpt lat="45.75741" lon="5.63861">
        <ele>345</ele>
        <time>2018-06-10T16:34:56Z</time>
      </trkpt>
      <trkpt lat="45.7574" lon="5.63854">
        <ele>345</ele>
        <time>2018-06-10T16:34:56Z</time>
      </trkpt>
      <trkpt lat="45.75734" lon="5.63848">
        <ele>345</ele>
        <time>2018-06-10T16:34:56Z</time>
      </trkpt>
      <trkpt lat="45.7573" lon="5.63843">
        <ele>345</ele>
        <time>2018-06-10T16:34:56Z</time>
      </trkpt>
      <trkpt lat="45.75726" lon="5.63836">
        <ele>345</ele>
        <time>2018-06-10T16:34:56Z</time>
      </trkpt>
      <trkpt lat="45.75723" lon="5.63828">
        <ele>345</ele>
        <time>2018-06-10T16:35:12Z</time>
      </trkpt>
      <trkpt lat="45.75721" lon="5.6382">
        <ele>345</ele>
        <time>2018-06-10T16:35:12Z</time>
      </trkpt>
      <trkpt lat="45.75715" lon="5.63815">
        <ele>345</ele>
        <time>2018-06-10T16:35:12Z</time>
      </trkpt>
      <trkpt lat="45.75712" lon="5.6381">
        <ele>345</ele>
        <time>2018-06-10T16:35:12Z</time>
      </trkpt>
      <trkpt lat="45.75709" lon="5.63805">
        <ele>345</ele>
        <time>2018-06-10T16:35:28Z</time>
      </trkpt>
      <trkpt lat="45.75706" lon="5.63797">
        <ele>349</ele>
        <time>2018-06-10T16:35:28Z</time>
      </trkpt>
      <trkpt lat="45.75703" lon="5.63789">
        <ele>344</ele>
        <time>2018-06-10T16:35:28Z</time>
      </trkpt>
      <trkpt lat="45.75699" lon="5.63782">
        <ele>344</ele>
        <time>2018-06-10T16:35:28Z</time>
      </trkpt>
      <trkpt lat="45.75696" lon="5.63775">
        <ele>344</ele>
        <time>2018-06-10T16:35:44Z</time>
      </trkpt>
      <trkpt lat="45.75694" lon="5.63766">
        <ele>344</ele>
        <time>2018-06-10T16:35:44Z</time>
      </trkpt>
      <trkpt lat="45.75694" lon="5.63762">
        <ele>344</ele>
        <time>2018-06-10T16:35:44Z</time>
      </trkpt>
      <trkpt lat="45.75689" lon="5.63758">
        <ele>344</ele>
        <time>2018-06-10T16:35:44Z</time>
      </trkpt>
      <trkpt lat="45.75682" lon="5.63759">
        <ele>344</ele>
        <time>2018-06-10T16:36:00Z</time>
      </trkpt>
      <trkpt lat="45.75677" lon="5.63762">
        <ele>344</ele>
        <time>2018-06-10T16:36:00Z</time>
      </trkpt>
      <trkpt lat="45.7567" lon="5.63766">
        <ele>344</ele>
        <time>2018-06-10T16:36:00Z</time>
      </trkpt>
      <trkpt lat="45.75669" lon="5.63767">
        <ele>344</ele>
        <time>2018-06-10T16:36:00Z</time>
      </trkpt>
      <trkpt lat="45.75668" lon="5.63768">
        <ele>344</ele>
        <time>2018-06-10T16:36:16Z</time>
      </trkpt>
      <trkpt lat="45.75664" lon="5.63771">
        <ele>344</ele>
        <time>2018-06-10T16:36:16Z</time>
      </trkpt>
      <trkpt lat="45.75659" lon="5.63777">
        <ele>344</ele>
        <time>2018-06-10T16:36:16Z</time>
      </trkpt>
      <trkpt lat="45.75655" lon="5.63782">
        <ele>344</ele>
        <time>2018-06-10T16:36:16Z</time>
      </trkpt>
      <trkpt lat="45.75652" lon="5.63786">
        <ele>344</ele>
        <time>2018-06-10T16:36:32Z</time>
      </trkpt>
      <trkpt lat="45.75651" lon="5.6379">
        <ele>344</ele>
        <time>2018-06-10T16:36:32Z</time>
      </trkpt>
      <trkpt lat="45.75652" lon="5.63797">
        <ele>349</ele>
        <time>2018-06-10T16:36:32Z</time>
      </trkpt>
      <trkpt lat="45.75651" lon="5.63803">
        <ele>349</ele>
        <time>2018-06-10T16:36:32Z</time>
      </trkpt>
      <trkpt lat="45.75649" lon="5.63803">
        <ele>349</ele>
        <time>2018-06-10T16:36:48Z</time>
      </trkpt>
      <trkpt lat="45.75646" lon="5.63799">
        <ele>349</ele>
        <time>2018-06-10T16:36:48Z</time>
      </trkpt>
      <trkpt lat="45.75643" lon="5.63793">
        <ele>349</ele>
        <time>2018-06-10T16:36:48Z</time>
      </trkpt>
      <trkpt lat="45.75639" lon="5.63788">
        <ele>344</ele>
        <time>2018-06-10T16:36:48Z</time>
      </trkpt>
      <trkpt lat="45.75636" lon="5.63785">
        <ele>344</ele>
        <time>2018-06-10T16:37:08Z</time>
      </trkpt>
      <trkpt lat="45.75635" lon="5.63784">
        <ele>344</ele>
        <time>2018-06-10T16:37:08Z</time>
      </trkpt>
      <trkpt lat="45.75633" lon="5.63782">
        <ele>344</ele>
        <time>2018-06-10T16:37:08Z</time>
      </trkpt>
      <trkpt lat="45.7563" lon="5.63779">
        <ele>344</ele>
        <time>2018-06-10T16:37:08Z</time>
      </trkpt>
      <trkpt lat="45.75628" lon="5.63776">
        <ele>344</ele>
        <time>2018-06-10T16:37:08Z</time>
      </trkpt>
      <trkpt lat="45.75625" lon="5.63774">
        <ele>351</ele>
        <time>2018-06-10T16:37:24Z</time>
      </trkpt>
      <trkpt lat="45.7562" lon="5.63774">
        <ele>351</ele>
        <time>2018-06-10T16:37:24Z</time>
      </trkpt>
      <trkpt lat="45.75614" lon="5.63772">
        <ele>351</ele>
        <time>2018-06-10T16:37:24Z</time>
      </trkpt>
      <trkpt lat="45.75608" lon="5.63767">
        <ele>351</ele>
        <time>2018-06-10T16:37:24Z</time>
      </trkpt>
      <trkpt lat="45.75601" lon="5.63763">
        <ele>351</ele>
        <time>2018-06-10T16:37:40Z</time>
      </trkpt>
      <trkpt lat="45.75594" lon="5.63761">
        <ele>351</ele>
        <time>2018-06-10T16:37:40Z</time>
      </trkpt>
      <trkpt lat="45.75589" lon="5.63761">
        <ele>351</ele>
        <time>2018-06-10T16:37:40Z</time>
      </trkpt>
      <trkpt lat="45.75586" lon="5.63763">
        <ele>351</ele>
        <time>2018-06-10T16:37:40Z</time>
      </trkpt>
      <trkpt lat="45.75582" lon="5.63765">
        <ele>351</ele>
        <time>2018-06-10T16:37:56Z</time>
      </trkpt>
      <trkpt lat="45.75578" lon="5.63767">
        <ele>351</ele>
        <time>2018-06-10T16:37:56Z</time>
      </trkpt>
      <trkpt lat="45.75573" lon="5.63772">
        <ele>351</ele>
        <time>2018-06-10T16:37:56Z</time>
      </trkpt>
      <trkpt lat="45.75569" lon="5.63776">
        <ele>351</ele>
        <time>2018-06-10T16:37:56Z</time>
      </trkpt>
      <trkpt lat="45.75562" lon="5.63779">
        <ele>351</ele>
        <time>2018-06-10T16:38:12Z</time>
      </trkpt>
      <trkpt lat="45.75556" lon="5.63781">
        <ele>351</ele>
        <time>2018-06-10T16:38:12Z</time>
      </trkpt>
      <trkpt lat="45.75551" lon="5.63787">
        <ele>351</ele>
        <time>2018-06-10T16:38:12Z</time>
      </trkpt>
      <trkpt lat="45.75545" lon="5.63793">
        <ele>353</ele>
        <time>2018-06-10T16:38:12Z</time>
      </trkpt>
      <trkpt lat="45.75541" lon="5.63796">
        <ele>351</ele>
        <time>2018-06-10T16:38:28Z</time>
      </trkpt>
      <trkpt lat="45.75537" lon="5.63798">
        <ele>351</ele>
        <time>2018-06-10T16:38:28Z</time>
      </trkpt>
      <trkpt lat="45.75532" lon="5.63801">
        <ele>351</ele>
        <time>2018-06-10T16:38:28Z</time>
      </trkpt>
      <trkpt lat="45.75527" lon="5.63804">
        <ele>351</ele>
        <time>2018-06-10T16:38:28Z</time>
      </trkpt>
      <trkpt lat="45.75522" lon="5.63809">
        <ele>351</ele>
        <time>2018-06-10T16:38:44Z</time>
      </trkpt>
      <trkpt lat="45.75518" lon="5.63812">
        <ele>351</ele>
        <time>2018-06-10T16:38:44Z</time>
      </trkpt>
      <trkpt lat="45.75514" lon="5.63815">
        <ele>351</ele>
        <time>2018-06-10T16:38:44Z</time>
      </trkpt>
      <trkpt lat="45.75509" lon="5.63819">
        <ele>351</ele>
        <time>2018-06-10T16:38:44Z</time>
      </trkpt>
      <trkpt lat="45.75503" lon="5.63825">
        <ele>351</ele>
        <time>2018-06-10T16:39:00Z</time>
      </trkpt>
      <trkpt lat="45.75496" lon="5.6383">
        <ele>351</ele>
        <time>2018-06-10T16:39:00Z</time>
      </trkpt>
      <trkpt lat="45.75493" lon="5.63833">
        <ele>351</ele>
        <time>2018-06-10T16:39:00Z</time>
      </trkpt>
      <trkpt lat="45.75488" lon="5.63838">
        <ele>351</ele>
        <time>2018-06-10T16:39:00Z</time>
      </trkpt>
      <trkpt lat="45.75481" lon="5.63838">
        <ele>351</ele>
        <time>2018-06-10T16:39:16Z</time>
      </trkpt>
      <trkpt lat="45.75474" lon="5.63837">
        <ele>351</ele>
        <time>2018-06-10T16:39:16Z</time>
      </trkpt>
      <trkpt lat="45.75471" lon="5.63835">
        <ele>351</ele>
        <time>2018-06-10T16:39:16Z</time>
      </trkpt>
      <trkpt lat="45.75469" lon="5.63834">
        <ele>351</ele>
        <time>2018-06-10T16:39:16Z</time>
      </trkpt>
      <trkpt lat="45.75463" lon="5.63833">
        <ele>351</ele>
        <time>2018-06-10T16:39:32Z</time>
      </trkpt>
      <trkpt lat="45.7546" lon="5.63833">
        <ele>351</ele>
        <time>2018-06-10T16:39:32Z</time>
      </trkpt>
      <trkpt lat="45.75455" lon="5.63832">
        <ele>352</ele>
        <time>2018-06-10T16:39:32Z</time>
      </trkpt>
      <trkpt lat="45.75451" lon="5.63832">
        <ele>352</ele>
        <time>2018-06-10T16:39:32Z</time>
      </trkpt>
      <trkpt lat="45.75445" lon="5.63832">
        <ele>352</ele>
        <time>2018-06-10T16:39:48Z</time>
      </trkpt>
      <trkpt lat="45.7544" lon="5.63833">
        <ele>352</ele>
        <time>2018-06-10T16:39:48Z</time>
      </trkpt>
      <trkpt lat="45.75435" lon="5.6383">
        <ele>352</ele>
        <time>2018-06-10T16:39:48Z</time>
      </trkpt>
      <trkpt lat="45.7543" lon="5.63828">
        <ele>352</ele>
        <time>2018-06-10T16:39:48Z</time>
      </trkpt>
      <trkpt lat="45.75418" lon="5.63825">
        <ele>352</ele>
        <time>2018-06-10T16:40:04Z</time>
      </trkpt>
      <trkpt lat="45.7541" lon="5.63825">
        <ele>352</ele>
        <time>2018-06-10T16:40:04Z</time>
      </trkpt>
      <trkpt lat="45.75406" lon="5.63825">
        <ele>352</ele>
        <time>2018-06-10T16:40:04Z</time>
      </trkpt>
      <trkpt lat="45.75398" lon="5.63821">
        <ele>352</ele>
        <time>2018-06-10T16:40:04Z</time>
      </trkpt>
      <trkpt lat="45.75392" lon="5.63818">
        <ele>352</ele>
        <time>2018-06-10T16:40:20Z</time>
      </trkpt>
      <trkpt lat="45.75386" lon="5.63817">
        <ele>352</ele>
        <time>2018-06-10T16:40:20Z</time>
      </trkpt>
      <trkpt lat="45.75381" lon="5.63818">
        <ele>352</ele>
        <time>2018-06-10T16:40:20Z</time>
      </trkpt>
      <trkpt lat="45.7538" lon="5.63819">
        <ele>352</ele>
        <time>2018-06-10T16:40:20Z</time>
      </trkpt>
      <trkpt lat="45.75378" lon="5.63818">
        <ele>352</ele>
        <time>2018-06-10T16:40:36Z</time>
      </trkpt>
      <trkpt lat="45.75373" lon="5.63816">
        <ele>354</ele>
        <time>2018-06-10T16:40:36Z</time>
      </trkpt>
      <trkpt lat="45.75366" lon="5.63814">
        <ele>354</ele>
        <time>2018-06-10T16:40:36Z</time>
      </trkpt>
      <trkpt lat="45.75362" lon="5.63815">
        <ele>354</ele>
        <time>2018-06-10T16:40:36Z</time>
      </trkpt>
      <trkpt lat="45.75355" lon="5.63813">
        <ele>354</ele>
        <time>2018-06-10T16:40:52Z</time>
      </trkpt>
      <trkpt lat="45.75348" lon="5.63813">
        <ele>354</ele>
        <time>2018-06-10T16:40:52Z</time>
      </trkpt>
      <trkpt lat="45.75342" lon="5.63813">
        <ele>354</ele>
        <time>2018-06-10T16:40:52Z</time>
      </trkpt>
      <trkpt lat="45.75336" lon="5.63811">
        <ele>354</ele>
        <time>2018-06-10T16:40:52Z</time>
      </trkpt>
      <trkpt lat="45.7533" lon="5.6381">
        <ele>354</ele>
        <time>2018-06-10T16:41:08Z</time>
      </trkpt>
      <trkpt lat="45.75325" lon="5.6381">
        <ele>354</ele>
        <time>2018-06-10T16:41:08Z</time>
      </trkpt>
      <trkpt lat="45.75319" lon="5.63806">
        <ele>354</ele>
        <time>2018-06-10T16:41:08Z</time>
      </trkpt>
      <trkpt lat="45.75313" lon="5.63803">
        <ele>354</ele>
        <time>2018-06-10T16:41:08Z</time>
      </trkpt>
      <trkpt lat="45.75309" lon="5.63802">
        <ele>354</ele>
        <time>2018-06-10T16:41:24Z</time>
      </trkpt>
      <trkpt lat="45.75304" lon="5.638">
        <ele>354</ele>
        <time>2018-06-10T16:41:24Z</time>
      </trkpt>
      <trkpt lat="45.75298" lon="5.63796">
        <ele>354</ele>
        <time>2018-06-10T16:41:24Z</time>
      </trkpt>
      <trkpt lat="45.75291" lon="5.63794">
        <ele>354</ele>
        <time>2018-06-10T16:41:24Z</time>
      </trkpt>
      <trkpt lat="45.75284" lon="5.63793">
        <ele>354</ele>
        <time>2018-06-10T16:41:40Z</time>
      </trkpt>
      <trkpt lat="45.75276" lon="5.63796">
        <ele>354</ele>
        <time>2018-06-10T16:41:40Z</time>
      </trkpt>
      <trkpt lat="45.75269" lon="5.63794">
        <ele>354</ele>
        <time>2018-06-10T16:41:40Z</time>
      </trkpt>
      <trkpt lat="45.75264" lon="5.63793">
        <ele>354</ele>
        <time>2018-06-10T16:41:40Z</time>
      </trkpt>
      <trkpt lat="45.75259" lon="5.63791">
        <ele>350</ele>
        <time>2018-06-10T16:41:56Z</time>
      </trkpt>
      <trkpt lat="45.75253" lon="5.6379">
        <ele>350</ele>
        <time>2018-06-10T16:41:56Z</time>
      </trkpt>
      <trkpt lat="45.75248" lon="5.63788">
        <ele>350</ele>
        <time>2018-06-10T16:41:56Z</time>
      </trkpt>
      <trkpt lat="45.75243" lon="5.63786">
        <ele>350</ele>
        <time>2018-06-10T16:41:56Z</time>
      </trkpt>
      <trkpt lat="45.75239" lon="5.63778">
        <ele>350</ele>
        <time>2018-06-10T16:42:12Z</time>
      </trkpt>
      <trkpt lat="45.75235" lon="5.63773">
        <ele>350</ele>
        <time>2018-06-10T16:42:12Z</time>
      </trkpt>
      <trkpt lat="45.7523" lon="5.63768">
        <ele>350</ele>
        <time>2018-06-10T16:42:12Z</time>
      </trkpt>
      <trkpt lat="45.75225" lon="5.63763">
        <ele>350</ele>
        <time>2018-06-10T16:42:12Z</time>
      </trkpt>
      <trkpt lat="45.75224" lon="5.63759">
        <ele>350</ele>
        <time>2018-06-10T16:42:28Z</time>
      </trkpt>
      <trkpt lat="45.75221" lon="5.63755">
        <ele>350</ele>
        <time>2018-06-10T16:42:28Z</time>
      </trkpt>
      <trkpt lat="45.75216" lon="5.63748">
        <ele>350</ele>
        <time>2018-06-10T16:42:28Z</time>
      </trkpt>
      <trkpt lat="45.75212" lon="5.63743">
        <ele>350</ele>
        <time>2018-06-10T16:42:28Z</time>
      </trkpt>
      <trkpt lat="45.75209" lon="5.63742">
        <ele>350</ele>
        <time>2018-06-10T16:42:44Z</time>
      </trkpt>
      <trkpt lat="45.75206" lon="5.63739">
        <ele>348</ele>
        <time>2018-06-10T16:42:44Z</time>
      </trkpt>
      <trkpt lat="45.75199" lon="5.63738">
        <ele>348</ele>
        <time>2018-06-10T16:42:44Z</time>
      </trkpt>
      <trkpt lat="45.75193" lon="5.63735">
        <ele>348</ele>
        <time>2018-06-10T16:42:44Z</time>
      </trkpt>
      <trkpt lat="45.75191" lon="5.6373">
        <ele>348</ele>
        <time>2018-06-10T16:43:00Z</time>
      </trkpt>
      <trkpt lat="45.75188" lon="5.63726">
        <ele>348</ele>
        <time>2018-06-10T16:43:00Z</time>
      </trkpt>
      <trkpt lat="45.75183" lon="5.63721">
        <ele>348</ele>
        <time>2018-06-10T16:43:00Z</time>
      </trkpt>
      <trkpt lat="45.75174" lon="5.63715">
        <ele>348</ele>
        <time>2018-06-10T16:43:00Z</time>
      </trkpt>
      <trkpt lat="45.75168" lon="5.63709">
        <ele>348</ele>
        <time>2018-06-10T16:43:16Z</time>
      </trkpt>
      <trkpt lat="45.75162" lon="5.63704">
        <ele>354</ele>
        <time>2018-06-10T16:43:16Z</time>
      </trkpt>
      <trkpt lat="45.75157" lon="5.63703">
        <ele>354</ele>
        <time>2018-06-10T16:43:16Z</time>
      </trkpt>
      <trkpt lat="45.75152" lon="5.63702">
        <ele>354</ele>
        <time>2018-06-10T16:43:16Z</time>
      </trkpt>
      <trkpt lat="45.75146" lon="5.637">
        <ele>354</ele>
        <time>2018-06-10T16:43:32Z</time>
      </trkpt>
      <trkpt lat="45.7514" lon="5.63704">
        <ele>354</ele>
        <time>2018-06-10T16:43:32Z</time>
      </trkpt>
      <trkpt lat="45.75134" lon="5.63706">
        <ele>354</ele>
        <time>2018-06-10T16:43:32Z</time>
      </trkpt>
      <trkpt lat="45.75131" lon="5.63703">
        <ele>354</ele>
        <time>2018-06-10T16:43:32Z</time>
      </trkpt>
      <trkpt lat="45.75127" lon="5.63699">
        <ele>354</ele>
        <time>2018-06-10T16:43:48Z</time>
      </trkpt>
      <trkpt lat="45.75123" lon="5.63693">
        <ele>356</ele>
        <time>2018-06-10T16:43:48Z</time>
      </trkpt>
      <trkpt lat="45.7512" lon="5.63687">
        <ele>356</ele>
        <time>2018-06-10T16:43:48Z</time>
      </trkpt>
      <trkpt lat="45.75113" lon="5.63682">
        <ele>356</ele>
        <time>2018-06-10T16:43:48Z</time>
      </trkpt>
      <trkpt lat="45.75108" lon="5.63683">
        <ele>356</ele>
        <time>2018-06-10T16:44:04Z</time>
      </trkpt>
      <trkpt lat="45.75101" lon="5.6368">
        <ele>356</ele>
        <time>2018-06-10T16:44:04Z</time>
      </trkpt>
      <trkpt lat="45.75095" lon="5.63679">
        <ele>356</ele>
        <time>2018-06-10T16:44:04Z</time>
      </trkpt>
      <trkpt lat="45.7509" lon="5.63676">
        <ele>356</ele>
        <time>2018-06-10T16:44:04Z</time>
      </trkpt>
      <trkpt lat="45.75084" lon="5.63673">
        <ele>356</ele>
        <time>2018-06-10T16:44:20Z</time>
      </trkpt>
      <trkpt lat="45.75079" lon="5.63671">
        <ele>356</ele>
        <time>2018-06-10T16:44:20Z</time>
      </trkpt>
      <trkpt lat="45.75073" lon="5.63668">
        <ele>356</ele>
        <time>2018-06-10T16:44:20Z</time>
      </trkpt>
      <trkpt lat="45.75071" lon="5.63668">
        <ele>356</ele>
        <time>2018-06-10T16:44:20Z</time>
      </trkpt>
      <trkpt lat="45.75057" lon="5.63673">
        <ele>356</ele>
        <time>2018-06-10T16:45:04Z</time>
      </trkpt>
      <trkpt lat="45.75056" lon="5.63675">
        <ele>356</ele>
        <time>2018-06-10T16:45:04Z</time>
      </trkpt>
      <trkpt lat="45.75054" lon="5.63676">
        <ele>356</ele>
        <time>2018-06-10T16:45:04Z</time>
      </trkpt>
      <trkpt lat="45.75044" lon="5.63673">
        <ele>356</ele>
        <time>2018-06-10T16:45:04Z</time>
      </trkpt>
      <trkpt lat="45.75031" lon="5.63669">
        <ele>362</ele>
        <time>2018-06-10T16:45:04Z</time>
      </trkpt>
      <trkpt lat="45.75024" lon="5.63669">
        <ele>362</ele>
        <time>2018-06-10T16:45:20Z</time>
      </trkpt>
      <trkpt lat="45.7502" lon="5.6367">
        <ele>362</ele>
        <time>2018-06-10T16:45:20Z</time>
      </trkpt>
      <trkpt lat="45.75015" lon="5.63673">
        <ele>362</ele>
        <time>2018-06-10T16:45:20Z</time>
      </trkpt>
      <trkpt lat="45.75011" lon="5.63672">
        <ele>362</ele>
        <time>2018-06-10T16:45:20Z</time>
      </trkpt>
      <trkpt lat="45.75006" lon="5.63672">
        <ele>362</ele>
        <time>2018-06-10T16:45:36Z</time>
      </trkpt>
      <trkpt lat="45.75" lon="5.63672">
        <ele>362</ele>
        <time>2018-06-10T16:45:36Z</time>
      </trkpt>
      <trkpt lat="45.74994" lon="5.63673">
        <ele>362</ele>
        <time>2018-06-10T16:45:36Z</time>
      </trkpt>
      <trkpt lat="45.7499" lon="5.63672">
        <ele>362</ele>
        <time>2018-06-10T16:45:36Z</time>
      </trkpt>
      <trkpt lat="45.74986" lon="5.6367">
        <ele>362</ele>
        <time>2018-06-10T16:45:52Z</time>
      </trkpt>
      <trkpt lat="45.74982" lon="5.6367">
        <ele>362</ele>
        <time>2018-06-10T16:45:52Z</time>
      </trkpt>
      <trkpt lat="45.74977" lon="5.63668">
        <ele>362</ele>
        <time>2018-06-10T16:45:52Z</time>
      </trkpt>
      <trkpt lat="45.7497" lon="5.63663">
        <ele>362</ele>
        <time>2018-06-10T16:45:52Z</time>
      </trkpt>
      <trkpt lat="45.74967" lon="5.63659">
        <ele>362</ele>
        <time>2018-06-10T16:46:08Z</time>
      </trkpt>
      <trkpt lat="45.74963" lon="5.63661">
        <ele>362</ele>
        <time>2018-06-10T16:46:08Z</time>
      </trkpt>
      <trkpt lat="45.74956" lon="5.63661">
        <ele>368</ele>
        <time>2018-06-10T16:46:08Z</time>
      </trkpt>
      <trkpt lat="45.74951" lon="5.63657">
        <ele>368</ele>
        <time>2018-06-10T16:46:08Z</time>
      </trkpt>
      <trkpt lat="45.74943" lon="5.63653">
        <ele>368</ele>
        <time>2018-06-10T16:46:24Z</time>
      </trkpt>
      <trkpt lat="45.74941" lon="5.63653">
        <ele>368</ele>
        <time>2018-06-10T16:46:24Z</time>
      </trkpt>
      <trkpt lat="45.74936" lon="5.63652">
        <ele>368</ele>
        <time>2018-06-10T16:46:24Z</time>
      </trkpt>
      <trkpt lat="45.74929" lon="5.63652">
        <ele>368</ele>
        <time>2018-06-10T16:46:24Z</time>
      </trkpt>
      <trkpt lat="45.74922" lon="5.63651">
        <ele>368</ele>
        <time>2018-06-10T16:46:40Z</time>
      </trkpt>
      <trkpt lat="45.74918" lon="5.63651">
        <ele>368</ele>
        <time>2018-06-10T16:46:40Z</time>
      </trkpt>
      <trkpt lat="45.74911" lon="5.63653">
        <ele>368</ele>
        <time>2018-06-10T16:46:40Z</time>
      </trkpt>
      <trkpt lat="45.74906" lon="5.6365">
        <ele>368</ele>
        <time>2018-06-10T16:46:40Z</time>
      </trkpt>
      <trkpt lat="45.74901" lon="5.63648">
        <ele>368</ele>
        <time>2018-06-10T16:47:20Z</time>
      </trkpt>
      <trkpt lat="45.74899" lon="5.63648">
        <ele>368</ele>
        <time>2018-06-10T16:47:20Z</time>
      </trkpt>
      <trkpt lat="45.74897" lon="5.63644">
        <ele>368</ele>
        <time>2018-06-10T16:47:20Z</time>
      </trkpt>
      <trkpt lat="45.74896" lon="5.63642">
        <ele>368</ele>
        <time>2018-06-10T16:47:20Z</time>
      </trkpt>
      <trkpt lat="45.74896" lon="5.63641">
        <ele>368</ele>
        <time>2018-06-10T16:47:20Z</time>
      </trkpt>
      <trkpt lat="45.74895" lon="5.63637">
        <ele>368</ele>
        <time>2018-06-10T16:47:40Z</time>
      </trkpt>
      <trkpt lat="45.74893" lon="5.6363">
        <ele>368</ele>
        <time>2018-06-10T16:47:40Z</time>
      </trkpt>
      <trkpt lat="45.74894" lon="5.63626">
        <ele>368</ele>
        <time>2018-06-10T16:47:40Z</time>
      </trkpt>
      <trkpt lat="45.74895" lon="5.63624">
        <ele>352</ele>
        <time>2018-06-10T16:47:40Z</time>
      </trkpt>
      <trkpt lat="45.74896" lon="5.63616">
        <ele>352</ele>
        <time>2018-06-10T16:47:40Z</time>
      </trkpt>
      <trkpt lat="45.74891" lon="5.63608">
        <ele>352</ele>
        <time>2018-06-10T16:47:56Z</time>
      </trkpt>
      <trkpt lat="45.74888" lon="5.63604">
        <ele>352</ele>
        <time>2018-06-10T16:47:56Z</time>
      </trkpt>
      <trkpt lat="45.74887" lon="5.63599">
        <ele>352</ele>
        <time>2018-06-10T16:47:56Z</time>
      </trkpt>
      <trkpt lat="45.74882" lon="5.63594">
        <ele>352</ele>
        <time>2018-06-10T16:47:56Z</time>
      </trkpt>
      <trkpt lat="45.74876" lon="5.63588">
        <ele>352</ele>
        <time>2018-06-10T16:48:12Z</time>
      </trkpt>
      <trkpt lat="45.74867" lon="5.63583">
        <ele>354</ele>
        <time>2018-06-10T16:48:12Z</time>
      </trkpt>
      <trkpt lat="45.74861" lon="5.63581">
        <ele>354</ele>
        <time>2018-06-10T16:48:12Z</time>
      </trkpt>
      <trkpt lat="45.74856" lon="5.63579">
        <ele>354</ele>
        <time>2018-06-10T16:48:12Z</time>
      </trkpt>
      <trkpt lat="45.74851" lon="5.63577">
        <ele>354</ele>
        <time>2018-06-10T16:48:28Z</time>
      </trkpt>
      <trkpt lat="45.74847" lon="5.63575">
        <ele>354</ele>
        <time>2018-06-10T16:48:28Z</time>
      </trkpt>
      <trkpt lat="45.74841" lon="5.63575">
        <ele>354</ele>
        <time>2018-06-10T16:48:28Z</time>
      </trkpt>
      <trkpt lat="45.74835" lon="5.63581">
        <ele>354</ele>
        <time>2018-06-10T16:48:28Z</time>
      </trkpt>
      <trkpt lat="45.74831" lon="5.63582">
        <ele>354</ele>
        <time>2018-06-10T16:48:44Z</time>
      </trkpt>
      <trkpt lat="45.74827" lon="5.63582">
        <ele>354</ele>
        <time>2018-06-10T16:48:44Z</time>
      </trkpt>
      <trkpt lat="45.74824" lon="5.63581">
        <ele>354</ele>
        <time>2018-06-10T16:48:44Z</time>
      </trkpt>
      <trkpt lat="45.74821" lon="5.63581">
        <ele>354</ele>
        <time>2018-06-10T16:48:44Z</time>
      </trkpt>
      <trkpt lat="45.74819" lon="5.63581">
        <ele>354</ele>
        <time>2018-06-10T16:49:00Z</time>
      </trkpt>
      <trkpt lat="45.74817" lon="5.63581">
        <ele>354</ele>
        <time>2018-06-10T16:49:00Z</time>
      </trkpt>
      <trkpt lat="45.7481" lon="5.6358">
        <ele>354</ele>
        <time>2018-06-10T16:49:00Z</time>
      </trkpt>
      <trkpt lat="45.74802" lon="5.6358">
        <ele>354</ele>
        <time>2018-06-10T16:49:00Z</time>
      </trkpt>
      <trkpt lat="45.74792" lon="5.63584">
        <ele>354</ele>
        <time>2018-06-10T16:49:16Z</time>
      </trkpt>
      <trkpt lat="45.74785" lon="5.63585">
        <ele>357</ele>
        <time>2018-06-10T16:49:16Z</time>
      </trkpt>
      <trkpt lat="45.74778" lon="5.63584">
        <ele>357</ele>
        <time>2018-06-10T16:49:16Z</time>
      </trkpt>
      <trkpt lat="45.74771" lon="5.63585">
        <ele>357</ele>
        <time>2018-06-10T16:49:16Z</time>
      </trkpt>
      <trkpt lat="45.74764" lon="5.63586">
        <ele>357</ele>
        <time>2018-06-10T16:49:32Z</time>
      </trkpt>
      <trkpt lat="45.7476" lon="5.63585">
        <ele>357</ele>
        <time>2018-06-10T16:49:32Z</time>
      </trkpt>
      <trkpt lat="45.74754" lon="5.63587">
        <ele>357</ele>
        <time>2018-06-10T16:49:32Z</time>
      </trkpt>
      <trkpt lat="45.7475" lon="5.63587">
        <ele>357</ele>
        <time>2018-06-10T16:49:32Z</time>
      </trkpt>
      <trkpt lat="45.74745" lon="5.63585">
        <ele>357</ele>
        <time>2018-06-10T16:49:48Z</time>
      </trkpt>
      <trkpt lat="45.74738" lon="5.63583">
        <ele>357</ele>
        <time>2018-06-10T16:49:48Z</time>
      </trkpt>
      <trkpt lat="45.74733" lon="5.6358">
        <ele>357</ele>
        <time>2018-06-10T16:49:48Z</time>
      </trkpt>
      <trkpt lat="45.74725" lon="5.63581">
        <ele>357</ele>
        <time>2018-06-10T16:49:48Z</time>
      </trkpt>
      <trkpt lat="45.74719" lon="5.6358">
        <ele>357</ele>
        <time>2018-06-10T16:50:04Z</time>
      </trkpt>
      <trkpt lat="45.74716" lon="5.63582">
        <ele>357</ele>
        <time>2018-06-10T16:50:04Z</time>
      </trkpt>
      <trkpt lat="45.74712" lon="5.63581">
        <ele>357</ele>
        <time>2018-06-10T16:50:04Z</time>
      </trkpt>
      <trkpt lat="45.74705" lon="5.63582">
        <ele>361</ele>
        <time>2018-06-10T16:50:04Z</time>
      </trkpt>
      <trkpt lat="45.74699" lon="5.63581">
        <ele>361</ele>
        <time>2018-06-10T16:50:20Z</time>
      </trkpt>
      <trkpt lat="45.74693" lon="5.63577">
        <ele>361</ele>
        <time>2018-06-10T16:50:20Z</time>
      </trkpt>
      <trkpt lat="45.74687" lon="5.63573">
        <ele>361</ele>
        <time>2018-06-10T16:50:20Z</time>
      </trkpt>
      <trkpt lat="45.74683" lon="5.63573">
        <ele>361</ele>
        <time>2018-06-10T16:50:20Z</time>
      </trkpt>
      <trkpt lat="45.74678" lon="5.63573">
        <ele>361</ele>
        <time>2018-06-10T16:50:36Z</time>
      </trkpt>
      <trkpt lat="45.74674" lon="5.63574">
        <ele>361</ele>
        <time>2018-06-10T16:50:36Z</time>
      </trkpt>
      <trkpt lat="45.74668" lon="5.63573">
        <ele>361</ele>
        <time>2018-06-10T16:50:36Z</time>
      </trkpt>
      <trkpt lat="45.74661" lon="5.63568">
        <ele>361</ele>
        <time>2018-06-10T16:50:36Z</time>
      </trkpt>
      <trkpt lat="45.74658" lon="5.63566">
        <ele>361</ele>
        <time>2018-06-10T16:50:52Z</time>
      </trkpt>
      <trkpt lat="45.74652" lon="5.6356">
        <ele>361</ele>
        <time>2018-06-10T16:50:52Z</time>
      </trkpt>
      <trkpt lat="45.74647" lon="5.63555">
        <ele>361</ele>
        <time>2018-06-10T16:50:52Z</time>
      </trkpt>
      <trkpt lat="45.74643" lon="5.6355">
        <ele>361</ele>
        <time>2018-06-10T16:50:52Z</time>
      </trkpt>
      <trkpt lat="45.74637" lon="5.63548">
        <ele>361</ele>
        <time>2018-06-10T16:51:08Z</time>
      </trkpt>
      <trkpt lat="45.74632" lon="5.63546">
        <ele>361</ele>
        <time>2018-06-10T16:51:08Z</time>
      </trkpt>
      <trkpt lat="45.74628" lon="5.63546">
        <ele>361</ele>
        <time>2018-06-10T16:51:08Z</time>
      </trkpt>
      <trkpt lat="45.74623" lon="5.63546">
        <ele>367</ele>
        <time>2018-06-10T16:51:08Z</time>
      </trkpt>
      <trkpt lat="45.7462" lon="5.63548">
        <ele>367</ele>
        <time>2018-06-10T16:51:24Z</time>
      </trkpt>
      <trkpt lat="45.74616" lon="5.63551">
        <ele>367</ele>
        <time>2018-06-10T16:51:24Z</time>
      </trkpt>
      <trkpt lat="45.74613" lon="5.63554">
        <ele>367</ele>
        <time>2018-06-10T16:51:24Z</time>
      </trkpt>
      <trkpt lat="45.7461" lon="5.63555">
        <ele>367</ele>
        <time>2018-06-10T16:51:24Z</time>
      </trkpt>
      <trkpt lat="45.74603" lon="5.63558">
        <ele>367</ele>
        <time>2018-06-10T16:51:40Z</time>
      </trkpt>
      <trkpt lat="45.74597" lon="5.6356">
        <ele>367</ele>
        <time>2018-06-10T16:51:40Z</time>
      </trkpt>
      <trkpt lat="45.74593" lon="5.63565">
        <ele>367</ele>
        <time>2018-06-10T16:51:40Z</time>
      </trkpt>
      <trkpt lat="45.7459" lon="5.63568">
        <ele>367</ele>
        <time>2018-06-10T16:51:40Z</time>
      </trkpt>
      <trkpt lat="45.74587" lon="5.63569">
        <ele>367</ele>
        <time>2018-06-10T16:51:56Z</time>
      </trkpt>
      <trkpt lat="45.74578" lon="5.6357">
        <ele>367</ele>
        <time>2018-06-10T16:51:56Z</time>
      </trkpt>
      <trkpt lat="45.74573" lon="5.63567">
        <ele>367</ele>
        <time>2018-06-10T16:51:56Z</time>
      </trkpt>
      <trkpt lat="45.7457" lon="5.63567">
        <ele>367</ele>
        <time>2018-06-10T16:51:56Z</time>
      </trkpt>
      <trkpt lat="45.74567" lon="5.63565">
        <ele>367</ele>
        <time>2018-06-10T16:52:12Z</time>
      </trkpt>
      <trkpt lat="45.74563" lon="5.63565">
        <ele>367</ele>
        <time>2018-06-10T16:52:12Z</time>
      </trkpt>
      <trkpt lat="45.74556" lon="5.63565">
        <ele>367</ele>
        <time>2018-06-10T16:52:12Z</time>
      </trkpt>
      <trkpt lat="45.74552" lon="5.63566">
        <ele>367</ele>
        <time>2018-06-10T16:52:12Z</time>
      </trkpt>
      <trkpt lat="45.74546" lon="5.63567">
        <ele>367</ele>
        <time>2018-06-10T16:52:28Z</time>
      </trkpt>
      <trkpt lat="45.74538" lon="5.63566">
        <ele>366</ele>
        <time>2018-06-10T16:52:28Z</time>
      </trkpt>
      <trkpt lat="45.74531" lon="5.63567">
        <ele>366</ele>
        <time>2018-06-10T16:52:28Z</time>
      </trkpt>
      <trkpt lat="45.74526" lon="5.63566">
        <ele>366</ele>
        <time>2018-06-10T16:52:28Z</time>
      </trkpt>
      <trkpt lat="45.74523" lon="5.63566">
        <ele>366</ele>
        <time>2018-06-10T16:52:44Z</time>
      </trkpt>
      <trkpt lat="45.74521" lon="5.63567">
        <ele>366</ele>
        <time>2018-06-10T16:52:44Z</time>
      </trkpt>
      <trkpt lat="45.74515" lon="5.63566">
        <ele>366</ele>
        <time>2018-06-10T16:52:44Z</time>
      </trkpt>
      <trkpt lat="45.74507" lon="5.63567">
        <ele>366</ele>
        <time>2018-06-10T16:52:44Z</time>
      </trkpt>
      <trkpt lat="45.74499" lon="5.63565">
        <ele>366</ele>
        <time>2018-06-10T16:53:00Z</time>
      </trkpt>
      <trkpt lat="45.74493" lon="5.63564">
        <ele>366</ele>
        <time>2018-06-10T16:53:00Z</time>
      </trkpt>
      <trkpt lat="45.74486" lon="5.63564">
        <ele>366</ele>
        <time>2018-06-10T16:53:00Z</time>
      </trkpt>
      <trkpt lat="45.74481" lon="5.63564">
        <ele>366</ele>
        <time>2018-06-10T16:53:00Z</time>
      </trkpt>
      <trkpt lat="45.74478" lon="5.63561">
        <ele>366</ele>
        <time>2018-06-10T16:53:16Z</time>
      </trkpt>
      <trkpt lat="45.74473" lon="5.63562">
        <ele>366</ele>
        <time>2018-06-10T16:53:16Z</time>
      </trkpt>
      <trkpt lat="45.74467" lon="5.63561">
        <ele>366</ele>
        <time>2018-06-10T16:53:16Z</time>
      </trkpt>
      <trkpt lat="45.74461" lon="5.63563">
        <ele>366</ele>
        <time>2018-06-10T16:53:16Z</time>
      </trkpt>
      <trkpt lat="45.74458" lon="5.63568">
        <ele>369</ele>
        <time>2018-06-10T16:53:32Z</time>
      </trkpt>
      <trkpt lat="45.74456" lon="5.63576">
        <ele>369</ele>
        <time>2018-06-10T16:53:32Z</time>
      </trkpt>
      <trkpt lat="45.74454" lon="5.6358">
        <ele>369</ele>
        <time>2018-06-10T16:53:32Z</time>
      </trkpt>
      <trkpt lat="45.74451" lon="5.63585">
        <ele>369</ele>
        <time>2018-06-10T16:53:32Z</time>
      </trkpt>
      <trkpt lat="45.74448" lon="5.6359">
        <ele>369</ele>
        <time>2018-06-10T16:53:48Z</time>
      </trkpt>
      <trkpt lat="45.74445" lon="5.63599">
        <ele>369</ele>
        <time>2018-06-10T16:53:48Z</time>
      </trkpt>
      <trkpt lat="45.74442" lon="5.63604">
        <ele>369</ele>
        <time>2018-06-10T16:53:48Z</time>
      </trkpt>
      <trkpt lat="45.74438" lon="5.63606">
        <ele>369</ele>
        <time>2018-06-10T16:53:48Z</time>
      </trkpt>
      <trkpt lat="45.74434" lon="5.63606">
        <ele>369</ele>
        <time>2018-06-10T16:54:04Z</time>
      </trkpt>
      <trkpt lat="45.74431" lon="5.63608">
        <ele>369</ele>
        <time>2018-06-10T16:54:04Z</time>
      </trkpt>
      <trkpt lat="45.74422" lon="5.63616">
        <ele>369</ele>
        <time>2018-06-10T16:54:04Z</time>
      </trkpt>
      <trkpt lat="45.74415" lon="5.63618">
        <ele>369</ele>
        <time>2018-06-10T16:54:04Z</time>
      </trkpt>
      <trkpt lat="45.74409" lon="5.63617">
        <ele>369</ele>
        <time>2018-06-10T16:54:20Z</time>
      </trkpt>
      <trkpt lat="45.74404" lon="5.63613">
        <ele>369</ele>
        <time>2018-06-10T16:54:20Z</time>
      </trkpt>
      <trkpt lat="45.744" lon="5.63611">
        <ele>369</ele>
        <time>2018-06-10T16:54:20Z</time>
      </trkpt>
      <trkpt lat="45.74391" lon="5.63608">
        <ele>369</ele>
        <time>2018-06-10T16:54:20Z</time>
      </trkpt>
      <trkpt lat="45.74373" lon="5.63607">
        <ele>377</ele>
        <time>2018-06-10T16:54:36Z</time>
      </trkpt>
      <trkpt lat="45.74355" lon="5.63607">
        <ele>377</ele>
        <time>2018-06-10T16:54:36Z</time>
      </trkpt>
      <trkpt lat="45.74339" lon="5.63607">
        <ele>377</ele>
        <time>2018-06-10T16:54:36Z</time>
      </trkpt>
      <trkpt lat="45.7433" lon="5.63608">
        <ele>377</ele>
        <time>2018-06-10T16:54:36Z</time>
      </trkpt>
      <trkpt lat="45.74322" lon="5.63607">
        <ele>377</ele>
        <time>2018-06-10T16:54:52Z</time>
      </trkpt>
      <trkpt lat="45.74317" lon="5.63606">
        <ele>377</ele>
        <time>2018-06-10T16:54:52Z</time>
      </trkpt>
      <trkpt lat="45.74311" lon="5.63607">
        <ele>377</ele>
        <time>2018-06-10T16:54:52Z</time>
      </trkpt>
      <trkpt lat="45.74305" lon="5.63606">
        <ele>377</ele>
        <time>2018-06-10T16:54:52Z</time>
      </trkpt>
      <trkpt lat="45.74297" lon="5.63603">
        <ele>377</ele>
        <time>2018-06-10T16:55:08Z</time>
      </trkpt>
      <trkpt lat="45.74292" lon="5.63601">
        <ele>385</ele>
        <time>2018-06-10T16:55:08Z</time>
      </trkpt>
      <trkpt lat="45.74286" lon="5.63601">
        <ele>385</ele>
        <time>2018-06-10T16:55:08Z</time>
      </trkpt>
      <trkpt lat="45.74279" lon="5.63603">
        <ele>385</ele>
        <time>2018-06-10T16:55:08Z</time>
      </trkpt>
      <trkpt lat="45.74271" lon="5.63603">
        <ele>385</ele>
        <time>2018-06-10T16:55:24Z</time>
      </trkpt>
      <trkpt lat="45.74266" lon="5.63605">
        <ele>385</ele>
        <time>2018-06-10T16:55:24Z</time>
      </trkpt>
      <trkpt lat="45.74262" lon="5.63605">
        <ele>385</ele>
        <time>2018-06-10T16:55:24Z</time>
      </trkpt>
      <trkpt lat="45.74257" lon="5.63605">
        <ele>385</ele>
        <time>2018-06-10T16:55:24Z</time>
      </trkpt>
      <trkpt lat="45.74246" lon="5.63611">
        <ele>385</ele>
        <time>2018-06-10T16:55:40Z</time>
      </trkpt>
      <trkpt lat="45.74238" lon="5.63614">
        <ele>385</ele>
        <time>2018-06-10T16:55:40Z</time>
      </trkpt>
      <trkpt lat="45.7423" lon="5.63614">
        <ele>385</ele>
        <time>2018-06-10T16:55:40Z</time>
      </trkpt>
      <trkpt lat="45.74225" lon="5.63615">
        <ele>385</ele>
        <time>2018-06-10T16:55:40Z</time>
      </trkpt>
      <trkpt lat="45.74217" lon="5.63619">
        <ele>385</ele>
        <time>2018-06-10T16:55:56Z</time>
      </trkpt>
      <trkpt lat="45.74213" lon="5.63619">
        <ele>385</ele>
        <time>2018-06-10T16:55:56Z</time>
      </trkpt>
      <trkpt lat="45.74208" lon="5.63619">
        <ele>385</ele>
        <time>2018-06-10T16:55:56Z</time>
      </trkpt>
      <trkpt lat="45.74202" lon="5.63617">
        <ele>385</ele>
        <time>2018-06-10T16:55:56Z</time>
      </trkpt>
      <trkpt lat="45.74197" lon="5.63616">
        <ele>385</ele>
        <time>2018-06-10T16:56:12Z</time>
      </trkpt>
      <trkpt lat="45.74192" lon="5.63618">
        <ele>385</ele>
        <time>2018-06-10T16:56:12Z</time>
      </trkpt>
      <trkpt lat="45.74183" lon="5.63622">
        <ele>385</ele>
        <time>2018-06-10T16:56:12Z</time>
      </trkpt>
      <trkpt lat="45.74177" lon="5.63624">
        <ele>385</ele>
        <time>2018-06-10T16:56:12Z</time>
      </trkpt>
      <trkpt lat="45.74168" lon="5.63626">
        <ele>381</ele>
        <time>2018-06-10T16:56:28Z</time>
      </trkpt>
      <trkpt lat="45.74162" lon="5.63628">
        <ele>381</ele>
        <time>2018-06-10T16:56:28Z</time>
      </trkpt>
      <trkpt lat="45.74157" lon="5.6363">
        <ele>381</ele>
        <time>2018-06-10T16:56:28Z</time>
      </trkpt>
      <trkpt lat="45.74151" lon="5.6363">
        <ele>381</ele>
        <time>2018-06-10T16:56:28Z</time>
      </trkpt>
      <trkpt lat="45.74146" lon="5.63629">
        <ele>381</ele>
        <time>2018-06-10T16:56:44Z</time>
      </trkpt>
      <trkpt lat="45.7414" lon="5.6363">
        <ele>381</ele>
        <time>2018-06-10T16:56:44Z</time>
      </trkpt>
      <trkpt lat="45.74133" lon="5.6363">
        <ele>381</ele>
        <time>2018-06-10T16:56:44Z</time>
      </trkpt>
      <trkpt lat="45.74124" lon="5.63629">
        <ele>379</ele>
        <time>2018-06-10T16:56:44Z</time>
      </trkpt>
      <trkpt lat="45.74117" lon="5.63627">
        <ele>379</ele>
        <time>2018-06-10T16:57:00Z</time>
      </trkpt>
      <trkpt lat="45.74109" lon="5.63625">
        <ele>379</ele>
        <time>2018-06-10T16:57:00Z</time>
      </trkpt>
      <trkpt lat="45.74105" lon="5.63625">
        <ele>379</ele>
        <time>2018-06-10T16:57:00Z</time>
      </trkpt>
      <trkpt lat="45.74101" lon="5.63625">
        <ele>383</ele>
        <time>2018-06-10T16:57:00Z</time>
      </trkpt>
      <trkpt lat="45.74094" lon="5.63625">
        <ele>383</ele>
        <time>2018-06-10T16:57:16Z</time>
      </trkpt>
      <trkpt lat="45.74087" lon="5.63625">
        <ele>383</ele>
        <time>2018-06-10T16:57:16Z</time>
      </trkpt>
      <trkpt lat="45.74081" lon="5.63626">
        <ele>379</ele>
        <time>2018-06-10T16:57:16Z</time>
      </trkpt>
      <trkpt lat="45.74075" lon="5.63626">
        <ele>379</ele>
        <time>2018-06-10T16:57:16Z</time>
      </trkpt>
      <trkpt lat="45.7407" lon="5.63626">
        <ele>379</ele>
        <time>2018-06-10T16:57:32Z</time>
      </trkpt>
      <trkpt lat="45.74063" lon="5.63629">
        <ele>379</ele>
        <time>2018-06-10T16:57:32Z</time>
      </trkpt>
      <trkpt lat="45.74058" lon="5.63632">
        <ele>379</ele>
        <time>2018-06-10T16:57:32Z</time>
      </trkpt>
      <trkpt lat="45.74055" lon="5.63633">
        <ele>379</ele>
        <time>2018-06-10T16:57:32Z</time>
      </trkpt>
      <trkpt lat="45.74051" lon="5.63631">
        <ele>379</ele>
        <time>2018-06-10T16:57:48Z</time>
      </trkpt>
      <trkpt lat="45.74043" lon="5.63631">
        <ele>379</ele>
        <time>2018-06-10T16:57:48Z</time>
      </trkpt>
      <trkpt lat="45.74036" lon="5.63633">
        <ele>373</ele>
        <time>2018-06-10T16:57:48Z</time>
      </trkpt>
      <trkpt lat="45.74032" lon="5.63634">
        <ele>373</ele>
        <time>2018-06-10T16:57:48Z</time>
      </trkpt>
      <trkpt lat="45.74024" lon="5.63633">
        <ele>373</ele>
        <time>2018-06-10T16:58:04Z</time>
      </trkpt>
      <trkpt lat="45.74019" lon="5.63631">
        <ele>373</ele>
        <time>2018-06-10T16:58:04Z</time>
      </trkpt>
      <trkpt lat="45.74017" lon="5.63637">
        <ele>373</ele>
        <time>2018-06-10T16:58:04Z</time>
      </trkpt>
      <trkpt lat="45.74016" lon="5.63641">
        <ele>373</ele>
        <time>2018-06-10T16:58:04Z</time>
      </trkpt>
      <trkpt lat="45.74015" lon="5.63647">
        <ele>373</ele>
        <time>2018-06-10T16:58:20Z</time>
      </trkpt>
      <trkpt lat="45.74012" lon="5.63652">
        <ele>373</ele>
        <time>2018-06-10T16:58:20Z</time>
      </trkpt>
      <trkpt lat="45.74009" lon="5.63657">
        <ele>373</ele>
        <time>2018-06-10T16:58:20Z</time>
      </trkpt>
      <trkpt lat="45.74005" lon="5.63672">
        <ele>373</ele>
        <time>2018-06-10T16:58:20Z</time>
      </trkpt>
      <trkpt lat="45.74005" lon="5.63684">
        <ele>373</ele>
        <time>2018-06-10T16:58:36Z</time>
      </trkpt>
      <trkpt lat="45.74006" lon="5.63692">
        <ele>373</ele>
        <time>2018-06-10T16:58:36Z</time>
      </trkpt>
      <trkpt lat="45.74006" lon="5.63699">
        <ele>373</ele>
        <time>2018-06-10T16:58:36Z</time>
      </trkpt>
      <trkpt lat="45.74005" lon="5.63708">
        <ele>373</ele>
        <time>2018-06-10T16:58:36Z</time>
      </trkpt>
      <trkpt lat="45.74005" lon="5.63715">
        <ele>376</ele>
        <time>2018-06-10T16:58:52Z</time>
      </trkpt>
      <trkpt lat="45.74005" lon="5.6372">
        <ele>376</ele>
        <time>2018-06-10T16:58:52Z</time>
      </trkpt>
      <trkpt lat="45.74006" lon="5.63731">
        <ele>376</ele>
        <time>2018-06-10T16:58:52Z</time>
      </trkpt>
      <trkpt lat="45.74007" lon="5.63738">
        <ele>376</ele>
        <time>2018-06-10T16:58:52Z</time>
      </trkpt>
      <trkpt lat="45.74008" lon="5.6375">
        <ele>376</ele>
        <time>2018-06-10T16:59:08Z</time>
      </trkpt>
      <trkpt lat="45.74007" lon="5.63758">
        <ele>376</ele>
        <time>2018-06-10T16:59:08Z</time>
      </trkpt>
      <trkpt lat="45.7401" lon="5.63765">
        <ele>376</ele>
        <time>2018-06-10T16:59:08Z</time>
      </trkpt>
      <trkpt lat="45.74017" lon="5.63774">
        <ele>376</ele>
        <time>2018-06-10T16:59:08Z</time>
      </trkpt>
      <trkpt lat="45.74016" lon="5.63787">
        <ele>376</ele>
        <time>2018-06-10T16:59:56Z</time>
      </trkpt>
      <trkpt lat="45.74015" lon="5.63788">
        <ele>376</ele>
        <time>2018-06-10T16:59:56Z</time>
      </trkpt>
      <trkpt lat="45.74009" lon="5.63793">
        <ele>375</ele>
        <time>2018-06-10T16:59:56Z</time>
      </trkpt>
      <trkpt lat="45.74004" lon="5.63796">
        <ele>375</ele>
        <time>2018-06-10T16:59:56Z</time>
      </trkpt>
      <trkpt lat="45.74002" lon="5.63799">
        <ele>375</ele>
        <time>2018-06-10T16:59:56Z</time>
      </trkpt>
      <trkpt lat="45.74001" lon="5.63802">
        <ele>375</ele>
        <time>2018-06-10T17:00:12Z</time>
      </trkpt>
      <trkpt lat="45.73999" lon="5.63811">
        <ele>375</ele>
        <time>2018-06-10T17:00:12Z</time>
      </trkpt>
      <trkpt lat="45.73997" lon="5.63818">
        <ele>375</ele>
        <time>2018-06-10T17:00:12Z</time>
      </trkpt>
      <trkpt lat="45.73996" lon="5.63822">
        <ele>375</ele>
        <time>2018-06-10T17:00:12Z</time>
      </trkpt>
      <trkpt lat="45.73996" lon="5.63836">
        <ele>375</ele>
        <time>2018-06-10T17:00:44Z</time>
      </trkpt>
      <trkpt lat="45.73996" lon="5.63838">
        <ele>375</ele>
        <time>2018-06-10T17:00:44Z</time>
      </trkpt>
      <trkpt lat="45.73996" lon="5.63838">
        <ele>375</ele>
        <time>2018-06-10T17:00:44Z</time>
      </trkpt>
      <trkpt lat="45.73997" lon="5.63841">
        <ele>375</ele>
        <time>2018-06-10T17:00:44Z</time>
      </trkpt>
      <trkpt lat="45.73998" lon="5.63847">
        <ele>375</ele>
        <time>2018-06-10T17:00:44Z</time>
      </trkpt>
      <trkpt lat="45.74001" lon="5.63855">
        <ele>375</ele>
        <time>2018-06-10T17:01:08Z</time>
      </trkpt>
      <trkpt lat="45.74001" lon="5.63855">
        <ele>375</ele>
        <time>2018-06-10T17:01:08Z</time>
      </trkpt>
      <trkpt lat="45.74" lon="5.63857">
        <ele>375</ele>
        <time>2018-06-10T17:01:08Z</time>
      </trkpt>
      <trkpt lat="45.74" lon="5.63863">
        <ele>375</ele>
        <time>2018-06-10T17:01:08Z</time>
      </trkpt>
      <trkpt lat="45.73995" lon="5.63865">
        <ele>375</ele>
        <time>2018-06-10T17:01:08Z</time>
      </trkpt>
      <trkpt lat="45.73993" lon="5.63862">
        <ele>375</ele>
        <time>2018-06-10T17:01:28Z</time>
      </trkpt>
      <trkpt lat="45.73992" lon="5.63862">
        <ele>375</ele>
        <time>2018-06-10T17:01:28Z</time>
      </trkpt>
      <trkpt lat="45.7399" lon="5.63861">
        <ele>375</ele>
        <time>2018-06-10T17:01:28Z</time>
      </trkpt>
      <trkpt lat="45.73985" lon="5.6386">
        <ele>375</ele>
        <time>2018-06-10T17:01:28Z</time>
      </trkpt>
      <trkpt lat="45.73979" lon="5.63859">
        <ele>375</ele>
        <time>2018-06-10T17:01:28Z</time>
      </trkpt>
      <trkpt lat="45.73972" lon="5.63861">
        <ele>375</ele>
        <time>2018-06-10T17:01:52Z</time>
      </trkpt>
      <trkpt lat="45.73968" lon="5.63864">
        <ele>375</ele>
        <time>2018-06-10T17:01:52Z</time>
      </trkpt>
      <trkpt lat="45.73968" lon="5.63863">
        <ele>375</ele>
        <time>2018-06-10T17:01:52Z</time>
      </trkpt>
      <trkpt lat="45.73967" lon="5.63864">
        <ele>375</ele>
        <time>2018-06-10T17:01:52Z</time>
      </trkpt>
      <trkpt lat="45.73961" lon="5.63864">
        <ele>375</ele>
        <time>2018-06-10T17:01:52Z</time>
      </trkpt>
      <trkpt lat="45.73963" lon="5.63867">
        <ele>375</ele>
        <time>2018-06-10T17:02:44Z</time>
      </trkpt>
      <trkpt lat="45.73966" lon="5.63873">
        <ele>375</ele>
        <time>2018-06-10T17:02:44Z</time>
      </trkpt>
      <trkpt lat="45.73968" lon="5.63875">
        <ele>375</ele>
        <time>2018-06-10T17:02:44Z</time>
      </trkpt>
      <trkpt lat="45.73956" lon="5.63883">
        <ele>366</ele>
        <time>2018-06-10T17:02:44Z</time>
      </trkpt>
      <trkpt lat="45.73947" lon="5.63882">
        <ele>366</ele>
        <time>2018-06-10T17:02:44Z</time>
      </trkpt>
      <trkpt lat="45.73945" lon="5.63876">
        <ele>366</ele>
        <time>2018-06-10T17:03:36Z</time>
      </trkpt>
      <trkpt lat="45.73945" lon="5.63875">
        <ele>366</ele>
        <time>2018-06-10T17:03:36Z</time>
      </trkpt>
      <trkpt lat="45.73943" lon="5.63871">
        <ele>376</ele>
        <time>2018-06-10T17:03:36Z</time>
      </trkpt>
      <trkpt lat="45.73943" lon="5.6387">
        <ele>376</ele>
        <time>2018-06-10T17:03:36Z</time>
      </trkpt>
      <trkpt lat="45.73942" lon="5.63869">
        <ele>376</ele>
        <time>2018-06-10T17:03:36Z</time>
      </trkpt>
      <trkpt lat="45.73942" lon="5.63868">
        <ele>376</ele>
        <time>2018-06-10T17:03:52Z</time>
      </trkpt>
      <trkpt lat="45.73939" lon="5.63866">
        <ele>376</ele>
        <time>2018-06-10T17:03:52Z</time>
      </trkpt>
      <trkpt lat="45.73934" lon="5.63865">
        <ele>376</ele>
        <time>2018-06-10T17:03:52Z</time>
      </trkpt>
      <trkpt lat="45.73929" lon="5.63867">
        <ele>376</ele>
        <time>2018-06-10T17:03:52Z</time>
      </trkpt>
      <trkpt lat="45.73924" lon="5.63866">
        <ele>376</ele>
        <time>2018-06-10T17:04:08Z</time>
      </trkpt>
      <trkpt lat="45.73921" lon="5.63865">
        <ele>376</ele>
        <time>2018-06-10T17:04:08Z</time>
      </trkpt>
      <trkpt lat="45.73916" lon="5.63864">
        <ele>376</ele>
        <time>2018-06-10T17:04:08Z</time>
      </trkpt>
      <trkpt lat="45.73908" lon="5.63861">
        <ele>376</ele>
        <time>2018-06-10T17:04:08Z</time>
      </trkpt>
      <trkpt lat="45.73902" lon="5.63862">
        <ele>376</ele>
        <time>2018-06-10T17:04:24Z</time>
      </trkpt>
      <trkpt lat="45.73895" lon="5.63861">
        <ele>376</ele>
        <time>2018-06-10T17:04:24Z</time>
      </trkpt>
      <trkpt lat="45.73889" lon="5.63856">
        <ele>376</ele>
        <time>2018-06-10T17:04:24Z</time>
      </trkpt>
      <trkpt lat="45.73885" lon="5.63854">
        <ele>376</ele>
        <time>2018-06-10T17:04:24Z</time>
      </trkpt>
      <trkpt lat="45.73878" lon="5.63852">
        <ele>376</ele>
        <time>2018-06-10T17:04:40Z</time>
      </trkpt>
      <trkpt lat="45.73873" lon="5.63849">
        <ele>374</ele>
        <time>2018-06-10T17:04:40Z</time>
      </trkpt>
      <trkpt lat="45.73867" lon="5.63847">
        <ele>374</ele>
        <time>2018-06-10T17:04:40Z</time>
      </trkpt>
      <trkpt lat="45.7386" lon="5.63844">
        <ele>374</ele>
        <time>2018-06-10T17:04:40Z</time>
      </trkpt>
      <trkpt lat="45.73853" lon="5.63841">
        <ele>374</ele>
        <time>2018-06-10T17:04:56Z</time>
      </trkpt>
      <trkpt lat="45.73849" lon="5.63837">
        <ele>374</ele>
        <time>2018-06-10T17:04:56Z</time>
      </trkpt>
      <trkpt lat="45.73844" lon="5.63834">
        <ele>374</ele>
        <time>2018-06-10T17:04:56Z</time>
      </trkpt>
      <trkpt lat="45.73839" lon="5.6383">
        <ele>374</ele>
        <time>2018-06-10T17:04:56Z</time>
      </trkpt>
      <trkpt lat="45.73833" lon="5.63825">
        <ele>374</ele>
        <time>2018-06-10T17:05:12Z</time>
      </trkpt>
      <trkpt lat="45.73827" lon="5.63823">
        <ele>374</ele>
        <time>2018-06-10T17:05:12Z</time>
      </trkpt>
      <trkpt lat="45.73823" lon="5.63821">
        <ele>374</ele>
        <time>2018-06-10T17:05:12Z</time>
      </trkpt>
      <trkpt lat="45.73819" lon="5.63821">
        <ele>374</ele>
        <time>2018-06-10T17:05:12Z</time>
      </trkpt>
      <trkpt lat="45.73816" lon="5.6382">
        <ele>374</ele>
        <time>2018-06-10T17:05:28Z</time>
      </trkpt>
      <trkpt lat="45.73811" lon="5.63818">
        <ele>374</ele>
        <time>2018-06-10T17:05:28Z</time>
      </trkpt>
      <trkpt lat="45.73803" lon="5.6381">
        <ele>374</ele>
        <time>2018-06-10T17:05:28Z</time>
      </trkpt>
      <trkpt lat="45.73798" lon="5.63804">
        <ele>374</ele>
        <time>2018-06-10T17:05:28Z</time>
      </trkpt>
      <trkpt lat="45.73792" lon="5.63798">
        <ele>374</ele>
        <time>2018-06-10T17:05:44Z</time>
      </trkpt>
      <trkpt lat="45.73788" lon="5.63794">
        <ele>371</ele>
        <time>2018-06-10T17:05:44Z</time>
      </trkpt>
      <trkpt lat="45.73783" lon="5.63787">
        <ele>380</ele>
        <time>2018-06-10T17:05:44Z</time>
      </trkpt>
      <trkpt lat="45.73776" lon="5.63783">
        <ele>380</ele>
        <time>2018-06-10T17:05:44Z</time>
      </trkpt>
      <trkpt lat="45.7377" lon="5.63778">
        <ele>380</ele>
        <time>2018-06-10T17:06:00Z</time>
      </trkpt>
      <trkpt lat="45.73765" lon="5.63775">
        <ele>380</ele>
        <time>2018-06-10T17:06:00Z</time>
      </trkpt>
      <trkpt lat="45.73761" lon="5.63771">
        <ele>380</ele>
        <time>2018-06-10T17:06:00Z</time>
      </trkpt>
      <trkpt lat="45.73758" lon="5.63766">
        <ele>380</ele>
        <time>2018-06-10T17:06:00Z</time>
      </trkpt>
      <trkpt lat="45.73752" lon="5.63758">
        <ele>380</ele>
        <time>2018-06-10T17:06:16Z</time>
      </trkpt>
      <trkpt lat="45.73749" lon="5.63754">
        <ele>380</ele>
        <time>2018-06-10T17:06:16Z</time>
      </trkpt>
      <trkpt lat="45.73747" lon="5.63751">
        <ele>380</ele>
        <time>2018-06-10T17:06:16Z</time>
      </trkpt>
      <trkpt lat="45.73741" lon="5.63748">
        <ele>380</ele>
        <time>2018-06-10T17:06:16Z</time>
      </trkpt>
      <trkpt lat="45.73735" lon="5.63745">
        <ele>380</ele>
        <time>2018-06-10T17:06:32Z</time>
      </trkpt>
      <trkpt lat="45.7373" lon="5.63742">
        <ele>380</ele>
        <time>2018-06-10T17:06:32Z</time>
      </trkpt>
      <trkpt lat="45.73725" lon="5.63737">
        <ele>380</ele>
        <time>2018-06-10T17:06:32Z</time>
      </trkpt>
      <trkpt lat="45.73721" lon="5.63734">
        <ele>380</ele>
        <time>2018-06-10T17:06:32Z</time>
      </trkpt>
      <trkpt lat="45.73715" lon="5.63731">
        <ele>380</ele>
        <time>2018-06-10T17:06:48Z</time>
      </trkpt>
      <trkpt lat="45.73709" lon="5.63727">
        <ele>380</ele>
        <time>2018-06-10T17:06:48Z</time>
      </trkpt>
      <trkpt lat="45.73702" lon="5.63722">
        <ele>374</ele>
        <time>2018-06-10T17:06:48Z</time>
      </trkpt>
      <trkpt lat="45.73695" lon="5.63717">
        <ele>374</ele>
        <time>2018-06-10T17:06:48Z</time>
      </trkpt>
      <trkpt lat="45.73689" lon="5.63714">
        <ele>374</ele>
        <time>2018-06-10T17:07:04Z</time>
      </trkpt>
      <trkpt lat="45.73684" lon="5.63709">
        <ele>374</ele>
        <time>2018-06-10T17:07:04Z</time>
      </trkpt>
      <trkpt lat="45.7368" lon="5.63706">
        <ele>376</ele>
        <time>2018-06-10T17:07:04Z</time>
      </trkpt>
      <trkpt lat="45.73673" lon="5.63701">
        <ele>376</ele>
        <time>2018-06-10T17:07:04Z</time>
      </trkpt>
      <trkpt lat="45.73666" lon="5.63697">
        <ele>376</ele>
        <time>2018-06-10T17:07:20Z</time>
      </trkpt>
      <trkpt lat="45.73662" lon="5.63693">
        <ele>376</ele>
        <time>2018-06-10T17:07:20Z</time>
      </trkpt>
      <trkpt lat="45.73656" lon="5.63686">
        <ele>376</ele>
        <time>2018-06-10T17:07:20Z</time>
      </trkpt>
      <trkpt lat="45.73651" lon="5.63682">
        <ele>376</ele>
        <time>2018-06-10T17:07:20Z</time>
      </trkpt>
      <trkpt lat="45.73646" lon="5.6368">
        <ele>376</ele>
        <time>2018-06-10T17:07:36Z</time>
      </trkpt>
      <trkpt lat="45.7364" lon="5.6368">
        <ele>376</ele>
        <time>2018-06-10T17:07:36Z</time>
      </trkpt>
      <trkpt lat="45.73634" lon="5.63679">
        <ele>376</ele>
        <time>2018-06-10T17:07:36Z</time>
      </trkpt>
      <trkpt lat="45.73627" lon="5.6368">
        <ele>376</ele>
        <time>2018-06-10T17:07:36Z</time>
      </trkpt>
      <trkpt lat="45.73621" lon="5.6368">
        <ele>372</ele>
        <time>2018-06-10T17:07:52Z</time>
      </trkpt>
      <trkpt lat="45.73615" lon="5.63681">
        <ele>372</ele>
        <time>2018-06-10T17:07:52Z</time>
      </trkpt>
      <trkpt lat="45.73609" lon="5.6368">
        <ele>372</ele>
        <time>2018-06-10T17:07:52Z</time>
      </trkpt>
      <trkpt lat="45.73604" lon="5.63675">
        <ele>372</ele>
        <time>2018-06-10T17:07:52Z</time>
      </trkpt>
      <trkpt lat="45.736" lon="5.6367">
        <ele>372</ele>
        <time>2018-06-10T17:08:08Z</time>
      </trkpt>
      <trkpt lat="45.73598" lon="5.63662">
        <ele>372</ele>
        <time>2018-06-10T17:08:08Z</time>
      </trkpt>
      <trkpt lat="45.73597" lon="5.63651">
        <ele>372</ele>
        <time>2018-06-10T17:08:08Z</time>
      </trkpt>
      <trkpt lat="45.73599" lon="5.63643">
        <ele>372</ele>
        <time>2018-06-10T17:08:08Z</time>
      </trkpt>
      <trkpt lat="45.73599" lon="5.63632">
        <ele>372</ele>
        <time>2018-06-10T17:08:24Z</time>
      </trkpt>
      <trkpt lat="45.73601" lon="5.63625">
        <ele>372</ele>
        <time>2018-06-10T17:08:24Z</time>
      </trkpt>
      <trkpt lat="45.73604" lon="5.63624">
        <ele>374</ele>
        <time>2018-06-10T17:08:24Z</time>
      </trkpt>
      <trkpt lat="45.73607" lon="5.63619">
        <ele>374</ele>
        <time>2018-06-10T17:08:24Z</time>
      </trkpt>
      <trkpt lat="45.73613" lon="5.63611">
        <ele>374</ele>
        <time>2018-06-10T17:08:40Z</time>
      </trkpt>
      <trkpt lat="45.73617" lon="5.63608">
        <ele>374</ele>
        <time>2018-06-10T17:08:40Z</time>
      </trkpt>
      <trkpt lat="45.73624" lon="5.63605">
        <ele>374</ele>
        <time>2018-06-10T17:08:40Z</time>
      </trkpt>
      <trkpt lat="45.73628" lon="5.63603">
        <ele>373</ele>
        <time>2018-06-10T17:08:40Z</time>
      </trkpt>
      <trkpt lat="45.7363" lon="5.636">
        <ele>373</ele>
        <time>2018-06-10T17:08:56Z</time>
      </trkpt>
      <trkpt lat="45.73636" lon="5.63596">
        <ele>373</ele>
        <time>2018-06-10T17:08:56Z</time>
      </trkpt>
      <trkpt lat="45.73643" lon="5.63592">
        <ele>373</ele>
        <time>2018-06-10T17:08:56Z</time>
      </trkpt>
      <trkpt lat="45.73647" lon="5.63586">
        <ele>373</ele>
        <time>2018-06-10T17:08:56Z</time>
      </trkpt>
      <trkpt lat="45.73652" lon="5.63583">
        <ele>373</ele>
        <time>2018-06-10T17:09:12Z</time>
      </trkpt>
      <trkpt lat="45.73656" lon="5.6358">
        <ele>373</ele>
        <time>2018-06-10T17:09:12Z</time>
      </trkpt>
      <trkpt lat="45.73661" lon="5.63578">
        <ele>373</ele>
        <time>2018-06-10T17:09:12Z</time>
      </trkpt>
      <trkpt lat="45.73668" lon="5.63577">
        <ele>373</ele>
        <time>2018-06-10T17:09:12Z</time>
      </trkpt>
      <trkpt lat="45.73673" lon="5.63576">
        <ele>373</ele>
        <time>2018-06-10T17:09:28Z</time>
      </trkpt>
      <trkpt lat="45.73677" lon="5.63574">
        <ele>373</ele>
        <time>2018-06-10T17:09:28Z</time>
      </trkpt>
      <trkpt lat="45.73682" lon="5.63569">
        <ele>373</ele>
        <time>2018-06-10T17:09:28Z</time>
      </trkpt>
      <trkpt lat="45.73685" lon="5.63562">
        <ele>373</ele>
        <time>2018-06-10T17:09:28Z</time>
      </trkpt>
      <trkpt lat="45.73687" lon="5.6355">
        <ele>373</ele>
        <time>2018-06-10T17:09:44Z</time>
      </trkpt>
      <trkpt lat="45.73687" lon="5.63541">
        <ele>373</ele>
        <time>2018-06-10T17:09:44Z</time>
      </trkpt>
      <trkpt lat="45.73686" lon="5.63533">
        <ele>373</ele>
        <time>2018-06-10T17:09:44Z</time>
      </trkpt>
      <trkpt lat="45.73685" lon="5.63524">
        <ele>373</ele>
        <time>2018-06-10T17:09:44Z</time>
      </trkpt>
      <trkpt lat="45.73685" lon="5.63517">
        <ele>373</ele>
        <time>2018-06-10T17:10:00Z</time>
      </trkpt>
      <trkpt lat="45.73684" lon="5.63512">
        <ele>373</ele>
        <time>2018-06-10T17:10:00Z</time>
      </trkpt>
      <trkpt lat="45.73682" lon="5.63506">
        <ele>373</ele>
        <time>2018-06-10T17:10:00Z</time>
      </trkpt>
      <trkpt lat="45.7368" lon="5.63498">
        <ele>373</ele>
        <time>2018-06-10T17:10:00Z</time>
      </trkpt>
      <trkpt lat="45.73677" lon="5.6349">
        <ele>373</ele>
        <time>2018-06-10T17:10:16Z</time>
      </trkpt>
      <trkpt lat="45.73673" lon="5.63483">
        <ele>373</ele>
        <time>2018-06-10T17:10:16Z</time>
      </trkpt>
      <trkpt lat="45.7367" lon="5.63474">
        <ele>373</ele>
        <time>2018-06-10T17:10:16Z</time>
      </trkpt>
      <trkpt lat="45.73667" lon="5.63464">
        <ele>373</ele>
        <time>2018-06-10T17:10:16Z</time>
      </trkpt>
      <trkpt lat="45.73666" lon="5.63454">
        <ele>371</ele>
        <time>2018-06-10T17:10:32Z</time>
      </trkpt>
      <trkpt lat="45.73666" lon="5.63447">
        <ele>371</ele>
        <time>2018-06-10T17:10:32Z</time>
      </trkpt>
      <trkpt lat="45.73668" lon="5.63441">
        <ele>371</ele>
        <time>2018-06-10T17:10:32Z</time>
      </trkpt>
      <trkpt lat="45.73668" lon="5.63434">
        <ele>371</ele>
        <time>2018-06-10T17:10:32Z</time>
      </trkpt>
      <trkpt lat="45.73668" lon="5.63428">
        <ele>371</ele>
        <time>2018-06-10T17:10:48Z</time>
      </trkpt>
      <trkpt lat="45.73668" lon="5.63419">
        <ele>371</ele>
        <time>2018-06-10T17:10:48Z</time>
      </trkpt>
      <trkpt lat="45.73667" lon="5.63411">
        <ele>371</ele>
        <time>2018-06-10T17:10:48Z</time>
      </trkpt>
      <trkpt lat="45.73664" lon="5.63404">
        <ele>371</ele>
        <time>2018-06-10T17:10:48Z</time>
      </trkpt>
      <trkpt lat="45.73661" lon="5.63399">
        <ele>371</ele>
        <time>2018-06-10T17:11:04Z</time>
      </trkpt>
      <trkpt lat="45.73657" lon="5.63397">
        <ele>371</ele>
        <time>2018-06-10T17:11:04Z</time>
      </trkpt>
      <trkpt lat="45.73653" lon="5.63392">
        <ele>371</ele>
        <time>2018-06-10T17:11:04Z</time>
      </trkpt>
      <trkpt lat="45.73647" lon="5.63388">
        <ele>371</ele>
        <time>2018-06-10T17:11:04Z</time>
      </trkpt>
      <trkpt lat="45.73641" lon="5.63387">
        <ele>371</ele>
        <time>2018-06-10T17:11:20Z</time>
      </trkpt>
      <trkpt lat="45.73637" lon="5.63387">
        <ele>371</ele>
        <time>2018-06-10T17:11:20Z</time>
      </trkpt>
      <trkpt lat="45.73632" lon="5.63386">
        <ele>371</ele>
        <time>2018-06-10T17:11:20Z</time>
      </trkpt>
      <trkpt lat="45.73625" lon="5.63383">
        <ele>371</ele>
        <time>2018-06-10T17:11:20Z</time>
      </trkpt>
      <trkpt lat="45.73619" lon="5.63383">
        <ele>374</ele>
        <time>2018-06-10T17:11:36Z</time>
      </trkpt>
      <trkpt lat="45.73614" lon="5.63385">
        <ele>374</ele>
        <time>2018-06-10T17:11:36Z</time>
      </trkpt>
      <trkpt lat="45.73609" lon="5.63386">
        <ele>374</ele>
        <time>2018-06-10T17:11:36Z</time>
      </trkpt>
      <trkpt lat="45.73604" lon="5.63387">
        <ele>374</ele>
        <time>2018-06-10T17:11:36Z</time>
      </trkpt>
      <trkpt lat="45.736" lon="5.63386">
        <ele>374</ele>
        <time>2018-06-10T17:11:52Z</time>
      </trkpt>
      <trkpt lat="45.73595" lon="5.63386">
        <ele>374</ele>
        <time>2018-06-10T17:11:52Z</time>
      </trkpt>
      <trkpt lat="45.73588" lon="5.63386">
        <ele>374</ele>
        <time>2018-06-10T17:11:52Z</time>
      </trkpt>
      <trkpt lat="45.73584" lon="5.63385">
        <ele>374</ele>
        <time>2018-06-10T17:11:52Z</time>
      </trkpt>
      <trkpt lat="45.73578" lon="5.63384">
        <ele>374</ele>
        <time>2018-06-10T17:12:08Z</time>
      </trkpt>
      <trkpt lat="45.73575" lon="5.63385">
        <ele>374</ele>
        <time>2018-06-10T17:12:08Z</time>
      </trkpt>
      <trkpt lat="45.73572" lon="5.63383">
        <ele>374</ele>
        <time>2018-06-10T17:12:08Z</time>
      </trkpt>
      <trkpt lat="45.73568" lon="5.63381">
        <ele>374</ele>
        <time>2018-06-10T17:12:08Z</time>
      </trkpt>
      <trkpt lat="45.73561" lon="5.6338">
        <ele>374</ele>
        <time>2018-06-10T17:12:24Z</time>
      </trkpt>
      <trkpt lat="45.73553" lon="5.63383">
        <ele>374</ele>
        <time>2018-06-10T17:12:24Z</time>
      </trkpt>
      <trkpt lat="45.73548" lon="5.63381">
        <ele>374</ele>
        <time>2018-06-10T17:12:24Z</time>
      </trkpt>
      <trkpt lat="45.73538" lon="5.6338">
        <ele>376</ele>
        <time>2018-06-10T17:12:24Z</time>
      </trkpt>
      <trkpt lat="45.73533" lon="5.6338">
        <ele>376</ele>
        <time>2018-06-10T17:12:40Z</time>
      </trkpt>
      <trkpt lat="45.73527" lon="5.63378">
        <ele>376</ele>
        <time>2018-06-10T17:12:40Z</time>
      </trkpt>
      <trkpt lat="45.73522" lon="5.63374">
        <ele>376</ele>
        <time>2018-06-10T17:12:40Z</time>
      </trkpt>
      <trkpt lat="45.73517" lon="5.63371">
        <ele>376</ele>
        <time>2018-06-10T17:12:40Z</time>
      </trkpt>
      <trkpt lat="45.73513" lon="5.63368">
        <ele>376</ele>
        <time>2018-06-10T17:12:56Z</time>
      </trkpt>
      <trkpt lat="45.73507" lon="5.63364">
        <ele>376</ele>
        <time>2018-06-10T17:12:56Z</time>
      </trkpt>
      <trkpt lat="45.735" lon="5.6336">
        <ele>376</ele>
        <time>2018-06-10T17:12:56Z</time>
      </trkpt>
      <trkpt lat="45.73494" lon="5.6336">
        <ele>376</ele>
        <time>2018-06-10T17:12:56Z</time>
      </trkpt>
      <trkpt lat="45.73488" lon="5.63362">
        <ele>376</ele>
        <time>2018-06-10T17:13:12Z</time>
      </trkpt>
      <trkpt lat="45.73482" lon="5.63364">
        <ele>376</ele>
        <time>2018-06-10T17:13:12Z</time>
      </trkpt>
      <trkpt lat="45.73477" lon="5.63367">
        <ele>376</ele>
        <time>2018-06-10T17:13:12Z</time>
      </trkpt>
      <trkpt lat="45.73473" lon="5.63368">
        <ele>376</ele>
        <time>2018-06-10T17:13:12Z</time>
      </trkpt>
      <trkpt lat="45.73469" lon="5.63373">
        <ele>376</ele>
        <time>2018-06-10T17:13:28Z</time>
      </trkpt>
      <trkpt lat="45.73465" lon="5.63386">
        <ele>376</ele>
        <time>2018-06-10T17:13:28Z</time>
      </trkpt>
      <trkpt lat="45.73461" lon="5.63394">
        <ele>376</ele>
        <time>2018-06-10T17:13:28Z</time>
      </trkpt>
      <trkpt lat="45.73455" lon="5.63394">
        <ele>381</ele>
        <time>2018-06-10T17:13:28Z</time>
      </trkpt>
      <trkpt lat="45.73448" lon="5.63394">
        <ele>381</ele>
        <time>2018-06-10T17:13:44Z</time>
      </trkpt>
      <trkpt lat="45.73442" lon="5.63396">
        <ele>381</ele>
        <time>2018-06-10T17:13:44Z</time>
      </trkpt>
      <trkpt lat="45.73438" lon="5.63399">
        <ele>381</ele>
        <time>2018-06-10T17:13:44Z</time>
      </trkpt>
      <trkpt lat="45.7343" lon="5.63401">
        <ele>381</ele>
        <time>2018-06-10T17:13:44Z</time>
      </trkpt>
      <trkpt lat="45.73424" lon="5.63404">
        <ele>381</ele>
        <time>2018-06-10T17:14:00Z</time>
      </trkpt>
      <trkpt lat="45.73421" lon="5.63405">
        <ele>381</ele>
        <time>2018-06-10T17:14:00Z</time>
      </trkpt>
      <trkpt lat="45.73413" lon="5.63406">
        <ele>381</ele>
        <time>2018-06-10T17:14:00Z</time>
      </trkpt>
      <trkpt lat="45.73409" lon="5.63406">
        <ele>381</ele>
        <time>2018-06-10T17:14:00Z</time>
      </trkpt>
      <trkpt lat="45.73401" lon="5.63404">
        <ele>381</ele>
        <time>2018-06-10T17:14:16Z</time>
      </trkpt>
      <trkpt lat="45.73395" lon="5.6341">
        <ele>381</ele>
        <time>2018-06-10T17:14:16Z</time>
      </trkpt>
      <trkpt lat="45.7339" lon="5.63412">
        <ele>381</ele>
        <time>2018-06-10T17:14:16Z</time>
      </trkpt>
      <trkpt lat="45.73385" lon="5.63413">
        <ele>381</ele>
        <time>2018-06-10T17:14:16Z</time>
      </trkpt>
      <trkpt lat="45.73378" lon="5.63415">
        <ele>381</ele>
        <time>2018-06-10T17:14:32Z</time>
      </trkpt>
      <trkpt lat="45.73372" lon="5.63416">
        <ele>383</ele>
        <time>2018-06-10T17:14:32Z</time>
      </trkpt>
      <trkpt lat="45.73367" lon="5.63419">
        <ele>383</ele>
        <time>2018-06-10T17:14:32Z</time>
      </trkpt>
      <trkpt lat="45.73362" lon="5.63423">
        <ele>383</ele>
        <time>2018-06-10T17:14:32Z</time>
      </trkpt>
      <trkpt lat="45.73358" lon="5.63428">
        <ele>383</ele>
        <time>2018-06-10T17:14:48Z</time>
      </trkpt>
      <trkpt lat="45.73357" lon="5.63435">
        <ele>383</ele>
        <time>2018-06-10T17:14:48Z</time>
      </trkpt>
      <trkpt lat="45.73355" lon="5.63441">
        <ele>383</ele>
        <time>2018-06-10T17:14:48Z</time>
      </trkpt>
      <trkpt lat="45.73353" lon="5.63448">
        <ele>383</ele>
        <time>2018-06-10T17:14:48Z</time>
      </trkpt>
      <trkpt lat="45.73352" lon="5.63455">
        <ele>383</ele>
        <time>2018-06-10T17:15:04Z</time>
      </trkpt>
      <trkpt lat="45.7335" lon="5.63461">
        <ele>379</ele>
        <time>2018-06-10T17:15:04Z</time>
      </trkpt>
      <trkpt lat="45.7335" lon="5.6347">
        <ele>379</ele>
        <time>2018-06-10T17:15:04Z</time>
      </trkpt>
      <trkpt lat="45.73348" lon="5.63479">
        <ele>379</ele>
        <time>2018-06-10T17:15:04Z</time>
      </trkpt>
      <trkpt lat="45.73344" lon="5.63481">
        <ele>379</ele>
        <time>2018-06-10T17:15:20Z</time>
      </trkpt>
      <trkpt lat="45.7334" lon="5.63482">
        <ele>379</ele>
        <time>2018-06-10T17:15:20Z</time>
      </trkpt>
      <trkpt lat="45.73333" lon="5.63483">
        <ele>379</ele>
        <time>2018-06-10T17:15:20Z</time>
      </trkpt>
      <trkpt lat="45.73328" lon="5.6348">
        <ele>379</ele>
        <time>2018-06-10T17:15:20Z</time>
      </trkpt>
      <trkpt lat="45.73323" lon="5.63478">
        <ele>379</ele>
        <time>2018-06-10T17:15:36Z</time>
      </trkpt>
      <trkpt lat="45.73319" lon="5.63478">
        <ele>379</ele>
        <time>2018-06-10T17:15:36Z</time>
      </trkpt>
      <trkpt lat="45.73315" lon="5.63479">
        <ele>379</ele>
        <time>2018-06-10T17:15:36Z</time>
      </trkpt>
      <trkpt lat="45.73311" lon="5.63483">
        <ele>379</ele>
        <time>2018-06-10T17:15:36Z</time>
      </trkpt>
      <trkpt lat="45.73306" lon="5.63488">
        <ele>379</ele>
        <time>2018-06-10T17:15:52Z</time>
      </trkpt>
      <trkpt lat="45.73302" lon="5.63493">
        <ele>379</ele>
        <time>2018-06-10T17:15:52Z</time>
      </trkpt>
      <trkpt lat="45.73298" lon="5.63497">
        <ele>379</ele>
        <time>2018-06-10T17:15:52Z</time>
      </trkpt>
      <trkpt lat="45.73294" lon="5.63498">
        <ele>379</ele>
        <time>2018-06-10T17:15:52Z</time>
      </trkpt>
      <trkpt lat="45.7329" lon="5.63501">
        <ele>379</ele>
        <time>2018-06-10T17:16:08Z</time>
      </trkpt>
      <trkpt lat="45.73287" lon="5.63505">
        <ele>379</ele>
        <time>2018-06-10T17:16:08Z</time>
      </trkpt>
      <trkpt lat="45.73284" lon="5.63512">
        <ele>379</ele>
        <time>2018-06-10T17:16:08Z</time>
      </trkpt>
      <trkpt lat="45.73279" lon="5.6352">
        <ele>379</ele>
        <time>2018-06-10T17:16:08Z</time>
      </trkpt>
      <trkpt lat="45.73275" lon="5.63524">
        <ele>379</ele>
        <time>2018-06-10T17:16:24Z</time>
      </trkpt>
      <trkpt lat="45.73271" lon="5.63526">
        <ele>379</ele>
        <time>2018-06-10T17:16:24Z</time>
      </trkpt>
      <trkpt lat="45.73267" lon="5.63526">
        <ele>379</ele>
        <time>2018-06-10T17:16:24Z</time>
      </trkpt>
      <trkpt lat="45.73262" lon="5.63531">
        <ele>379</ele>
        <time>2018-06-10T17:16:24Z</time>
      </trkpt>
      <trkpt lat="45.73258" lon="5.63534">
        <ele>379</ele>
        <time>2018-06-10T17:16:40Z</time>
      </trkpt>
      <trkpt lat="45.73254" lon="5.63535">
        <ele>379</ele>
        <time>2018-06-10T17:16:40Z</time>
      </trkpt>
      <trkpt lat="45.7325" lon="5.63535">
        <ele>379</ele>
        <time>2018-06-10T17:16:40Z</time>
      </trkpt>
      <trkpt lat="45.73245" lon="5.63538">
        <ele>379</ele>
        <time>2018-06-10T17:16:40Z</time>
      </trkpt>
      <trkpt lat="45.73239" lon="5.63541">
        <ele>379</ele>
        <time>2018-06-10T17:16:56Z</time>
      </trkpt>
      <trkpt lat="45.73233" lon="5.63543">
        <ele>368</ele>
        <time>2018-06-10T17:16:56Z</time>
      </trkpt>
      <trkpt lat="45.73227" lon="5.63545">
        <ele>368</ele>
        <time>2018-06-10T17:16:56Z</time>
      </trkpt>
      <trkpt lat="45.73222" lon="5.63548">
        <ele>368</ele>
        <time>2018-06-10T17:16:56Z</time>
      </trkpt>
      <trkpt lat="45.73216" lon="5.63552">
        <ele>368</ele>
        <time>2018-06-10T17:17:12Z</time>
      </trkpt>
      <trkpt lat="45.73209" lon="5.63553">
        <ele>368</ele>
        <time>2018-06-10T17:17:12Z</time>
      </trkpt>
      <trkpt lat="45.73202" lon="5.63556">
        <ele>370</ele>
        <time>2018-06-10T17:17:12Z</time>
      </trkpt>
      <trkpt lat="45.73196" lon="5.63557">
        <ele>370</ele>
        <time>2018-06-10T17:17:12Z</time>
      </trkpt>
      <trkpt lat="45.7319" lon="5.63559">
        <ele>370</ele>
        <time>2018-06-10T17:17:28Z</time>
      </trkpt>
      <trkpt lat="45.73185" lon="5.6356">
        <ele>370</ele>
        <time>2018-06-10T17:17:28Z</time>
      </trkpt>
      <trkpt lat="45.73179" lon="5.63564">
        <ele>370</ele>
        <time>2018-06-10T17:17:28Z</time>
      </trkpt>
      <trkpt lat="45.73173" lon="5.63564">
        <ele>370</ele>
        <time>2018-06-10T17:17:28Z</time>
      </trkpt>
      <trkpt lat="45.73166" lon="5.63562">
        <ele>370</ele>
        <time>2018-06-10T17:17:44Z</time>
      </trkpt>
      <trkpt lat="45.73156" lon="5.63566">
        <ele>370</ele>
        <time>2018-06-10T17:17:44Z</time>
      </trkpt>
      <trkpt lat="45.7315" lon="5.6357">
        <ele>370</ele>
        <time>2018-06-10T17:17:44Z</time>
      </trkpt>
      <trkpt lat="45.73146" lon="5.63568">
        <ele>370</ele>
        <time>2018-06-10T17:17:44Z</time>
      </trkpt>
      <trkpt lat="45.7314" lon="5.63566">
        <ele>370</ele>
        <time>2018-06-10T17:18:00Z</time>
      </trkpt>
      <trkpt lat="45.73136" lon="5.63566">
        <ele>370</ele>
        <time>2018-06-10T17:18:00Z</time>
      </trkpt>
      <trkpt lat="45.73129" lon="5.63566">
        <ele>370</ele>
        <time>2018-06-10T17:18:00Z</time>
      </trkpt>
      <trkpt lat="45.73122" lon="5.63569">
        <ele>373</ele>
        <time>2018-06-10T17:18:00Z</time>
      </trkpt>
      <trkpt lat="45.73115" lon="5.63571">
        <ele>373</ele>
        <time>2018-06-10T17:18:16Z</time>
      </trkpt>
      <trkpt lat="45.73112" lon="5.63571">
        <ele>373</ele>
        <time>2018-06-10T17:18:16Z</time>
      </trkpt>
      <trkpt lat="45.73108" lon="5.63573">
        <ele>373</ele>
        <time>2018-06-10T17:18:16Z</time>
      </trkpt>
      <trkpt lat="45.73101" lon="5.63572">
        <ele>373</ele>
        <time>2018-06-10T17:18:16Z</time>
      </trkpt>
      <trkpt lat="45.73096" lon="5.63573">
        <ele>373</ele>
        <time>2018-06-10T17:18:32Z</time>
      </trkpt>
      <trkpt lat="45.73092" lon="5.63576">
        <ele>373</ele>
        <time>2018-06-10T17:18:32Z</time>
      </trkpt>
      <trkpt lat="45.73087" lon="5.63576">
        <ele>373</ele>
        <time>2018-06-10T17:18:32Z</time>
      </trkpt>
      <trkpt lat="45.73082" lon="5.63575">
        <ele>373</ele>
        <time>2018-06-10T17:18:32Z</time>
      </trkpt>
      <trkpt lat="45.73076" lon="5.63578">
        <ele>373</ele>
        <time>2018-06-10T17:18:48Z</time>
      </trkpt>
      <trkpt lat="45.73072" lon="5.63579">
        <ele>373</ele>
        <time>2018-06-10T17:18:48Z</time>
      </trkpt>
      <trkpt lat="45.73066" lon="5.63582">
        <ele>373</ele>
        <time>2018-06-10T17:18:48Z</time>
      </trkpt>
      <trkpt lat="45.73061" lon="5.63585">
        <ele>373</ele>
        <time>2018-06-10T17:18:48Z</time>
      </trkpt>
      <trkpt lat="45.73054" lon="5.63592">
        <ele>373</ele>
        <time>2018-06-10T17:19:04Z</time>
      </trkpt>
      <trkpt lat="45.73047" lon="5.63595">
        <ele>373</ele>
        <time>2018-06-10T17:19:04Z</time>
      </trkpt>
      <trkpt lat="45.73042" lon="5.63597">
        <ele>373</ele>
        <time>2018-06-10T17:19:04Z</time>
      </trkpt>
      <trkpt lat="45.73037" lon="5.63596">
        <ele>377</ele>
        <time>2018-06-10T17:19:04Z</time>
      </trkpt>
      <trkpt lat="45.73031" lon="5.63599">
        <ele>377</ele>
        <time>2018-06-10T17:19:20Z</time>
      </trkpt>
      <trkpt lat="45.73025" lon="5.63605">
        <ele>377</ele>
        <time>2018-06-10T17:19:20Z</time>
      </trkpt>
      <trkpt lat="45.73019" lon="5.63606">
        <ele>377</ele>
        <time>2018-06-10T17:19:20Z</time>
      </trkpt>
      <trkpt lat="45.73011" lon="5.63605">
        <ele>377</ele>
        <time>2018-06-10T17:19:20Z</time>
      </trkpt>
      <trkpt lat="45.73004" lon="5.63605">
        <ele>377</ele>
        <time>2018-06-10T17:19:36Z</time>
      </trkpt>
      <trkpt lat="45.72998" lon="5.63606">
        <ele>377</ele>
        <time>2018-06-10T17:19:36Z</time>
      </trkpt>
      <trkpt lat="45.72994" lon="5.63609">
        <ele>377</ele>
        <time>2018-06-10T17:19:36Z</time>
      </trkpt>
      <trkpt lat="45.72988" lon="5.63613">
        <ele>377</ele>
        <time>2018-06-10T17:19:36Z</time>
      </trkpt>
      <trkpt lat="45.7298" lon="5.63612">
        <ele>377</ele>
        <time>2018-06-10T17:19:52Z</time>
      </trkpt>
      <trkpt lat="45.72977" lon="5.63616">
        <ele>377</ele>
        <time>2018-06-10T17:19:52Z</time>
      </trkpt>
      <trkpt lat="45.72973" lon="5.63617">
        <ele>377</ele>
        <time>2018-06-10T17:19:52Z</time>
      </trkpt>
      <trkpt lat="45.72969" lon="5.63622">
        <ele>377</ele>
        <time>2018-06-10T17:19:52Z</time>
      </trkpt>
      <trkpt lat="45.72963" lon="5.63626">
        <ele>360</ele>
        <time>2018-06-10T17:20:08Z</time>
      </trkpt>
      <trkpt lat="45.72957" lon="5.63626">
        <ele>363</ele>
        <time>2018-06-10T17:20:08Z</time>
      </trkpt>
      <trkpt lat="45.72951" lon="5.63628">
        <ele>363</ele>
        <time>2018-06-10T17:20:08Z</time>
      </trkpt>
      <trkpt lat="45.72947" lon="5.63629">
        <ele>363</ele>
        <time>2018-06-10T17:20:08Z</time>
      </trkpt>
      <trkpt lat="45.72943" lon="5.63627">
        <ele>363</ele>
        <time>2018-06-10T17:20:24Z</time>
      </trkpt>
      <trkpt lat="45.72938" lon="5.63624">
        <ele>371</ele>
        <time>2018-06-10T17:20:24Z</time>
      </trkpt>
      <trkpt lat="45.72931" lon="5.63622">
        <ele>371</ele>
        <time>2018-06-10T17:20:24Z</time>
      </trkpt>
      <trkpt lat="45.72923" lon="5.6362">
        <ele>371</ele>
        <time>2018-06-10T17:20:24Z</time>
      </trkpt>
      <trkpt lat="45.7292" lon="5.63623">
        <ele>371</ele>
        <time>2018-06-10T17:20:40Z</time>
      </trkpt>
      <trkpt lat="45.72915" lon="5.63628">
        <ele>363</ele>
        <time>2018-06-10T17:20:40Z</time>
      </trkpt>
      <trkpt lat="45.72912" lon="5.63629">
        <ele>363</ele>
        <time>2018-06-10T17:20:40Z</time>
      </trkpt>
      <trkpt lat="45.72905" lon="5.63625">
        <ele>363</ele>
        <time>2018-06-10T17:20:40Z</time>
      </trkpt>
      <trkpt lat="45.72903" lon="5.63622">
        <ele>371</ele>
        <time>2018-06-10T17:20:56Z</time>
      </trkpt>
      <trkpt lat="45.72897" lon="5.63615">
        <ele>371</ele>
        <time>2018-06-10T17:20:56Z</time>
      </trkpt>
      <trkpt lat="45.72891" lon="5.63611">
        <ele>371</ele>
        <time>2018-06-10T17:20:56Z</time>
      </trkpt>
      <trkpt lat="45.72885" lon="5.63606">
        <ele>371</ele>
        <time>2018-06-10T17:20:56Z</time>
      </trkpt>
      <trkpt lat="45.7288" lon="5.63603">
        <ele>371</ele>
        <time>2018-06-10T17:21:12Z</time>
      </trkpt>
      <trkpt lat="45.72874" lon="5.63601">
        <ele>364</ele>
        <time>2018-06-10T17:21:12Z</time>
      </trkpt>
      <trkpt lat="45.72868" lon="5.63598">
        <ele>364</ele>
        <time>2018-06-10T17:21:12Z</time>
      </trkpt>
      <trkpt lat="45.72859" lon="5.636">
        <ele>364</ele>
        <time>2018-06-10T17:21:12Z</time>
      </trkpt>
      <trkpt lat="45.72858" lon="5.63599">
        <ele>364</ele>
        <time>2018-06-10T17:21:28Z</time>
      </trkpt>
      <trkpt lat="45.72857" lon="5.63602">
        <ele>364</ele>
        <time>2018-06-10T17:21:28Z</time>
      </trkpt>
      <trkpt lat="45.72851" lon="5.63604">
        <ele>364</ele>
        <time>2018-06-10T17:21:28Z</time>
      </trkpt>
      <trkpt lat="45.72845" lon="5.63599">
        <ele>364</ele>
        <time>2018-06-10T17:21:28Z</time>
      </trkpt>
      <trkpt lat="45.7284" lon="5.63593">
        <ele>364</ele>
        <time>2018-06-10T17:21:44Z</time>
      </trkpt>
      <trkpt lat="45.72836" lon="5.63587">
        <ele>364</ele>
        <time>2018-06-10T17:21:44Z</time>
      </trkpt>
      <trkpt lat="45.72833" lon="5.63582">
        <ele>364</ele>
        <time>2018-06-10T17:21:44Z</time>
      </trkpt>
      <trkpt lat="45.7283" lon="5.63579">
        <ele>364</ele>
        <time>2018-06-10T17:21:44Z</time>
      </trkpt>
      <trkpt lat="45.72826" lon="5.63573">
        <ele>364</ele>
        <time>2018-06-10T17:22:00Z</time>
      </trkpt>
      <trkpt lat="45.72822" lon="5.63565">
        <ele>364</ele>
        <time>2018-06-10T17:22:00Z</time>
      </trkpt>
      <trkpt lat="45.72818" lon="5.63558">
        <ele>364</ele>
        <time>2018-06-10T17:22:00Z</time>
      </trkpt>
      <trkpt lat="45.72814" lon="5.63551">
        <ele>364</ele>
        <time>2018-06-10T17:22:00Z</time>
      </trkpt>
      <trkpt lat="45.72811" lon="5.63544">
        <ele>364</ele>
        <time>2018-06-10T17:22:16Z</time>
      </trkpt>
      <trkpt lat="45.72807" lon="5.63535">
        <ele>369</ele>
        <time>2018-06-10T17:22:16Z</time>
      </trkpt>
      <trkpt lat="45.72803" lon="5.63529">
        <ele>369</ele>
        <time>2018-06-10T17:22:16Z</time>
      </trkpt>
      <trkpt lat="45.728" lon="5.63524">
        <ele>369</ele>
        <time>2018-06-10T17:22:16Z</time>
      </trkpt>
      <trkpt lat="45.72795" lon="5.63518">
        <ele>369</ele>
        <time>2018-06-10T17:22:32Z</time>
      </trkpt>
      <trkpt lat="45.7279" lon="5.63513">
        <ele>364</ele>
        <time>2018-06-10T17:22:32Z</time>
      </trkpt>
      <trkpt lat="45.72784" lon="5.63509">
        <ele>364</ele>
        <time>2018-06-10T17:22:32Z</time>
      </trkpt>
      <trkpt lat="45.72778" lon="5.63506">
        <ele>364</ele>
        <time>2018-06-10T17:22:32Z</time>
      </trkpt>
      <trkpt lat="45.72772" lon="5.63505">
        <ele>364</ele>
        <time>2018-06-10T17:22:48Z</time>
      </trkpt>
      <trkpt lat="45.72766" lon="5.63504">
        <ele>364</ele>
        <time>2018-06-10T17:22:48Z</time>
      </trkpt>
      <trkpt lat="45.7276" lon="5.63504">
        <ele>364</ele>
        <time>2018-06-10T17:22:48Z</time>
      </trkpt>
      <trkpt lat="45.72756" lon="5.63504">
        <ele>364</ele>
        <time>2018-06-10T17:22:48Z</time>
      </trkpt>
      <trkpt lat="45.7275" lon="5.63506">
        <ele>364</ele>
        <time>2018-06-10T17:23:04Z</time>
      </trkpt>
      <trkpt lat="45.72743" lon="5.63508">
        <ele>364</ele>
        <time>2018-06-10T17:23:04Z</time>
      </trkpt>
      <trkpt lat="45.72737" lon="5.63507">
        <ele>364</ele>
        <time>2018-06-10T17:23:04Z</time>
      </trkpt>
      <trkpt lat="45.72731" lon="5.63507">
        <ele>364</ele>
        <time>2018-06-10T17:23:04Z</time>
      </trkpt>
      <trkpt lat="45.72725" lon="5.63504">
        <ele>364</ele>
        <time>2018-06-10T17:23:20Z</time>
      </trkpt>
      <trkpt lat="45.7272" lon="5.63504">
        <ele>364</ele>
        <time>2018-06-10T17:23:20Z</time>
      </trkpt>
      <trkpt lat="45.72713" lon="5.63502">
        <ele>364</ele>
        <time>2018-06-10T17:23:20Z</time>
      </trkpt>
      <trkpt lat="45.72706" lon="5.63503">
        <ele>359</ele>
        <time>2018-06-10T17:23:20Z</time>
      </trkpt>
      <trkpt lat="45.72701" lon="5.63503">
        <ele>359</ele>
        <time>2018-06-10T17:23:36Z</time>
      </trkpt>
      <trkpt lat="45.72696" lon="5.63503">
        <ele>359</ele>
        <time>2018-06-10T17:23:36Z</time>
      </trkpt>
      <trkpt lat="45.72691" lon="5.63504">
        <ele>359</ele>
        <time>2018-06-10T17:23:36Z</time>
      </trkpt>
      <trkpt lat="45.72691" lon="5.63505">
        <ele>359</ele>
        <time>2018-06-10T17:23:36Z</time>
      </trkpt>
      <trkpt lat="45.72687" lon="5.63508">
        <ele>359</ele>
        <time>2018-06-10T17:23:52Z</time>
      </trkpt>
      <trkpt lat="45.72679" lon="5.6351">
        <ele>359</ele>
        <time>2018-06-10T17:23:52Z</time>
      </trkpt>
      <trkpt lat="45.72673" lon="5.63512">
        <ele>359</ele>
        <time>2018-06-10T17:23:52Z</time>
      </trkpt>
      <trkpt lat="45.72666" lon="5.63511">
        <ele>359</ele>
        <time>2018-06-10T17:23:52Z</time>
      </trkpt>
      <trkpt lat="45.7266" lon="5.63509">
        <ele>359</ele>
        <time>2018-06-10T17:24:08Z</time>
      </trkpt>
      <trkpt lat="45.72655" lon="5.63508">
        <ele>359</ele>
        <time>2018-06-10T17:24:08Z</time>
      </trkpt>
      <trkpt lat="45.72652" lon="5.63507">
        <ele>359</ele>
        <time>2018-06-10T17:24:08Z</time>
      </trkpt>
      <trkpt lat="45.72648" lon="5.63509">
        <ele>359</ele>
        <time>2018-06-10T17:24:08Z</time>
      </trkpt>
      <trkpt lat="45.72642" lon="5.63508">
        <ele>359</ele>
        <time>2018-06-10T17:24:24Z</time>
      </trkpt>
      <trkpt lat="45.72636" lon="5.63509">
        <ele>359</ele>
        <time>2018-06-10T17:24:24Z</time>
      </trkpt>
      <trkpt lat="45.7263" lon="5.63509">
        <ele>359</ele>
        <time>2018-06-10T17:24:24Z</time>
      </trkpt>
      <trkpt lat="45.72623" lon="5.63511">
        <ele>357</ele>
        <time>2018-06-10T17:24:24Z</time>
      </trkpt>
      <trkpt lat="45.7262" lon="5.63512">
        <ele>357</ele>
        <time>2018-06-10T17:24:40Z</time>
      </trkpt>
      <trkpt lat="45.72616" lon="5.63511">
        <ele>357</ele>
        <time>2018-06-10T17:24:40Z</time>
      </trkpt>
      <trkpt lat="45.72608" lon="5.63509">
        <ele>357</ele>
        <time>2018-06-10T17:24:40Z</time>
      </trkpt>
      <trkpt lat="45.72604" lon="5.63511">
        <ele>357</ele>
        <time>2018-06-10T17:24:40Z</time>
      </trkpt>
      <trkpt lat="45.72599" lon="5.63514">
        <ele>357</ele>
        <time>2018-06-10T17:24:56Z</time>
      </trkpt>
      <trkpt lat="45.72593" lon="5.63514">
        <ele>357</ele>
        <time>2018-06-10T17:24:56Z</time>
      </trkpt>
      <trkpt lat="45.72587" lon="5.63513">
        <ele>357</ele>
        <time>2018-06-10T17:24:56Z</time>
      </trkpt>
      <trkpt lat="45.72582" lon="5.63512">
        <ele>357</ele>
        <time>2018-06-10T17:24:56Z</time>
      </trkpt>
      <trkpt lat="45.72578" lon="5.63514">
        <ele>357</ele>
        <time>2018-06-10T17:25:12Z</time>
      </trkpt>
      <trkpt lat="45.72574" lon="5.63517">
        <ele>357</ele>
        <time>2018-06-10T17:25:12Z</time>
      </trkpt>
      <trkpt lat="45.72567" lon="5.63517">
        <ele>357</ele>
        <time>2018-06-10T17:25:12Z</time>
      </trkpt>
      <trkpt lat="45.7256" lon="5.63519">
        <ele>357</ele>
        <time>2018-06-10T17:25:12Z</time>
      </trkpt>
      <trkpt lat="45.72557" lon="5.63519">
        <ele>357</ele>
        <time>2018-06-10T17:25:28Z</time>
      </trkpt>
      <trkpt lat="45.7255" lon="5.63518">
        <ele>357</ele>
        <time>2018-06-10T17:25:28Z</time>
      </trkpt>
      <trkpt lat="45.72543" lon="5.63516">
        <ele>357</ele>
        <time>2018-06-10T17:25:28Z</time>
      </trkpt>
      <trkpt lat="45.72536" lon="5.63514">
        <ele>360</ele>
        <time>2018-06-10T17:25:28Z</time>
      </trkpt>
      <trkpt lat="45.7253" lon="5.63513">
        <ele>360</ele>
        <time>2018-06-10T17:25:44Z</time>
      </trkpt>
      <trkpt lat="45.72525" lon="5.63513">
        <ele>360</ele>
        <time>2018-06-10T17:25:44Z</time>
      </trkpt>
      <trkpt lat="45.72521" lon="5.63514">
        <ele>360</ele>
        <time>2018-06-10T17:25:44Z</time>
      </trkpt>
      <trkpt lat="45.72512" lon="5.63515">
        <ele>360</ele>
        <time>2018-06-10T17:25:44Z</time>
      </trkpt>
      <trkpt lat="45.72503" lon="5.6352">
        <ele>360</ele>
        <time>2018-06-10T17:26:00Z</time>
      </trkpt>
      <trkpt lat="45.72497" lon="5.63525">
        <ele>360</ele>
        <time>2018-06-10T17:26:00Z</time>
      </trkpt>
      <trkpt lat="45.72493" lon="5.63529">
        <ele>360</ele>
        <time>2018-06-10T17:26:00Z</time>
      </trkpt>
      <trkpt lat="45.72486" lon="5.63531">
        <ele>360</ele>
        <time>2018-06-10T17:26:00Z</time>
      </trkpt>
      <trkpt lat="45.72482" lon="5.63533">
        <ele>360</ele>
        <time>2018-06-10T17:26:16Z</time>
      </trkpt>
      <trkpt lat="45.72477" lon="5.63531">
        <ele>360</ele>
        <time>2018-06-10T17:26:16Z</time>
      </trkpt>
      <trkpt lat="45.72473" lon="5.63532">
        <ele>360</ele>
        <time>2018-06-10T17:26:16Z</time>
      </trkpt>
      <trkpt lat="45.72469" lon="5.63533">
        <ele>360</ele>
        <time>2018-06-10T17:26:16Z</time>
      </trkpt>
      <trkpt lat="45.72467" lon="5.63534">
        <ele>360</ele>
        <time>2018-06-10T17:26:32Z</time>
      </trkpt>
      <trkpt lat="45.72466" lon="5.63534">
        <ele>360</ele>
        <time>2018-06-10T17:26:32Z</time>
      </trkpt>
      <trkpt lat="45.72461" lon="5.63536">
        <ele>360</ele>
        <time>2018-06-10T17:26:32Z</time>
      </trkpt>
      <trkpt lat="45.72453" lon="5.63537">
        <ele>355</ele>
        <time>2018-06-10T17:26:32Z</time>
      </trkpt>
      <trkpt lat="45.72445" lon="5.63539">
        <ele>355</ele>
        <time>2018-06-10T17:26:48Z</time>
      </trkpt>
      <trkpt lat="45.72439" lon="5.63538">
        <ele>355</ele>
        <time>2018-06-10T17:26:48Z</time>
      </trkpt>
      <trkpt lat="45.72435" lon="5.63543">
        <ele>369</ele>
        <time>2018-06-10T17:26:48Z</time>
      </trkpt>
      <trkpt lat="45.7243" lon="5.63544">
        <ele>369</ele>
        <time>2018-06-10T17:26:48Z</time>
      </trkpt>
      <trkpt lat="45.72424" lon="5.63546">
        <ele>369</ele>
        <time>2018-06-10T17:27:04Z</time>
      </trkpt>
      <trkpt lat="45.72417" lon="5.63548">
        <ele>369</ele>
        <time>2018-06-10T17:27:04Z</time>
      </trkpt>
      <trkpt lat="45.72411" lon="5.63549">
        <ele>369</ele>
        <time>2018-06-10T17:27:04Z</time>
      </trkpt>
      <trkpt lat="45.72405" lon="5.63552">
        <ele>369</ele>
        <time>2018-06-10T17:27:04Z</time>
      </trkpt>
      <trkpt lat="45.72399" lon="5.63552">
        <ele>369</ele>
        <time>2018-06-10T17:27:20Z</time>
      </trkpt>
      <trkpt lat="45.72392" lon="5.63551">
        <ele>369</ele>
        <time>2018-06-10T17:27:20Z</time>
      </trkpt>
      <trkpt lat="45.72385" lon="5.63549">
        <ele>369</ele>
        <time>2018-06-10T17:27:20Z</time>
      </trkpt>
      <trkpt lat="45.72376" lon="5.63547">
        <ele>369</ele>
        <time>2018-06-10T17:27:20Z</time>
      </trkpt>
      <trkpt lat="45.72369" lon="5.63545">
        <ele>365</ele>
        <time>2018-06-10T17:27:36Z</time>
      </trkpt>
      <trkpt lat="45.72361" lon="5.63545">
        <ele>365</ele>
        <time>2018-06-10T17:27:36Z</time>
      </trkpt>
      <trkpt lat="45.72359" lon="5.63545">
        <ele>365</ele>
        <time>2018-06-10T17:27:36Z</time>
      </trkpt>
      <trkpt lat="45.72354" lon="5.63546">
        <ele>365</ele>
        <time>2018-06-10T17:27:36Z</time>
      </trkpt>
      <trkpt lat="45.7235" lon="5.63546">
        <ele>365</ele>
        <time>2018-06-10T17:27:52Z</time>
      </trkpt>
      <trkpt lat="45.72344" lon="5.63543">
        <ele>365</ele>
        <time>2018-06-10T17:27:52Z</time>
      </trkpt>
      <trkpt lat="45.72339" lon="5.63542">
        <ele>365</ele>
        <time>2018-06-10T17:27:52Z</time>
      </trkpt>
      <trkpt lat="45.72333" lon="5.63542">
        <ele>365</ele>
        <time>2018-06-10T17:27:52Z</time>
      </trkpt>
      <trkpt lat="45.72326" lon="5.63544">
        <ele>365</ele>
        <time>2018-06-10T17:28:08Z</time>
      </trkpt>
      <trkpt lat="45.72321" lon="5.63546">
        <ele>365</ele>
        <time>2018-06-10T17:28:08Z</time>
      </trkpt>
      <trkpt lat="45.72317" lon="5.63545">
        <ele>365</ele>
        <time>2018-06-10T17:28:08Z</time>
      </trkpt>
      <trkpt lat="45.72312" lon="5.63547">
        <ele>365</ele>
        <time>2018-06-10T17:28:08Z</time>
      </trkpt>
      <trkpt lat="45.72305" lon="5.63553">
        <ele>365</ele>
        <time>2018-06-10T17:28:24Z</time>
      </trkpt>
      <trkpt lat="45.72297" lon="5.63559">
        <ele>365</ele>
        <time>2018-06-10T17:28:24Z</time>
      </trkpt>
      <trkpt lat="45.72291" lon="5.63563">
        <ele>362</ele>
        <time>2018-06-10T17:28:24Z</time>
      </trkpt>
      <trkpt lat="45.72288" lon="5.63565">
        <ele>362</ele>
        <time>2018-06-10T17:28:24Z</time>
      </trkpt>
      <trkpt lat="45.72283" lon="5.6357">
        <ele>362</ele>
        <time>2018-06-10T17:28:40Z</time>
      </trkpt>
      <trkpt lat="45.72278" lon="5.63578">
        <ele>362</ele>
        <time>2018-06-10T17:28:40Z</time>
      </trkpt>
      <trkpt lat="45.72276" lon="5.63585">
        <ele>362</ele>
        <time>2018-06-10T17:28:40Z</time>
      </trkpt>
      <trkpt lat="45.72273" lon="5.63593">
        <ele>362</ele>
        <time>2018-06-10T17:28:40Z</time>
      </trkpt>
      <trkpt lat="45.72272" lon="5.63595">
        <ele>362</ele>
        <time>2018-06-10T17:28:56Z</time>
      </trkpt>
      <trkpt lat="45.72272" lon="5.63601">
        <ele>362</ele>
        <time>2018-06-10T17:28:56Z</time>
      </trkpt>
      <trkpt lat="45.72268" lon="5.63604">
        <ele>362</ele>
        <time>2018-06-10T17:28:56Z</time>
      </trkpt>
      <trkpt lat="45.72264" lon="5.63609">
        <ele>362</ele>
        <time>2018-06-10T17:28:56Z</time>
      </trkpt>
      <trkpt lat="45.7226" lon="5.63614">
        <ele>362</ele>
        <time>2018-06-10T17:29:12Z</time>
      </trkpt>
      <trkpt lat="45.72257" lon="5.63619">
        <ele>362</ele>
        <time>2018-06-10T17:29:12Z</time>
      </trkpt>
      <trkpt lat="45.72251" lon="5.63626">
        <ele>365</ele>
        <time>2018-06-10T17:29:12Z</time>
      </trkpt>
      <trkpt lat="45.72248" lon="5.63635">
        <ele>365</ele>
        <time>2018-06-10T17:29:12Z</time>
      </trkpt>
      <trkpt lat="45.72244" lon="5.6364">
        <ele>365</ele>
        <time>2018-06-10T17:29:28Z</time>
      </trkpt>
      <trkpt lat="45.72239" lon="5.63645">
        <ele>365</ele>
        <time>2018-06-10T17:29:28Z</time>
      </trkpt>
      <trkpt lat="45.72235" lon="5.63649">
        <ele>365</ele>
        <time>2018-06-10T17:29:28Z</time>
      </trkpt>
      <trkpt lat="45.72233" lon="5.63655">
        <ele>365</ele>
        <time>2018-06-10T17:29:28Z</time>
      </trkpt>
      <trkpt lat="45.72226" lon="5.63664">
        <ele>365</ele>
        <time>2018-06-10T17:29:44Z</time>
      </trkpt>
      <trkpt lat="45.72219" lon="5.63676">
        <ele>365</ele>
        <time>2018-06-10T17:29:44Z</time>
      </trkpt>
      <trkpt lat="45.72212" lon="5.637">
        <ele>365</ele>
        <time>2018-06-10T17:29:44Z</time>
      </trkpt>
      <trkpt lat="45.72205" lon="5.63724">
        <ele>364</ele>
        <time>2018-06-10T17:29:44Z</time>
      </trkpt>
      <trkpt lat="45.72199" lon="5.63738">
        <ele>364</ele>
        <time>2018-06-10T17:30:00Z</time>
      </trkpt>
      <trkpt lat="45.72187" lon="5.63752">
        <ele>364</ele>
        <time>2018-06-10T17:30:00Z</time>
      </trkpt>
      <trkpt lat="45.72168" lon="5.63763">
        <ele>364</ele>
        <time>2018-06-10T17:30:00Z</time>
      </trkpt>
      <trkpt lat="45.72156" lon="5.6376">
        <ele>364</ele>
        <time>2018-06-10T17:30:00Z</time>
      </trkpt>
      <trkpt lat="45.72148" lon="5.6376">
        <ele>364</ele>
        <time>2018-06-10T17:30:16Z</time>
      </trkpt>
      <trkpt lat="45.72138" lon="5.63764">
        <ele>364</ele>
        <time>2018-06-10T17:30:16Z</time>
      </trkpt>
      <trkpt lat="45.72125" lon="5.63777">
        <ele>362</ele>
        <time>2018-06-10T17:30:16Z</time>
      </trkpt>
      <trkpt lat="45.72117" lon="5.63785">
        <ele>362</ele>
        <time>2018-06-10T17:30:16Z</time>
      </trkpt>
      <trkpt lat="45.72109" lon="5.63794">
        <ele>366</ele>
        <time>2018-06-10T17:30:32Z</time>
      </trkpt>
      <trkpt lat="45.72104" lon="5.63795">
        <ele>366</ele>
        <time>2018-06-10T17:30:32Z</time>
      </trkpt>
      <trkpt lat="45.721" lon="5.63796">
        <ele>366</ele>
        <time>2018-06-10T17:30:32Z</time>
      </trkpt>
      <trkpt lat="45.72093" lon="5.638">
        <ele>366</ele>
        <time>2018-06-10T17:30:32Z</time>
      </trkpt>
      <trkpt lat="45.72088" lon="5.63802">
        <ele>366</ele>
        <time>2018-06-10T17:30:48Z</time>
      </trkpt>
      <trkpt lat="45.72084" lon="5.63803">
        <ele>366</ele>
        <time>2018-06-10T17:30:48Z</time>
      </trkpt>
      <trkpt lat="45.72079" lon="5.63804">
        <ele>366</ele>
        <time>2018-06-10T17:30:48Z</time>
      </trkpt>
      <trkpt lat="45.72074" lon="5.63808">
        <ele>366</ele>
        <time>2018-06-10T17:30:48Z</time>
      </trkpt>
      <trkpt lat="45.72069" lon="5.63813">
        <ele>366</ele>
        <time>2018-06-10T17:31:04Z</time>
      </trkpt>
      <trkpt lat="45.72061" lon="5.63821">
        <ele>366</ele>
        <time>2018-06-10T17:31:04Z</time>
      </trkpt>
      <trkpt lat="45.72055" lon="5.63825">
        <ele>366</ele>
        <time>2018-06-10T17:31:04Z</time>
      </trkpt>
      <trkpt lat="45.72049" lon="5.63828">
        <ele>366</ele>
        <time>2018-06-10T17:31:04Z</time>
      </trkpt>
      <trkpt lat="45.72044" lon="5.63832">
        <ele>366</ele>
        <time>2018-06-10T17:31:20Z</time>
      </trkpt>
      <trkpt lat="45.72038" lon="5.63835">
        <ele>364</ele>
        <time>2018-06-10T17:31:20Z</time>
      </trkpt>
      <trkpt lat="45.72033" lon="5.63836">
        <ele>364</ele>
        <time>2018-06-10T17:31:20Z</time>
      </trkpt>
      <trkpt lat="45.72022" lon="5.63837">
        <ele>364</ele>
        <time>2018-06-10T17:31:20Z</time>
      </trkpt>
      <trkpt lat="45.72008" lon="5.63833">
        <ele>364</ele>
        <time>2018-06-10T17:31:36Z</time>
      </trkpt>
      <trkpt lat="45.71995" lon="5.63827">
        <ele>364</ele>
        <time>2018-06-10T17:31:36Z</time>
      </trkpt>
      <trkpt lat="45.71979" lon="5.63826">
        <ele>364</ele>
        <time>2018-06-10T17:31:36Z</time>
      </trkpt>
      <trkpt lat="45.71953" lon="5.63826">
        <ele>363</ele>
        <time>2018-06-10T17:31:36Z</time>
      </trkpt>
      <trkpt lat="45.71928" lon="5.63833">
        <ele>363</ele>
        <time>2018-06-10T17:31:52Z</time>
      </trkpt>
      <trkpt lat="45.71908" lon="5.6384">
        <ele>363</ele>
        <time>2018-06-10T17:31:52Z</time>
      </trkpt>
      <trkpt lat="45.71899" lon="5.63849">
        <ele>363</ele>
        <time>2018-06-10T17:31:52Z</time>
      </trkpt>
      <trkpt lat="45.71885" lon="5.63856">
        <ele>363</ele>
        <time>2018-06-10T17:31:52Z</time>
      </trkpt>
      <trkpt lat="45.71873" lon="5.6387">
        <ele>371</ele>
        <time>2018-06-10T17:32:08Z</time>
      </trkpt>
      <trkpt lat="45.71862" lon="5.63878">
        <ele>366</ele>
        <time>2018-06-10T17:32:08Z</time>
      </trkpt>
      <trkpt lat="45.71856" lon="5.63882">
        <ele>366</ele>
        <time>2018-06-10T17:32:08Z</time>
      </trkpt>
      <trkpt lat="45.7185" lon="5.63886">
        <ele>366</ele>
        <time>2018-06-10T17:32:08Z</time>
      </trkpt>
      <trkpt lat="45.71845" lon="5.63888">
        <ele>366</ele>
        <time>2018-06-10T17:32:24Z</time>
      </trkpt>
      <trkpt lat="45.7184" lon="5.63894">
        <ele>366</ele>
        <time>2018-06-10T17:32:24Z</time>
      </trkpt>
      <trkpt lat="45.71835" lon="5.63901">
        <ele>366</ele>
        <time>2018-06-10T17:32:24Z</time>
      </trkpt>
      <trkpt lat="45.7183" lon="5.63906">
        <ele>366</ele>
        <time>2018-06-10T17:32:24Z</time>
      </trkpt>
      <trkpt lat="45.71827" lon="5.6391">
        <ele>366</ele>
        <time>2018-06-10T17:32:40Z</time>
      </trkpt>
      <trkpt lat="45.71823" lon="5.63917">
        <ele>366</ele>
        <time>2018-06-10T17:32:40Z</time>
      </trkpt>
      <trkpt lat="45.71818" lon="5.63924">
        <ele>366</ele>
        <time>2018-06-10T17:32:40Z</time>
      </trkpt>
      <trkpt lat="45.7181" lon="5.63932">
        <ele>366</ele>
        <time>2018-06-10T17:32:40Z</time>
      </trkpt>
      <trkpt lat="45.71803" lon="5.63954">
        <ele>366</ele>
        <time>2018-06-10T17:32:56Z</time>
      </trkpt>
      <trkpt lat="45.71797" lon="5.63975">
        <ele>374</ele>
        <time>2018-06-10T17:32:56Z</time>
      </trkpt>
      <trkpt lat="45.7179" lon="5.63999">
        <ele>358</ele>
        <time>2018-06-10T17:32:56Z</time>
      </trkpt>
      <trkpt lat="45.71788" lon="5.64013">
        <ele>358</ele>
        <time>2018-06-10T17:32:56Z</time>
      </trkpt>
      <trkpt lat="45.71781" lon="5.64024">
        <ele>358</ele>
        <time>2018-06-10T17:33:12Z</time>
      </trkpt>
      <trkpt lat="45.71779" lon="5.64035">
        <ele>358</ele>
        <time>2018-06-10T17:33:12Z</time>
      </trkpt>
      <trkpt lat="45.71777" lon="5.64047">
        <ele>359</ele>
        <time>2018-06-10T17:33:12Z</time>
      </trkpt>
      <trkpt lat="45.71774" lon="5.64062">
        <ele>359</ele>
        <time>2018-06-10T17:33:12Z</time>
      </trkpt>
      <trkpt lat="45.71772" lon="5.64073">
        <ele>359</ele>
        <time>2018-06-10T17:33:28Z</time>
      </trkpt>
      <trkpt lat="45.71769" lon="5.64083">
        <ele>359</ele>
        <time>2018-06-10T17:33:28Z</time>
      </trkpt>
      <trkpt lat="45.71764" lon="5.64095">
        <ele>359</ele>
        <time>2018-06-10T17:33:28Z</time>
      </trkpt>
      <trkpt lat="45.71762" lon="5.64103">
        <ele>359</ele>
        <time>2018-06-10T17:33:28Z</time>
      </trkpt>
      <trkpt lat="45.71759" lon="5.64113">
        <ele>359</ele>
        <time>2018-06-10T17:33:44Z</time>
      </trkpt>
      <trkpt lat="45.71756" lon="5.6412">
        <ele>359</ele>
        <time>2018-06-10T17:33:44Z</time>
      </trkpt>
      <trkpt lat="45.71753" lon="5.64126">
        <ele>360</ele>
        <time>2018-06-10T17:33:44Z</time>
      </trkpt>
      <trkpt lat="45.71748" lon="5.64132">
        <ele>360</ele>
        <time>2018-06-10T17:33:44Z</time>
      </trkpt>
      <trkpt lat="45.71744" lon="5.64141">
        <ele>360</ele>
        <time>2018-06-10T17:34:00Z</time>
      </trkpt>
      <trkpt lat="45.7174" lon="5.64149">
        <ele>360</ele>
        <time>2018-06-10T17:34:00Z</time>
      </trkpt>
      <trkpt lat="45.71737" lon="5.64159">
        <ele>360</ele>
        <time>2018-06-10T17:34:00Z</time>
      </trkpt>
      <trkpt lat="45.71735" lon="5.64164">
        <ele>360</ele>
        <time>2018-06-10T17:34:00Z</time>
      </trkpt>
      <trkpt lat="45.71731" lon="5.6417">
        <ele>360</ele>
        <time>2018-06-10T17:34:16Z</time>
      </trkpt>
      <trkpt lat="45.71728" lon="5.64175">
        <ele>360</ele>
        <time>2018-06-10T17:34:16Z</time>
      </trkpt>
      <trkpt lat="45.71723" lon="5.64181">
        <ele>360</ele>
        <time>2018-06-10T17:34:16Z</time>
      </trkpt>
      <trkpt lat="45.71717" lon="5.64191">
        <ele>360</ele>
        <time>2018-06-10T17:34:16Z</time>
      </trkpt>
      <trkpt lat="45.71713" lon="5.642">
        <ele>360</ele>
        <time>2018-06-10T17:34:32Z</time>
      </trkpt>
      <trkpt lat="45.71711" lon="5.64206">
        <ele>360</ele>
        <time>2018-06-10T17:34:32Z</time>
      </trkpt>
      <trkpt lat="45.71705" lon="5.6421">
        <ele>352</ele>
        <time>2018-06-10T17:34:32Z</time>
      </trkpt>
      <trkpt lat="45.71698" lon="5.64213">
        <ele>352</ele>
        <time>2018-06-10T17:34:32Z</time>
      </trkpt>
      <trkpt lat="45.71691" lon="5.64215">
        <ele>352</ele>
        <time>2018-06-10T17:34:48Z</time>
      </trkpt>
      <trkpt lat="45.71683" lon="5.64218">
        <ele>352</ele>
        <time>2018-06-10T17:34:48Z</time>
      </trkpt>
      <trkpt lat="45.71676" lon="5.64223">
        <ele>352</ele>
        <time>2018-06-10T17:34:48Z</time>
      </trkpt>
      <trkpt lat="45.7167" lon="5.64227">
        <ele>352</ele>
        <time>2018-06-10T17:34:48Z</time>
      </trkpt>
      <trkpt lat="45.71666" lon="5.6423">
        <ele>352</ele>
        <time>2018-06-10T17:35:04Z</time>
      </trkpt>
      <trkpt lat="45.7166" lon="5.64231">
        <ele>352</ele>
        <time>2018-06-10T17:35:04Z</time>
      </trkpt>
      <trkpt lat="45.71656" lon="5.64231">
        <ele>352</ele>
        <time>2018-06-10T17:35:04Z</time>
      </trkpt>
      <trkpt lat="45.71651" lon="5.64232">
        <ele>352</ele>
        <time>2018-06-10T17:35:04Z</time>
      </trkpt>
      <trkpt lat="45.71645" lon="5.64231">
        <ele>352</ele>
        <time>2018-06-10T17:35:20Z</time>
      </trkpt>
      <trkpt lat="45.71638" lon="5.64231">
        <ele>352</ele>
        <time>2018-06-10T17:35:20Z</time>
      </trkpt>
      <trkpt lat="45.71632" lon="5.6423">
        <ele>352</ele>
        <time>2018-06-10T17:35:20Z</time>
      </trkpt>
      <trkpt lat="45.71625" lon="5.6423">
        <ele>344</ele>
        <time>2018-06-10T17:35:20Z</time>
      </trkpt>
      <trkpt lat="45.71619" lon="5.6423">
        <ele>344</ele>
        <time>2018-06-10T17:35:36Z</time>
      </trkpt>
      <trkpt lat="45.71613" lon="5.64231">
        <ele>344</ele>
        <time>2018-06-10T17:35:36Z</time>
      </trkpt>
      <trkpt lat="45.71608" lon="5.64231">
        <ele>344</ele>
        <time>2018-06-10T17:35:36Z</time>
      </trkpt>
      <trkpt lat="45.71602" lon="5.64229">
        <ele>344</ele>
        <time>2018-06-10T17:35:36Z</time>
      </trkpt>
      <trkpt lat="45.71595" lon="5.64227">
        <ele>344</ele>
        <time>2018-06-10T17:35:52Z</time>
      </trkpt>
      <trkpt lat="45.71589" lon="5.64223">
        <ele>344</ele>
        <time>2018-06-10T17:35:52Z</time>
      </trkpt>
      <trkpt lat="45.71582" lon="5.64222">
        <ele>344</ele>
        <time>2018-06-10T17:35:52Z</time>
      </trkpt>
      <trkpt lat="45.71575" lon="5.6422">
        <ele>344</ele>
        <time>2018-06-10T17:35:52Z</time>
      </trkpt>
      <trkpt lat="45.71568" lon="5.6422">
        <ele>344</ele>
        <time>2018-06-10T17:36:08Z</time>
      </trkpt>
      <trkpt lat="45.71562" lon="5.64217">
        <ele>344</ele>
        <time>2018-06-10T17:36:08Z</time>
      </trkpt>
      <trkpt lat="45.71555" lon="5.64215">
        <ele>344</ele>
        <time>2018-06-10T17:36:08Z</time>
      </trkpt>
      <trkpt lat="45.71548" lon="5.64212">
        <ele>344</ele>
        <time>2018-06-10T17:36:08Z</time>
      </trkpt>
      <trkpt lat="45.71541" lon="5.6421">
        <ele>342</ele>
        <time>2018-06-10T17:36:24Z</time>
      </trkpt>
      <trkpt lat="45.71536" lon="5.64207">
        <ele>347</ele>
        <time>2018-06-10T17:36:24Z</time>
      </trkpt>
      <trkpt lat="45.71531" lon="5.64206">
        <ele>347</ele>
        <time>2018-06-10T17:36:24Z</time>
      </trkpt>
      <trkpt lat="45.71525" lon="5.64203">
        <ele>347</ele>
        <time>2018-06-10T17:36:24Z</time>
      </trkpt>
      <trkpt lat="45.7152" lon="5.642">
        <ele>347</ele>
        <time>2018-06-10T17:36:40Z</time>
      </trkpt>
      <trkpt lat="45.71515" lon="5.64198">
        <ele>347</ele>
        <time>2018-06-10T17:36:40Z</time>
      </trkpt>
      <trkpt lat="45.71509" lon="5.64196">
        <ele>347</ele>
        <time>2018-06-10T17:36:40Z</time>
      </trkpt>
      <trkpt lat="45.71504" lon="5.64194">
        <ele>347</ele>
        <time>2018-06-10T17:36:40Z</time>
      </trkpt>
      <trkpt lat="45.71498" lon="5.64194">
        <ele>347</ele>
        <time>2018-06-10T17:36:56Z</time>
      </trkpt>
      <trkpt lat="45.71493" lon="5.64195">
        <ele>347</ele>
        <time>2018-06-10T17:36:56Z</time>
      </trkpt>
      <trkpt lat="45.71485" lon="5.64197">
        <ele>347</ele>
        <time>2018-06-10T17:36:56Z</time>
      </trkpt>
      <trkpt lat="45.7148" lon="5.64198">
        <ele>347</ele>
        <time>2018-06-10T17:36:56Z</time>
      </trkpt>
      <trkpt lat="45.71474" lon="5.64197">
        <ele>347</ele>
        <time>2018-06-10T17:37:12Z</time>
      </trkpt>
      <trkpt lat="45.71468" lon="5.64196">
        <ele>347</ele>
        <time>2018-06-10T17:37:12Z</time>
      </trkpt>
      <trkpt lat="45.71459" lon="5.64199">
        <ele>347</ele>
        <time>2018-06-10T17:37:12Z</time>
      </trkpt>
      <trkpt lat="45.71451" lon="5.642">
        <ele>350</ele>
        <time>2018-06-10T17:37:12Z</time>
      </trkpt>
      <trkpt lat="45.71443" lon="5.64202">
        <ele>350</ele>
        <time>2018-06-10T17:37:28Z</time>
      </trkpt>
      <trkpt lat="45.71436" lon="5.64203">
        <ele>350</ele>
        <time>2018-06-10T17:37:28Z</time>
      </trkpt>
      <trkpt lat="45.7143" lon="5.64206">
        <ele>350</ele>
        <time>2018-06-10T17:37:28Z</time>
      </trkpt>
      <trkpt lat="45.71425" lon="5.64207">
        <ele>350</ele>
        <time>2018-06-10T17:37:28Z</time>
      </trkpt>
      <trkpt lat="45.71419" lon="5.64208">
        <ele>342</ele>
        <time>2018-06-10T17:37:44Z</time>
      </trkpt>
      <trkpt lat="45.71413" lon="5.6421">
        <ele>342</ele>
        <time>2018-06-10T17:37:44Z</time>
      </trkpt>
      <trkpt lat="45.71407" lon="5.64208">
        <ele>342</ele>
        <time>2018-06-10T17:37:44Z</time>
      </trkpt>
      <trkpt lat="45.71401" lon="5.64205">
        <ele>350</ele>
        <time>2018-06-10T17:37:44Z</time>
      </trkpt>
      <trkpt lat="45.71395" lon="5.642">
        <ele>350</ele>
        <time>2018-06-10T17:38:00Z</time>
      </trkpt>
      <trkpt lat="45.71389" lon="5.64197">
        <ele>350</ele>
        <time>2018-06-10T17:38:00Z</time>
      </trkpt>
      <trkpt lat="45.71383" lon="5.64197">
        <ele>350</ele>
        <time>2018-06-10T17:38:00Z</time>
      </trkpt>
      <trkpt lat="45.71377" lon="5.64197">
        <ele>350</ele>
        <time>2018-06-10T17:38:00Z</time>
      </trkpt>
      <trkpt lat="45.71373" lon="5.64196">
        <ele>353</ele>
        <time>2018-06-10T17:38:16Z</time>
      </trkpt>
      <trkpt lat="45.71368" lon="5.64195">
        <ele>353</ele>
        <time>2018-06-10T17:38:16Z</time>
      </trkpt>
      <trkpt lat="45.71363" lon="5.64196">
        <ele>353</ele>
        <time>2018-06-10T17:38:16Z</time>
      </trkpt>
      <trkpt lat="45.71359" lon="5.64196">
        <ele>353</ele>
        <time>2018-06-10T17:38:16Z</time>
      </trkpt>
      <trkpt lat="45.71353" lon="5.64199">
        <ele>353</ele>
        <time>2018-06-10T17:38:32Z</time>
      </trkpt>
      <trkpt lat="45.71348" lon="5.64202">
        <ele>353</ele>
        <time>2018-06-10T17:38:32Z</time>
      </trkpt>
      <trkpt lat="45.71341" lon="5.64202">
        <ele>353</ele>
        <time>2018-06-10T17:38:32Z</time>
      </trkpt>
      <trkpt lat="45.71336" lon="5.64207">
        <ele>353</ele>
        <time>2018-06-10T17:38:32Z</time>
      </trkpt>
      <trkpt lat="45.7133" lon="5.64212">
        <ele>343</ele>
        <time>2018-06-10T17:38:48Z</time>
      </trkpt>
      <trkpt lat="45.71323" lon="5.64215">
        <ele>343</ele>
        <time>2018-06-10T17:38:48Z</time>
      </trkpt>
      <trkpt lat="45.71319" lon="5.64215">
        <ele>343</ele>
        <time>2018-06-10T17:38:48Z</time>
      </trkpt>
      <trkpt lat="45.71313" lon="5.64214">
        <ele>343</ele>
        <time>2018-06-10T17:38:48Z</time>
      </trkpt>
      <trkpt lat="45.713" lon="5.6421">
        <ele>343</ele>
        <time>2018-06-10T17:39:04Z</time>
      </trkpt>
      <trkpt lat="45.71294" lon="5.64212">
        <ele>343</ele>
        <time>2018-06-10T17:39:04Z</time>
      </trkpt>
      <trkpt lat="45.71287" lon="5.64214">
        <ele>342</ele>
        <time>2018-06-10T17:39:04Z</time>
      </trkpt>
      <trkpt lat="45.71281" lon="5.64221">
        <ele>342</ele>
        <time>2018-06-10T17:39:04Z</time>
      </trkpt>
      <trkpt lat="45.71276" lon="5.64225">
        <ele>342</ele>
        <time>2018-06-10T17:39:20Z</time>
      </trkpt>
      <trkpt lat="45.71271" lon="5.64227">
        <ele>342</ele>
        <time>2018-06-10T17:39:20Z</time>
      </trkpt>
      <trkpt lat="45.71266" lon="5.64227">
        <ele>342</ele>
        <time>2018-06-10T17:39:20Z</time>
      </trkpt>
      <trkpt lat="45.71257" lon="5.64222">
        <ele>342</ele>
        <time>2018-06-10T17:39:20Z</time>
      </trkpt>
      <trkpt lat="45.71251" lon="5.64216">
        <ele>342</ele>
        <time>2018-06-10T17:39:36Z</time>
      </trkpt>
      <trkpt lat="45.71246" lon="5.64212">
        <ele>342</ele>
        <time>2018-06-10T17:39:36Z</time>
      </trkpt>
      <trkpt lat="45.71242" lon="5.64202">
        <ele>346</ele>
        <time>2018-06-10T17:39:36Z</time>
      </trkpt>
      <trkpt lat="45.71237" lon="5.64193">
        <ele>346</ele>
        <time>2018-06-10T17:39:36Z</time>
      </trkpt>
      <trkpt lat="45.71231" lon="5.6419">
        <ele>346</ele>
        <time>2018-06-10T17:39:52Z</time>
      </trkpt>
      <trkpt lat="45.71225" lon="5.64191">
        <ele>346</ele>
        <time>2018-06-10T17:39:52Z</time>
      </trkpt>
      <trkpt lat="45.71221" lon="5.64194">
        <ele>346</ele>
        <time>2018-06-10T17:39:52Z</time>
      </trkpt>
      <trkpt lat="45.71216" lon="5.64199">
        <ele>346</ele>
        <time>2018-06-10T17:39:52Z</time>
      </trkpt>
      <trkpt lat="45.71211" lon="5.64202">
        <ele>346</ele>
        <time>2018-06-10T17:40:08Z</time>
      </trkpt>
      <trkpt lat="45.71206" lon="5.64201">
        <ele>350</ele>
        <time>2018-06-10T17:40:08Z</time>
      </trkpt>
      <trkpt lat="45.71202" lon="5.64194">
        <ele>350</ele>
        <time>2018-06-10T17:40:08Z</time>
      </trkpt>
      <trkpt lat="45.71201" lon="5.64186">
        <ele>350</ele>
        <time>2018-06-10T17:40:08Z</time>
      </trkpt>
      <trkpt lat="45.712" lon="5.64172">
        <ele>350</ele>
        <time>2018-06-10T17:40:28Z</time>
      </trkpt>
      <trkpt lat="45.71198" lon="5.64168">
        <ele>350</ele>
        <time>2018-06-10T17:40:28Z</time>
      </trkpt>
      <trkpt lat="45.71197" lon="5.64167">
        <ele>350</ele>
        <time>2018-06-10T17:40:28Z</time>
      </trkpt>
      <trkpt lat="45.71197" lon="5.64166">
        <ele>350</ele>
        <time>2018-06-10T17:40:28Z</time>
      </trkpt>
      <trkpt lat="45.71192" lon="5.6416">
        <ele>350</ele>
        <time>2018-06-10T17:40:28Z</time>
      </trkpt>
      <trkpt lat="45.71188" lon="5.64154">
        <ele>350</ele>
        <time>2018-06-10T17:40:44Z</time>
      </trkpt>
      <trkpt lat="45.71184" lon="5.64152">
        <ele>350</ele>
        <time>2018-06-10T17:40:44Z</time>
      </trkpt>
      <trkpt lat="45.71177" lon="5.64154">
        <ele>350</ele>
        <time>2018-06-10T17:40:44Z</time>
      </trkpt>
      <trkpt lat="45.71172" lon="5.64155">
        <ele>350</ele>
        <time>2018-06-10T17:40:44Z</time>
      </trkpt>
      <trkpt lat="45.71163" lon="5.6416">
        <ele>350</ele>
        <time>2018-06-10T17:41:00Z</time>
      </trkpt>
      <trkpt lat="45.71157" lon="5.64169">
        <ele>350</ele>
        <time>2018-06-10T17:41:00Z</time>
      </trkpt>
      <trkpt lat="45.71144" lon="5.6418">
        <ele>350</ele>
        <time>2018-06-10T17:41:00Z</time>
      </trkpt>
      <trkpt lat="45.7113" lon="5.6419">
        <ele>350</ele>
        <time>2018-06-10T17:41:00Z</time>
      </trkpt>
      <trkpt lat="45.71109" lon="5.64207">
        <ele>359</ele>
        <time>2018-06-10T17:41:16Z</time>
      </trkpt>
      <trkpt lat="45.71099" lon="5.64219">
        <ele>353</ele>
        <time>2018-06-10T17:41:16Z</time>
      </trkpt>
      <trkpt lat="45.7109" lon="5.64238">
        <ele>353</ele>
        <time>2018-06-10T17:41:16Z</time>
      </trkpt>
      <trkpt lat="45.71087" lon="5.64247">
        <ele>353</ele>
        <time>2018-06-10T17:41:16Z</time>
      </trkpt>
      <trkpt lat="45.71079" lon="5.64268">
        <ele>353</ele>
        <time>2018-06-10T17:41:32Z</time>
      </trkpt>
      <trkpt lat="45.71076" lon="5.64277">
        <ele>353</ele>
        <time>2018-06-10T17:41:32Z</time>
      </trkpt>
      <trkpt lat="45.71073" lon="5.64285">
        <ele>353</ele>
        <time>2018-06-10T17:41:32Z</time>
      </trkpt>
      <trkpt lat="45.71067" lon="5.64293">
        <ele>346</ele>
        <time>2018-06-10T17:41:32Z</time>
      </trkpt>
      <trkpt lat="45.71057" lon="5.64301">
        <ele>346</ele>
        <time>2018-06-10T17:41:48Z</time>
      </trkpt>
      <trkpt lat="45.71054" lon="5.64307">
        <ele>346</ele>
        <time>2018-06-10T17:41:48Z</time>
      </trkpt>
      <trkpt lat="45.71048" lon="5.64316">
        <ele>346</ele>
        <time>2018-06-10T17:41:48Z</time>
      </trkpt>
      <trkpt lat="45.71042" lon="5.64328">
        <ele>346</ele>
        <time>2018-06-10T17:41:48Z</time>
      </trkpt>
      <trkpt lat="45.71027" lon="5.64337">
        <ele>361</ele>
        <time>2018-06-10T17:42:04Z</time>
      </trkpt>
      <trkpt lat="45.71003" lon="5.64341">
        <ele>361</ele>
        <time>2018-06-10T17:42:04Z</time>
      </trkpt>
      <trkpt lat="45.70981" lon="5.64345">
        <ele>361</ele>
        <time>2018-06-10T17:42:04Z</time>
      </trkpt>
      <trkpt lat="45.70964" lon="5.64341">
        <ele>361</ele>
        <time>2018-06-10T17:42:04Z</time>
      </trkpt>
      <trkpt lat="45.70948" lon="5.64346">
        <ele>371</ele>
        <time>2018-06-10T17:42:20Z</time>
      </trkpt>
      <trkpt lat="45.70942" lon="5.64353">
        <ele>371</ele>
        <time>2018-06-10T17:42:20Z</time>
      </trkpt>
      <trkpt lat="45.70938" lon="5.64361">
        <ele>371</ele>
        <time>2018-06-10T17:42:20Z</time>
      </trkpt>
      <trkpt lat="45.70934" lon="5.64369">
        <ele>371</ele>
        <time>2018-06-10T17:42:20Z</time>
      </trkpt>
      <trkpt lat="45.70927" lon="5.64373">
        <ele>371</ele>
        <time>2018-06-10T17:42:48Z</time>
      </trkpt>
      <trkpt lat="45.70926" lon="5.64373">
        <ele>371</ele>
        <time>2018-06-10T17:42:48Z</time>
      </trkpt>
      <trkpt lat="45.70924" lon="5.64373">
        <ele>371</ele>
        <time>2018-06-10T17:42:48Z</time>
      </trkpt>
      <trkpt lat="45.70923" lon="5.64374">
        <ele>371</ele>
        <time>2018-06-10T17:42:48Z</time>
      </trkpt>
      <trkpt lat="45.70922" lon="5.64373">
        <ele>371</ele>
        <time>2018-06-10T17:42:48Z</time>
      </trkpt>
      <trkpt lat="45.70922" lon="5.64374">
        <ele>371</ele>
        <time>2018-06-10T17:43:04Z</time>
      </trkpt>
      <trkpt lat="45.70922" lon="5.64374">
        <ele>371</ele>
        <time>2018-06-10T17:43:04Z</time>
      </trkpt>
      <trkpt lat="45.70918" lon="5.64377">
        <ele>355</ele>
        <time>2018-06-10T17:43:04Z</time>
      </trkpt>
      <trkpt lat="45.70912" lon="5.64381">
        <ele>355</ele>
        <time>2018-06-10T17:43:04Z</time>
      </trkpt>
      <trkpt lat="45.70907" lon="5.64383">
        <ele>355</ele>
        <time>2018-06-10T17:43:24Z</time>
      </trkpt>
      <trkpt lat="45.70904" lon="5.64382">
        <ele>355</ele>
        <time>2018-06-10T17:43:24Z</time>
      </trkpt>
      <trkpt lat="45.70902" lon="5.64385">
        <ele>355</ele>
        <time>2018-06-10T17:43:24Z</time>
      </trkpt>
      <trkpt lat="45.70901" lon="5.6439">
        <ele>355</ele>
        <time>2018-06-10T17:43:24Z</time>
      </trkpt>
      <trkpt lat="45.70899" lon="5.64394">
        <ele>355</ele>
        <time>2018-06-10T17:43:24Z</time>
      </trkpt>
      <trkpt lat="45.70898" lon="5.64396">
        <ele>355</ele>
        <time>2018-06-10T17:43:48Z</time>
      </trkpt>
      <trkpt lat="45.70897" lon="5.64398">
        <ele>355</ele>
        <time>2018-06-10T17:43:48Z</time>
      </trkpt>
      <trkpt lat="45.70896" lon="5.64399">
        <ele>355</ele>
        <time>2018-06-10T17:43:48Z</time>
      </trkpt>
      <trkpt lat="45.70894" lon="5.64398">
        <ele>355</ele>
        <time>2018-06-10T17:43:48Z</time>
      </trkpt>
      <trkpt lat="45.7089" lon="5.64401">
        <ele>355</ele>
        <time>2018-06-10T17:43:48Z</time>
      </trkpt>
      <trkpt lat="45.70889" lon="5.64401">
        <ele>355</ele>
        <time>2018-06-10T17:44:04Z</time>
      </trkpt>
      <trkpt lat="45.70885" lon="5.64403">
        <ele>355</ele>
        <time>2018-06-10T17:44:04Z</time>
      </trkpt>
      <trkpt lat="45.70882" lon="5.64409">
        <ele>355</ele>
        <time>2018-06-10T17:44:04Z</time>
      </trkpt>
      <trkpt lat="45.70882" lon="5.64414">
        <ele>355</ele>
        <time>2018-06-10T17:44:04Z</time>
      </trkpt>
      <trkpt lat="45.70881" lon="5.6442">
        <ele>355</ele>
        <time>2018-06-10T17:44:20Z</time>
      </trkpt>
      <trkpt lat="45.7088" lon="5.64427">
        <ele>355</ele>
        <time>2018-06-10T17:44:20Z</time>
      </trkpt>
      <trkpt lat="45.7088" lon="5.64434">
        <ele>355</ele>
        <time>2018-06-10T17:44:20Z</time>
      </trkpt>
      <trkpt lat="45.70882" lon="5.6444">
        <ele>355</ele>
        <time>2018-06-10T17:44:20Z</time>
      </trkpt>
      <trkpt lat="45.70886" lon="5.64447">
        <ele>355</ele>
        <time>2018-06-10T17:44:36Z</time>
      </trkpt>
      <trkpt lat="45.70889" lon="5.6445">
        <ele>355</ele>
        <time>2018-06-10T17:44:36Z</time>
      </trkpt>
      <trkpt lat="45.70889" lon="5.64456">
        <ele>355</ele>
        <time>2018-06-10T17:44:36Z</time>
      </trkpt>
      <trkpt lat="45.70889" lon="5.64461">
        <ele>339</ele>
        <time>2018-06-10T17:44:36Z</time>
      </trkpt>
      <trkpt lat="45.70891" lon="5.64464">
        <ele>339</ele>
        <time>2018-06-10T17:44:52Z</time>
      </trkpt>
      <trkpt lat="45.70896" lon="5.64472">
        <ele>339</ele>
        <time>2018-06-10T17:44:52Z</time>
      </trkpt>
      <trkpt lat="45.70899" lon="5.64475">
        <ele>339</ele>
        <time>2018-06-10T17:44:52Z</time>
      </trkpt>
      <trkpt lat="45.70902" lon="5.64478">
        <ele>339</ele>
        <time>2018-06-10T17:44:52Z</time>
      </trkpt>
      <trkpt lat="45.70904" lon="5.64487">
        <ele>339</ele>
        <time>2018-06-10T17:45:28Z</time>
      </trkpt>
      <trkpt lat="45.70905" lon="5.64487">
        <ele>339</ele>
        <time>2018-06-10T17:45:28Z</time>
      </trkpt>
      <trkpt lat="45.70904" lon="5.64488">
        <ele>339</ele>
        <time>2018-06-10T17:45:28Z</time>
      </trkpt>
      <trkpt lat="45.70908" lon="5.64493">
        <ele>339</ele>
        <time>2018-06-10T17:45:28Z</time>
      </trkpt>
      <trkpt lat="45.70909" lon="5.64498">
        <ele>339</ele>
        <time>2018-06-10T17:45:28Z</time>
      </trkpt>
      <trkpt lat="45.70898" lon="5.64495">
        <ele>339</ele>
        <time>2018-06-10T17:46:56Z</time>
      </trkpt>
      <trkpt lat="45.70898" lon="5.64495">
        <ele>339</ele>
        <time>2018-06-10T17:46:56Z</time>
      </trkpt>
      <trkpt lat="45.70898" lon="5.64495">
        <ele>339</ele>
        <time>2018-06-10T17:46:56Z</time>
      </trkpt>
      <trkpt lat="45.70897" lon="5.64495">
        <ele>339</ele>
        <time>2018-06-10T17:46:56Z</time>
      </trkpt>
      <trkpt lat="45.70896" lon="5.64493">
        <ele>339</ele>
        <time>2018-06-10T17:46:56Z</time>
      </trkpt>
      <trkpt lat="45.70901" lon="5.64487">
        <ele>339</ele>
        <time>2018-06-10T17:47:40Z</time>
      </trkpt>
      <trkpt lat="45.70901" lon="5.64486">
        <ele>339</ele>
        <time>2018-06-10T17:47:40Z</time>
      </trkpt>
      <trkpt lat="45.70903" lon="5.6449">
        <ele>339</ele>
        <time>2018-06-10T17:47:40Z</time>
      </trkpt>
      <trkpt lat="45.70907" lon="5.64495">
        <ele>339</ele>
        <time>2018-06-10T17:47:40Z</time>
      </trkpt>
      <trkpt lat="45.7091" lon="5.645">
        <ele>339</ele>
        <time>2018-06-10T17:47:40Z</time>
      </trkpt>
      <trkpt lat="45.70918" lon="5.64504">
        <ele>339</ele>
        <time>2018-06-10T17:47:56Z</time>
      </trkpt>
      <trkpt lat="45.70925" lon="5.64508">
        <ele>339</ele>
        <time>2018-06-10T17:47:56Z</time>
      </trkpt>
      <trkpt lat="45.70931" lon="5.64512">
        <ele>339</ele>
        <time>2018-06-10T17:47:56Z</time>
      </trkpt>
      <trkpt lat="45.70934" lon="5.64513">
        <ele>339</ele>
        <time>2018-06-10T17:47:56Z</time>
      </trkpt>
      <trkpt lat="45.70936" lon="5.64515">
        <ele>339</ele>
        <time>2018-06-10T17:48:12Z</time>
      </trkpt>
      <trkpt lat="45.7094" lon="5.64521">
        <ele>339</ele>
        <time>2018-06-10T17:48:12Z</time>
      </trkpt>
      <trkpt lat="45.70943" lon="5.64527">
        <ele>339</ele>
        <time>2018-06-10T17:48:12Z</time>
      </trkpt>
      <trkpt lat="45.70949" lon="5.64531">
        <ele>339</ele>
        <time>2018-06-10T17:48:12Z</time>
      </trkpt>
      <trkpt lat="45.70952" lon="5.64533">
        <ele>339</ele>
        <time>2018-06-10T17:48:28Z</time>
      </trkpt>
      <trkpt lat="45.70958" lon="5.64539">
        <ele>339</ele>
        <time>2018-06-10T17:48:28Z</time>
      </trkpt>
      <trkpt lat="45.70961" lon="5.64542">
        <ele>315</ele>
        <time>2018-06-10T17:48:28Z</time>
      </trkpt>
      <trkpt lat="45.70964" lon="5.64545">
        <ele>315</ele>
        <time>2018-06-10T17:48:28Z</time>
      </trkpt>
      <trkpt lat="45.70967" lon="5.64549">
        <ele>315</ele>
        <time>2018-06-10T17:48:52Z</time>
      </trkpt>
      <trkpt lat="45.70968" lon="5.64549">
        <ele>315</ele>
        <time>2018-06-10T17:48:52Z</time>
      </trkpt>
      <trkpt lat="45.70968" lon="5.6455">
        <ele>315</ele>
        <time>2018-06-10T17:48:52Z</time>
      </trkpt>
      <trkpt lat="45.70971" lon="5.64549">
        <ele>315</ele>
        <time>2018-06-10T17:48:52Z</time>
      </trkpt>
      <trkpt lat="45.70977" lon="5.64551">
        <ele>315</ele>
        <time>2018-06-10T17:48:52Z</time>
      </trkpt>
      <trkpt lat="45.7098" lon="5.64555">
        <ele>315</ele>
        <time>2018-06-10T17:49:08Z</time>
      </trkpt>
      <trkpt lat="45.70982" lon="5.64557">
        <ele>315</ele>
        <time>2018-06-10T17:49:08Z</time>
      </trkpt>
      <trkpt lat="45.70987" lon="5.64561">
        <ele>315</ele>
        <time>2018-06-10T17:49:08Z</time>
      </trkpt>
      <trkpt lat="45.70989" lon="5.64566">
        <ele>315</ele>
        <time>2018-06-10T17:49:08Z</time>
      </trkpt>
      <trkpt lat="45.7099" lon="5.64568">
        <ele>315</ele>
        <time>2018-06-10T17:49:24Z</time>
      </trkpt>
      <trkpt lat="45.70992" lon="5.64569">
        <ele>315</ele>
        <time>2018-06-10T17:49:24Z</time>
      </trkpt>
      <trkpt lat="45.70996" lon="5.64571">
        <ele>315</ele>
        <time>2018-06-10T17:49:24Z</time>
      </trkpt>
      <trkpt lat="45.71" lon="5.64572">
        <ele>315</ele>
        <time>2018-06-10T17:49:24Z</time>
      </trkpt>
      <trkpt lat="45.71003" lon="5.64574">
        <ele>315</ele>
        <time>2018-06-10T17:49:40Z</time>
      </trkpt>
      <trkpt lat="45.71005" lon="5.64577">
        <ele>315</ele>
        <time>2018-06-10T17:49:40Z</time>
      </trkpt>
      <trkpt lat="45.71007" lon="5.64579">
        <ele>315</ele>
        <time>2018-06-10T17:49:40Z</time>
      </trkpt>
      <trkpt lat="45.71008" lon="5.64585">
        <ele>315</ele>
        <time>2018-06-10T17:49:40Z</time>
      </trkpt>
      <trkpt lat="45.71005" lon="5.64587">
        <ele>315</ele>
        <time>2018-06-10T17:49:56Z</time>
      </trkpt>
      <trkpt lat="45.71" lon="5.6459">
        <ele>315</ele>
        <time>2018-06-10T17:49:56Z</time>
      </trkpt>
      <trkpt lat="45.70997" lon="5.64594">
        <ele>315</ele>
        <time>2018-06-10T17:49:56Z</time>
      </trkpt>
      <trkpt lat="45.70994" lon="5.64594">
        <ele>315</ele>
        <time>2018-06-10T17:49:56Z</time>
      </trkpt>
      <trkpt lat="45.7099" lon="5.64595">
        <ele>315</ele>
        <time>2018-06-10T17:50:12Z</time>
      </trkpt>
      <trkpt lat="45.70985" lon="5.64595">
        <ele>315</ele>
        <time>2018-06-10T17:50:12Z</time>
      </trkpt>
      <trkpt lat="45.70982" lon="5.64593">
        <ele>315</ele>
        <time>2018-06-10T17:50:12Z</time>
      </trkpt>
      <trkpt lat="45.70981" lon="5.64591">
        <ele>315</ele>
        <time>2018-06-10T17:50:12Z</time>
      </trkpt>
      <trkpt lat="45.70977" lon="5.6459">
        <ele>315</ele>
        <time>2018-06-10T17:50:28Z</time>
      </trkpt>
      <trkpt lat="45.70972" lon="5.64591">
        <ele>315</ele>
        <time>2018-06-10T17:50:28Z</time>
      </trkpt>
      <trkpt lat="45.70968" lon="5.6459">
        <ele>315</ele>
        <time>2018-06-10T17:50:28Z</time>
      </trkpt>
      <trkpt lat="45.70964" lon="5.64591">
        <ele>315</ele>
        <time>2018-06-10T17:50:28Z</time>
      </trkpt>
      <trkpt lat="45.7096" lon="5.64593">
        <ele>315</ele>
        <time>2018-06-10T17:50:44Z</time>
      </trkpt>
      <trkpt lat="45.70957" lon="5.64596">
        <ele>318</ele>
        <time>2018-06-10T17:50:44Z</time>
      </trkpt>
      <trkpt lat="45.70953" lon="5.64596">
        <ele>318</ele>
        <time>2018-06-10T17:50:44Z</time>
      </trkpt>
      <trkpt lat="45.70948" lon="5.646">
        <ele>318</ele>
        <time>2018-06-10T17:50:44Z</time>
      </trkpt>
      <trkpt lat="45.70942" lon="5.6461">
        <ele>318</ele>
        <time>2018-06-10T17:51:16Z</time>
      </trkpt>
      <trkpt lat="45.70943" lon="5.64617">
        <ele>318</ele>
        <time>2018-06-10T17:51:16Z</time>
      </trkpt>
      <trkpt lat="45.70943" lon="5.64625">
        <ele>318</ele>
        <time>2018-06-10T17:51:16Z</time>
      </trkpt>
      <trkpt lat="45.70944" lon="5.64628">
        <ele>298</ele>
        <time>2018-06-10T17:51:16Z</time>
      </trkpt>
      <trkpt lat="45.70944" lon="5.64636">
        <ele>298</ele>
        <time>2018-06-10T17:51:16Z</time>
      </trkpt>
      <trkpt lat="45.70946" lon="5.64641">
        <ele>298</ele>
        <time>2018-06-10T17:51:32Z</time>
      </trkpt>
      <trkpt lat="45.70946" lon="5.64646">
        <ele>298</ele>
        <time>2018-06-10T17:51:32Z</time>
      </trkpt>
      <trkpt lat="45.70947" lon="5.64652">
        <ele>298</ele>
        <time>2018-06-10T17:51:32Z</time>
      </trkpt>
      <trkpt lat="45.70945" lon="5.64658">
        <ele>298</ele>
        <time>2018-06-10T17:51:32Z</time>
      </trkpt>
      <trkpt lat="45.7094" lon="5.64664">
        <ele>298</ele>
        <time>2018-06-10T17:51:48Z</time>
      </trkpt>
      <trkpt lat="45.70935" lon="5.64669">
        <ele>298</ele>
        <time>2018-06-10T17:51:48Z</time>
      </trkpt>
      <trkpt lat="45.70932" lon="5.64672">
        <ele>298</ele>
        <time>2018-06-10T17:51:48Z</time>
      </trkpt>
      <trkpt lat="45.70927" lon="5.64676">
        <ele>298</ele>
        <time>2018-06-10T17:51:48Z</time>
      </trkpt>
      <trkpt lat="45.70921" lon="5.64681">
        <ele>298</ele>
        <time>2018-06-10T17:52:04Z</time>
      </trkpt>
      <trkpt lat="45.70918" lon="5.64688">
        <ele>298</ele>
        <time>2018-06-10T17:52:04Z</time>
      </trkpt>
      <trkpt lat="45.70915" lon="5.64696">
        <ele>298</ele>
        <time>2018-06-10T17:52:04Z</time>
      </trkpt>
      <trkpt lat="45.70909" lon="5.64701">
        <ele>298</ele>
        <time>2018-06-10T17:52:04Z</time>
      </trkpt>
      <trkpt lat="45.70905" lon="5.64706">
        <ele>298</ele>
        <time>2018-06-10T17:52:20Z</time>
      </trkpt>
      <trkpt lat="45.70901" lon="5.64712">
        <ele>283</ele>
        <time>2018-06-10T17:52:20Z</time>
      </trkpt>
      <trkpt lat="45.709" lon="5.64719">
        <ele>283</ele>
        <time>2018-06-10T17:52:20Z</time>
      </trkpt>
      <trkpt lat="45.70899" lon="5.64726">
        <ele>283</ele>
        <time>2018-06-10T17:52:20Z</time>
      </trkpt>
      <trkpt lat="45.70897" lon="5.6473">
        <ele>283</ele>
        <time>2018-06-10T17:52:36Z</time>
      </trkpt>
      <trkpt lat="45.70893" lon="5.64739">
        <ele>283</ele>
        <time>2018-06-10T17:52:36Z</time>
      </trkpt>
      <trkpt lat="45.70889" lon="5.64747">
        <ele>283</ele>
        <time>2018-06-10T17:52:36Z</time>
      </trkpt>
      <trkpt lat="45.70887" lon="5.64754">
        <ele>283</ele>
        <time>2018-06-10T17:52:36Z</time>
      </trkpt>
      <trkpt lat="45.70883" lon="5.6476">
        <ele>283</ele>
        <time>2018-06-10T17:52:52Z</time>
      </trkpt>
      <trkpt lat="45.7088" lon="5.64766">
        <ele>283</ele>
        <time>2018-06-10T17:52:52Z</time>
      </trkpt>
      <trkpt lat="45.70877" lon="5.64771">
        <ele>283</ele>
        <time>2018-06-10T17:52:52Z</time>
      </trkpt>
      <trkpt lat="45.70872" lon="5.64777">
        <ele>301</ele>
        <time>2018-06-10T17:52:52Z</time>
      </trkpt>
      <trkpt lat="45.70868" lon="5.64783">
        <ele>301</ele>
        <time>2018-06-10T17:53:08Z</time>
      </trkpt>
      <trkpt lat="45.70865" lon="5.64788">
        <ele>301</ele>
        <time>2018-06-10T17:53:08Z</time>
      </trkpt>
      <trkpt lat="45.70861" lon="5.64794">
        <ele>291</ele>
        <time>2018-06-10T17:53:08Z</time>
      </trkpt>
      <trkpt lat="45.70862" lon="5.64802">
        <ele>291</ele>
        <time>2018-06-10T17:53:08Z</time>
      </trkpt>
      <trkpt lat="45.70864" lon="5.64806">
        <ele>291</ele>
        <time>2018-06-10T17:53:24Z</time>
      </trkpt>
      <trkpt lat="45.70866" lon="5.64811">
        <ele>291</ele>
        <time>2018-06-10T17:53:24Z</time>
      </trkpt>
      <trkpt lat="45.70867" lon="5.64817">
        <ele>291</ele>
        <time>2018-06-10T17:53:24Z</time>
      </trkpt>
      <trkpt lat="45.70871" lon="5.64825">
        <ele>291</ele>
        <time>2018-06-10T17:53:24Z</time>
      </trkpt>
      <trkpt lat="45.70879" lon="5.64838">
        <ele>273</ele>
        <time>2018-06-10T17:54:04Z</time>
      </trkpt>
      <trkpt lat="45.70879" lon="5.64839">
        <ele>273</ele>
        <time>2018-06-10T17:54:04Z</time>
      </trkpt>
      <trkpt lat="45.70878" lon="5.64842">
        <ele>273</ele>
        <time>2018-06-10T17:54:04Z</time>
      </trkpt>
      <trkpt lat="45.70878" lon="5.64842">
        <ele>273</ele>
        <time>2018-06-10T17:54:04Z</time>
      </trkpt>
      <trkpt lat="45.7088" lon="5.64844">
        <ele>273</ele>
        <time>2018-06-10T17:54:04Z</time>
      </trkpt>
      <trkpt lat="45.70881" lon="5.64845">
        <ele>273</ele>
        <time>2018-06-10T17:54:20Z</time>
      </trkpt>
      <trkpt lat="45.70883" lon="5.6485">
        <ele>273</ele>
        <time>2018-06-10T17:54:20Z</time>
      </trkpt>
      <trkpt lat="45.70888" lon="5.64855">
        <ele>273</ele>
        <time>2018-06-10T17:54:20Z</time>
      </trkpt>
      <trkpt lat="45.70892" lon="5.64857">
        <ele>273</ele>
        <time>2018-06-10T17:54:20Z</time>
      </trkpt>
      <trkpt lat="45.70895" lon="5.6486">
        <ele>273</ele>
        <time>2018-06-10T17:54:36Z</time>
      </trkpt>
      <trkpt lat="45.70896" lon="5.64866">
        <ele>273</ele>
        <time>2018-06-10T17:54:36Z</time>
      </trkpt>
      <trkpt lat="45.709" lon="5.64874">
        <ele>273</ele>
        <time>2018-06-10T17:54:36Z</time>
      </trkpt>
      <trkpt lat="45.70901" lon="5.64879">
        <ele>264</ele>
        <time>2018-06-10T17:54:36Z</time>
      </trkpt>
      <trkpt lat="45.70902" lon="5.64884">
        <ele>264</ele>
        <time>2018-06-10T17:54:52Z</time>
      </trkpt>
      <trkpt lat="45.70905" lon="5.64887">
        <ele>264</ele>
        <time>2018-06-10T17:54:52Z</time>
      </trkpt>
      <trkpt lat="45.70909" lon="5.64892">
        <ele>264</ele>
        <time>2018-06-10T17:54:52Z</time>
      </trkpt>
      <trkpt lat="45.70911" lon="5.64895">
        <ele>264</ele>
        <time>2018-06-10T17:54:52Z</time>
      </trkpt>
      <trkpt lat="45.70913" lon="5.64898">
        <ele>264</ele>
        <time>2018-06-10T17:55:08Z</time>
      </trkpt>
      <trkpt lat="45.70917" lon="5.64902">
        <ele>264</ele>
        <time>2018-06-10T17:55:08Z</time>
      </trkpt>
      <trkpt lat="45.7092" lon="5.64906">
        <ele>264</ele>
        <time>2018-06-10T17:55:08Z</time>
      </trkpt>
      <trkpt lat="45.70923" lon="5.64911">
        <ele>264</ele>
        <time>2018-06-10T17:55:08Z</time>
      </trkpt>
      <trkpt lat="45.70926" lon="5.64918">
        <ele>264</ele>
        <time>2018-06-10T17:55:24Z</time>
      </trkpt>
      <trkpt lat="45.7093" lon="5.64928">
        <ele>264</ele>
        <time>2018-06-10T17:55:24Z</time>
      </trkpt>
      <trkpt lat="45.70933" lon="5.64937">
        <ele>264</ele>
        <time>2018-06-10T17:55:24Z</time>
      </trkpt>
      <trkpt lat="45.70937" lon="5.64946">
        <ele>264</ele>
        <time>2018-06-10T17:55:24Z</time>
      </trkpt>
      <trkpt lat="45.7094" lon="5.64954">
        <ele>264</ele>
        <time>2018-06-10T17:55:40Z</time>
      </trkpt>
      <trkpt lat="45.70944" lon="5.64961">
        <ele>256</ele>
        <time>2018-06-10T17:55:40Z</time>
      </trkpt>
      <trkpt lat="45.70946" lon="5.64967">
        <ele>256</ele>
        <time>2018-06-10T17:55:40Z</time>
      </trkpt>
      <trkpt lat="45.70948" lon="5.64975">
        <ele>256</ele>
        <time>2018-06-10T17:55:40Z</time>
      </trkpt>
      <trkpt lat="45.70947" lon="5.64976">
        <ele>256</ele>
        <time>2018-06-10T17:55:56Z</time>
      </trkpt>
      <trkpt lat="45.70951" lon="5.64983">
        <ele>256</ele>
        <time>2018-06-10T17:55:56Z</time>
      </trkpt>
      <trkpt lat="45.70954" lon="5.6499">
        <ele>256</ele>
        <time>2018-06-10T17:55:56Z</time>
      </trkpt>
      <trkpt lat="45.70957" lon="5.64998">
        <ele>256</ele>
        <time>2018-06-10T17:55:56Z</time>
      </trkpt>
      <trkpt lat="45.70961" lon="5.65015">
        <ele>252</ele>
        <time>2018-06-10T17:56:28Z</time>
      </trkpt>
      <trkpt lat="45.7096" lon="5.65016">
        <ele>252</ele>
        <time>2018-06-10T17:56:28Z</time>
      </trkpt>
      <trkpt lat="45.7096" lon="5.65019">
        <ele>252</ele>
        <time>2018-06-10T17:56:28Z</time>
      </trkpt>
      <trkpt lat="45.70963" lon="5.65026">
        <ele>252</ele>
        <time>2018-06-10T17:56:28Z</time>
      </trkpt>
      <trkpt lat="45.70966" lon="5.65033">
        <ele>252</ele>
        <time>2018-06-10T17:56:28Z</time>
      </trkpt>
      <trkpt lat="45.70968" lon="5.6504">
        <ele>252</ele>
        <time>2018-06-10T17:56:44Z</time>
      </trkpt>
      <trkpt lat="45.70971" lon="5.65047">
        <ele>247</ele>
        <time>2018-06-10T17:56:44Z</time>
      </trkpt>
      <trkpt lat="45.70974" lon="5.65055">
        <ele>247</ele>
        <time>2018-06-10T17:56:44Z</time>
      </trkpt>
      <trkpt lat="45.70976" lon="5.65064">
        <ele>247</ele>
        <time>2018-06-10T17:56:44Z</time>
      </trkpt>
      <trkpt lat="45.70979" lon="5.6507">
        <ele>247</ele>
        <time>2018-06-10T17:57:04Z</time>
      </trkpt>
      <trkpt lat="45.70979" lon="5.6507">
        <ele>247</ele>
        <time>2018-06-10T17:57:04Z</time>
      </trkpt>
      <trkpt lat="45.7098" lon="5.6507">
        <ele>247</ele>
        <time>2018-06-10T17:57:04Z</time>
      </trkpt>
      <trkpt lat="45.70984" lon="5.65078">
        <ele>247</ele>
        <time>2018-06-10T17:57:04Z</time>
      </trkpt>
      <trkpt lat="45.70987" lon="5.65085">
        <ele>247</ele>
        <time>2018-06-10T17:57:04Z</time>
      </trkpt>
      <trkpt lat="45.70988" lon="5.65099">
        <ele>247</ele>
        <time>2018-06-10T17:58:28Z</time>
      </trkpt>
      <trkpt lat="45.70985" lon="5.65103">
        <ele>247</ele>
        <time>2018-06-10T17:58:28Z</time>
      </trkpt>
      <trkpt lat="45.70981" lon="5.65107">
        <ele>247</ele>
        <time>2018-06-10T17:58:28Z</time>
      </trkpt>
      <trkpt lat="45.70978" lon="5.65113">
        <ele>247</ele>
        <time>2018-06-10T17:58:28Z</time>
      </trkpt>
      <trkpt lat="45.70975" lon="5.65117">
        <ele>247</ele>
        <time>2018-06-10T17:58:28Z</time>
      </trkpt>
      <trkpt lat="45.70971" lon="5.65121">
        <ele>247</ele>
        <time>2018-06-10T17:58:44Z</time>
      </trkpt>
      <trkpt lat="45.70967" lon="5.65128">
        <ele>248</ele>
        <time>2018-06-10T17:58:44Z</time>
      </trkpt>
      <trkpt lat="45.70962" lon="5.65133">
        <ele>248</ele>
        <time>2018-06-10T17:58:44Z</time>
      </trkpt>
      <trkpt lat="45.70959" lon="5.65138">
        <ele>248</ele>
        <time>2018-06-10T17:58:44Z</time>
      </trkpt>
      <trkpt lat="45.70953" lon="5.65143">
        <ele>249</ele>
        <time>2018-06-10T17:59:00Z</time>
      </trkpt>
      <trkpt lat="45.70948" lon="5.65148">
        <ele>249</ele>
        <time>2018-06-10T17:59:00Z</time>
      </trkpt>
      <trkpt lat="45.70942" lon="5.65155">
        <ele>249</ele>
        <time>2018-06-10T17:59:00Z</time>
      </trkpt>
      <trkpt lat="45.70939" lon="5.6516">
        <ele>249</ele>
        <time>2018-06-10T17:59:00Z</time>
      </trkpt>
      <trkpt lat="45.70933" lon="5.65163">
        <ele>249</ele>
        <time>2018-06-10T17:59:16Z</time>
      </trkpt>
      <trkpt lat="45.70927" lon="5.65164">
        <ele>249</ele>
        <time>2018-06-10T17:59:16Z</time>
      </trkpt>
      <trkpt lat="45.70922" lon="5.65168">
        <ele>249</ele>
        <time>2018-06-10T17:59:16Z</time>
      </trkpt>
      <trkpt lat="45.70917" lon="5.65172">
        <ele>249</ele>
        <time>2018-06-10T17:59:16Z</time>
      </trkpt>
      <trkpt lat="45.70913" lon="5.65176">
        <ele>249</ele>
        <time>2018-06-10T17:59:32Z</time>
      </trkpt>
      <trkpt lat="45.70908" lon="5.6518">
        <ele>249</ele>
        <time>2018-06-10T17:59:32Z</time>
      </trkpt>
      <trkpt lat="45.70903" lon="5.65184">
        <ele>249</ele>
        <time>2018-06-10T17:59:32Z</time>
      </trkpt>
      <trkpt lat="45.70897" lon="5.65187">
        <ele>249</ele>
        <time>2018-06-10T17:59:32Z</time>
      </trkpt>
      <trkpt lat="45.70891" lon="5.65188">
        <ele>249</ele>
        <time>2018-06-10T17:59:48Z</time>
      </trkpt>
      <trkpt lat="45.70885" lon="5.6519">
        <ele>249</ele>
        <time>2018-06-10T17:59:48Z</time>
      </trkpt>
      <trkpt lat="45.70879" lon="5.65193">
        <ele>249</ele>
        <time>2018-06-10T17:59:48Z</time>
      </trkpt>
      <trkpt lat="45.70874" lon="5.65195">
        <ele>252</ele>
        <time>2018-06-10T17:59:48Z</time>
      </trkpt>
      <trkpt lat="45.70868" lon="5.65196">
        <ele>252</ele>
        <time>2018-06-10T18:00:04Z</time>
      </trkpt>
      <trkpt lat="45.70862" lon="5.65199">
        <ele>252</ele>
        <time>2018-06-10T18:00:04Z</time>
      </trkpt>
      <trkpt lat="45.70856" lon="5.65204">
        <ele>252</ele>
        <time>2018-06-10T18:00:04Z</time>
      </trkpt>
      <trkpt lat="45.70851" lon="5.6521">
        <ele>249</ele>
        <time>2018-06-10T18:00:04Z</time>
      </trkpt>
      <trkpt lat="45.70851" lon="5.65212">
        <ele>249</ele>
        <time>2018-06-10T18:00:24Z</time>
      </trkpt>
      <trkpt lat="45.70851" lon="5.65213">
        <ele>249</ele>
        <time>2018-06-10T18:00:24Z</time>
      </trkpt>
      <trkpt lat="45.7085" lon="5.65216">
        <ele>249</ele>
        <time>2018-06-10T18:00:24Z</time>
      </trkpt>
      <trkpt lat="45.70849" lon="5.65223">
        <ele>249</ele>
        <time>2018-06-10T18:00:24Z</time>
      </trkpt>
      <trkpt lat="45.70847" lon="5.6523">
        <ele>249</ele>
        <time>2018-06-10T18:00:24Z</time>
      </trkpt>
      <trkpt lat="45.70844" lon="5.65236">
        <ele>249</ele>
        <time>2018-06-10T18:00:40Z</time>
      </trkpt>
      <trkpt lat="45.70841" lon="5.65241">
        <ele>249</ele>
        <time>2018-06-10T18:00:40Z</time>
      </trkpt>
      <trkpt lat="45.70838" lon="5.65247">
        <ele>249</ele>
        <time>2018-06-10T18:00:40Z</time>
      </trkpt>
      <trkpt lat="45.70832" lon="5.65252">
        <ele>249</ele>
        <time>2018-06-10T18:00:40Z</time>
      </trkpt>
      <trkpt lat="45.70828" lon="5.65259">
        <ele>249</ele>
        <time>2018-06-10T18:00:56Z</time>
      </trkpt>
      <trkpt lat="45.70822" lon="5.65264">
        <ele>249</ele>
        <time>2018-06-10T18:00:56Z</time>
      </trkpt>
      <trkpt lat="45.70817" lon="5.65268">
        <ele>249</ele>
        <time>2018-06-10T18:00:56Z</time>
      </trkpt>
      <trkpt lat="45.70812" lon="5.65272">
        <ele>249</ele>
        <time>2018-06-10T18:00:56Z</time>
      </trkpt>
      <trkpt lat="45.70806" lon="5.65274">
        <ele>249</ele>
        <time>2018-06-10T18:01:12Z</time>
      </trkpt>
      <trkpt lat="45.70802" lon="5.65277">
        <ele>249</ele>
        <time>2018-06-10T18:01:12Z</time>
      </trkpt>
      <trkpt lat="45.70796" lon="5.65277">
        <ele>249</ele>
        <time>2018-06-10T18:01:12Z</time>
      </trkpt>
      <trkpt lat="45.70792" lon="5.65276">
        <ele>249</ele>
        <time>2018-06-10T18:01:12Z</time>
      </trkpt>
      <trkpt lat="45.70792" lon="5.65275">
        <ele>256</ele>
        <time>2018-06-10T18:01:36Z</time>
      </trkpt>
      <trkpt lat="45.7079" lon="5.65275">
        <ele>256</ele>
        <time>2018-06-10T18:01:36Z</time>
      </trkpt>
      <trkpt lat="45.70789" lon="5.65275">
        <ele>256</ele>
        <time>2018-06-10T18:01:36Z</time>
      </trkpt>
      <trkpt lat="45.70784" lon="5.65276">
        <ele>256</ele>
        <time>2018-06-10T18:01:36Z</time>
      </trkpt>
      <trkpt lat="45.70779" lon="5.65281">
        <ele>256</ele>
        <time>2018-06-10T18:01:36Z</time>
      </trkpt>
      <trkpt lat="45.70774" lon="5.65288">
        <ele>256</ele>
        <time>2018-06-10T18:01:52Z</time>
      </trkpt>
      <trkpt lat="45.7077" lon="5.65298">
        <ele>244</ele>
        <time>2018-06-10T18:01:52Z</time>
      </trkpt>
      <trkpt lat="45.70768" lon="5.65304">
        <ele>244</ele>
        <time>2018-06-10T18:01:52Z</time>
      </trkpt>
      <trkpt lat="45.70767" lon="5.65309">
        <ele>244</ele>
        <time>2018-06-10T18:01:52Z</time>
      </trkpt>
      <trkpt lat="45.70766" lon="5.65316">
        <ele>244</ele>
        <time>2018-06-10T18:02:08Z</time>
      </trkpt>
      <trkpt lat="45.70765" lon="5.65322">
        <ele>244</ele>
        <time>2018-06-10T18:02:08Z</time>
      </trkpt>
      <trkpt lat="45.70763" lon="5.65329">
        <ele>244</ele>
        <time>2018-06-10T18:02:08Z</time>
      </trkpt>
      <trkpt lat="45.70764" lon="5.65337">
        <ele>244</ele>
        <time>2018-06-10T18:02:08Z</time>
      </trkpt>
      <trkpt lat="45.70765" lon="5.65347">
        <ele>244</ele>
        <time>2018-06-10T18:02:24Z</time>
      </trkpt>
      <trkpt lat="45.70765" lon="5.65357">
        <ele>244</ele>
        <time>2018-06-10T18:02:24Z</time>
      </trkpt>
      <trkpt lat="45.70766" lon="5.65366">
        <ele>244</ele>
        <time>2018-06-10T18:02:24Z</time>
      </trkpt>
      <trkpt lat="45.70766" lon="5.65373">
        <ele>244</ele>
        <time>2018-06-10T18:02:24Z</time>
      </trkpt>
      <trkpt lat="45.70763" lon="5.65378">
        <ele>240</ele>
        <time>2018-06-10T18:02:40Z</time>
      </trkpt>
      <trkpt lat="45.70755" lon="5.65379">
        <ele>240</ele>
        <time>2018-06-10T18:02:40Z</time>
      </trkpt>
      <trkpt lat="45.70748" lon="5.65381">
        <ele>240</ele>
        <time>2018-06-10T18:02:40Z</time>
      </trkpt>
      <trkpt lat="45.70742" lon="5.65383">
        <ele>240</ele>
        <time>2018-06-10T18:02:40Z</time>
      </trkpt>
      <trkpt lat="45.70737" lon="5.65385">
        <ele>240</ele>
        <time>2018-06-10T18:02:56Z</time>
      </trkpt>
      <trkpt lat="45.70733" lon="5.65389">
        <ele>240</ele>
        <time>2018-06-10T18:02:56Z</time>
      </trkpt>
      <trkpt lat="45.70728" lon="5.65392">
        <ele>240</ele>
        <time>2018-06-10T18:02:56Z</time>
      </trkpt>
      <trkpt lat="45.70723" lon="5.65395">
        <ele>240</ele>
        <time>2018-06-10T18:02:56Z</time>
      </trkpt>
      <trkpt lat="45.7072" lon="5.65398">
        <ele>240</ele>
        <time>2018-06-10T18:03:12Z</time>
      </trkpt>
      <trkpt lat="45.70718" lon="5.65406">
        <ele>240</ele>
        <time>2018-06-10T18:03:12Z</time>
      </trkpt>
      <trkpt lat="45.70719" lon="5.65416">
        <ele>240</ele>
        <time>2018-06-10T18:03:12Z</time>
      </trkpt>
      <trkpt lat="45.70719" lon="5.65424">
        <ele>240</ele>
        <time>2018-06-10T18:03:12Z</time>
      </trkpt>
      <trkpt lat="45.70718" lon="5.65431">
        <ele>240</ele>
        <time>2018-06-10T18:03:28Z</time>
      </trkpt>
      <trkpt lat="45.70719" lon="5.65439">
        <ele>240</ele>
        <time>2018-06-10T18:03:28Z</time>
      </trkpt>
      <trkpt lat="45.70719" lon="5.65445">
        <ele>240</ele>
        <time>2018-06-10T18:03:28Z</time>
      </trkpt>
      <trkpt lat="45.70718" lon="5.65452">
        <ele>240</ele>
        <time>2018-06-10T18:03:28Z</time>
      </trkpt>
      <trkpt lat="45.70717" lon="5.65473">
        <ele>238</ele>
        <time>2018-06-10T18:04:00Z</time>
      </trkpt>
      <trkpt lat="45.70718" lon="5.65478">
        <ele>238</ele>
        <time>2018-06-10T18:04:00Z</time>
      </trkpt>
      <trkpt lat="45.70717" lon="5.65483">
        <ele>238</ele>
        <time>2018-06-10T18:04:00Z</time>
      </trkpt>
      <trkpt lat="45.70717" lon="5.65484">
        <ele>238</ele>
        <time>2018-06-10T18:04:00Z</time>
      </trkpt>
      <trkpt lat="45.70717" lon="5.65484">
        <ele>238</ele>
        <time>2018-06-10T18:04:00Z</time>
      </trkpt>
      <trkpt lat="45.70717" lon="5.65484">
        <ele>238</ele>
        <time>2018-06-10T18:04:16Z</time>
      </trkpt>
      <trkpt lat="45.70716" lon="5.65484">
        <ele>238</ele>
        <time>2018-06-10T18:04:16Z</time>
      </trkpt>
      <trkpt lat="45.70714" lon="5.65488">
        <ele>238</ele>
        <time>2018-06-10T18:04:16Z</time>
      </trkpt>
      <trkpt lat="45.70714" lon="5.65496">
        <ele>238</ele>
        <time>2018-06-10T18:04:16Z</time>
      </trkpt>
      <trkpt lat="45.70715" lon="5.65502">
        <ele>238</ele>
        <time>2018-06-10T18:04:32Z</time>
      </trkpt>
      <trkpt lat="45.70721" lon="5.65507">
        <ele>238</ele>
        <time>2018-06-10T18:04:32Z</time>
      </trkpt>
      <trkpt lat="45.70727" lon="5.65513">
        <ele>238</ele>
        <time>2018-06-10T18:04:32Z</time>
      </trkpt>
      <trkpt lat="45.70732" lon="5.65518">
        <ele>238</ele>
        <time>2018-06-10T18:04:32Z</time>
      </trkpt>
      <trkpt lat="45.70737" lon="5.65521">
        <ele>238</ele>
        <time>2018-06-10T18:04:48Z</time>
      </trkpt>
      <trkpt lat="45.7074" lon="5.65528">
        <ele>238</ele>
        <time>2018-06-10T18:04:48Z</time>
      </trkpt>
      <trkpt lat="45.70743" lon="5.65532">
        <ele>238</ele>
        <time>2018-06-10T18:04:48Z</time>
      </trkpt>
      <trkpt lat="45.70747" lon="5.65538">
        <ele>238</ele>
        <time>2018-06-10T18:04:48Z</time>
      </trkpt>
      <trkpt lat="45.70747" lon="5.6554">
        <ele>238</ele>
        <time>2018-06-10T18:05:04Z</time>
      </trkpt>
      <trkpt lat="45.70748" lon="5.6554">
        <ele>238</ele>
        <time>2018-06-10T18:05:04Z</time>
      </trkpt>
      <trkpt lat="45.70751" lon="5.65538">
        <ele>238</ele>
        <time>2018-06-10T18:05:04Z</time>
      </trkpt>
      <trkpt lat="45.70756" lon="5.65535">
        <ele>238</ele>
        <time>2018-06-10T18:05:04Z</time>
      </trkpt>
      <trkpt lat="45.7076" lon="5.65533">
        <ele>238</ele>
        <time>2018-06-10T18:05:20Z</time>
      </trkpt>
      <trkpt lat="45.70765" lon="5.6553">
        <ele>238</ele>
        <time>2018-06-10T18:05:20Z</time>
      </trkpt>
      <trkpt lat="45.70771" lon="5.65527">
        <ele>238</ele>
        <time>2018-06-10T18:05:20Z</time>
      </trkpt>
      <trkpt lat="45.70774" lon="5.65526">
        <ele>238</ele>
        <time>2018-06-10T18:05:20Z</time>
      </trkpt>
      <trkpt lat="45.70776" lon="5.65525">
        <ele>238</ele>
        <time>2018-06-10T18:06:24Z</time>
      </trkpt>
      <trkpt lat="45.70774" lon="5.65523">
        <ele>238</ele>
        <time>2018-06-10T18:06:24Z</time>
      </trkpt>
      <trkpt lat="45.70767" lon="5.65523">
        <ele>238</ele>
        <time>2018-06-10T18:06:24Z</time>
      </trkpt>
      <trkpt lat="45.70761" lon="5.65528">
        <ele>238</ele>
        <time>2018-06-10T18:06:24Z</time>
      </trkpt>
      <trkpt lat="45.70757" lon="5.65531">
        <ele>238</ele>
        <time>2018-06-10T18:06:24Z</time>
      </trkpt>
      <trkpt lat="45.70752" lon="5.65529">
        <ele>238</ele>
        <time>2018-06-10T18:08:12Z</time>
      </trkpt>
      <trkpt lat="45.7075" lon="5.65532">
        <ele>238</ele>
        <time>2018-06-10T18:08:12Z</time>
      </trkpt>
      <trkpt lat="45.70747" lon="5.65536">
        <ele>238</ele>
        <time>2018-06-10T18:08:12Z</time>
      </trkpt>
      <trkpt lat="45.70746" lon="5.65537">
        <ele>238</ele>
        <time>2018-06-10T18:08:12Z</time>
      </trkpt>
      <trkpt lat="45.70746" lon="5.65537">
        <ele>238</ele>
        <time>2018-06-10T18:08:12Z</time>
      </trkpt>
      <trkpt lat="45.70744" lon="5.65538">
        <ele>238</ele>
        <time>2018-06-10T18:08:28Z</time>
      </trkpt>
      <trkpt lat="45.70742" lon="5.6554">
        <ele>238</ele>
        <time>2018-06-10T18:08:28Z</time>
      </trkpt>
      <trkpt lat="45.70737" lon="5.65546">
        <ele>235</ele>
        <time>2018-06-10T18:08:28Z</time>
      </trkpt>
      <trkpt lat="45.70733" lon="5.6555">
        <ele>235</ele>
        <time>2018-06-10T18:08:28Z</time>
      </trkpt>
      <trkpt lat="45.70728" lon="5.65558">
        <ele>235</ele>
        <time>2018-06-10T18:08:44Z</time>
      </trkpt>
      <trkpt lat="45.70723" lon="5.65565">
        <ele>235</ele>
        <time>2018-06-10T18:08:44Z</time>
      </trkpt>
      <trkpt lat="45.70718" lon="5.65571">
        <ele>235</ele>
        <time>2018-06-10T18:08:44Z</time>
      </trkpt>
      <trkpt lat="45.70715" lon="5.65576">
        <ele>235</ele>
        <time>2018-06-10T18:08:44Z</time>
      </trkpt>
      <trkpt lat="45.70711" lon="5.65583">
        <ele>235</ele>
        <time>2018-06-10T18:09:00Z</time>
      </trkpt>
      <trkpt lat="45.70706" lon="5.6559">
        <ele>236</ele>
        <time>2018-06-10T18:09:00Z</time>
      </trkpt>
      <trkpt lat="45.70704" lon="5.65598">
        <ele>236</ele>
        <time>2018-06-10T18:09:00Z</time>
      </trkpt>
      <trkpt lat="45.70701" lon="5.65605">
        <ele>236</ele>
        <time>2018-06-10T18:09:00Z</time>
      </trkpt>
      <trkpt lat="45.70699" lon="5.65611">
        <ele>236</ele>
        <time>2018-06-10T18:09:16Z</time>
      </trkpt>
      <trkpt lat="45.70695" lon="5.65616">
        <ele>236</ele>
        <time>2018-06-10T18:09:16Z</time>
      </trkpt>
      <trkpt lat="45.70691" lon="5.65622">
        <ele>236</ele>
        <time>2018-06-10T18:09:16Z</time>
      </trkpt>
      <trkpt lat="45.70686" lon="5.65627">
        <ele>229</ele>
        <time>2018-06-10T18:09:16Z</time>
      </trkpt>
      <trkpt lat="45.70681" lon="5.65631">
        <ele>229</ele>
        <time>2018-06-10T18:09:32Z</time>
      </trkpt>
      <trkpt lat="45.70675" lon="5.65636">
        <ele>229</ele>
        <time>2018-06-10T18:09:32Z</time>
      </trkpt>
      <trkpt lat="45.7067" lon="5.65639">
        <ele>229</ele>
        <time>2018-06-10T18:09:32Z</time>
      </trkpt>
      <trkpt lat="45.70665" lon="5.65644">
        <ele>229</ele>
        <time>2018-06-10T18:09:32Z</time>
      </trkpt>
      <trkpt lat="45.70659" lon="5.65646">
        <ele>229</ele>
        <time>2018-06-10T18:09:48Z</time>
      </trkpt>
      <trkpt lat="45.70653" lon="5.65649">
        <ele>229</ele>
        <time>2018-06-10T18:09:48Z</time>
      </trkpt>
      <trkpt lat="45.70647" lon="5.65651">
        <ele>229</ele>
        <time>2018-06-10T18:09:48Z</time>
      </trkpt>
      <trkpt lat="45.70642" lon="5.65653">
        <ele>229</ele>
        <time>2018-06-10T18:09:48Z</time>
      </trkpt>
      <trkpt lat="45.70635" lon="5.65658">
        <ele>229</ele>
        <time>2018-06-10T18:10:04Z</time>
      </trkpt>
      <trkpt lat="45.70629" lon="5.65662">
        <ele>229</ele>
        <time>2018-06-10T18:10:04Z</time>
      </trkpt>
      <trkpt lat="45.70625" lon="5.65666">
        <ele>231</ele>
        <time>2018-06-10T18:10:04Z</time>
      </trkpt>
      <trkpt lat="45.7062" lon="5.65669">
        <ele>231</ele>
        <time>2018-06-10T18:10:04Z</time>
      </trkpt>
      <trkpt lat="45.70614" lon="5.65672">
        <ele>231</ele>
        <time>2018-06-10T18:10:20Z</time>
      </trkpt>
      <trkpt lat="45.70608" lon="5.65676">
        <ele>231</ele>
        <time>2018-06-10T18:10:20Z</time>
      </trkpt>
      <trkpt lat="45.70601" lon="5.65686">
        <ele>231</ele>
        <time>2018-06-10T18:10:20Z</time>
      </trkpt>
      <trkpt lat="45.70597" lon="5.65692">
        <ele>231</ele>
        <time>2018-06-10T18:10:20Z</time>
      </trkpt>
      <trkpt lat="45.70593" lon="5.65697">
        <ele>231</ele>
        <time>2018-06-10T18:10:36Z</time>
      </trkpt>
      <trkpt lat="45.70587" lon="5.65701">
        <ele>231</ele>
        <time>2018-06-10T18:10:36Z</time>
      </trkpt>
      <trkpt lat="45.70583" lon="5.65707">
        <ele>231</ele>
        <time>2018-06-10T18:10:36Z</time>
      </trkpt>
      <trkpt lat="45.70579" lon="5.65713">
        <ele>226</ele>
        <time>2018-06-10T18:10:36Z</time>
      </trkpt>
      <trkpt lat="45.70578" lon="5.6572">
        <ele>226</ele>
        <time>2018-06-10T18:10:52Z</time>
      </trkpt>
      <trkpt lat="45.70575" lon="5.65729">
        <ele>226</ele>
        <time>2018-06-10T18:10:52Z</time>
      </trkpt>
      <trkpt lat="45.70573" lon="5.65739">
        <ele>226</ele>
        <time>2018-06-10T18:10:52Z</time>
      </trkpt>
      <trkpt lat="45.7057" lon="5.65748">
        <ele>226</ele>
        <time>2018-06-10T18:10:52Z</time>
      </trkpt>
      <trkpt lat="45.70566" lon="5.65761">
        <ele>226</ele>
        <time>2018-06-10T18:11:08Z</time>
      </trkpt>
      <trkpt lat="45.70557" lon="5.65788">
        <ele>226</ele>
        <time>2018-06-10T18:11:08Z</time>
      </trkpt>
      <trkpt lat="45.70549" lon="5.65813">
        <ele>225</ele>
        <time>2018-06-10T18:11:08Z</time>
      </trkpt>
      <trkpt lat="45.7054" lon="5.65834">
        <ele>229</ele>
        <time>2018-06-10T18:11:08Z</time>
      </trkpt>
      <trkpt lat="45.7052" lon="5.65844">
        <ele>229</ele>
        <time>2018-06-10T18:11:24Z</time>
      </trkpt>
      <trkpt lat="45.70498" lon="5.65851">
        <ele>229</ele>
        <time>2018-06-10T18:11:24Z</time>
      </trkpt>
      <trkpt lat="45.70474" lon="5.65857">
        <ele>229</ele>
        <time>2018-06-10T18:11:24Z</time>
      </trkpt>
      <trkpt lat="45.7045" lon="5.65864">
        <ele>231</ele>
        <time>2018-06-10T18:11:24Z</time>
      </trkpt>
      <trkpt lat="45.70423" lon="5.65868">
        <ele>231</ele>
        <time>2018-06-10T18:11:40Z</time>
      </trkpt>
      <trkpt lat="45.70398" lon="5.65875">
        <ele>224</ele>
        <time>2018-06-10T18:11:40Z</time>
      </trkpt>
      <trkpt lat="45.70383" lon="5.65895">
        <ele>224</ele>
        <time>2018-06-10T18:11:40Z</time>
      </trkpt>
      <trkpt lat="45.70367" lon="5.65921">
        <ele>228</ele>
        <time>2018-06-10T18:11:40Z</time>
      </trkpt>
      <trkpt lat="45.70351" lon="5.65947">
        <ele>228</ele>
        <time>2018-06-10T18:11:56Z</time>
      </trkpt>
      <trkpt lat="45.70335" lon="5.65973">
        <ele>226</ele>
        <time>2018-06-10T18:11:56Z</time>
      </trkpt>
      <trkpt lat="45.70321" lon="5.65993">
        <ele>226</ele>
        <time>2018-06-10T18:11:56Z</time>
      </trkpt>
      <trkpt lat="45.70306" lon="5.66012">
        <ele>226</ele>
        <time>2018-06-10T18:11:56Z</time>
      </trkpt>
      <trkpt lat="45.70284" lon="5.66036">
        <ele>228</ele>
        <time>2018-06-10T18:12:12Z</time>
      </trkpt>
      <trkpt lat="45.70258" lon="5.66063">
        <ele>226</ele>
        <time>2018-06-10T18:12:12Z</time>
      </trkpt>
      <trkpt lat="45.70237" lon="5.66084">
        <ele>226</ele>
        <time>2018-06-10T18:12:12Z</time>
      </trkpt>
      <trkpt lat="45.7022" lon="5.661">
        <ele>226</ele>
        <time>2018-06-10T18:12:12Z</time>
      </trkpt>
      <trkpt lat="45.70214" lon="5.66107">
        <ele>226</ele>
        <time>2018-06-10T18:12:28Z</time>
      </trkpt>
      <trkpt lat="45.70208" lon="5.66113">
        <ele>226</ele>
        <time>2018-06-10T18:12:28Z</time>
      </trkpt>
      <trkpt lat="45.70195" lon="5.66126">
        <ele>226</ele>
        <time>2018-06-10T18:12:28Z</time>
      </trkpt>
      <trkpt lat="45.70177" lon="5.66144">
        <ele>226</ele>
        <time>2018-06-10T18:12:28Z</time>
      </trkpt>
      <trkpt lat="45.70158" lon="5.66164">
        <ele>226</ele>
        <time>2018-06-10T18:12:44Z</time>
      </trkpt>
      <trkpt lat="45.70134" lon="5.66188">
        <ele>226</ele>
        <time>2018-06-10T18:12:44Z</time>
      </trkpt>
      <trkpt lat="45.70105" lon="5.66217">
        <ele>225</ele>
        <time>2018-06-10T18:12:44Z</time>
      </trkpt>
      <trkpt lat="45.70081" lon="5.6624">
        <ele>225</ele>
        <time>2018-06-10T18:12:44Z</time>
      </trkpt>
      <trkpt lat="45.70061" lon="5.6626">
        <ele>225</ele>
        <time>2018-06-10T18:13:00Z</time>
      </trkpt>
      <trkpt lat="45.70044" lon="5.66281">
        <ele>225</ele>
        <time>2018-06-10T18:13:00Z</time>
      </trkpt>
      <trkpt lat="45.70026" lon="5.663">
        <ele>226</ele>
        <time>2018-06-10T18:13:00Z</time>
      </trkpt>
      <trkpt lat="45.70008" lon="5.6633">
        <ele>226</ele>
        <time>2018-06-10T18:13:00Z</time>
      </trkpt>
      <trkpt lat="45.69991" lon="5.66361">
        <ele>226</ele>
        <time>2018-06-10T18:13:16Z</time>
      </trkpt>
      <trkpt lat="45.69977" lon="5.66383">
        <ele>223</ele>
        <time>2018-06-10T18:13:16Z</time>
      </trkpt>
      <trkpt lat="45.6997" lon="5.664">
        <ele>223</ele>
        <time>2018-06-10T18:13:16Z</time>
      </trkpt>
      <trkpt lat="45.69973" lon="5.66411">
        <ele>223</ele>
        <time>2018-06-10T18:13:16Z</time>
      </trkpt>
      <trkpt lat="45.69976" lon="5.66421">
        <ele>223</ele>
        <time>2018-06-10T18:13:32Z</time>
      </trkpt>
      <trkpt lat="45.69984" lon="5.66441">
        <ele>223</ele>
        <time>2018-06-10T18:13:32Z</time>
      </trkpt>
      <trkpt lat="45.70003" lon="5.66482">
        <ele>224</ele>
        <time>2018-06-10T18:13:32Z</time>
      </trkpt>
      <trkpt lat="45.70024" lon="5.66528">
        <ele>224</ele>
        <time>2018-06-10T18:13:32Z</time>
      </trkpt>
      <trkpt lat="45.70044" lon="5.66573">
        <ele>229</ele>
        <time>2018-06-10T18:13:48Z</time>
      </trkpt>
      <trkpt lat="45.70064" lon="5.66613">
        <ele>229</ele>
        <time>2018-06-10T18:13:48Z</time>
      </trkpt>
      <trkpt lat="45.70079" lon="5.66649">
        <ele>229</ele>
        <time>2018-06-10T18:13:48Z</time>
      </trkpt>
      <trkpt lat="45.70092" lon="5.66682">
        <ele>229</ele>
        <time>2018-06-10T18:13:48Z</time>
      </trkpt>
      <trkpt lat="45.70101" lon="5.66702">
        <ele>229</ele>
        <time>2018-06-10T18:14:04Z</time>
      </trkpt>
      <trkpt lat="45.70104" lon="5.6671">
        <ele>230</ele>
        <time>2018-06-10T18:14:04Z</time>
      </trkpt>
      <trkpt lat="45.70099" lon="5.66716">
        <ele>230</ele>
        <time>2018-06-10T18:14:04Z</time>
      </trkpt>
      <trkpt lat="45.70093" lon="5.66722">
        <ele>230</ele>
        <time>2018-06-10T18:14:04Z</time>
      </trkpt>
      <trkpt lat="45.70087" lon="5.66728">
        <ele>230</ele>
        <time>2018-06-10T18:14:20Z</time>
      </trkpt>
      <trkpt lat="45.70082" lon="5.66734">
        <ele>230</ele>
        <time>2018-06-10T18:14:20Z</time>
      </trkpt>
      <trkpt lat="45.70077" lon="5.66739">
        <ele>230</ele>
        <time>2018-06-10T18:14:20Z</time>
      </trkpt>
      <trkpt lat="45.70072" lon="5.66744">
        <ele>230</ele>
        <time>2018-06-10T18:14:20Z</time>
      </trkpt>
      <trkpt lat="45.70067" lon="5.6675">
        <ele>230</ele>
        <time>2018-06-10T18:14:36Z</time>
      </trkpt>
      <trkpt lat="45.70062" lon="5.66757">
        <ele>230</ele>
        <time>2018-06-10T18:14:36Z</time>
      </trkpt>
      <trkpt lat="45.70057" lon="5.66763">
        <ele>230</ele>
        <time>2018-06-10T18:14:36Z</time>
      </trkpt>
      <trkpt lat="45.70052" lon="5.66769">
        <ele>230</ele>
        <time>2018-06-10T18:14:36Z</time>
      </trkpt>
      <trkpt lat="45.70047" lon="5.66776">
        <ele>230</ele>
        <time>2018-06-10T18:14:52Z</time>
      </trkpt>
      <trkpt lat="45.70043" lon="5.66781">
        <ele>230</ele>
        <time>2018-06-10T18:14:52Z</time>
      </trkpt>
      <trkpt lat="45.70038" lon="5.66786">
        <ele>228</ele>
        <time>2018-06-10T18:14:52Z</time>
      </trkpt>
      <trkpt lat="45.70033" lon="5.66793">
        <ele>229</ele>
        <time>2018-06-10T18:14:52Z</time>
      </trkpt>
      <trkpt lat="45.70029" lon="5.66801">
        <ele>229</ele>
        <time>2018-06-10T18:15:08Z</time>
      </trkpt>
      <trkpt lat="45.70023" lon="5.66808">
        <ele>229</ele>
        <time>2018-06-10T18:15:08Z</time>
      </trkpt>
      <trkpt lat="45.70017" lon="5.66814">
        <ele>229</ele>
        <time>2018-06-10T18:15:08Z</time>
      </trkpt>
      <trkpt lat="45.70012" lon="5.66822">
        <ele>229</ele>
        <time>2018-06-10T18:15:08Z</time>
      </trkpt>
      <trkpt lat="45.70007" lon="5.66827">
        <ele>229</ele>
        <time>2018-06-10T18:15:24Z</time>
      </trkpt>
      <trkpt lat="45.70003" lon="5.66834">
        <ele>229</ele>
        <time>2018-06-10T18:15:24Z</time>
      </trkpt>
      <trkpt lat="45.69998" lon="5.6684">
        <ele>229</ele>
        <time>2018-06-10T18:15:24Z</time>
      </trkpt>
      <trkpt lat="45.69994" lon="5.66845">
        <ele>229</ele>
        <time>2018-06-10T18:15:24Z</time>
      </trkpt>
      <trkpt lat="45.69989" lon="5.66851">
        <ele>229</ele>
        <time>2018-06-10T18:15:40Z</time>
      </trkpt>
      <trkpt lat="45.69985" lon="5.66857">
        <ele>229</ele>
        <time>2018-06-10T18:15:40Z</time>
      </trkpt>
      <trkpt lat="45.6998" lon="5.66861">
        <ele>229</ele>
        <time>2018-06-10T18:15:40Z</time>
      </trkpt>
      <trkpt lat="45.69975" lon="5.66865">
        <ele>229</ele>
        <time>2018-06-10T18:15:40Z</time>
      </trkpt>
      <trkpt lat="45.6997" lon="5.6687">
        <ele>229</ele>
        <time>2018-06-10T18:15:56Z</time>
      </trkpt>
      <trkpt lat="45.69965" lon="5.66875">
        <ele>226</ele>
        <time>2018-06-10T18:15:56Z</time>
      </trkpt>
      <trkpt lat="45.69961" lon="5.66881">
        <ele>226</ele>
        <time>2018-06-10T18:15:56Z</time>
      </trkpt>
      <trkpt lat="45.69956" lon="5.66887">
        <ele>227</ele>
        <time>2018-06-10T18:15:56Z</time>
      </trkpt>
      <trkpt lat="45.69952" lon="5.66892">
        <ele>227</ele>
        <time>2018-06-10T18:16:12Z</time>
      </trkpt>
      <trkpt lat="45.69945" lon="5.669">
        <ele>227</ele>
        <time>2018-06-10T18:16:12Z</time>
      </trkpt>
      <trkpt lat="45.6994" lon="5.66907">
        <ele>227</ele>
        <time>2018-06-10T18:16:12Z</time>
      </trkpt>
      <trkpt lat="45.69936" lon="5.66913">
        <ele>227</ele>
        <time>2018-06-10T18:16:12Z</time>
      </trkpt>
      <trkpt lat="45.69932" lon="5.6692">
        <ele>227</ele>
        <time>2018-06-10T18:16:28Z</time>
      </trkpt>
      <trkpt lat="45.69929" lon="5.66927">
        <ele>227</ele>
        <time>2018-06-10T18:16:28Z</time>
      </trkpt>
      <trkpt lat="45.69924" lon="5.66933">
        <ele>227</ele>
        <time>2018-06-10T18:16:28Z</time>
      </trkpt>
      <trkpt lat="45.69918" lon="5.6694">
        <ele>227</ele>
        <time>2018-06-10T18:16:28Z</time>
      </trkpt>
      <trkpt lat="45.69913" lon="5.66946">
        <ele>227</ele>
        <time>2018-06-10T18:16:44Z</time>
      </trkpt>
      <trkpt lat="45.69908" lon="5.66952">
        <ele>227</ele>
        <time>2018-06-10T18:16:44Z</time>
      </trkpt>
      <trkpt lat="45.69902" lon="5.66956">
        <ele>227</ele>
        <time>2018-06-10T18:16:44Z</time>
      </trkpt>
      <trkpt lat="45.69896" lon="5.6696">
        <ele>226</ele>
        <time>2018-06-10T18:16:44Z</time>
      </trkpt>
      <trkpt lat="45.6989" lon="5.66964">
        <ele>226</ele>
        <time>2018-06-10T18:17:00Z</time>
      </trkpt>
      <trkpt lat="45.69885" lon="5.66966">
        <ele>226</ele>
        <time>2018-06-10T18:17:00Z</time>
      </trkpt>
      <trkpt lat="45.69879" lon="5.66968">
        <ele>226</ele>
        <time>2018-06-10T18:17:00Z</time>
      </trkpt>
      <trkpt lat="45.69873" lon="5.6697">
        <ele>226</ele>
        <time>2018-06-10T18:17:00Z</time>
      </trkpt>
      <trkpt lat="45.69867" lon="5.66972">
        <ele>226</ele>
        <time>2018-06-10T18:17:16Z</time>
      </trkpt>
      <trkpt lat="45.69861" lon="5.66974">
        <ele>226</ele>
        <time>2018-06-10T18:17:16Z</time>
      </trkpt>
      <trkpt lat="45.69855" lon="5.66974">
        <ele>226</ele>
        <time>2018-06-10T18:17:16Z</time>
      </trkpt>
      <trkpt lat="45.69849" lon="5.66975">
        <ele>226</ele>
        <time>2018-06-10T18:17:16Z</time>
      </trkpt>
      <trkpt lat="45.69843" lon="5.66977">
        <ele>226</ele>
        <time>2018-06-10T18:17:32Z</time>
      </trkpt>
      <trkpt lat="45.69837" lon="5.66978">
        <ele>226</ele>
        <time>2018-06-10T18:17:32Z</time>
      </trkpt>
      <trkpt lat="45.69831" lon="5.66979">
        <ele>226</ele>
        <time>2018-06-10T18:17:32Z</time>
      </trkpt>
      <trkpt lat="45.69825" lon="5.66979">
        <ele>226</ele>
        <time>2018-06-10T18:17:32Z</time>
      </trkpt>
      <trkpt lat="45.69819" lon="5.66978">
        <ele>226</ele>
        <time>2018-06-10T18:17:48Z</time>
      </trkpt>
      <trkpt lat="45.69813" lon="5.66977">
        <ele>226</ele>
        <time>2018-06-10T18:17:48Z</time>
      </trkpt>
      <trkpt lat="45.69807" lon="5.66977">
        <ele>226</ele>
        <time>2018-06-10T18:17:48Z</time>
      </trkpt>
      <trkpt lat="45.69802" lon="5.66976">
        <ele>226</ele>
        <time>2018-06-10T18:17:48Z</time>
      </trkpt>
      <trkpt lat="45.69797" lon="5.66975">
        <ele>226</ele>
        <time>2018-06-10T18:18:04Z</time>
      </trkpt>
      <trkpt lat="45.69791" lon="5.66974">
        <ele>224</ele>
        <time>2018-06-10T18:18:04Z</time>
      </trkpt>
      <trkpt lat="45.69785" lon="5.66972">
        <ele>224</ele>
        <time>2018-06-10T18:18:04Z</time>
      </trkpt>
      <trkpt lat="45.69778" lon="5.66972">
        <ele>224</ele>
        <time>2018-06-10T18:18:04Z</time>
      </trkpt>
      <trkpt lat="45.69774" lon="5.66971">
        <ele>224</ele>
        <time>2018-06-10T18:18:20Z</time>
      </trkpt>
      <trkpt lat="45.69768" lon="5.66968">
        <ele>224</ele>
        <time>2018-06-10T18:18:20Z</time>
      </trkpt>
      <trkpt lat="45.69763" lon="5.66967">
        <ele>224</ele>
        <time>2018-06-10T18:18:20Z</time>
      </trkpt>
      <trkpt lat="45.69756" lon="5.66966">
        <ele>224</ele>
        <time>2018-06-10T18:18:20Z</time>
      </trkpt>
      <trkpt lat="45.69751" lon="5.66962">
        <ele>224</ele>
        <time>2018-06-10T18:18:36Z</time>
      </trkpt>
      <trkpt lat="45.69746" lon="5.6696">
        <ele>224</ele>
        <time>2018-06-10T18:18:36Z</time>
      </trkpt>
      <trkpt lat="45.69741" lon="5.66958">
        <ele>223</ele>
        <time>2018-06-10T18:18:36Z</time>
      </trkpt>
      <trkpt lat="45.69736" lon="5.66954">
        <ele>223</ele>
        <time>2018-06-10T18:18:36Z</time>
      </trkpt>
      <trkpt lat="45.6973" lon="5.66951">
        <ele>223</ele>
        <time>2018-06-10T18:18:52Z</time>
      </trkpt>
      <trkpt lat="45.69723" lon="5.66949">
        <ele>223</ele>
        <time>2018-06-10T18:18:52Z</time>
      </trkpt>
      <trkpt lat="45.69718" lon="5.66946">
        <ele>223</ele>
        <time>2018-06-10T18:18:52Z</time>
      </trkpt>
      <trkpt lat="45.69712" lon="5.66943">
        <ele>223</ele>
        <time>2018-06-10T18:18:52Z</time>
      </trkpt>
      <trkpt lat="45.69703" lon="5.66941">
        <ele>222</ele>
        <time>2018-06-10T18:19:08Z</time>
      </trkpt>
      <trkpt lat="45.69692" lon="5.66953">
        <ele>222</ele>
        <time>2018-06-10T18:19:08Z</time>
      </trkpt>
      <trkpt lat="45.69683" lon="5.66982">
        <ele>224</ele>
        <time>2018-06-10T18:19:08Z</time>
      </trkpt>
      <trkpt lat="45.69675" lon="5.67012">
        <ele>224</ele>
        <time>2018-06-10T18:19:08Z</time>
      </trkpt>
      <trkpt lat="45.69667" lon="5.67044">
        <ele>224</ele>
        <time>2018-06-10T18:19:24Z</time>
      </trkpt>
      <trkpt lat="45.6966" lon="5.67078">
        <ele>224</ele>
        <time>2018-06-10T18:19:24Z</time>
      </trkpt>
      <trkpt lat="45.69651" lon="5.67118">
        <ele>224</ele>
        <time>2018-06-10T18:19:24Z</time>
      </trkpt>
      <trkpt lat="45.69643" lon="5.6716">
        <ele>225</ele>
        <time>2018-06-10T18:19:24Z</time>
      </trkpt>
      <trkpt lat="45.69636" lon="5.67205">
        <ele>225</ele>
        <time>2018-06-10T18:19:40Z</time>
      </trkpt>
      <trkpt lat="45.69634" lon="5.67242">
        <ele>224</ele>
        <time>2018-06-10T18:19:40Z</time>
      </trkpt>
      <trkpt lat="45.69634" lon="5.67264">
        <ele>224</ele>
        <time>2018-06-10T18:19:40Z</time>
      </trkpt>
      <trkpt lat="45.69633" lon="5.67277">
        <ele>224</ele>
        <time>2018-06-10T18:19:40Z</time>
      </trkpt>
      <trkpt lat="45.69632" lon="5.67286">
        <ele>224</ele>
        <time>2018-06-10T18:19:56Z</time>
      </trkpt>
      <trkpt lat="45.69632" lon="5.67296">
        <ele>222</ele>
        <time>2018-06-10T18:19:56Z</time>
      </trkpt>
      <trkpt lat="45.69631" lon="5.67305">
        <ele>222</ele>
        <time>2018-06-10T18:19:56Z</time>
      </trkpt>
      <trkpt lat="45.6963" lon="5.67314">
        <ele>222</ele>
        <time>2018-06-10T18:19:56Z</time>
      </trkpt>
      <trkpt lat="45.6963" lon="5.67323">
        <ele>222</ele>
        <time>2018-06-10T18:20:12Z</time>
      </trkpt>
      <trkpt lat="45.6963" lon="5.67329">
        <ele>222</ele>
        <time>2018-06-10T18:20:12Z</time>
      </trkpt>
      <trkpt lat="45.6963" lon="5.67338">
        <ele>222</ele>
        <time>2018-06-10T18:20:12Z</time>
      </trkpt>
      <trkpt lat="45.69631" lon="5.67347">
        <ele>222</ele>
        <time>2018-06-10T18:20:12Z</time>
      </trkpt>
      <trkpt lat="45.69631" lon="5.67354">
        <ele>222</ele>
        <time>2018-06-10T18:20:28Z</time>
      </trkpt>
      <trkpt lat="45.69632" lon="5.67363">
        <ele>222</ele>
        <time>2018-06-10T18:20:28Z</time>
      </trkpt>
      <trkpt lat="45.69631" lon="5.67371">
        <ele>222</ele>
        <time>2018-06-10T18:20:28Z</time>
      </trkpt>
      <trkpt lat="45.6963" lon="5.67381">
        <ele>219</ele>
        <time>2018-06-10T18:20:28Z</time>
      </trkpt>
      <trkpt lat="45.6963" lon="5.6739">
        <ele>219</ele>
        <time>2018-06-10T18:20:44Z</time>
      </trkpt>
      <trkpt lat="45.69631" lon="5.674">
        <ele>219</ele>
        <time>2018-06-10T18:20:44Z</time>
      </trkpt>
      <trkpt lat="45.69631" lon="5.6741">
        <ele>219</ele>
        <time>2018-06-10T18:20:44Z</time>
      </trkpt>
      <trkpt lat="45.69631" lon="5.67418">
        <ele>219</ele>
        <time>2018-06-10T18:20:44Z</time>
      </trkpt>
      <trkpt lat="45.69631" lon="5.67428">
        <ele>219</ele>
        <time>2018-06-10T18:21:00Z</time>
      </trkpt>
      <trkpt lat="45.6963" lon="5.67437">
        <ele>219</ele>
        <time>2018-06-10T18:21:00Z</time>
      </trkpt>
      <trkpt lat="45.69631" lon="5.67445">
        <ele>219</ele>
        <time>2018-06-10T18:21:00Z</time>
      </trkpt>
      <trkpt lat="45.6963" lon="5.67454">
        <ele>219</ele>
        <time>2018-06-10T18:21:00Z</time>
      </trkpt>
      <trkpt lat="45.69631" lon="5.67462">
        <ele>220</ele>
        <time>2018-06-10T18:21:16Z</time>
      </trkpt>
      <trkpt lat="45.69631" lon="5.67471">
        <ele>220</ele>
        <time>2018-06-10T18:21:16Z</time>
      </trkpt>
      <trkpt lat="45.69631" lon="5.67481">
        <ele>220</ele>
        <time>2018-06-10T18:21:16Z</time>
      </trkpt>
      <trkpt lat="45.69632" lon="5.67489">
        <ele>220</ele>
        <time>2018-06-10T18:21:16Z</time>
      </trkpt>
      <trkpt lat="45.69631" lon="5.67497">
        <ele>220</ele>
        <time>2018-06-10T18:21:32Z</time>
      </trkpt>
      <trkpt lat="45.69633" lon="5.67508">
        <ele>220</ele>
        <time>2018-06-10T18:21:32Z</time>
      </trkpt>
      <trkpt lat="45.69633" lon="5.67517">
        <ele>220</ele>
        <time>2018-06-10T18:21:32Z</time>
      </trkpt>
      <trkpt lat="45.69634" lon="5.67526">
        <ele>220</ele>
        <time>2018-06-10T18:21:32Z</time>
      </trkpt>
      <trkpt lat="45.69635" lon="5.67535">
        <ele>220</ele>
        <time>2018-06-10T18:21:48Z</time>
      </trkpt>
      <trkpt lat="45.69636" lon="5.67545">
        <ele>222</ele>
        <time>2018-06-10T18:21:48Z</time>
      </trkpt>
      <trkpt lat="45.69637" lon="5.67553">
        <ele>222</ele>
        <time>2018-06-10T18:21:48Z</time>
      </trkpt>
      <trkpt lat="45.69639" lon="5.67561">
        <ele>222</ele>
        <time>2018-06-10T18:21:48Z</time>
      </trkpt>
      <trkpt lat="45.6964" lon="5.67567">
        <ele>222</ele>
        <time>2018-06-10T18:22:04Z</time>
      </trkpt>
      <trkpt lat="45.69639" lon="5.67574">
        <ele>222</ele>
        <time>2018-06-10T18:22:04Z</time>
      </trkpt>
      <trkpt lat="45.6964" lon="5.67584">
        <ele>222</ele>
        <time>2018-06-10T18:22:04Z</time>
      </trkpt>
      <trkpt lat="45.6964" lon="5.67592">
        <ele>222</ele>
        <time>2018-06-10T18:22:04Z</time>
      </trkpt>
      <trkpt lat="45.69642" lon="5.67599">
        <ele>222</ele>
        <time>2018-06-10T18:22:24Z</time>
      </trkpt>
      <trkpt lat="45.69643" lon="5.67604">
        <ele>222</ele>
        <time>2018-06-10T18:22:24Z</time>
      </trkpt>
      <trkpt lat="45.69643" lon="5.67605">
        <ele>222</ele>
        <time>2018-06-10T18:22:24Z</time>
      </trkpt>
      <trkpt lat="45.69643" lon="5.67608">
        <ele>222</ele>
        <time>2018-06-10T18:22:24Z</time>
      </trkpt>
      <trkpt lat="45.69644" lon="5.67614">
        <ele>222</ele>
        <time>2018-06-10T18:22:24Z</time>
      </trkpt>
      <trkpt lat="45.69648" lon="5.67622">
        <ele>222</ele>
        <time>2018-06-10T18:22:40Z</time>
      </trkpt>
      <trkpt lat="45.69653" lon="5.67629">
        <ele>222</ele>
        <time>2018-06-10T18:22:40Z</time>
      </trkpt>
      <trkpt lat="45.69658" lon="5.67636">
        <ele>222</ele>
        <time>2018-06-10T18:22:40Z</time>
      </trkpt>
      <trkpt lat="45.69663" lon="5.67647">
        <ele>222</ele>
        <time>2018-06-10T18:22:40Z</time>
      </trkpt>
      <trkpt lat="45.69664" lon="5.67655">
        <ele>222</ele>
        <time>2018-06-10T18:22:56Z</time>
      </trkpt>
      <trkpt lat="45.69666" lon="5.67664">
        <ele>222</ele>
        <time>2018-06-10T18:22:56Z</time>
      </trkpt>
      <trkpt lat="45.69668" lon="5.67674">
        <ele>222</ele>
        <time>2018-06-10T18:22:56Z</time>
      </trkpt>
      <trkpt lat="45.69668" lon="5.67682">
        <ele>222</ele>
        <time>2018-06-10T18:22:56Z</time>
      </trkpt>
      <trkpt lat="45.69669" lon="5.67691">
        <ele>222</ele>
        <time>2018-06-10T18:23:12Z</time>
      </trkpt>
      <trkpt lat="45.6967" lon="5.677">
        <ele>222</ele>
        <time>2018-06-10T18:23:12Z</time>
      </trkpt>
      <trkpt lat="45.69669" lon="5.67708">
        <ele>222</ele>
        <time>2018-06-10T18:23:12Z</time>
      </trkpt>
      <trkpt lat="45.69668" lon="5.67716">
        <ele>222</ele>
        <time>2018-06-10T18:23:12Z</time>
      </trkpt>
      <trkpt lat="45.69668" lon="5.67719">
        <ele>222</ele>
        <time>2018-06-10T18:23:28Z</time>
      </trkpt>
      <trkpt lat="45.69669" lon="5.67721">
        <ele>222</ele>
        <time>2018-06-10T18:23:28Z</time>
      </trkpt>
      <trkpt lat="45.6967" lon="5.67731">
        <ele>222</ele>
        <time>2018-06-10T18:23:28Z</time>
      </trkpt>
      <trkpt lat="45.69672" lon="5.67739">
        <ele>222</ele>
        <time>2018-06-10T18:23:28Z</time>
      </trkpt>
      <trkpt lat="45.69675" lon="5.67751">
        <ele>222</ele>
        <time>2018-06-10T18:23:44Z</time>
      </trkpt>
      <trkpt lat="45.69676" lon="5.6776">
        <ele>222</ele>
        <time>2018-06-10T18:23:44Z</time>
      </trkpt>
      <trkpt lat="45.69677" lon="5.67769">
        <ele>222</ele>
        <time>2018-06-10T18:23:44Z</time>
      </trkpt>
      <trkpt lat="45.69676" lon="5.67778">
        <ele>222</ele>
        <time>2018-06-10T18:23:44Z</time>
      </trkpt>
      <trkpt lat="45.69678" lon="5.67788">
        <ele>222</ele>
        <time>2018-06-10T18:24:00Z</time>
      </trkpt>
      <trkpt lat="45.69679" lon="5.67798">
        <ele>223</ele>
        <time>2018-06-10T18:24:00Z</time>
      </trkpt>
      <trkpt lat="45.69679" lon="5.67805">
        <ele>223</ele>
        <time>2018-06-10T18:24:00Z</time>
      </trkpt>
      <trkpt lat="45.6968" lon="5.67813">
        <ele>223</ele>
        <time>2018-06-10T18:24:00Z</time>
      </trkpt>
      <trkpt lat="45.6968" lon="5.6782">
        <ele>223</ele>
        <time>2018-06-10T18:24:16Z</time>
      </trkpt>
      <trkpt lat="45.69682" lon="5.67828">
        <ele>223</ele>
        <time>2018-06-10T18:24:16Z</time>
      </trkpt>
      <trkpt lat="45.69684" lon="5.67836">
        <ele>223</ele>
        <time>2018-06-10T18:24:16Z</time>
      </trkpt>
      <trkpt lat="45.69683" lon="5.67843">
        <ele>223</ele>
        <time>2018-06-10T18:24:16Z</time>
      </trkpt>
      <trkpt lat="45.6968" lon="5.67846">
        <ele>223</ele>
        <time>2018-06-10T18:24:32Z</time>
      </trkpt>
      <trkpt lat="45.69676" lon="5.67845">
        <ele>223</ele>
        <time>2018-06-10T18:24:32Z</time>
      </trkpt>
      <trkpt lat="45.6967" lon="5.67845">
        <ele>223</ele>
        <time>2018-06-10T18:24:32Z</time>
      </trkpt>
      <trkpt lat="45.69666" lon="5.67845">
        <ele>223</ele>
        <time>2018-06-10T18:24:32Z</time>
      </trkpt>
      <trkpt lat="45.6966" lon="5.67847">
        <ele>223</ele>
        <time>2018-06-10T18:24:48Z</time>
      </trkpt>
      <trkpt lat="45.6965" lon="5.67854">
        <ele>223</ele>
        <time>2018-06-10T18:24:48Z</time>
      </trkpt>
      <trkpt lat="45.69644" lon="5.67855">
        <ele>223</ele>
        <time>2018-06-10T18:24:48Z</time>
      </trkpt>
      <trkpt lat="45.69635" lon="5.67856">
        <ele>223</ele>
        <time>2018-06-10T18:24:48Z</time>
      </trkpt>
      <trkpt lat="45.69627" lon="5.67857">
        <ele>223</ele>
        <time>2018-06-10T18:25:04Z</time>
      </trkpt>
      <trkpt lat="45.69621" lon="5.67858">
        <ele>220</ele>
        <time>2018-06-10T18:25:04Z</time>
      </trkpt>
      <trkpt lat="45.69615" lon="5.6786">
        <ele>220</ele>
        <time>2018-06-10T18:25:04Z</time>
      </trkpt>
      <trkpt lat="45.69607" lon="5.67863">
        <ele>220</ele>
        <time>2018-06-10T18:25:04Z</time>
      </trkpt>
      <trkpt lat="45.69588" lon="5.67863">
        <ele>220</ele>
        <time>2018-06-10T18:25:20Z</time>
      </trkpt>
      <trkpt lat="45.69553" lon="5.67863">
        <ele>220</ele>
        <time>2018-06-10T18:25:20Z</time>
      </trkpt>
      <trkpt lat="45.69511" lon="5.67864">
        <ele>220</ele>
        <time>2018-06-10T18:25:20Z</time>
      </trkpt>
      <trkpt lat="45.69478" lon="5.67865">
        <ele>220</ele>
        <time>2018-06-10T18:25:20Z</time>
      </trkpt>
      <trkpt lat="45.69447" lon="5.67864">
        <ele>221</ele>
        <time>2018-06-10T18:25:36Z</time>
      </trkpt>
      <trkpt lat="45.69411" lon="5.67865">
        <ele>221</ele>
        <time>2018-06-10T18:25:36Z</time>
      </trkpt>
      <trkpt lat="45.69377" lon="5.67867">
        <ele>221</ele>
        <time>2018-06-10T18:25:36Z</time>
      </trkpt>
      <trkpt lat="45.69346" lon="5.67866">
        <ele>222</ele>
        <time>2018-06-10T18:25:36Z</time>
      </trkpt>
      <trkpt lat="45.69319" lon="5.67863">
        <ele>222</ele>
        <time>2018-06-10T18:25:52Z</time>
      </trkpt>
      <trkpt lat="45.69295" lon="5.67859">
        <ele>222</ele>
        <time>2018-06-10T18:25:52Z</time>
      </trkpt>
      <trkpt lat="45.69277" lon="5.67847">
        <ele>223</ele>
        <time>2018-06-10T18:25:52Z</time>
      </trkpt>
      <trkpt lat="45.69272" lon="5.67835">
        <ele>223</ele>
        <time>2018-06-10T18:25:52Z</time>
      </trkpt>
      <trkpt lat="45.69269" lon="5.67819">
        <ele>223</ele>
        <time>2018-06-10T18:26:08Z</time>
      </trkpt>
      <trkpt lat="45.69262" lon="5.67798">
        <ele>223</ele>
        <time>2018-06-10T18:26:08Z</time>
      </trkpt>
      <trkpt lat="45.6926" lon="5.67791">
        <ele>224</ele>
        <time>2018-06-10T18:26:08Z</time>
      </trkpt>
      <trkpt lat="45.69257" lon="5.67784">
        <ele>224</ele>
        <time>2018-06-10T18:26:08Z</time>
      </trkpt>
      <trkpt lat="45.69251" lon="5.67779">
        <ele>224</ele>
        <time>2018-06-10T18:26:24Z</time>
      </trkpt>
      <trkpt lat="45.69245" lon="5.67774">
        <ele>224</ele>
        <time>2018-06-10T18:26:24Z</time>
      </trkpt>
      <trkpt lat="45.69232" lon="5.67766">
        <ele>224</ele>
        <time>2018-06-10T18:26:24Z</time>
      </trkpt>
      <trkpt lat="45.69216" lon="5.67754">
        <ele>224</ele>
        <time>2018-06-10T18:26:24Z</time>
      </trkpt>
      <trkpt lat="45.69207" lon="5.67751">
        <ele>229</ele>
        <time>2018-06-10T18:26:40Z</time>
      </trkpt>
      <trkpt lat="45.69202" lon="5.67749">
        <ele>229</ele>
        <time>2018-06-10T18:26:40Z</time>
      </trkpt>
      <trkpt lat="45.69196" lon="5.67748">
        <ele>229</ele>
        <time>2018-06-10T18:26:40Z</time>
      </trkpt>
      <trkpt lat="45.69189" lon="5.67748">
        <ele>229</ele>
        <time>2018-06-10T18:26:40Z</time>
      </trkpt>
      <trkpt lat="45.69182" lon="5.67752">
        <ele>229</ele>
        <time>2018-06-10T18:26:56Z</time>
      </trkpt>
      <trkpt lat="45.69176" lon="5.67756">
        <ele>229</ele>
        <time>2018-06-10T18:26:56Z</time>
      </trkpt>
      <trkpt lat="45.6917" lon="5.67759">
        <ele>229</ele>
        <time>2018-06-10T18:26:56Z</time>
      </trkpt>
      <trkpt lat="45.69166" lon="5.67762">
        <ele>229</ele>
        <time>2018-06-10T18:26:56Z</time>
      </trkpt>
      <trkpt lat="45.6916" lon="5.67765">
        <ele>229</ele>
        <time>2018-06-10T18:27:12Z</time>
      </trkpt>
      <trkpt lat="45.69155" lon="5.67768">
        <ele>229</ele>
        <time>2018-06-10T18:27:12Z</time>
      </trkpt>
      <trkpt lat="45.69149" lon="5.6777">
        <ele>229</ele>
        <time>2018-06-10T18:27:12Z</time>
      </trkpt>
      <trkpt lat="45.69144" lon="5.67772">
        <ele>229</ele>
        <time>2018-06-10T18:27:12Z</time>
      </trkpt>
      <trkpt lat="45.69139" lon="5.67772">
        <ele>229</ele>
        <time>2018-06-10T18:27:28Z</time>
      </trkpt>
      <trkpt lat="45.69133" lon="5.67777">
        <ele>229</ele>
        <time>2018-06-10T18:27:28Z</time>
      </trkpt>
      <trkpt lat="45.69127" lon="5.6778">
        <ele>229</ele>
        <time>2018-06-10T18:27:28Z</time>
      </trkpt>
      <trkpt lat="45.69122" lon="5.67783">
        <ele>231</ele>
        <time>2018-06-10T18:27:28Z</time>
      </trkpt>
      <trkpt lat="45.69119" lon="5.67784">
        <ele>231</ele>
        <time>2018-06-10T18:27:44Z</time>
      </trkpt>
      <trkpt lat="45.69115" lon="5.67784">
        <ele>231</ele>
        <time>2018-06-10T18:27:44Z</time>
      </trkpt>
      <trkpt lat="45.6911" lon="5.67788">
        <ele>231</ele>
        <time>2018-06-10T18:27:44Z</time>
      </trkpt>
      <trkpt lat="45.69103" lon="5.67792">
        <ele>231</ele>
        <time>2018-06-10T18:27:44Z</time>
      </trkpt>
      <trkpt lat="45.69097" lon="5.67795">
        <ele>231</ele>
        <time>2018-06-10T18:28:00Z</time>
      </trkpt>
      <trkpt lat="45.6909" lon="5.67798">
        <ele>231</ele>
        <time>2018-06-10T18:28:00Z</time>
      </trkpt>
      <trkpt lat="45.69085" lon="5.67801">
        <ele>231</ele>
        <time>2018-06-10T18:28:00Z</time>
      </trkpt>
      <trkpt lat="45.6908" lon="5.67805">
        <ele>231</ele>
        <time>2018-06-10T18:28:00Z</time>
      </trkpt>
      <trkpt lat="45.69075" lon="5.67806">
        <ele>231</ele>
        <time>2018-06-10T18:28:16Z</time>
      </trkpt>
      <trkpt lat="45.6907" lon="5.67804">
        <ele>231</ele>
        <time>2018-06-10T18:28:16Z</time>
      </trkpt>
      <trkpt lat="45.69064" lon="5.67801">
        <ele>231</ele>
        <time>2018-06-10T18:28:16Z</time>
      </trkpt>
      <trkpt lat="45.69059" lon="5.67797">
        <ele>231</ele>
        <time>2018-06-10T18:28:16Z</time>
      </trkpt>
      <trkpt lat="45.69053" lon="5.67793">
        <ele>231</ele>
        <time>2018-06-10T18:28:32Z</time>
      </trkpt>
      <trkpt lat="45.69049" lon="5.6779">
        <ele>231</ele>
        <time>2018-06-10T18:28:32Z</time>
      </trkpt>
      <trkpt lat="45.69045" lon="5.67787">
        <ele>231</ele>
        <time>2018-06-10T18:28:32Z</time>
      </trkpt>
      <trkpt lat="45.69039" lon="5.67783">
        <ele>234</ele>
        <time>2018-06-10T18:28:32Z</time>
      </trkpt>
      <trkpt lat="45.69033" lon="5.6778">
        <ele>234</ele>
        <time>2018-06-10T18:28:48Z</time>
      </trkpt>
      <trkpt lat="45.69028" lon="5.67775">
        <ele>234</ele>
        <time>2018-06-10T18:28:48Z</time>
      </trkpt>
      <trkpt lat="45.69024" lon="5.6777">
        <ele>234</ele>
        <time>2018-06-10T18:28:48Z</time>
      </trkpt>
      <trkpt lat="45.69019" lon="5.67766">
        <ele>234</ele>
        <time>2018-06-10T18:28:48Z</time>
      </trkpt>
      <trkpt lat="45.69015" lon="5.67763">
        <ele>234</ele>
        <time>2018-06-10T18:29:04Z</time>
      </trkpt>
      <trkpt lat="45.6901" lon="5.67759">
        <ele>234</ele>
        <time>2018-06-10T18:29:04Z</time>
      </trkpt>
      <trkpt lat="45.69006" lon="5.67755">
        <ele>234</ele>
        <time>2018-06-10T18:29:04Z</time>
      </trkpt>
      <trkpt lat="45.69001" lon="5.67751">
        <ele>234</ele>
        <time>2018-06-10T18:29:04Z</time>
      </trkpt>
      <trkpt lat="45.68995" lon="5.67747">
        <ele>234</ele>
        <time>2018-06-10T18:29:20Z</time>
      </trkpt>
      <trkpt lat="45.6899" lon="5.67743">
        <ele>234</ele>
        <time>2018-06-10T18:29:20Z</time>
      </trkpt>
      <trkpt lat="45.68985" lon="5.67741">
        <ele>234</ele>
        <time>2018-06-10T18:29:20Z</time>
      </trkpt>
      <trkpt lat="45.68981" lon="5.67742">
        <ele>234</ele>
        <time>2018-06-10T18:29:20Z</time>
      </trkpt>
      <trkpt lat="45.68976" lon="5.67744">
        <ele>234</ele>
        <time>2018-06-10T18:29:36Z</time>
      </trkpt>
      <trkpt lat="45.6897" lon="5.67749">
        <ele>234</ele>
        <time>2018-06-10T18:29:36Z</time>
      </trkpt>
      <trkpt lat="45.68965" lon="5.67755">
        <ele>234</ele>
        <time>2018-06-10T18:29:36Z</time>
      </trkpt>
      <trkpt lat="45.6896" lon="5.67759">
        <ele>234</ele>
        <time>2018-06-10T18:29:36Z</time>
      </trkpt>
      <trkpt lat="45.68954" lon="5.67765">
        <ele>237</ele>
        <time>2018-06-10T18:29:52Z</time>
      </trkpt>
      <trkpt lat="45.6895" lon="5.67768">
        <ele>237</ele>
        <time>2018-06-10T18:29:52Z</time>
      </trkpt>
      <trkpt lat="45.68946" lon="5.67771">
        <ele>237</ele>
        <time>2018-06-10T18:29:52Z</time>
      </trkpt>
      <trkpt lat="45.68942" lon="5.67775">
        <ele>237</ele>
        <time>2018-06-10T18:29:52Z</time>
      </trkpt>
      <trkpt lat="45.68937" lon="5.67778">
        <ele>237</ele>
        <time>2018-06-10T18:30:08Z</time>
      </trkpt>
      <trkpt lat="45.68932" lon="5.67779">
        <ele>237</ele>
        <time>2018-06-10T18:30:08Z</time>
      </trkpt>
      <trkpt lat="45.68928" lon="5.67783">
        <ele>237</ele>
        <time>2018-06-10T18:30:08Z</time>
      </trkpt>
      <trkpt lat="45.68922" lon="5.67791">
        <ele>237</ele>
        <time>2018-06-10T18:30:08Z</time>
      </trkpt>
      <trkpt lat="45.68919" lon="5.678">
        <ele>235</ele>
        <time>2018-06-10T18:30:24Z</time>
      </trkpt>
      <trkpt lat="45.68914" lon="5.67804">
        <ele>235</ele>
        <time>2018-06-10T18:30:24Z</time>
      </trkpt>
      <trkpt lat="45.6891" lon="5.67807">
        <ele>235</ele>
        <time>2018-06-10T18:30:24Z</time>
      </trkpt>
      <trkpt lat="45.68904" lon="5.67811">
        <ele>235</ele>
        <time>2018-06-10T18:30:24Z</time>
      </trkpt>
      <trkpt lat="45.68899" lon="5.67816">
        <ele>235</ele>
        <time>2018-06-10T18:30:40Z</time>
      </trkpt>
      <trkpt lat="45.68895" lon="5.67821">
        <ele>235</ele>
        <time>2018-06-10T18:30:40Z</time>
      </trkpt>
      <trkpt lat="45.68891" lon="5.67826">
        <ele>235</ele>
        <time>2018-06-10T18:30:40Z</time>
      </trkpt>
      <trkpt lat="45.68887" lon="5.67829">
        <ele>235</ele>
        <time>2018-06-10T18:30:40Z</time>
      </trkpt>
      <trkpt lat="45.68882" lon="5.67834">
        <ele>235</ele>
        <time>2018-06-10T18:30:56Z</time>
      </trkpt>
      <trkpt lat="45.68876" lon="5.6784">
        <ele>235</ele>
        <time>2018-06-10T18:30:56Z</time>
      </trkpt>
      <trkpt lat="45.68871" lon="5.67844">
        <ele>236</ele>
        <time>2018-06-10T18:30:56Z</time>
      </trkpt>
      <trkpt lat="45.68866" lon="5.67848">
        <ele>236</ele>
        <time>2018-06-10T18:30:56Z</time>
      </trkpt>
      <trkpt lat="45.68862" lon="5.67851">
        <ele>236</ele>
        <time>2018-06-10T18:31:12Z</time>
      </trkpt>
      <trkpt lat="45.68857" lon="5.67854">
        <ele>236</ele>
        <time>2018-06-10T18:31:12Z</time>
      </trkpt>
      <trkpt lat="45.68851" lon="5.6786">
        <ele>236</ele>
        <time>2018-06-10T18:31:12Z</time>
      </trkpt>
      <trkpt lat="45.68848" lon="5.67865">
        <ele>236</ele>
        <time>2018-06-10T18:31:12Z</time>
      </trkpt>
      <trkpt lat="45.68844" lon="5.67868">
        <ele>236</ele>
        <time>2018-06-10T18:31:28Z</time>
      </trkpt>
      <trkpt lat="45.68839" lon="5.67871">
        <ele>236</ele>
        <time>2018-06-10T18:31:28Z</time>
      </trkpt>
      <trkpt lat="45.68835" lon="5.67875">
        <ele>237</ele>
        <time>2018-06-10T18:31:28Z</time>
      </trkpt>
      <trkpt lat="45.6883" lon="5.67879">
        <ele>237</ele>
        <time>2018-06-10T18:31:28Z</time>
      </trkpt>
      <trkpt lat="45.68825" lon="5.67883">
        <ele>237</ele>
        <time>2018-06-10T18:31:44Z</time>
      </trkpt>
      <trkpt lat="45.68819" lon="5.67889">
        <ele>237</ele>
        <time>2018-06-10T18:31:44Z</time>
      </trkpt>
      <trkpt lat="45.68812" lon="5.67895">
        <ele>237</ele>
        <time>2018-06-10T18:31:44Z</time>
      </trkpt>
      <trkpt lat="45.68808" lon="5.679">
        <ele>237</ele>
        <time>2018-06-10T18:31:44Z</time>
      </trkpt>
      <trkpt lat="45.68804" lon="5.67904">
        <ele>237</ele>
        <time>2018-06-10T18:32:00Z</time>
      </trkpt>
      <trkpt lat="45.68798" lon="5.67907">
        <ele>237</ele>
        <time>2018-06-10T18:32:00Z</time>
      </trkpt>
      <trkpt lat="45.68793" lon="5.67913">
        <ele>237</ele>
        <time>2018-06-10T18:32:00Z</time>
      </trkpt>
      <trkpt lat="45.68788" lon="5.67917">
        <ele>235</ele>
        <time>2018-06-10T18:32:00Z</time>
      </trkpt>
      <trkpt lat="45.68783" lon="5.67922">
        <ele>235</ele>
        <time>2018-06-10T18:32:16Z</time>
      </trkpt>
      <trkpt lat="45.6878" lon="5.67927">
        <ele>235</ele>
        <time>2018-06-10T18:32:16Z</time>
      </trkpt>
      <trkpt lat="45.68776" lon="5.67931">
        <ele>235</ele>
        <time>2018-06-10T18:32:16Z</time>
      </trkpt>
      <trkpt lat="45.68771" lon="5.67936">
        <ele>235</ele>
        <time>2018-06-10T18:32:16Z</time>
      </trkpt>
      <trkpt lat="45.68766" lon="5.67943">
        <ele>235</ele>
        <time>2018-06-10T18:32:32Z</time>
      </trkpt>
      <trkpt lat="45.68762" lon="5.67948">
        <ele>235</ele>
        <time>2018-06-10T18:32:32Z</time>
      </trkpt>
      <trkpt lat="45.68757" lon="5.67954">
        <ele>235</ele>
        <time>2018-06-10T18:32:32Z</time>
      </trkpt>
      <trkpt lat="45.68752" lon="5.67959">
        <ele>234</ele>
        <time>2018-06-10T18:32:32Z</time>
      </trkpt>
      <trkpt lat="45.68747" lon="5.67962">
        <ele>234</ele>
        <time>2018-06-10T18:32:48Z</time>
      </trkpt>
      <trkpt lat="45.68741" lon="5.67968">
        <ele>234</ele>
        <time>2018-06-10T18:32:48Z</time>
      </trkpt>
      <trkpt lat="45.68735" lon="5.67973">
        <ele>234</ele>
        <time>2018-06-10T18:32:48Z</time>
      </trkpt>
      <trkpt lat="45.6873" lon="5.67981">
        <ele>234</ele>
        <time>2018-06-10T18:32:48Z</time>
      </trkpt>
      <trkpt lat="45.68725" lon="5.67985">
        <ele>234</ele>
        <time>2018-06-10T18:33:04Z</time>
      </trkpt>
      <trkpt lat="45.6872" lon="5.67988">
        <ele>234</ele>
        <time>2018-06-10T18:33:04Z</time>
      </trkpt>
      <trkpt lat="45.68716" lon="5.67992">
        <ele>234</ele>
        <time>2018-06-10T18:33:04Z</time>
      </trkpt>
      <trkpt lat="45.68711" lon="5.67996">
        <ele>234</ele>
        <time>2018-06-10T18:33:04Z</time>
      </trkpt>
      <trkpt lat="45.68706" lon="5.68">
        <ele>234</ele>
        <time>2018-06-10T18:33:20Z</time>
      </trkpt>
      <trkpt lat="45.68702" lon="5.68005">
        <ele>234</ele>
        <time>2018-06-10T18:33:20Z</time>
      </trkpt>
      <trkpt lat="45.68696" lon="5.68012">
        <ele>234</ele>
        <time>2018-06-10T18:33:20Z</time>
      </trkpt>
      <trkpt lat="45.68691" lon="5.68017">
        <ele>234</ele>
        <time>2018-06-10T18:33:20Z</time>
      </trkpt>
      <trkpt lat="45.68686" lon="5.68023">
        <ele>234</ele>
        <time>2018-06-10T18:33:36Z</time>
      </trkpt>
      <trkpt lat="45.68681" lon="5.6803">
        <ele>234</ele>
        <time>2018-06-10T18:33:36Z</time>
      </trkpt>
      <trkpt lat="45.68676" lon="5.68035">
        <ele>234</ele>
        <time>2018-06-10T18:33:36Z</time>
      </trkpt>
      <trkpt lat="45.6867" lon="5.68038">
        <ele>234</ele>
        <time>2018-06-10T18:33:36Z</time>
      </trkpt>
      <trkpt lat="45.68665" lon="5.68043">
        <ele>234</ele>
        <time>2018-06-10T18:33:52Z</time>
      </trkpt>
      <trkpt lat="45.6866" lon="5.68047">
        <ele>234</ele>
        <time>2018-06-10T18:33:52Z</time>
      </trkpt>
      <trkpt lat="45.68656" lon="5.68049">
        <ele>234</ele>
        <time>2018-06-10T18:33:52Z</time>
      </trkpt>
      <trkpt lat="45.68652" lon="5.68054">
        <ele>234</ele>
        <time>2018-06-10T18:33:52Z</time>
      </trkpt>
      <trkpt lat="45.68649" lon="5.68059">
        <ele>234</ele>
        <time>2018-06-10T18:34:08Z</time>
      </trkpt>
      <trkpt lat="45.68644" lon="5.68062">
        <ele>234</ele>
        <time>2018-06-10T18:34:08Z</time>
      </trkpt>
      <trkpt lat="45.68639" lon="5.68066">
        <ele>234</ele>
        <time>2018-06-10T18:34:08Z</time>
      </trkpt>
      <trkpt lat="45.68635" lon="5.6807">
        <ele>234</ele>
        <time>2018-06-10T18:34:08Z</time>
      </trkpt>
      <trkpt lat="45.6863" lon="5.68075">
        <ele>234</ele>
        <time>2018-06-10T18:34:24Z</time>
      </trkpt>
      <trkpt lat="45.68626" lon="5.68078">
        <ele>234</ele>
        <time>2018-06-10T18:34:24Z</time>
      </trkpt>
      <trkpt lat="45.68621" lon="5.68081">
        <ele>233</ele>
        <time>2018-06-10T18:34:24Z</time>
      </trkpt>
      <trkpt lat="45.68617" lon="5.68088">
        <ele>233</ele>
        <time>2018-06-10T18:34:24Z</time>
      </trkpt>
      <trkpt lat="45.68613" lon="5.68095">
        <ele>233</ele>
        <time>2018-06-10T18:34:40Z</time>
      </trkpt>
      <trkpt lat="45.68609" lon="5.68101">
        <ele>233</ele>
        <time>2018-06-10T18:34:40Z</time>
      </trkpt>
      <trkpt lat="45.68604" lon="5.68106">
        <ele>233</ele>
        <time>2018-06-10T18:34:40Z</time>
      </trkpt>
      <trkpt lat="45.686" lon="5.68111">
        <ele>233</ele>
        <time>2018-06-10T18:34:40Z</time>
      </trkpt>
      <trkpt lat="45.68596" lon="5.68115">
        <ele>233</ele>
        <time>2018-06-10T18:34:56Z</time>
      </trkpt>
      <trkpt lat="45.68591" lon="5.68121">
        <ele>233</ele>
        <time>2018-06-10T18:34:56Z</time>
      </trkpt>
      <trkpt lat="45.68587" lon="5.68128">
        <ele>233</ele>
        <time>2018-06-10T18:34:56Z</time>
      </trkpt>
      <trkpt lat="45.68582" lon="5.68133">
        <ele>233</ele>
        <time>2018-06-10T18:34:56Z</time>
      </trkpt>
      <trkpt lat="45.68577" lon="5.68138">
        <ele>233</ele>
        <time>2018-06-10T18:35:12Z</time>
      </trkpt>
      <trkpt lat="45.68573" lon="5.68144">
        <ele>233</ele>
        <time>2018-06-10T18:35:12Z</time>
      </trkpt>
      <trkpt lat="45.68567" lon="5.6815">
        <ele>233</ele>
        <time>2018-06-10T18:35:12Z</time>
      </trkpt>
      <trkpt lat="45.68562" lon="5.68156">
        <ele>233</ele>
        <time>2018-06-10T18:35:12Z</time>
      </trkpt>
      <trkpt lat="45.68558" lon="5.68162">
        <ele>233</ele>
        <time>2018-06-10T18:35:28Z</time>
      </trkpt>
      <trkpt lat="45.68553" lon="5.68168">
        <ele>233</ele>
        <time>2018-06-10T18:35:28Z</time>
      </trkpt>
      <trkpt lat="45.68548" lon="5.68173">
        <ele>233</ele>
        <time>2018-06-10T18:35:28Z</time>
      </trkpt>
      <trkpt lat="45.68541" lon="5.68181">
        <ele>233</ele>
        <time>2018-06-10T18:35:28Z</time>
      </trkpt>
      <trkpt lat="45.68536" lon="5.68189">
        <ele>233</ele>
        <time>2018-06-10T18:35:44Z</time>
      </trkpt>
      <trkpt lat="45.68532" lon="5.68196">
        <ele>233</ele>
        <time>2018-06-10T18:35:44Z</time>
      </trkpt>
      <trkpt lat="45.6853" lon="5.68199">
        <ele>233</ele>
        <time>2018-06-10T18:35:44Z</time>
      </trkpt>
      <trkpt lat="45.68526" lon="5.68203">
        <ele>233</ele>
        <time>2018-06-10T18:35:44Z</time>
      </trkpt>
      <trkpt lat="45.68521" lon="5.68207">
        <ele>233</ele>
        <time>2018-06-10T18:36:00Z</time>
      </trkpt>
      <trkpt lat="45.68515" lon="5.6821">
        <ele>233</ele>
        <time>2018-06-10T18:36:00Z</time>
      </trkpt>
      <trkpt lat="45.6851" lon="5.68215">
        <ele>233</ele>
        <time>2018-06-10T18:36:00Z</time>
      </trkpt>
      <trkpt lat="45.68506" lon="5.6822">
        <ele>233</ele>
        <time>2018-06-10T18:36:00Z</time>
      </trkpt>
      <trkpt lat="45.68502" lon="5.68226">
        <ele>233</ele>
        <time>2018-06-10T18:36:16Z</time>
      </trkpt>
      <trkpt lat="45.68499" lon="5.68231">
        <ele>233</ele>
        <time>2018-06-10T18:36:16Z</time>
      </trkpt>
      <trkpt lat="45.68494" lon="5.68237">
        <ele>233</ele>
        <time>2018-06-10T18:36:16Z</time>
      </trkpt>
      <trkpt lat="45.6849" lon="5.68244">
        <ele>233</ele>
        <time>2018-06-10T18:36:16Z</time>
      </trkpt>
      <trkpt lat="45.68485" lon="5.6825">
        <ele>233</ele>
        <time>2018-06-10T18:36:32Z</time>
      </trkpt>
      <trkpt lat="45.68482" lon="5.68255">
        <ele>233</ele>
        <time>2018-06-10T18:36:32Z</time>
      </trkpt>
      <trkpt lat="45.68477" lon="5.68259">
        <ele>233</ele>
        <time>2018-06-10T18:36:32Z</time>
      </trkpt>
      <trkpt lat="45.68472" lon="5.68265">
        <ele>233</ele>
        <time>2018-06-10T18:36:32Z</time>
      </trkpt>
      <trkpt lat="45.68466" lon="5.68271">
        <ele>233</ele>
        <time>2018-06-10T18:36:48Z</time>
      </trkpt>
      <trkpt lat="45.68462" lon="5.68276">
        <ele>233</ele>
        <time>2018-06-10T18:36:48Z</time>
      </trkpt>
      <trkpt lat="45.68458" lon="5.6828">
        <ele>233</ele>
        <time>2018-06-10T18:36:48Z</time>
      </trkpt>
      <trkpt lat="45.68453" lon="5.68282">
        <ele>232</ele>
        <time>2018-06-10T18:36:48Z</time>
      </trkpt>
      <trkpt lat="45.68448" lon="5.68285">
        <ele>232</ele>
        <time>2018-06-10T18:37:04Z</time>
      </trkpt>
      <trkpt lat="45.68445" lon="5.68285">
        <ele>232</ele>
        <time>2018-06-10T18:37:04Z</time>
      </trkpt>
      <trkpt lat="45.68441" lon="5.68277">
        <ele>232</ele>
        <time>2018-06-10T18:37:04Z</time>
      </trkpt>
      <trkpt lat="45.68436" lon="5.6824">
        <ele>232</ele>
        <time>2018-06-10T18:37:04Z</time>
      </trkpt>
      <trkpt lat="45.6843" lon="5.68187">
        <ele>233</ele>
        <time>2018-06-10T18:37:20Z</time>
      </trkpt>
      <trkpt lat="45.68426" lon="5.68138">
        <ele>233</ele>
        <time>2018-06-10T18:37:20Z</time>
      </trkpt>
      <trkpt lat="45.68419" lon="5.68083">
        <ele>235</ele>
        <time>2018-06-10T18:37:20Z</time>
      </trkpt>
      <trkpt lat="45.68413" lon="5.68032">
        <ele>236</ele>
        <time>2018-06-10T18:37:20Z</time>
      </trkpt>
      <trkpt lat="45.68407" lon="5.67982">
        <ele>236</ele>
        <time>2018-06-10T18:37:36Z</time>
      </trkpt>
      <trkpt lat="45.68401" lon="5.67938">
        <ele>238</ele>
        <time>2018-06-10T18:37:36Z</time>
      </trkpt>
      <trkpt lat="45.684" lon="5.67905">
        <ele>238</ele>
        <time>2018-06-10T18:37:36Z</time>
      </trkpt>
      <trkpt lat="45.68396" lon="5.67888">
        <ele>238</ele>
        <time>2018-06-10T18:37:36Z</time>
      </trkpt>
      <trkpt lat="45.68395" lon="5.67879">
        <ele>238</ele>
        <time>2018-06-10T18:37:52Z</time>
      </trkpt>
      <trkpt lat="45.68393" lon="5.6787">
        <ele>240</ele>
        <time>2018-06-10T18:37:52Z</time>
      </trkpt>
      <trkpt lat="45.68391" lon="5.6786">
        <ele>240</ele>
        <time>2018-06-10T18:37:52Z</time>
      </trkpt>
      <trkpt lat="45.6839" lon="5.67852">
        <ele>240</ele>
        <time>2018-06-10T18:37:52Z</time>
      </trkpt>
      <trkpt lat="45.6839" lon="5.67843">
        <ele>240</ele>
        <time>2018-06-10T18:38:08Z</time>
      </trkpt>
      <trkpt lat="45.68389" lon="5.67834">
        <ele>240</ele>
        <time>2018-06-10T18:38:08Z</time>
      </trkpt>
      <trkpt lat="45.68388" lon="5.67827">
        <ele>240</ele>
        <time>2018-06-10T18:38:08Z</time>
      </trkpt>
      <trkpt lat="45.68387" lon="5.67813">
        <ele>240</ele>
        <time>2018-06-10T18:38:08Z</time>
      </trkpt>
      <trkpt lat="45.68385" lon="5.67803">
        <ele>240</ele>
        <time>2018-06-10T18:38:24Z</time>
      </trkpt>
      <trkpt lat="45.68384" lon="5.67793">
        <ele>240</ele>
        <time>2018-06-10T18:38:24Z</time>
      </trkpt>
      <trkpt lat="45.68383" lon="5.67784">
        <ele>242</ele>
        <time>2018-06-10T18:38:24Z</time>
      </trkpt>
      <trkpt lat="45.68383" lon="5.67779">
        <ele>242</ele>
        <time>2018-06-10T18:38:24Z</time>
      </trkpt>
      <trkpt lat="45.68381" lon="5.67767">
        <ele>242</ele>
        <time>2018-06-10T18:38:40Z</time>
      </trkpt>
      <trkpt lat="45.68379" lon="5.67759">
        <ele>242</ele>
        <time>2018-06-10T18:38:40Z</time>
      </trkpt>
      <trkpt lat="45.68376" lon="5.67751">
        <ele>242</ele>
        <time>2018-06-10T18:38:40Z</time>
      </trkpt>
      <trkpt lat="45.68372" lon="5.67741">
        <ele>243</ele>
        <time>2018-06-10T18:38:40Z</time>
      </trkpt>
      <trkpt lat="45.68369" lon="5.67736">
        <ele>243</ele>
        <time>2018-06-10T18:38:56Z</time>
      </trkpt>
      <trkpt lat="45.68361" lon="5.67734">
        <ele>243</ele>
        <time>2018-06-10T18:38:56Z</time>
      </trkpt>
      <trkpt lat="45.68356" lon="5.67735">
        <ele>243</ele>
        <time>2018-06-10T18:38:56Z</time>
      </trkpt>
      <trkpt lat="45.6835" lon="5.67736">
        <ele>243</ele>
        <time>2018-06-10T18:38:56Z</time>
      </trkpt>
      <trkpt lat="45.68345" lon="5.67736">
        <ele>243</ele>
        <time>2018-06-10T18:39:12Z</time>
      </trkpt>
      <trkpt lat="45.68339" lon="5.67734">
        <ele>243</ele>
        <time>2018-06-10T18:39:12Z</time>
      </trkpt>
      <trkpt lat="45.68333" lon="5.67734">
        <ele>243</ele>
        <time>2018-06-10T18:39:12Z</time>
      </trkpt>
      <trkpt lat="45.68328" lon="5.67735">
        <ele>243</ele>
        <time>2018-06-10T18:39:12Z</time>
      </trkpt>
      <trkpt lat="45.68321" lon="5.67736">
        <ele>243</ele>
        <time>2018-06-10T18:39:32Z</time>
      </trkpt>
      <trkpt lat="45.68319" lon="5.67737">
        <ele>243</ele>
        <time>2018-06-10T18:39:32Z</time>
      </trkpt>
      <trkpt lat="45.68318" lon="5.67736">
        <ele>243</ele>
        <time>2018-06-10T18:39:32Z</time>
      </trkpt>
      <trkpt lat="45.68314" lon="5.67735">
        <ele>243</ele>
        <time>2018-06-10T18:39:32Z</time>
      </trkpt>
      <trkpt lat="45.68309" lon="5.67735">
        <ele>243</ele>
        <time>2018-06-10T18:39:32Z</time>
      </trkpt>
      <trkpt lat="45.68304" lon="5.67738">
        <ele>243</ele>
        <time>2018-06-10T18:39:48Z</time>
      </trkpt>
      <trkpt lat="45.68299" lon="5.67739">
        <ele>243</ele>
        <time>2018-06-10T18:39:48Z</time>
      </trkpt>
      <trkpt lat="45.68293" lon="5.67739">
        <ele>243</ele>
        <time>2018-06-10T18:39:48Z</time>
      </trkpt>
      <trkpt lat="45.68287" lon="5.6774">
        <ele>242</ele>
        <time>2018-06-10T18:39:48Z</time>
      </trkpt>
      <trkpt lat="45.68283" lon="5.67742">
        <ele>242</ele>
        <time>2018-06-10T18:40:04Z</time>
      </trkpt>
      <trkpt lat="45.68277" lon="5.67743">
        <ele>242</ele>
        <time>2018-06-10T18:40:04Z</time>
      </trkpt>
      <trkpt lat="45.68272" lon="5.67744">
        <ele>242</ele>
        <time>2018-06-10T18:40:04Z</time>
      </trkpt>
      <trkpt lat="45.68269" lon="5.67744">
        <ele>242</ele>
        <time>2018-06-10T18:40:04Z</time>
      </trkpt>
      <trkpt lat="45.68264" lon="5.67744">
        <ele>242</ele>
        <time>2018-06-10T18:40:20Z</time>
      </trkpt>
      <trkpt lat="45.6826" lon="5.67744">
        <ele>242</ele>
        <time>2018-06-10T18:40:20Z</time>
      </trkpt>
      <trkpt lat="45.68254" lon="5.67744">
        <ele>242</ele>
        <time>2018-06-10T18:40:20Z</time>
      </trkpt>
      <trkpt lat="45.68248" lon="5.67745">
        <ele>242</ele>
        <time>2018-06-10T18:40:20Z</time>
      </trkpt>
      <trkpt lat="45.68243" lon="5.67744">
        <ele>242</ele>
        <time>2018-06-10T18:40:36Z</time>
      </trkpt>
      <trkpt lat="45.68238" lon="5.67744">
        <ele>242</ele>
        <time>2018-06-10T18:40:36Z</time>
      </trkpt>
      <trkpt lat="45.68232" lon="5.67743">
        <ele>242</ele>
        <time>2018-06-10T18:40:36Z</time>
      </trkpt>
      <trkpt lat="45.68227" lon="5.67744">
        <ele>242</ele>
        <time>2018-06-10T18:40:36Z</time>
      </trkpt>
      <trkpt lat="45.68221" lon="5.67744">
        <ele>242</ele>
        <time>2018-06-10T18:40:52Z</time>
      </trkpt>
      <trkpt lat="45.68215" lon="5.67744">
        <ele>242</ele>
        <time>2018-06-10T18:40:52Z</time>
      </trkpt>
      <trkpt lat="45.68209" lon="5.67743">
        <ele>242</ele>
        <time>2018-06-10T18:40:52Z</time>
      </trkpt>
      <trkpt lat="45.68203" lon="5.67743">
        <ele>241</ele>
        <time>2018-06-10T18:40:52Z</time>
      </trkpt>
      <trkpt lat="45.68198" lon="5.67744">
        <ele>241</ele>
        <time>2018-06-10T18:41:08Z</time>
      </trkpt>
      <trkpt lat="45.68192" lon="5.67746">
        <ele>241</ele>
        <time>2018-06-10T18:41:08Z</time>
      </trkpt>
      <trkpt lat="45.68187" lon="5.67748">
        <ele>241</ele>
        <time>2018-06-10T18:41:08Z</time>
      </trkpt>
      <trkpt lat="45.68184" lon="5.67754">
        <ele>241</ele>
        <time>2018-06-10T18:41:08Z</time>
      </trkpt>
      <trkpt lat="45.68181" lon="5.67762">
        <ele>241</ele>
        <time>2018-06-10T18:41:24Z</time>
      </trkpt>
      <trkpt lat="45.68178" lon="5.67769">
        <ele>241</ele>
        <time>2018-06-10T18:41:24Z</time>
      </trkpt>
      <trkpt lat="45.68175" lon="5.67774">
        <ele>241</ele>
        <time>2018-06-10T18:41:24Z</time>
      </trkpt>
      <trkpt lat="45.68172" lon="5.6778">
        <ele>241</ele>
        <time>2018-06-10T18:41:24Z</time>
      </trkpt>
      <trkpt lat="45.68168" lon="5.67786">
        <ele>241</ele>
        <time>2018-06-10T18:41:40Z</time>
      </trkpt>
      <trkpt lat="45.68164" lon="5.67791">
        <ele>241</ele>
        <time>2018-06-10T18:41:40Z</time>
      </trkpt>
      <trkpt lat="45.6816" lon="5.67795">
        <ele>243</ele>
        <time>2018-06-10T18:41:40Z</time>
      </trkpt>
      <trkpt lat="45.68155" lon="5.67798">
        <ele>243</ele>
        <time>2018-06-10T18:41:40Z</time>
      </trkpt>
      <trkpt lat="45.68151" lon="5.67801">
        <ele>243</ele>
        <time>2018-06-10T18:41:56Z</time>
      </trkpt>
      <trkpt lat="45.68144" lon="5.67808">
        <ele>243</ele>
        <time>2018-06-10T18:41:56Z</time>
      </trkpt>
      <trkpt lat="45.68138" lon="5.67814">
        <ele>243</ele>
        <time>2018-06-10T18:41:56Z</time>
      </trkpt>
      <trkpt lat="45.68132" lon="5.67818">
        <ele>243</ele>
        <time>2018-06-10T18:41:56Z</time>
      </trkpt>
      <trkpt lat="45.68126" lon="5.67821">
        <ele>243</ele>
        <time>2018-06-10T18:42:12Z</time>
      </trkpt>
      <trkpt lat="45.68121" lon="5.67823">
        <ele>238</ele>
        <time>2018-06-10T18:42:12Z</time>
      </trkpt>
      <trkpt lat="45.68118" lon="5.67824">
        <ele>238</ele>
        <time>2018-06-10T18:42:12Z</time>
      </trkpt>
      <trkpt lat="45.68112" lon="5.67831">
        <ele>238</ele>
        <time>2018-06-10T18:42:12Z</time>
      </trkpt>
      <trkpt lat="45.68107" lon="5.67836">
        <ele>238</ele>
        <time>2018-06-10T18:42:28Z</time>
      </trkpt>
      <trkpt lat="45.68103" lon="5.67838">
        <ele>238</ele>
        <time>2018-06-10T18:42:28Z</time>
      </trkpt>
      <trkpt lat="45.681" lon="5.6784">
        <ele>238</ele>
        <time>2018-06-10T18:42:28Z</time>
      </trkpt>
      <trkpt lat="45.68093" lon="5.67842">
        <ele>238</ele>
        <time>2018-06-10T18:42:28Z</time>
      </trkpt>
      <trkpt lat="45.68088" lon="5.67845">
        <ele>238</ele>
        <time>2018-06-10T18:42:44Z</time>
      </trkpt>
      <trkpt lat="45.68083" lon="5.6785">
        <ele>238</ele>
        <time>2018-06-10T18:42:44Z</time>
      </trkpt>
      <trkpt lat="45.68077" lon="5.67854">
        <ele>238</ele>
        <time>2018-06-10T18:42:44Z</time>
      </trkpt>
      <trkpt lat="45.68072" lon="5.67858">
        <ele>238</ele>
        <time>2018-06-10T18:42:44Z</time>
      </trkpt>
      <trkpt lat="45.68066" lon="5.67863">
        <ele>238</ele>
        <time>2018-06-10T18:43:00Z</time>
      </trkpt>
      <trkpt lat="45.68061" lon="5.67867">
        <ele>238</ele>
        <time>2018-06-10T18:43:00Z</time>
      </trkpt>
      <trkpt lat="45.68056" lon="5.67872">
        <ele>238</ele>
        <time>2018-06-10T18:43:00Z</time>
      </trkpt>
      <trkpt lat="45.68051" lon="5.67877">
        <ele>240</ele>
        <time>2018-06-10T18:43:00Z</time>
      </trkpt>
      <trkpt lat="45.68046" lon="5.6788">
        <ele>240</ele>
        <time>2018-06-10T18:43:16Z</time>
      </trkpt>
      <trkpt lat="45.68042" lon="5.67885">
        <ele>235</ele>
        <time>2018-06-10T18:43:16Z</time>
      </trkpt>
      <trkpt lat="45.68036" lon="5.67887">
        <ele>235</ele>
        <time>2018-06-10T18:43:16Z</time>
      </trkpt>
      <trkpt lat="45.68031" lon="5.67891">
        <ele>235</ele>
        <time>2018-06-10T18:43:16Z</time>
      </trkpt>
      <trkpt lat="45.68027" lon="5.67894">
        <ele>235</ele>
        <time>2018-06-10T18:43:32Z</time>
      </trkpt>
      <trkpt lat="45.68021" lon="5.67897">
        <ele>235</ele>
        <time>2018-06-10T18:43:32Z</time>
      </trkpt>
      <trkpt lat="45.68019" lon="5.67899">
        <ele>235</ele>
        <time>2018-06-10T18:43:32Z</time>
      </trkpt>
      <trkpt lat="45.68017" lon="5.67902">
        <ele>235</ele>
        <time>2018-06-10T18:43:32Z</time>
      </trkpt>
      <trkpt lat="45.68013" lon="5.67905">
        <ele>235</ele>
        <time>2018-06-10T18:43:48Z</time>
      </trkpt>
      <trkpt lat="45.68006" lon="5.67908">
        <ele>235</ele>
        <time>2018-06-10T18:43:48Z</time>
      </trkpt>
      <trkpt lat="45.67999" lon="5.67914">
        <ele>235</ele>
        <time>2018-06-10T18:43:48Z</time>
      </trkpt>
      <trkpt lat="45.67996" lon="5.67915">
        <ele>235</ele>
        <time>2018-06-10T18:43:48Z</time>
      </trkpt>
      <trkpt lat="45.67988" lon="5.67924">
        <ele>235</ele>
        <time>2018-06-10T18:44:04Z</time>
      </trkpt>
      <trkpt lat="45.67984" lon="5.67929">
        <ele>235</ele>
        <time>2018-06-10T18:44:04Z</time>
      </trkpt>
      <trkpt lat="45.67979" lon="5.67932">
        <ele>235</ele>
        <time>2018-06-10T18:44:04Z</time>
      </trkpt>
      <trkpt lat="45.67974" lon="5.67936">
        <ele>235</ele>
        <time>2018-06-10T18:44:04Z</time>
      </trkpt>
      <trkpt lat="45.67969" lon="5.67938">
        <ele>235</ele>
        <time>2018-06-10T18:44:20Z</time>
      </trkpt>
      <trkpt lat="45.67966" lon="5.67941">
        <ele>235</ele>
        <time>2018-06-10T18:44:20Z</time>
      </trkpt>
      <trkpt lat="45.67963" lon="5.67943">
        <ele>235</ele>
        <time>2018-06-10T18:44:20Z</time>
      </trkpt>
      <trkpt lat="45.6796" lon="5.67948">
        <ele>235</ele>
        <time>2018-06-10T18:44:20Z</time>
      </trkpt>
      <trkpt lat="45.67954" lon="5.67951">
        <ele>231</ele>
        <time>2018-06-10T18:44:36Z</time>
      </trkpt>
      <trkpt lat="45.67949" lon="5.67952">
        <ele>231</ele>
        <time>2018-06-10T18:44:36Z</time>
      </trkpt>
      <trkpt lat="45.67944" lon="5.67957">
        <ele>231</ele>
        <time>2018-06-10T18:44:36Z</time>
      </trkpt>
      <trkpt lat="45.67938" lon="5.67962">
        <ele>230</ele>
        <time>2018-06-10T18:44:36Z</time>
      </trkpt>
      <trkpt lat="45.67932" lon="5.67969">
        <ele>230</ele>
        <time>2018-06-10T18:44:52Z</time>
      </trkpt>
      <trkpt lat="45.67928" lon="5.67973">
        <ele>230</ele>
        <time>2018-06-10T18:44:52Z</time>
      </trkpt>
      <trkpt lat="45.67922" lon="5.67979">
        <ele>230</ele>
        <time>2018-06-10T18:44:52Z</time>
      </trkpt>
      <trkpt lat="45.67916" lon="5.67984">
        <ele>230</ele>
        <time>2018-06-10T18:44:52Z</time>
      </trkpt>
      <trkpt lat="45.6791" lon="5.67988">
        <ele>230</ele>
        <time>2018-06-10T18:45:08Z</time>
      </trkpt>
      <trkpt lat="45.67905" lon="5.67992">
        <ele>230</ele>
        <time>2018-06-10T18:45:08Z</time>
      </trkpt>
      <trkpt lat="45.679" lon="5.67999">
        <ele>230</ele>
        <time>2018-06-10T18:45:08Z</time>
      </trkpt>
      <trkpt lat="45.67897" lon="5.68004">
        <ele>230</ele>
        <time>2018-06-10T18:45:08Z</time>
      </trkpt>
      <trkpt lat="45.67891" lon="5.68008">
        <ele>230</ele>
        <time>2018-06-10T18:45:24Z</time>
      </trkpt>
      <trkpt lat="45.67887" lon="5.68012">
        <ele>230</ele>
        <time>2018-06-10T18:45:24Z</time>
      </trkpt>
      <trkpt lat="45.67884" lon="5.68017">
        <ele>230</ele>
        <time>2018-06-10T18:45:24Z</time>
      </trkpt>
      <trkpt lat="45.6788" lon="5.68023">
        <ele>230</ele>
        <time>2018-06-10T18:45:24Z</time>
      </trkpt>
      <trkpt lat="45.67873" lon="5.68025">
        <ele>227</ele>
        <time>2018-06-10T18:46:32Z</time>
      </trkpt>
      <trkpt lat="45.6787" lon="5.68026">
        <ele>227</ele>
        <time>2018-06-10T18:46:32Z</time>
      </trkpt>
      <trkpt lat="45.6787" lon="5.68027">
        <ele>227</ele>
        <time>2018-06-10T18:46:32Z</time>
      </trkpt>
      <trkpt lat="45.67868" lon="5.68028">
        <ele>227</ele>
        <time>2018-06-10T18:46:32Z</time>
      </trkpt>
      <trkpt lat="45.67868" lon="5.68029">
        <ele>227</ele>
        <time>2018-06-10T18:46:32Z</time>
      </trkpt>
      <trkpt lat="45.67868" lon="5.68031">
        <ele>227</ele>
        <time>2018-06-10T18:46:56Z</time>
      </trkpt>
      <trkpt lat="45.67868" lon="5.6803">
        <ele>227</ele>
        <time>2018-06-10T18:46:56Z</time>
      </trkpt>
      <trkpt lat="45.67866" lon="5.68033">
        <ele>227</ele>
        <time>2018-06-10T18:46:56Z</time>
      </trkpt>
      <trkpt lat="45.67861" lon="5.68038">
        <ele>227</ele>
        <time>2018-06-10T18:46:56Z</time>
      </trkpt>
      <trkpt lat="45.67856" lon="5.68042">
        <ele>224</ele>
        <time>2018-06-10T18:46:56Z</time>
      </trkpt>
      <trkpt lat="45.67851" lon="5.68041">
        <ele>227</ele>
        <time>2018-06-10T18:47:12Z</time>
      </trkpt>
      <trkpt lat="45.67848" lon="5.68039">
        <ele>227</ele>
        <time>2018-06-10T18:47:12Z</time>
      </trkpt>
      <trkpt lat="45.67845" lon="5.68031">
        <ele>227</ele>
        <time>2018-06-10T18:47:12Z</time>
      </trkpt>
      <trkpt lat="45.67841" lon="5.68023">
        <ele>227</ele>
        <time>2018-06-10T18:47:12Z</time>
      </trkpt>
      <trkpt lat="45.67838" lon="5.68017">
        <ele>227</ele>
        <time>2018-06-10T18:47:28Z</time>
      </trkpt>
      <trkpt lat="45.67835" lon="5.68011">
        <ele>227</ele>
        <time>2018-06-10T18:47:28Z</time>
      </trkpt>
      <trkpt lat="45.67832" lon="5.68005">
        <ele>227</ele>
        <time>2018-06-10T18:47:28Z</time>
      </trkpt>
      <trkpt lat="45.67827" lon="5.67998">
        <ele>227</ele>
        <time>2018-06-10T18:47:28Z</time>
      </trkpt>
      <trkpt lat="45.67823" lon="5.67991">
        <ele>227</ele>
        <time>2018-06-10T18:47:44Z</time>
      </trkpt>
      <trkpt lat="45.67819" lon="5.67987">
        <ele>227</ele>
        <time>2018-06-10T18:47:44Z</time>
      </trkpt>
      <trkpt lat="45.67814" lon="5.67981">
        <ele>227</ele>
        <time>2018-06-10T18:47:44Z</time>
      </trkpt>
      <trkpt lat="45.67808" lon="5.67976">
        <ele>227</ele>
        <time>2018-06-10T18:47:44Z</time>
      </trkpt>
      <trkpt lat="45.67803" lon="5.6797">
        <ele>227</ele>
        <time>2018-06-10T18:48:00Z</time>
      </trkpt>
      <trkpt lat="45.67799" lon="5.67965">
        <ele>227</ele>
        <time>2018-06-10T18:48:00Z</time>
      </trkpt>
      <trkpt lat="45.67796" lon="5.6796">
        <ele>227</ele>
        <time>2018-06-10T18:48:00Z</time>
      </trkpt>
      <trkpt lat="45.67794" lon="5.67957">
        <ele>229</ele>
        <time>2018-06-10T18:48:00Z</time>
      </trkpt>
      <trkpt lat="45.67789" lon="5.67952">
        <ele>228</ele>
        <time>2018-06-10T18:48:16Z</time>
      </trkpt>
      <trkpt lat="45.67783" lon="5.67951">
        <ele>228</ele>
        <time>2018-06-10T18:48:16Z</time>
      </trkpt>
      <trkpt lat="45.67779" lon="5.6795">
        <ele>228</ele>
        <time>2018-06-10T18:48:16Z</time>
      </trkpt>
      <trkpt lat="45.67777" lon="5.67947">
        <ele>228</ele>
        <time>2018-06-10T18:48:16Z</time>
      </trkpt>
      <trkpt lat="45.67774" lon="5.67942">
        <ele>228</ele>
        <time>2018-06-10T18:48:32Z</time>
      </trkpt>
      <trkpt lat="45.67768" lon="5.67938">
        <ele>228</ele>
        <time>2018-06-10T18:48:32Z</time>
      </trkpt>
      <trkpt lat="45.67763" lon="5.67933">
        <ele>228</ele>
        <time>2018-06-10T18:48:32Z</time>
      </trkpt>
      <trkpt lat="45.67758" lon="5.6793">
        <ele>228</ele>
        <time>2018-06-10T18:48:32Z</time>
      </trkpt>
      <trkpt lat="45.67753" lon="5.67932">
        <ele>228</ele>
        <time>2018-06-10T18:48:48Z</time>
      </trkpt>
      <trkpt lat="45.67748" lon="5.67932">
        <ele>228</ele>
        <time>2018-06-10T18:48:48Z</time>
      </trkpt>
      <trkpt lat="45.67747" lon="5.67935">
        <ele>228</ele>
        <time>2018-06-10T18:48:48Z</time>
      </trkpt>
      <trkpt lat="45.6774" lon="5.67938">
        <ele>228</ele>
        <time>2018-06-10T18:48:48Z</time>
      </trkpt>
      <trkpt lat="45.67734" lon="5.67938">
        <ele>228</ele>
        <time>2018-06-10T18:49:04Z</time>
      </trkpt>
      <trkpt lat="45.6773" lon="5.67939">
        <ele>228</ele>
        <time>2018-06-10T18:49:04Z</time>
      </trkpt>
      <trkpt lat="45.67725" lon="5.67944">
        <ele>228</ele>
        <time>2018-06-10T18:49:04Z</time>
      </trkpt>
      <trkpt lat="45.67724" lon="5.6795">
        <ele>228</ele>
        <time>2018-06-10T18:49:04Z</time>
      </trkpt>
      <trkpt lat="45.67723" lon="5.67956">
        <ele>228</ele>
        <time>2018-06-10T18:49:20Z</time>
      </trkpt>
      <trkpt lat="45.67722" lon="5.67961">
        <ele>224</ele>
        <time>2018-06-10T18:49:20Z</time>
      </trkpt>
      <trkpt lat="45.67718" lon="5.67965">
        <ele>224</ele>
        <time>2018-06-10T18:49:20Z</time>
      </trkpt>
      <trkpt lat="45.67713" lon="5.67967">
        <ele>224</ele>
        <time>2018-06-10T18:49:20Z</time>
      </trkpt>
      <trkpt lat="45.6771" lon="5.67968">
        <ele>224</ele>
        <time>2018-06-10T18:49:36Z</time>
      </trkpt>
      <trkpt lat="45.67704" lon="5.67967">
        <ele>223</ele>
        <time>2018-06-10T18:49:36Z</time>
      </trkpt>
      <trkpt lat="45.67696" lon="5.67964">
        <ele>223</ele>
        <time>2018-06-10T18:49:36Z</time>
      </trkpt>
      <trkpt lat="45.67689" lon="5.6796">
        <ele>223</ele>
        <time>2018-06-10T18:49:36Z</time>
      </trkpt>
      <trkpt lat="45.67683" lon="5.67955">
        <ele>227</ele>
        <time>2018-06-10T18:49:52Z</time>
      </trkpt>
      <trkpt lat="45.67676" lon="5.67949">
        <ele>227</ele>
        <time>2018-06-10T18:49:52Z</time>
      </trkpt>
      <trkpt lat="45.67674" lon="5.67949">
        <ele>227</ele>
        <time>2018-06-10T18:49:52Z</time>
      </trkpt>
      <trkpt lat="45.67669" lon="5.67949">
        <ele>227</ele>
        <time>2018-06-10T18:49:52Z</time>
      </trkpt>
      <trkpt lat="45.67666" lon="5.67949">
        <ele>227</ele>
        <time>2018-06-10T18:50:08Z</time>
      </trkpt>
      <trkpt lat="45.6766" lon="5.67946">
        <ele>227</ele>
        <time>2018-06-10T18:50:08Z</time>
      </trkpt>
      <trkpt lat="45.67652" lon="5.67941">
        <ele>227</ele>
        <time>2018-06-10T18:50:08Z</time>
      </trkpt>
      <trkpt lat="45.67647" lon="5.67937">
        <ele>227</ele>
        <time>2018-06-10T18:50:08Z</time>
      </trkpt>
      <trkpt lat="45.67631" lon="5.67932">
        <ele>227</ele>
        <time>2018-06-10T18:50:40Z</time>
      </trkpt>
      <trkpt lat="45.6763" lon="5.67933">
        <ele>227</ele>
        <time>2018-06-10T18:50:40Z</time>
      </trkpt>
      <trkpt lat="45.67627" lon="5.67936">
        <ele>227</ele>
        <time>2018-06-10T18:50:40Z</time>
      </trkpt>
      <trkpt lat="45.67622" lon="5.67937">
        <ele>227</ele>
        <time>2018-06-10T18:50:40Z</time>
      </trkpt>
      <trkpt lat="45.67621" lon="5.67938">
        <ele>227</ele>
        <time>2018-06-10T18:50:40Z</time>
      </trkpt>
    </trkseg>
  </trk>
</gpx>